<?xml version="1.0" encoding="UTF-8" standalone="no" ?>
<gpx xmlns="http://www.topografix.com/GPX/1/1" xmlns:xsi="http://www.w3.org/2001/XMLSchema-instance" xsi:schemaLocation="http://www.topografix.com/GPX/1/1 http://www.topografix.com/GPX/1/1/gpx.xsd" version="1.1" creator="VisuGPX - https://www.visugpx.com">
  <metadata>
    <name>Ballade coudray salbart</name>
    <desc><![CDATA[Ballade coudray salbart]]></desc>
  </metadata>
  <trk>
    <name><![CDATA[Entraînement libre]]></name>
    <trkseg>
      <trkpt lat="46.40656" lon="-0.42662">
        <ele>30.3772</ele>
        <time>2011-02-27T13:02:19Z</time>
      </trkpt>
      <trkpt lat="46.40656" lon="-0.42663">
        <ele>30.2315</ele>
        <time>2011-02-27T13:02:20Z</time>
      </trkpt>
      <trkpt lat="46.40656" lon="-0.42664">
        <ele>30.0906</ele>
        <time>2011-02-27T13:02:21Z</time>
      </trkpt>
      <trkpt lat="46.40656" lon="-0.42666">
        <ele>29.954</ele>
        <time>2011-02-27T13:02:22Z</time>
      </trkpt>
      <trkpt lat="46.40656" lon="-0.42667">
        <ele>29.8202</ele>
        <time>2011-02-27T13:02:23Z</time>
      </trkpt>
      <trkpt lat="46.40655" lon="-0.42668">
        <ele>29.6892</ele>
        <time>2011-02-27T13:02:24Z</time>
      </trkpt>
      <trkpt lat="46.40655" lon="-0.4267">
        <ele>29.5606</ele>
        <time>2011-02-27T13:02:25Z</time>
      </trkpt>
      <trkpt lat="46.40655" lon="-0.42671">
        <ele>29.4383</ele>
        <time>2011-02-27T13:02:26Z</time>
      </trkpt>
      <trkpt lat="46.40655" lon="-0.42673">
        <ele>29.3219</ele>
        <time>2011-02-27T13:02:27Z</time>
      </trkpt>
      <trkpt lat="46.40655" lon="-0.42674">
        <ele>29.208</ele>
        <time>2011-02-27T13:02:28Z</time>
      </trkpt>
      <trkpt lat="46.40655" lon="-0.42676">
        <ele>29.0957</ele>
        <time>2011-02-27T13:02:29Z</time>
      </trkpt>
      <trkpt lat="46.40655" lon="-0.42677">
        <ele>28.9866</ele>
        <time>2011-02-27T13:02:30Z</time>
      </trkpt>
      <trkpt lat="46.40655" lon="-0.42678">
        <ele>28.8816</ele>
        <time>2011-02-27T13:02:31Z</time>
      </trkpt>
      <trkpt lat="46.40656" lon="-0.4268">
        <ele>28.7797</ele>
        <time>2011-02-27T13:02:32Z</time>
      </trkpt>
      <trkpt lat="46.40656" lon="-0.42681">
        <ele>28.6844</ele>
        <time>2011-02-27T13:02:33Z</time>
      </trkpt>
      <trkpt lat="46.40656" lon="-0.42683">
        <ele>28.5911</ele>
        <time>2011-02-27T13:02:34Z</time>
      </trkpt>
      <trkpt lat="46.40656" lon="-0.42685">
        <ele>28.4963</ele>
        <time>2011-02-27T13:02:35Z</time>
      </trkpt>
      <trkpt lat="46.40655" lon="-0.42686">
        <ele>28.4028</ele>
        <time>2011-02-27T13:02:36Z</time>
      </trkpt>
      <trkpt lat="46.40655" lon="-0.42688">
        <ele>28.3111</ele>
        <time>2011-02-27T13:02:37Z</time>
      </trkpt>
      <trkpt lat="46.40656" lon="-0.42689">
        <ele>28.2204</ele>
        <time>2011-02-27T13:02:38Z</time>
      </trkpt>
      <trkpt lat="46.40656" lon="-0.42691">
        <ele>28.1318</ele>
        <time>2011-02-27T13:02:39Z</time>
      </trkpt>
      <trkpt lat="46.40656" lon="-0.42693">
        <ele>28.044</ele>
        <time>2011-02-27T13:02:40Z</time>
      </trkpt>
      <trkpt lat="46.40656" lon="-0.42694">
        <ele>27.9569</ele>
        <time>2011-02-27T13:02:41Z</time>
      </trkpt>
      <trkpt lat="46.40656" lon="-0.42695">
        <ele>27.8709</ele>
        <time>2011-02-27T13:02:42Z</time>
      </trkpt>
      <trkpt lat="46.40656" lon="-0.42697">
        <ele>27.7864</ele>
        <time>2011-02-27T13:02:43Z</time>
      </trkpt>
      <trkpt lat="46.40655" lon="-0.42698">
        <ele>27.6982</ele>
        <time>2011-02-27T13:02:44Z</time>
      </trkpt>
      <trkpt lat="46.40656" lon="-0.427">
        <ele>27.606</ele>
        <time>2011-02-27T13:02:45Z</time>
      </trkpt>
      <trkpt lat="46.40655" lon="-0.42701">
        <ele>27.513</ele>
        <time>2011-02-27T13:02:46Z</time>
      </trkpt>
      <trkpt lat="46.40655" lon="-0.42701">
        <ele>27.4238</ele>
        <time>2011-02-27T13:02:47Z</time>
      </trkpt>
      <trkpt lat="46.40655" lon="-0.42702">
        <ele>27.3378</ele>
        <time>2011-02-27T13:02:48Z</time>
      </trkpt>
      <trkpt lat="46.40655" lon="-0.42704">
        <ele>27.2538</ele>
        <time>2011-02-27T13:02:49Z</time>
      </trkpt>
      <trkpt lat="46.40655" lon="-0.42705">
        <ele>27.1738</ele>
        <time>2011-02-27T13:02:50Z</time>
      </trkpt>
      <trkpt lat="46.40654" lon="-0.42706">
        <ele>27.095</ele>
        <time>2011-02-27T13:02:51Z</time>
      </trkpt>
      <trkpt lat="46.40655" lon="-0.42708">
        <ele>27.0165</ele>
        <time>2011-02-27T13:02:52Z</time>
      </trkpt>
      <trkpt lat="46.40655" lon="-0.42709">
        <ele>26.9347</ele>
        <time>2011-02-27T13:02:53Z</time>
      </trkpt>
      <trkpt lat="46.40656" lon="-0.4271">
        <ele>26.8524</ele>
        <time>2011-02-27T13:02:54Z</time>
      </trkpt>
      <trkpt lat="46.40656" lon="-0.42711">
        <ele>26.7703</ele>
        <time>2011-02-27T13:02:55Z</time>
      </trkpt>
      <trkpt lat="46.40656" lon="-0.42712">
        <ele>26.6888</ele>
        <time>2011-02-27T13:02:56Z</time>
      </trkpt>
      <trkpt lat="46.40656" lon="-0.42713">
        <ele>26.6086</ele>
        <time>2011-02-27T13:02:57Z</time>
      </trkpt>
      <trkpt lat="46.40656" lon="-0.42714">
        <ele>26.5294</ele>
        <time>2011-02-27T13:02:58Z</time>
      </trkpt>
      <trkpt lat="46.40655" lon="-0.42716">
        <ele>26.4522</ele>
        <time>2011-02-27T13:02:59Z</time>
      </trkpt>
      <trkpt lat="46.40655" lon="-0.42717">
        <ele>26.3769</ele>
        <time>2011-02-27T13:03:00Z</time>
      </trkpt>
      <trkpt lat="46.40655" lon="-0.42719">
        <ele>26.301</ele>
        <time>2011-02-27T13:03:01Z</time>
      </trkpt>
      <trkpt lat="46.40655" lon="-0.42721">
        <ele>26.225</ele>
        <time>2011-02-27T13:03:02Z</time>
      </trkpt>
      <trkpt lat="46.40655" lon="-0.42722">
        <ele>26.1487</ele>
        <time>2011-02-27T13:03:03Z</time>
      </trkpt>
      <trkpt lat="46.40655" lon="-0.42723">
        <ele>26.0703</ele>
        <time>2011-02-27T13:03:04Z</time>
      </trkpt>
      <trkpt lat="46.40655" lon="-0.42725">
        <ele>25.9921</ele>
        <time>2011-02-27T13:03:05Z</time>
      </trkpt>
      <trkpt lat="46.40655" lon="-0.42726">
        <ele>25.915</ele>
        <time>2011-02-27T13:03:06Z</time>
      </trkpt>
      <trkpt lat="46.40655" lon="-0.42727">
        <ele>25.8383</ele>
        <time>2011-02-27T13:03:07Z</time>
      </trkpt>
      <trkpt lat="46.40656" lon="-0.42728">
        <ele>25.7634</ele>
        <time>2011-02-27T13:03:08Z</time>
      </trkpt>
      <trkpt lat="46.40656" lon="-0.42729">
        <ele>25.6913</ele>
        <time>2011-02-27T13:03:09Z</time>
      </trkpt>
      <trkpt lat="46.40656" lon="-0.4273">
        <ele>25.6213</ele>
        <time>2011-02-27T13:03:10Z</time>
      </trkpt>
      <trkpt lat="46.40657" lon="-0.42732">
        <ele>25.5573</ele>
        <time>2011-02-27T13:03:11Z</time>
      </trkpt>
      <trkpt lat="46.40657" lon="-0.42733">
        <ele>25.495</ele>
        <time>2011-02-27T13:03:12Z</time>
      </trkpt>
      <trkpt lat="46.40657" lon="-0.42736">
        <ele>25.4323</ele>
        <time>2011-02-27T13:03:13Z</time>
      </trkpt>
      <trkpt lat="46.40658" lon="-0.42738">
        <ele>25.3695</ele>
        <time>2011-02-27T13:03:14Z</time>
      </trkpt>
      <trkpt lat="46.40658" lon="-0.4274">
        <ele>25.308</ele>
        <time>2011-02-27T13:03:15Z</time>
      </trkpt>
      <trkpt lat="46.40659" lon="-0.42741">
        <ele>25.2516</ele>
        <time>2011-02-27T13:03:16Z</time>
      </trkpt>
      <trkpt lat="46.40659" lon="-0.42743">
        <ele>25.1985</ele>
        <time>2011-02-27T13:03:17Z</time>
      </trkpt>
      <trkpt lat="46.4066" lon="-0.42744">
        <ele>25.1494</ele>
        <time>2011-02-27T13:03:18Z</time>
      </trkpt>
      <trkpt lat="46.4066" lon="-0.42746">
        <ele>25.1073</ele>
        <time>2011-02-27T13:03:19Z</time>
      </trkpt>
      <trkpt lat="46.4066" lon="-0.42748">
        <ele>25.0764</ele>
        <time>2011-02-27T13:03:20Z</time>
      </trkpt>
      <trkpt lat="46.4066" lon="-0.42749">
        <ele>25.0556</ele>
        <time>2011-02-27T13:03:21Z</time>
      </trkpt>
      <trkpt lat="46.40659" lon="-0.42751">
        <ele>25.0407</ele>
        <time>2011-02-27T13:03:22Z</time>
      </trkpt>
      <trkpt lat="46.4066" lon="-0.42753">
        <ele>25.0255</ele>
        <time>2011-02-27T13:03:23Z</time>
      </trkpt>
      <trkpt lat="46.4066" lon="-0.42755">
        <ele>25.0105</ele>
        <time>2011-02-27T13:03:24Z</time>
      </trkpt>
      <trkpt lat="46.40661" lon="-0.42756">
        <ele>24.996</ele>
        <time>2011-02-27T13:03:25Z</time>
      </trkpt>
      <trkpt lat="46.40661" lon="-0.42758">
        <ele>24.9821</ele>
        <time>2011-02-27T13:03:26Z</time>
      </trkpt>
      <trkpt lat="46.40661" lon="-0.4276">
        <ele>24.9695</ele>
        <time>2011-02-27T13:03:27Z</time>
      </trkpt>
      <trkpt lat="46.40662" lon="-0.42761">
        <ele>24.9505</ele>
        <time>2011-02-27T13:03:28Z</time>
      </trkpt>
      <trkpt lat="46.40663" lon="-0.42762">
        <ele>24.9324</ele>
        <time>2011-02-27T13:03:29Z</time>
      </trkpt>
      <trkpt lat="46.40664" lon="-0.42764">
        <ele>24.9023</ele>
        <time>2011-02-27T13:03:30Z</time>
      </trkpt>
      <trkpt lat="46.40664" lon="-0.42766">
        <ele>24.8817</ele>
        <time>2011-02-27T13:03:31Z</time>
      </trkpt>
      <trkpt lat="46.40665" lon="-0.42769">
        <ele>24.8703</ele>
        <time>2011-02-27T13:03:32Z</time>
      </trkpt>
      <trkpt lat="46.40667" lon="-0.42771">
        <ele>24.859</ele>
        <time>2011-02-27T13:03:33Z</time>
      </trkpt>
      <trkpt lat="46.40668" lon="-0.42772">
        <ele>24.8501</ele>
        <time>2011-02-27T13:03:34Z</time>
      </trkpt>
      <trkpt lat="46.40669" lon="-0.42774">
        <ele>24.8455</ele>
        <time>2011-02-27T13:03:35Z</time>
      </trkpt>
      <trkpt lat="46.4067" lon="-0.42776">
        <ele>24.842</ele>
        <time>2011-02-27T13:03:36Z</time>
      </trkpt>
      <trkpt lat="46.40671" lon="-0.42777">
        <ele>24.8403</ele>
        <time>2011-02-27T13:03:37Z</time>
      </trkpt>
      <trkpt lat="46.40672" lon="-0.42777">
        <ele>24.8492</ele>
        <time>2011-02-27T13:03:38Z</time>
      </trkpt>
      <trkpt lat="46.40672" lon="-0.42778">
        <ele>24.8599</ele>
        <time>2011-02-27T13:03:39Z</time>
      </trkpt>
      <trkpt lat="46.40673" lon="-0.42779">
        <ele>24.8747</ele>
        <time>2011-02-27T13:03:40Z</time>
      </trkpt>
      <trkpt lat="46.40674" lon="-0.4278">
        <ele>24.8969</ele>
        <time>2011-02-27T13:03:41Z</time>
      </trkpt>
      <trkpt lat="46.40675" lon="-0.42782">
        <ele>24.923</ele>
        <time>2011-02-27T13:03:42Z</time>
      </trkpt>
      <trkpt lat="46.40676" lon="-0.42783">
        <ele>24.9543</ele>
        <time>2011-02-27T13:03:43Z</time>
      </trkpt>
      <trkpt lat="46.40677" lon="-0.42784">
        <ele>24.9926</ele>
        <time>2011-02-27T13:03:44Z</time>
      </trkpt>
      <trkpt lat="46.40678" lon="-0.42785">
        <ele>25.0364</ele>
        <time>2011-02-27T13:03:45Z</time>
      </trkpt>
      <trkpt lat="46.40678" lon="-0.42785">
        <ele>25.0835</ele>
        <time>2011-02-27T13:03:46Z</time>
      </trkpt>
      <trkpt lat="46.40679" lon="-0.42786">
        <ele>25.1289</ele>
        <time>2011-02-27T13:03:47Z</time>
      </trkpt>
      <trkpt lat="46.4068" lon="-0.42787">
        <ele>25.1732</ele>
        <time>2011-02-27T13:03:48Z</time>
      </trkpt>
      <trkpt lat="46.40681" lon="-0.42787">
        <ele>25.2126</ele>
        <time>2011-02-27T13:03:49Z</time>
      </trkpt>
      <trkpt lat="46.40682" lon="-0.42788">
        <ele>25.2513</ele>
        <time>2011-02-27T13:03:50Z</time>
      </trkpt>
      <trkpt lat="46.40683" lon="-0.42789">
        <ele>25.2876</ele>
        <time>2011-02-27T13:03:51Z</time>
      </trkpt>
      <trkpt lat="46.40684" lon="-0.4279">
        <ele>25.3229</ele>
        <time>2011-02-27T13:03:52Z</time>
      </trkpt>
      <trkpt lat="46.40685" lon="-0.42789">
        <ele>25.3441</ele>
        <time>2011-02-27T13:03:57Z</time>
      </trkpt>
      <trkpt lat="46.40686" lon="-0.42789">
        <ele>25.3342</ele>
        <time>2011-02-27T13:03:58Z</time>
      </trkpt>
      <trkpt lat="46.40687" lon="-0.4279">
        <ele>25.3093</ele>
        <time>2011-02-27T13:03:59Z</time>
      </trkpt>
      <trkpt lat="46.40689" lon="-0.42791">
        <ele>25.2861</ele>
        <time>2011-02-27T13:04:00Z</time>
      </trkpt>
      <trkpt lat="46.4069" lon="-0.42792">
        <ele>25.266</ele>
        <time>2011-02-27T13:04:01Z</time>
      </trkpt>
      <trkpt lat="46.40691" lon="-0.42793">
        <ele>25.2489</ele>
        <time>2011-02-27T13:04:02Z</time>
      </trkpt>
      <trkpt lat="46.40693" lon="-0.42793">
        <ele>25.2349</ele>
        <time>2011-02-27T13:04:03Z</time>
      </trkpt>
      <trkpt lat="46.40694" lon="-0.42794">
        <ele>25.223</ele>
        <time>2011-02-27T13:04:04Z</time>
      </trkpt>
      <trkpt lat="46.40695" lon="-0.42794">
        <ele>25.2132</ele>
        <time>2011-02-27T13:04:05Z</time>
      </trkpt>
      <trkpt lat="46.40696" lon="-0.42793">
        <ele>25.2037</ele>
        <time>2011-02-27T13:04:06Z</time>
      </trkpt>
      <trkpt lat="46.40697" lon="-0.42793">
        <ele>25.1973</ele>
        <time>2011-02-27T13:04:07Z</time>
      </trkpt>
      <trkpt lat="46.40698" lon="-0.42793">
        <ele>25.1902</ele>
        <time>2011-02-27T13:04:08Z</time>
      </trkpt>
      <trkpt lat="46.40699" lon="-0.42793">
        <ele>25.1857</ele>
        <time>2011-02-27T13:04:09Z</time>
      </trkpt>
      <trkpt lat="46.40701" lon="-0.42793">
        <ele>25.182</ele>
        <time>2011-02-27T13:04:10Z</time>
      </trkpt>
      <trkpt lat="46.40701" lon="-0.42794">
        <ele>25.1806</ele>
        <time>2011-02-27T13:04:11Z</time>
      </trkpt>
      <trkpt lat="46.40702" lon="-0.42794">
        <ele>25.1806</ele>
        <time>2011-02-27T13:04:12Z</time>
      </trkpt>
      <trkpt lat="46.40703" lon="-0.42794">
        <ele>25.1819</ele>
        <time>2011-02-27T13:04:13Z</time>
      </trkpt>
      <trkpt lat="46.40704" lon="-0.42794">
        <ele>25.1845</ele>
        <time>2011-02-27T13:04:14Z</time>
      </trkpt>
      <trkpt lat="46.40705" lon="-0.42794">
        <ele>25.1912</ele>
        <time>2011-02-27T13:04:15Z</time>
      </trkpt>
      <trkpt lat="46.40706" lon="-0.42793">
        <ele>25.1998</ele>
        <time>2011-02-27T13:04:16Z</time>
      </trkpt>
      <trkpt lat="46.40707" lon="-0.42793">
        <ele>25.209</ele>
        <time>2011-02-27T13:04:17Z</time>
      </trkpt>
      <trkpt lat="46.40707" lon="-0.428">
        <ele>25.2358</ele>
        <time>2011-02-27T13:04:33Z</time>
      </trkpt>
      <trkpt lat="46.40708" lon="-0.428">
        <ele>25.2688</ele>
        <time>2011-02-27T13:04:34Z</time>
      </trkpt>
      <trkpt lat="46.40709" lon="-0.428">
        <ele>25.3032</ele>
        <time>2011-02-27T13:04:35Z</time>
      </trkpt>
      <trkpt lat="46.4071" lon="-0.428">
        <ele>25.3257</ele>
        <time>2011-02-27T13:04:36Z</time>
      </trkpt>
      <trkpt lat="46.40711" lon="-0.428">
        <ele>25.363</ele>
        <time>2011-02-27T13:04:37Z</time>
      </trkpt>
      <trkpt lat="46.40712" lon="-0.42799">
        <ele>25.4299</ele>
        <time>2011-02-27T13:04:38Z</time>
      </trkpt>
      <trkpt lat="46.40714" lon="-0.42799">
        <ele>25.5072</ele>
        <time>2011-02-27T13:04:39Z</time>
      </trkpt>
      <trkpt lat="46.40715" lon="-0.42799">
        <ele>25.6009</ele>
        <time>2011-02-27T13:04:40Z</time>
      </trkpt>
      <trkpt lat="46.40717" lon="-0.42799">
        <ele>25.6995</ele>
        <time>2011-02-27T13:04:41Z</time>
      </trkpt>
      <trkpt lat="46.40718" lon="-0.428">
        <ele>25.7944</ele>
        <time>2011-02-27T13:04:42Z</time>
      </trkpt>
      <trkpt lat="46.4072" lon="-0.428">
        <ele>25.8858</ele>
        <time>2011-02-27T13:04:43Z</time>
      </trkpt>
      <trkpt lat="46.40721" lon="-0.428">
        <ele>25.9795</ele>
        <time>2011-02-27T13:04:44Z</time>
      </trkpt>
      <trkpt lat="46.40722" lon="-0.42801">
        <ele>26.0708</ele>
        <time>2011-02-27T13:04:45Z</time>
      </trkpt>
      <trkpt lat="46.40722" lon="-0.42801">
        <ele>26.1578</ele>
        <time>2011-02-27T13:04:46Z</time>
      </trkpt>
      <trkpt lat="46.40723" lon="-0.42802">
        <ele>26.2388</ele>
        <time>2011-02-27T13:04:47Z</time>
      </trkpt>
      <trkpt lat="46.40724" lon="-0.42803">
        <ele>26.3115</ele>
        <time>2011-02-27T13:04:48Z</time>
      </trkpt>
      <trkpt lat="46.40725" lon="-0.42803">
        <ele>26.384</ele>
        <time>2011-02-27T13:04:49Z</time>
      </trkpt>
      <trkpt lat="46.40726" lon="-0.42804">
        <ele>26.458</ele>
        <time>2011-02-27T13:04:50Z</time>
      </trkpt>
      <trkpt lat="46.40727" lon="-0.42804">
        <ele>26.5338</ele>
        <time>2011-02-27T13:04:51Z</time>
      </trkpt>
      <trkpt lat="46.40727" lon="-0.42804">
        <ele>26.606</ele>
        <time>2011-02-27T13:04:52Z</time>
      </trkpt>
      <trkpt lat="46.40728" lon="-0.42804">
        <ele>26.6723</ele>
        <time>2011-02-27T13:04:53Z</time>
      </trkpt>
      <trkpt lat="46.40728" lon="-0.42805">
        <ele>26.728</ele>
        <time>2011-02-27T13:04:54Z</time>
      </trkpt>
      <trkpt lat="46.40728" lon="-0.42807">
        <ele>26.7725</ele>
        <time>2011-02-27T13:04:55Z</time>
      </trkpt>
      <trkpt lat="46.40729" lon="-0.42808">
        <ele>26.8116</ele>
        <time>2011-02-27T13:04:56Z</time>
      </trkpt>
      <trkpt lat="46.40729" lon="-0.42809">
        <ele>26.8464</ele>
        <time>2011-02-27T13:04:57Z</time>
      </trkpt>
      <trkpt lat="46.4073" lon="-0.4281">
        <ele>26.8791</ele>
        <time>2011-02-27T13:04:58Z</time>
      </trkpt>
      <trkpt lat="46.4073" lon="-0.42812">
        <ele>26.9059</ele>
        <time>2011-02-27T13:04:59Z</time>
      </trkpt>
      <trkpt lat="46.4073" lon="-0.42813">
        <ele>26.9277</ele>
        <time>2011-02-27T13:05:00Z</time>
      </trkpt>
      <trkpt lat="46.4073" lon="-0.42814">
        <ele>26.9465</ele>
        <time>2011-02-27T13:05:01Z</time>
      </trkpt>
      <trkpt lat="46.40731" lon="-0.42815">
        <ele>26.9649</ele>
        <time>2011-02-27T13:05:02Z</time>
      </trkpt>
      <trkpt lat="46.40731" lon="-0.42816">
        <ele>26.9797</ele>
        <time>2011-02-27T13:05:03Z</time>
      </trkpt>
      <trkpt lat="46.40731" lon="-0.42817">
        <ele>26.993</ele>
        <time>2011-02-27T13:05:04Z</time>
      </trkpt>
      <trkpt lat="46.40731" lon="-0.42818">
        <ele>27.0037</ele>
        <time>2011-02-27T13:05:05Z</time>
      </trkpt>
      <trkpt lat="46.40731" lon="-0.42818">
        <ele>27.0173</ele>
        <time>2011-02-27T13:05:06Z</time>
      </trkpt>
      <trkpt lat="46.40731" lon="-0.42818">
        <ele>27.0222</ele>
        <time>2011-02-27T13:05:09Z</time>
      </trkpt>
      <trkpt lat="46.40731" lon="-0.42819">
        <ele>27.0212</ele>
        <time>2011-02-27T13:05:10Z</time>
      </trkpt>
      <trkpt lat="46.40731" lon="-0.4282">
        <ele>27.0186</ele>
        <time>2011-02-27T13:05:11Z</time>
      </trkpt>
      <trkpt lat="46.4073" lon="-0.42821">
        <ele>27.0128</ele>
        <time>2011-02-27T13:05:12Z</time>
      </trkpt>
      <trkpt lat="46.40729" lon="-0.42822">
        <ele>27.0045</ele>
        <time>2011-02-27T13:05:13Z</time>
      </trkpt>
      <trkpt lat="46.40728" lon="-0.42824">
        <ele>26.9951</ele>
        <time>2011-02-27T13:05:14Z</time>
      </trkpt>
      <trkpt lat="46.40727" lon="-0.42825">
        <ele>26.9843</ele>
        <time>2011-02-27T13:05:15Z</time>
      </trkpt>
      <trkpt lat="46.40726" lon="-0.42826">
        <ele>26.9728</ele>
        <time>2011-02-27T13:05:16Z</time>
      </trkpt>
      <trkpt lat="46.40725" lon="-0.42828">
        <ele>26.9622</ele>
        <time>2011-02-27T13:05:17Z</time>
      </trkpt>
      <trkpt lat="46.40724" lon="-0.42829">
        <ele>26.9503</ele>
        <time>2011-02-27T13:05:18Z</time>
      </trkpt>
      <trkpt lat="46.40722" lon="-0.42831">
        <ele>26.9394</ele>
        <time>2011-02-27T13:05:19Z</time>
      </trkpt>
      <trkpt lat="46.40722" lon="-0.42832">
        <ele>26.927</ele>
        <time>2011-02-27T13:05:20Z</time>
      </trkpt>
      <trkpt lat="46.40721" lon="-0.42833">
        <ele>26.9128</ele>
        <time>2011-02-27T13:05:21Z</time>
      </trkpt>
      <trkpt lat="46.4072" lon="-0.42835">
        <ele>26.898</ele>
        <time>2011-02-27T13:05:22Z</time>
      </trkpt>
      <trkpt lat="46.40719" lon="-0.42836">
        <ele>26.8796</ele>
        <time>2011-02-27T13:05:23Z</time>
      </trkpt>
      <trkpt lat="46.40718" lon="-0.42837">
        <ele>26.8606</ele>
        <time>2011-02-27T13:05:24Z</time>
      </trkpt>
      <trkpt lat="46.40717" lon="-0.42838">
        <ele>26.8352</ele>
        <time>2011-02-27T13:05:25Z</time>
      </trkpt>
      <trkpt lat="46.40716" lon="-0.42838">
        <ele>26.8059</ele>
        <time>2011-02-27T13:05:26Z</time>
      </trkpt>
      <trkpt lat="46.40715" lon="-0.42839">
        <ele>26.7772</ele>
        <time>2011-02-27T13:05:27Z</time>
      </trkpt>
      <trkpt lat="46.40714" lon="-0.4284">
        <ele>26.7494</ele>
        <time>2011-02-27T13:05:28Z</time>
      </trkpt>
      <trkpt lat="46.40714" lon="-0.42841">
        <ele>26.7227</ele>
        <time>2011-02-27T13:05:29Z</time>
      </trkpt>
      <trkpt lat="46.40712" lon="-0.42841">
        <ele>26.6974</ele>
        <time>2011-02-27T13:05:30Z</time>
      </trkpt>
      <trkpt lat="46.40712" lon="-0.42842">
        <ele>26.6731</ele>
        <time>2011-02-27T13:05:31Z</time>
      </trkpt>
      <trkpt lat="46.4071" lon="-0.42843">
        <ele>26.647</ele>
        <time>2011-02-27T13:05:32Z</time>
      </trkpt>
      <trkpt lat="46.4071" lon="-0.42844">
        <ele>26.6225</ele>
        <time>2011-02-27T13:05:33Z</time>
      </trkpt>
      <trkpt lat="46.40709" lon="-0.42845">
        <ele>26.5984</ele>
        <time>2011-02-27T13:05:34Z</time>
      </trkpt>
      <trkpt lat="46.40708" lon="-0.42846">
        <ele>26.5746</ele>
        <time>2011-02-27T13:05:35Z</time>
      </trkpt>
      <trkpt lat="46.40707" lon="-0.42847">
        <ele>26.5503</ele>
        <time>2011-02-27T13:05:36Z</time>
      </trkpt>
      <trkpt lat="46.40706" lon="-0.42848">
        <ele>26.5269</ele>
        <time>2011-02-27T13:05:37Z</time>
      </trkpt>
      <trkpt lat="46.40705" lon="-0.4285">
        <ele>26.5048</ele>
        <time>2011-02-27T13:05:38Z</time>
      </trkpt>
      <trkpt lat="46.40704" lon="-0.42851">
        <ele>26.4873</ele>
        <time>2011-02-27T13:05:39Z</time>
      </trkpt>
      <trkpt lat="46.40703" lon="-0.42852">
        <ele>26.4746</ele>
        <time>2011-02-27T13:05:40Z</time>
      </trkpt>
      <trkpt lat="46.40702" lon="-0.42854">
        <ele>26.4664</ele>
        <time>2011-02-27T13:05:41Z</time>
      </trkpt>
      <trkpt lat="46.40701" lon="-0.42855">
        <ele>26.4566</ele>
        <time>2011-02-27T13:05:42Z</time>
      </trkpt>
      <trkpt lat="46.40701" lon="-0.42856">
        <ele>26.4468</ele>
        <time>2011-02-27T13:05:43Z</time>
      </trkpt>
      <trkpt lat="46.407" lon="-0.42858">
        <ele>26.4385</ele>
        <time>2011-02-27T13:05:44Z</time>
      </trkpt>
      <trkpt lat="46.40699" lon="-0.42859">
        <ele>26.4307</ele>
        <time>2011-02-27T13:05:45Z</time>
      </trkpt>
      <trkpt lat="46.40698" lon="-0.4286">
        <ele>26.4198</ele>
        <time>2011-02-27T13:05:46Z</time>
      </trkpt>
      <trkpt lat="46.40697" lon="-0.42861">
        <ele>26.4029</ele>
        <time>2011-02-27T13:05:47Z</time>
      </trkpt>
      <trkpt lat="46.40696" lon="-0.42863">
        <ele>26.3879</ele>
        <time>2011-02-27T13:05:48Z</time>
      </trkpt>
      <trkpt lat="46.40696" lon="-0.42864">
        <ele>26.3726</ele>
        <time>2011-02-27T13:05:49Z</time>
      </trkpt>
      <trkpt lat="46.40695" lon="-0.42865">
        <ele>26.3584</ele>
        <time>2011-02-27T13:05:50Z</time>
      </trkpt>
      <trkpt lat="46.40694" lon="-0.42866">
        <ele>26.3458</ele>
        <time>2011-02-27T13:05:51Z</time>
      </trkpt>
      <trkpt lat="46.40693" lon="-0.42867">
        <ele>26.335</ele>
        <time>2011-02-27T13:05:52Z</time>
      </trkpt>
      <trkpt lat="46.40693" lon="-0.42869">
        <ele>26.3238</ele>
        <time>2011-02-27T13:05:53Z</time>
      </trkpt>
      <trkpt lat="46.40692" lon="-0.4287">
        <ele>26.314</ele>
        <time>2011-02-27T13:05:54Z</time>
      </trkpt>
      <trkpt lat="46.40691" lon="-0.42871">
        <ele>26.304</ele>
        <time>2011-02-27T13:05:55Z</time>
      </trkpt>
      <trkpt lat="46.40691" lon="-0.42872">
        <ele>26.2968</ele>
        <time>2011-02-27T13:05:56Z</time>
      </trkpt>
      <trkpt lat="46.4069" lon="-0.42872">
        <ele>26.293</ele>
        <time>2011-02-27T13:05:57Z</time>
      </trkpt>
      <trkpt lat="46.40689" lon="-0.42873">
        <ele>26.2882</ele>
        <time>2011-02-27T13:05:58Z</time>
      </trkpt>
      <trkpt lat="46.40688" lon="-0.42874">
        <ele>26.2881</ele>
        <time>2011-02-27T13:05:59Z</time>
      </trkpt>
      <trkpt lat="46.40687" lon="-0.42875">
        <ele>26.2916</ele>
        <time>2011-02-27T13:06:00Z</time>
      </trkpt>
      <trkpt lat="46.40686" lon="-0.42876">
        <ele>26.2986</ele>
        <time>2011-02-27T13:06:01Z</time>
      </trkpt>
      <trkpt lat="46.40685" lon="-0.42877">
        <ele>26.305</ele>
        <time>2011-02-27T13:06:02Z</time>
      </trkpt>
      <trkpt lat="46.40684" lon="-0.42878">
        <ele>26.309</ele>
        <time>2011-02-27T13:06:03Z</time>
      </trkpt>
      <trkpt lat="46.40684" lon="-0.42879">
        <ele>26.3118</ele>
        <time>2011-02-27T13:06:04Z</time>
      </trkpt>
      <trkpt lat="46.40683" lon="-0.4288">
        <ele>26.3165</ele>
        <time>2011-02-27T13:06:05Z</time>
      </trkpt>
      <trkpt lat="46.40682" lon="-0.42881">
        <ele>26.3207</ele>
        <time>2011-02-27T13:06:06Z</time>
      </trkpt>
      <trkpt lat="46.40682" lon="-0.42882">
        <ele>26.319</ele>
        <time>2011-02-27T13:06:07Z</time>
      </trkpt>
      <trkpt lat="46.40681" lon="-0.42883">
        <ele>26.3169</ele>
        <time>2011-02-27T13:06:08Z</time>
      </trkpt>
      <trkpt lat="46.4068" lon="-0.42884">
        <ele>26.313</ele>
        <time>2011-02-27T13:06:09Z</time>
      </trkpt>
      <trkpt lat="46.4068" lon="-0.42885">
        <ele>26.3099</ele>
        <time>2011-02-27T13:06:10Z</time>
      </trkpt>
      <trkpt lat="46.4068" lon="-0.42886">
        <ele>26.3075</ele>
        <time>2011-02-27T13:06:11Z</time>
      </trkpt>
      <trkpt lat="46.4068" lon="-0.42887">
        <ele>26.3087</ele>
        <time>2011-02-27T13:06:12Z</time>
      </trkpt>
      <trkpt lat="46.40679" lon="-0.42888">
        <ele>26.31</ele>
        <time>2011-02-27T13:06:13Z</time>
      </trkpt>
      <trkpt lat="46.40679" lon="-0.42889">
        <ele>26.3102</ele>
        <time>2011-02-27T13:06:14Z</time>
      </trkpt>
      <trkpt lat="46.40678" lon="-0.4289">
        <ele>26.3105</ele>
        <time>2011-02-27T13:06:15Z</time>
      </trkpt>
      <trkpt lat="46.40678" lon="-0.42891">
        <ele>26.3113</ele>
        <time>2011-02-27T13:06:16Z</time>
      </trkpt>
      <trkpt lat="46.40677" lon="-0.42891">
        <ele>26.3107</ele>
        <time>2011-02-27T13:06:17Z</time>
      </trkpt>
      <trkpt lat="46.40676" lon="-0.42892">
        <ele>26.3098</ele>
        <time>2011-02-27T13:06:18Z</time>
      </trkpt>
      <trkpt lat="46.40675" lon="-0.42892">
        <ele>26.3068</ele>
        <time>2011-02-27T13:06:19Z</time>
      </trkpt>
      <trkpt lat="46.40675" lon="-0.42891">
        <ele>26.3073</ele>
        <time>2011-02-27T13:06:20Z</time>
      </trkpt>
      <trkpt lat="46.40674" lon="-0.42891">
        <ele>26.3077</ele>
        <time>2011-02-27T13:06:21Z</time>
      </trkpt>
      <trkpt lat="46.40673" lon="-0.4289">
        <ele>26.3081</ele>
        <time>2011-02-27T13:06:22Z</time>
      </trkpt>
      <trkpt lat="46.40672" lon="-0.4289">
        <ele>26.306</ele>
        <time>2011-02-27T13:06:23Z</time>
      </trkpt>
      <trkpt lat="46.40672" lon="-0.42889">
        <ele>26.3031</ele>
        <time>2011-02-27T13:06:24Z</time>
      </trkpt>
      <trkpt lat="46.40671" lon="-0.42889">
        <ele>26.2998</ele>
        <time>2011-02-27T13:06:25Z</time>
      </trkpt>
      <trkpt lat="46.4067" lon="-0.42889">
        <ele>26.2956</ele>
        <time>2011-02-27T13:06:26Z</time>
      </trkpt>
      <trkpt lat="46.4067" lon="-0.42889">
        <ele>26.2899</ele>
        <time>2011-02-27T13:06:27Z</time>
      </trkpt>
      <trkpt lat="46.40669" lon="-0.42883">
        <ele>25.4238</ele>
        <time>2011-02-27T13:06:41Z</time>
      </trkpt>
      <trkpt lat="46.40663" lon="-0.42882">
        <ele>24.3808</ele>
        <time>2011-02-27T13:07:00Z</time>
      </trkpt>
      <trkpt lat="46.40659" lon="-0.42886">
        <ele>24.257</ele>
        <time>2011-02-27T13:07:05Z</time>
      </trkpt>
      <trkpt lat="46.40658" lon="-0.42892">
        <ele>24.0318</ele>
        <time>2011-02-27T13:07:24Z</time>
      </trkpt>
      <trkpt lat="46.40659" lon="-0.42893">
        <ele>24.0085</ele>
        <time>2011-02-27T13:07:25Z</time>
      </trkpt>
      <trkpt lat="46.40659" lon="-0.42894">
        <ele>23.9785</ele>
        <time>2011-02-27T13:07:26Z</time>
      </trkpt>
      <trkpt lat="46.40659" lon="-0.42896">
        <ele>23.9101</ele>
        <time>2011-02-27T13:07:27Z</time>
      </trkpt>
      <trkpt lat="46.40658" lon="-0.42898">
        <ele>23.8447</ele>
        <time>2011-02-27T13:07:28Z</time>
      </trkpt>
      <trkpt lat="46.40657" lon="-0.42899">
        <ele>23.7858</ele>
        <time>2011-02-27T13:07:29Z</time>
      </trkpt>
      <trkpt lat="46.40656" lon="-0.429">
        <ele>23.7334</ele>
        <time>2011-02-27T13:07:30Z</time>
      </trkpt>
      <trkpt lat="46.40656" lon="-0.42901">
        <ele>23.6959</ele>
        <time>2011-02-27T13:07:31Z</time>
      </trkpt>
      <trkpt lat="46.40656" lon="-0.42901">
        <ele>23.6643</ele>
        <time>2011-02-27T13:07:32Z</time>
      </trkpt>
      <trkpt lat="46.40655" lon="-0.42902">
        <ele>23.6218</ele>
        <time>2011-02-27T13:07:35Z</time>
      </trkpt>
      <trkpt lat="46.40655" lon="-0.42903">
        <ele>23.5901</ele>
        <time>2011-02-27T13:07:36Z</time>
      </trkpt>
      <trkpt lat="46.40654" lon="-0.42904">
        <ele>23.5607</ele>
        <time>2011-02-27T13:07:37Z</time>
      </trkpt>
      <trkpt lat="46.40654" lon="-0.42905">
        <ele>23.5245</ele>
        <time>2011-02-27T13:07:38Z</time>
      </trkpt>
      <trkpt lat="46.40653" lon="-0.42906">
        <ele>23.4894</ele>
        <time>2011-02-27T13:07:39Z</time>
      </trkpt>
      <trkpt lat="46.40652" lon="-0.42907">
        <ele>23.4829</ele>
        <time>2011-02-27T13:07:40Z</time>
      </trkpt>
      <trkpt lat="46.40651" lon="-0.42908">
        <ele>23.4861</ele>
        <time>2011-02-27T13:07:41Z</time>
      </trkpt>
      <trkpt lat="46.40649" lon="-0.42909">
        <ele>23.4949</ele>
        <time>2011-02-27T13:07:42Z</time>
      </trkpt>
      <trkpt lat="46.40649" lon="-0.42911">
        <ele>23.5088</ele>
        <time>2011-02-27T13:07:43Z</time>
      </trkpt>
      <trkpt lat="46.40648" lon="-0.42912">
        <ele>23.5538</ele>
        <time>2011-02-27T13:07:44Z</time>
      </trkpt>
      <trkpt lat="46.40646" lon="-0.42912">
        <ele>23.6015</ele>
        <time>2011-02-27T13:07:45Z</time>
      </trkpt>
      <trkpt lat="46.40646" lon="-0.42913">
        <ele>23.6492</ele>
        <time>2011-02-27T13:07:46Z</time>
      </trkpt>
      <trkpt lat="46.40645" lon="-0.42915">
        <ele>23.6958</ele>
        <time>2011-02-27T13:07:47Z</time>
      </trkpt>
      <trkpt lat="46.40645" lon="-0.42916">
        <ele>23.7407</ele>
        <time>2011-02-27T13:07:48Z</time>
      </trkpt>
      <trkpt lat="46.40644" lon="-0.42917">
        <ele>23.7857</ele>
        <time>2011-02-27T13:07:49Z</time>
      </trkpt>
      <trkpt lat="46.40643" lon="-0.42918">
        <ele>23.8289</ele>
        <time>2011-02-27T13:07:50Z</time>
      </trkpt>
      <trkpt lat="46.40643" lon="-0.42919">
        <ele>23.87</ele>
        <time>2011-02-27T13:07:51Z</time>
      </trkpt>
      <trkpt lat="46.40642" lon="-0.42919">
        <ele>23.9044</ele>
        <time>2011-02-27T13:07:52Z</time>
      </trkpt>
      <trkpt lat="46.40642" lon="-0.4292">
        <ele>23.9359</ele>
        <time>2011-02-27T13:07:53Z</time>
      </trkpt>
      <trkpt lat="46.40641" lon="-0.42921">
        <ele>23.9693</ele>
        <time>2011-02-27T13:07:54Z</time>
      </trkpt>
      <trkpt lat="46.40641" lon="-0.42922">
        <ele>24.0004</ele>
        <time>2011-02-27T13:07:55Z</time>
      </trkpt>
      <trkpt lat="46.4064" lon="-0.42922">
        <ele>24.0299</ele>
        <time>2011-02-27T13:07:56Z</time>
      </trkpt>
      <trkpt lat="46.40639" lon="-0.42923">
        <ele>24.0616</ele>
        <time>2011-02-27T13:07:57Z</time>
      </trkpt>
      <trkpt lat="46.40638" lon="-0.42925">
        <ele>24.0996</ele>
        <time>2011-02-27T13:07:58Z</time>
      </trkpt>
      <trkpt lat="46.40637" lon="-0.42925">
        <ele>24.1396</ele>
        <time>2011-02-27T13:07:59Z</time>
      </trkpt>
      <trkpt lat="46.40636" lon="-0.42926">
        <ele>24.1838</ele>
        <time>2011-02-27T13:08:00Z</time>
      </trkpt>
      <trkpt lat="46.40636" lon="-0.42927">
        <ele>24.2333</ele>
        <time>2011-02-27T13:08:01Z</time>
      </trkpt>
      <trkpt lat="46.40635" lon="-0.42928">
        <ele>24.2867</ele>
        <time>2011-02-27T13:08:02Z</time>
      </trkpt>
      <trkpt lat="46.40634" lon="-0.42929">
        <ele>24.3467</ele>
        <time>2011-02-27T13:08:03Z</time>
      </trkpt>
      <trkpt lat="46.40633" lon="-0.4293">
        <ele>24.4122</ele>
        <time>2011-02-27T13:08:04Z</time>
      </trkpt>
      <trkpt lat="46.40632" lon="-0.42931">
        <ele>24.4841</ele>
        <time>2011-02-27T13:08:05Z</time>
      </trkpt>
      <trkpt lat="46.40632" lon="-0.42932">
        <ele>24.5606</ele>
        <time>2011-02-27T13:08:06Z</time>
      </trkpt>
      <trkpt lat="46.4063" lon="-0.42933">
        <ele>24.6411</ele>
        <time>2011-02-27T13:08:07Z</time>
      </trkpt>
      <trkpt lat="46.40629" lon="-0.42933">
        <ele>24.7208</ele>
        <time>2011-02-27T13:08:08Z</time>
      </trkpt>
      <trkpt lat="46.40628" lon="-0.42934">
        <ele>24.8044</ele>
        <time>2011-02-27T13:08:09Z</time>
      </trkpt>
      <trkpt lat="46.40627" lon="-0.42935">
        <ele>24.8892</ele>
        <time>2011-02-27T13:08:10Z</time>
      </trkpt>
      <trkpt lat="46.40627" lon="-0.42936">
        <ele>24.9729</ele>
        <time>2011-02-27T13:08:11Z</time>
      </trkpt>
      <trkpt lat="46.40626" lon="-0.42937">
        <ele>25.0545</ele>
        <time>2011-02-27T13:08:12Z</time>
      </trkpt>
      <trkpt lat="46.40625" lon="-0.42937">
        <ele>25.1346</ele>
        <time>2011-02-27T13:08:13Z</time>
      </trkpt>
      <trkpt lat="46.40624" lon="-0.42938">
        <ele>25.2128</ele>
        <time>2011-02-27T13:08:14Z</time>
      </trkpt>
      <trkpt lat="46.40623" lon="-0.42939">
        <ele>25.2897</ele>
        <time>2011-02-27T13:08:15Z</time>
      </trkpt>
      <trkpt lat="46.40622" lon="-0.4294">
        <ele>25.3657</ele>
        <time>2011-02-27T13:08:16Z</time>
      </trkpt>
      <trkpt lat="46.40621" lon="-0.42941">
        <ele>25.4397</ele>
        <time>2011-02-27T13:08:17Z</time>
      </trkpt>
      <trkpt lat="46.4062" lon="-0.42941">
        <ele>25.5135</ele>
        <time>2011-02-27T13:08:18Z</time>
      </trkpt>
      <trkpt lat="46.40619" lon="-0.42941">
        <ele>25.5854</ele>
        <time>2011-02-27T13:08:19Z</time>
      </trkpt>
      <trkpt lat="46.40618" lon="-0.42942">
        <ele>25.6566</ele>
        <time>2011-02-27T13:08:20Z</time>
      </trkpt>
      <trkpt lat="46.40617" lon="-0.42943">
        <ele>25.7265</ele>
        <time>2011-02-27T13:08:21Z</time>
      </trkpt>
      <trkpt lat="46.40616" lon="-0.42944">
        <ele>25.7958</ele>
        <time>2011-02-27T13:08:22Z</time>
      </trkpt>
      <trkpt lat="46.40616" lon="-0.42945">
        <ele>25.8642</ele>
        <time>2011-02-27T13:08:23Z</time>
      </trkpt>
      <trkpt lat="46.40614" lon="-0.42946">
        <ele>25.931</ele>
        <time>2011-02-27T13:08:24Z</time>
      </trkpt>
      <trkpt lat="46.40614" lon="-0.42947">
        <ele>25.9964</ele>
        <time>2011-02-27T13:08:25Z</time>
      </trkpt>
      <trkpt lat="46.40613" lon="-0.42948">
        <ele>26.0601</ele>
        <time>2011-02-27T13:08:26Z</time>
      </trkpt>
      <trkpt lat="46.40612" lon="-0.42949">
        <ele>26.1224</ele>
        <time>2011-02-27T13:08:27Z</time>
      </trkpt>
      <trkpt lat="46.40612" lon="-0.4295">
        <ele>26.1692</ele>
        <time>2011-02-27T13:08:28Z</time>
      </trkpt>
      <trkpt lat="46.40612" lon="-0.42952">
        <ele>26.2081</ele>
        <time>2011-02-27T13:08:29Z</time>
      </trkpt>
      <trkpt lat="46.40612" lon="-0.42952">
        <ele>26.2446</ele>
        <time>2011-02-27T13:08:30Z</time>
      </trkpt>
      <trkpt lat="46.40611" lon="-0.42953">
        <ele>26.275</ele>
        <time>2011-02-27T13:08:31Z</time>
      </trkpt>
      <trkpt lat="46.4061" lon="-0.42954">
        <ele>26.2981</ele>
        <time>2011-02-27T13:08:32Z</time>
      </trkpt>
      <trkpt lat="46.40609" lon="-0.42955">
        <ele>26.3215</ele>
        <time>2011-02-27T13:08:33Z</time>
      </trkpt>
      <trkpt lat="46.40608" lon="-0.42956">
        <ele>26.3442</ele>
        <time>2011-02-27T13:08:34Z</time>
      </trkpt>
      <trkpt lat="46.40607" lon="-0.42957">
        <ele>26.3695</ele>
        <time>2011-02-27T13:08:35Z</time>
      </trkpt>
      <trkpt lat="46.40606" lon="-0.42958">
        <ele>26.4005</ele>
        <time>2011-02-27T13:08:36Z</time>
      </trkpt>
      <trkpt lat="46.40605" lon="-0.42959">
        <ele>26.4262</ele>
        <time>2011-02-27T13:08:37Z</time>
      </trkpt>
      <trkpt lat="46.40604" lon="-0.42959">
        <ele>26.452</ele>
        <time>2011-02-27T13:08:38Z</time>
      </trkpt>
      <trkpt lat="46.40604" lon="-0.4296">
        <ele>26.4769</ele>
        <time>2011-02-27T13:08:39Z</time>
      </trkpt>
      <trkpt lat="46.40603" lon="-0.42959">
        <ele>26.4817</ele>
        <time>2011-02-27T13:08:41Z</time>
      </trkpt>
      <trkpt lat="46.40603" lon="-0.42959">
        <ele>26.4826</ele>
        <time>2011-02-27T13:08:42Z</time>
      </trkpt>
      <trkpt lat="46.40602" lon="-0.4296">
        <ele>26.4828</ele>
        <time>2011-02-27T13:08:43Z</time>
      </trkpt>
      <trkpt lat="46.40601" lon="-0.42961">
        <ele>26.4821</ele>
        <time>2011-02-27T13:08:44Z</time>
      </trkpt>
      <trkpt lat="46.406" lon="-0.42962">
        <ele>26.4808</ele>
        <time>2011-02-27T13:08:45Z</time>
      </trkpt>
      <trkpt lat="46.40599" lon="-0.42963">
        <ele>26.4791</ele>
        <time>2011-02-27T13:08:46Z</time>
      </trkpt>
      <trkpt lat="46.40599" lon="-0.42963">
        <ele>26.4777</ele>
        <time>2011-02-27T13:08:47Z</time>
      </trkpt>
      <trkpt lat="46.40598" lon="-0.42964">
        <ele>26.4746</ele>
        <time>2011-02-27T13:08:48Z</time>
      </trkpt>
      <trkpt lat="46.40597" lon="-0.42965">
        <ele>26.4725</ele>
        <time>2011-02-27T13:08:49Z</time>
      </trkpt>
      <trkpt lat="46.40596" lon="-0.42966">
        <ele>26.474</ele>
        <time>2011-02-27T13:08:50Z</time>
      </trkpt>
      <trkpt lat="46.40595" lon="-0.42967">
        <ele>26.4785</ele>
        <time>2011-02-27T13:08:51Z</time>
      </trkpt>
      <trkpt lat="46.40594" lon="-0.42968">
        <ele>26.4846</ele>
        <time>2011-02-27T13:08:52Z</time>
      </trkpt>
      <trkpt lat="46.40593" lon="-0.42969">
        <ele>26.4928</ele>
        <time>2011-02-27T13:08:53Z</time>
      </trkpt>
      <trkpt lat="46.40592" lon="-0.4297">
        <ele>26.5016</ele>
        <time>2011-02-27T13:08:54Z</time>
      </trkpt>
      <trkpt lat="46.40591" lon="-0.42971">
        <ele>26.5112</ele>
        <time>2011-02-27T13:08:55Z</time>
      </trkpt>
      <trkpt lat="46.4059" lon="-0.42972">
        <ele>26.5244</ele>
        <time>2011-02-27T13:08:56Z</time>
      </trkpt>
      <trkpt lat="46.40589" lon="-0.42973">
        <ele>26.5401</ele>
        <time>2011-02-27T13:08:57Z</time>
      </trkpt>
      <trkpt lat="46.40588" lon="-0.42974">
        <ele>26.5562</ele>
        <time>2011-02-27T13:08:58Z</time>
      </trkpt>
      <trkpt lat="46.40588" lon="-0.42975">
        <ele>26.5753</ele>
        <time>2011-02-27T13:08:59Z</time>
      </trkpt>
      <trkpt lat="46.40587" lon="-0.42976">
        <ele>26.5945</ele>
        <time>2011-02-27T13:09:00Z</time>
      </trkpt>
      <trkpt lat="46.40587" lon="-0.42977">
        <ele>26.6161</ele>
        <time>2011-02-27T13:09:01Z</time>
      </trkpt>
      <trkpt lat="46.40586" lon="-0.42978">
        <ele>26.6384</ele>
        <time>2011-02-27T13:09:02Z</time>
      </trkpt>
      <trkpt lat="46.40585" lon="-0.42979">
        <ele>26.6606</ele>
        <time>2011-02-27T13:09:03Z</time>
      </trkpt>
      <trkpt lat="46.40584" lon="-0.4298">
        <ele>26.6844</ele>
        <time>2011-02-27T13:09:04Z</time>
      </trkpt>
      <trkpt lat="46.40583" lon="-0.42982">
        <ele>26.7083</ele>
        <time>2011-02-27T13:09:05Z</time>
      </trkpt>
      <trkpt lat="46.40582" lon="-0.42983">
        <ele>26.7368</ele>
        <time>2011-02-27T13:09:06Z</time>
      </trkpt>
      <trkpt lat="46.40581" lon="-0.42984">
        <ele>26.7675</ele>
        <time>2011-02-27T13:09:07Z</time>
      </trkpt>
      <trkpt lat="46.4058" lon="-0.42985">
        <ele>26.7983</ele>
        <time>2011-02-27T13:09:08Z</time>
      </trkpt>
      <trkpt lat="46.40579" lon="-0.42986">
        <ele>26.8288</ele>
        <time>2011-02-27T13:09:09Z</time>
      </trkpt>
      <trkpt lat="46.40578" lon="-0.42987">
        <ele>26.8618</ele>
        <time>2011-02-27T13:09:10Z</time>
      </trkpt>
      <trkpt lat="46.40577" lon="-0.42988">
        <ele>26.8955</ele>
        <time>2011-02-27T13:09:11Z</time>
      </trkpt>
      <trkpt lat="46.40575" lon="-0.42989">
        <ele>26.9302</ele>
        <time>2011-02-27T13:09:12Z</time>
      </trkpt>
      <trkpt lat="46.40574" lon="-0.4299">
        <ele>26.9663</ele>
        <time>2011-02-27T13:09:13Z</time>
      </trkpt>
      <trkpt lat="46.40573" lon="-0.42991">
        <ele>27.004</ele>
        <time>2011-02-27T13:09:14Z</time>
      </trkpt>
      <trkpt lat="46.40572" lon="-0.42992">
        <ele>27.0449</ele>
        <time>2011-02-27T13:09:15Z</time>
      </trkpt>
      <trkpt lat="46.40572" lon="-0.42993">
        <ele>27.0836</ele>
        <time>2011-02-27T13:09:16Z</time>
      </trkpt>
      <trkpt lat="46.40571" lon="-0.42993">
        <ele>27.1222</ele>
        <time>2011-02-27T13:09:17Z</time>
      </trkpt>
      <trkpt lat="46.4057" lon="-0.42994">
        <ele>27.159</ele>
        <time>2011-02-27T13:09:18Z</time>
      </trkpt>
      <trkpt lat="46.4057" lon="-0.42995">
        <ele>27.1987</ele>
        <time>2011-02-27T13:09:19Z</time>
      </trkpt>
      <trkpt lat="46.40569" lon="-0.42996">
        <ele>27.2418</ele>
        <time>2011-02-27T13:09:20Z</time>
      </trkpt>
      <trkpt lat="46.40568" lon="-0.42997">
        <ele>27.2879</ele>
        <time>2011-02-27T13:09:21Z</time>
      </trkpt>
      <trkpt lat="46.40567" lon="-0.42998">
        <ele>27.3336</ele>
        <time>2011-02-27T13:09:22Z</time>
      </trkpt>
      <trkpt lat="46.40566" lon="-0.42999">
        <ele>27.3943</ele>
        <time>2011-02-27T13:09:23Z</time>
      </trkpt>
      <trkpt lat="46.40565" lon="-0.43001">
        <ele>27.4539</ele>
        <time>2011-02-27T13:09:24Z</time>
      </trkpt>
      <trkpt lat="46.40564" lon="-0.43002">
        <ele>27.5126</ele>
        <time>2011-02-27T13:09:25Z</time>
      </trkpt>
      <trkpt lat="46.40563" lon="-0.43003">
        <ele>27.575</ele>
        <time>2011-02-27T13:09:26Z</time>
      </trkpt>
      <trkpt lat="46.40562" lon="-0.43004">
        <ele>27.6475</ele>
        <time>2011-02-27T13:09:27Z</time>
      </trkpt>
      <trkpt lat="46.40561" lon="-0.43005">
        <ele>27.7254</ele>
        <time>2011-02-27T13:09:28Z</time>
      </trkpt>
      <trkpt lat="46.4056" lon="-0.43006">
        <ele>27.8102</ele>
        <time>2011-02-27T13:09:29Z</time>
      </trkpt>
      <trkpt lat="46.40559" lon="-0.43008">
        <ele>27.8963</ele>
        <time>2011-02-27T13:09:30Z</time>
      </trkpt>
      <trkpt lat="46.40558" lon="-0.43009">
        <ele>27.9812</ele>
        <time>2011-02-27T13:09:31Z</time>
      </trkpt>
      <trkpt lat="46.40557" lon="-0.4301">
        <ele>28.066</ele>
        <time>2011-02-27T13:09:32Z</time>
      </trkpt>
      <trkpt lat="46.40556" lon="-0.43011">
        <ele>28.1542</ele>
        <time>2011-02-27T13:09:33Z</time>
      </trkpt>
      <trkpt lat="46.40555" lon="-0.43012">
        <ele>28.2432</ele>
        <time>2011-02-27T13:09:34Z</time>
      </trkpt>
      <trkpt lat="46.40554" lon="-0.43014">
        <ele>28.3292</ele>
        <time>2011-02-27T13:09:35Z</time>
      </trkpt>
      <trkpt lat="46.40553" lon="-0.43015">
        <ele>28.4122</ele>
        <time>2011-02-27T13:09:36Z</time>
      </trkpt>
      <trkpt lat="46.40553" lon="-0.43017">
        <ele>28.4944</ele>
        <time>2011-02-27T13:09:37Z</time>
      </trkpt>
      <trkpt lat="46.40551" lon="-0.43018">
        <ele>28.5745</ele>
        <time>2011-02-27T13:09:38Z</time>
      </trkpt>
      <trkpt lat="46.40551" lon="-0.43019">
        <ele>28.6528</ele>
        <time>2011-02-27T13:09:39Z</time>
      </trkpt>
      <trkpt lat="46.4055" lon="-0.4302">
        <ele>28.7299</ele>
        <time>2011-02-27T13:09:40Z</time>
      </trkpt>
      <trkpt lat="46.40549" lon="-0.43021">
        <ele>28.8049</ele>
        <time>2011-02-27T13:09:41Z</time>
      </trkpt>
      <trkpt lat="46.40548" lon="-0.43022">
        <ele>28.8727</ele>
        <time>2011-02-27T13:09:42Z</time>
      </trkpt>
      <trkpt lat="46.40548" lon="-0.43024">
        <ele>28.9378</ele>
        <time>2011-02-27T13:09:43Z</time>
      </trkpt>
      <trkpt lat="46.40547" lon="-0.43024">
        <ele>29.0001</ele>
        <time>2011-02-27T13:09:44Z</time>
      </trkpt>
      <trkpt lat="46.40546" lon="-0.43025">
        <ele>29.0611</ele>
        <time>2011-02-27T13:09:45Z</time>
      </trkpt>
      <trkpt lat="46.40545" lon="-0.43026">
        <ele>29.1189</ele>
        <time>2011-02-27T13:09:46Z</time>
      </trkpt>
      <trkpt lat="46.40544" lon="-0.43027">
        <ele>29.1746</ele>
        <time>2011-02-27T13:09:47Z</time>
      </trkpt>
      <trkpt lat="46.40543" lon="-0.43028">
        <ele>29.2271</ele>
        <time>2011-02-27T13:09:48Z</time>
      </trkpt>
      <trkpt lat="46.40542" lon="-0.4303">
        <ele>29.2771</ele>
        <time>2011-02-27T13:09:49Z</time>
      </trkpt>
      <trkpt lat="46.40541" lon="-0.43031">
        <ele>29.3294</ele>
        <time>2011-02-27T13:09:50Z</time>
      </trkpt>
      <trkpt lat="46.40541" lon="-0.43032">
        <ele>29.3785</ele>
        <time>2011-02-27T13:09:51Z</time>
      </trkpt>
      <trkpt lat="46.4054" lon="-0.43033">
        <ele>29.4274</ele>
        <time>2011-02-27T13:09:52Z</time>
      </trkpt>
      <trkpt lat="46.4054" lon="-0.43034">
        <ele>29.4752</ele>
        <time>2011-02-27T13:09:53Z</time>
      </trkpt>
      <trkpt lat="46.40539" lon="-0.43035">
        <ele>29.5222</ele>
        <time>2011-02-27T13:09:54Z</time>
      </trkpt>
      <trkpt lat="46.40538" lon="-0.43036">
        <ele>29.5612</ele>
        <time>2011-02-27T13:09:55Z</time>
      </trkpt>
      <trkpt lat="46.40538" lon="-0.43038">
        <ele>29.5986</ele>
        <time>2011-02-27T13:09:56Z</time>
      </trkpt>
      <trkpt lat="46.40537" lon="-0.43039">
        <ele>29.6347</ele>
        <time>2011-02-27T13:09:57Z</time>
      </trkpt>
      <trkpt lat="46.40536" lon="-0.4304">
        <ele>29.6679</ele>
        <time>2011-02-27T13:09:58Z</time>
      </trkpt>
      <trkpt lat="46.40535" lon="-0.43041">
        <ele>29.6999</ele>
        <time>2011-02-27T13:09:59Z</time>
      </trkpt>
      <trkpt lat="46.40535" lon="-0.43042">
        <ele>29.7302</ele>
        <time>2011-02-27T13:10:00Z</time>
      </trkpt>
      <trkpt lat="46.40534" lon="-0.43043">
        <ele>29.7586</ele>
        <time>2011-02-27T13:10:01Z</time>
      </trkpt>
      <trkpt lat="46.40533" lon="-0.43044">
        <ele>29.779</ele>
        <time>2011-02-27T13:10:02Z</time>
      </trkpt>
      <trkpt lat="46.40532" lon="-0.43045">
        <ele>29.8092</ele>
        <time>2011-02-27T13:10:03Z</time>
      </trkpt>
      <trkpt lat="46.40532" lon="-0.43046">
        <ele>29.8392</ele>
        <time>2011-02-27T13:10:04Z</time>
      </trkpt>
      <trkpt lat="46.40531" lon="-0.43048">
        <ele>29.8692</ele>
        <time>2011-02-27T13:10:05Z</time>
      </trkpt>
      <trkpt lat="46.4053" lon="-0.43049">
        <ele>29.8963</ele>
        <time>2011-02-27T13:10:06Z</time>
      </trkpt>
      <trkpt lat="46.40529" lon="-0.4305">
        <ele>29.9207</ele>
        <time>2011-02-27T13:10:07Z</time>
      </trkpt>
      <trkpt lat="46.40528" lon="-0.43051">
        <ele>29.9451</ele>
        <time>2011-02-27T13:10:08Z</time>
      </trkpt>
      <trkpt lat="46.40527" lon="-0.43052">
        <ele>29.9659</ele>
        <time>2011-02-27T13:10:09Z</time>
      </trkpt>
      <trkpt lat="46.40527" lon="-0.43054">
        <ele>29.9854</ele>
        <time>2011-02-27T13:10:10Z</time>
      </trkpt>
      <trkpt lat="46.40526" lon="-0.43055">
        <ele>30.0052</ele>
        <time>2011-02-27T13:10:11Z</time>
      </trkpt>
      <trkpt lat="46.40525" lon="-0.43056">
        <ele>30.0235</ele>
        <time>2011-02-27T13:10:12Z</time>
      </trkpt>
      <trkpt lat="46.40524" lon="-0.43057">
        <ele>30.0445</ele>
        <time>2011-02-27T13:10:13Z</time>
      </trkpt>
      <trkpt lat="46.40524" lon="-0.43058">
        <ele>30.0602</ele>
        <time>2011-02-27T13:10:14Z</time>
      </trkpt>
      <trkpt lat="46.40523" lon="-0.43059">
        <ele>30.0717</ele>
        <time>2011-02-27T13:10:15Z</time>
      </trkpt>
      <trkpt lat="46.40522" lon="-0.4306">
        <ele>30.082</ele>
        <time>2011-02-27T13:10:16Z</time>
      </trkpt>
      <trkpt lat="46.40521" lon="-0.43061">
        <ele>30.092</ele>
        <time>2011-02-27T13:10:17Z</time>
      </trkpt>
      <trkpt lat="46.4052" lon="-0.43062">
        <ele>30.1305</ele>
        <time>2011-02-27T13:10:18Z</time>
      </trkpt>
      <trkpt lat="46.40519" lon="-0.43062">
        <ele>30.1681</ele>
        <time>2011-02-27T13:10:19Z</time>
      </trkpt>
      <trkpt lat="46.40518" lon="-0.43063">
        <ele>30.2055</ele>
        <time>2011-02-27T13:10:20Z</time>
      </trkpt>
      <trkpt lat="46.40517" lon="-0.43063">
        <ele>30.2442</ele>
        <time>2011-02-27T13:10:21Z</time>
      </trkpt>
      <trkpt lat="46.40516" lon="-0.43064">
        <ele>30.2801</ele>
        <time>2011-02-27T13:10:22Z</time>
      </trkpt>
      <trkpt lat="46.40516" lon="-0.43065">
        <ele>30.3074</ele>
        <time>2011-02-27T13:10:23Z</time>
      </trkpt>
      <trkpt lat="46.40515" lon="-0.43066">
        <ele>30.3294</ele>
        <time>2011-02-27T13:10:24Z</time>
      </trkpt>
      <trkpt lat="46.40514" lon="-0.43066">
        <ele>30.3532</ele>
        <time>2011-02-27T13:10:25Z</time>
      </trkpt>
      <trkpt lat="46.40513" lon="-0.43067">
        <ele>30.3747</ele>
        <time>2011-02-27T13:10:26Z</time>
      </trkpt>
      <trkpt lat="46.40512" lon="-0.43068">
        <ele>30.3945</ele>
        <time>2011-02-27T13:10:27Z</time>
      </trkpt>
      <trkpt lat="46.40511" lon="-0.4307">
        <ele>30.4114</ele>
        <time>2011-02-27T13:10:28Z</time>
      </trkpt>
      <trkpt lat="46.4051" lon="-0.43071">
        <ele>30.4264</ele>
        <time>2011-02-27T13:10:29Z</time>
      </trkpt>
      <trkpt lat="46.40509" lon="-0.43072">
        <ele>30.4404</ele>
        <time>2011-02-27T13:10:30Z</time>
      </trkpt>
      <trkpt lat="46.40508" lon="-0.43073">
        <ele>30.4506</ele>
        <time>2011-02-27T13:10:31Z</time>
      </trkpt>
      <trkpt lat="46.40508" lon="-0.43074">
        <ele>30.458</ele>
        <time>2011-02-27T13:10:32Z</time>
      </trkpt>
      <trkpt lat="46.40507" lon="-0.43075">
        <ele>30.4642</ele>
        <time>2011-02-27T13:10:33Z</time>
      </trkpt>
      <trkpt lat="46.40506" lon="-0.43076">
        <ele>30.4745</ele>
        <time>2011-02-27T13:10:34Z</time>
      </trkpt>
      <trkpt lat="46.40505" lon="-0.43077">
        <ele>30.4897</ele>
        <time>2011-02-27T13:10:35Z</time>
      </trkpt>
      <trkpt lat="46.40504" lon="-0.43078">
        <ele>30.5028</ele>
        <time>2011-02-27T13:10:36Z</time>
      </trkpt>
      <trkpt lat="46.40503" lon="-0.43079">
        <ele>30.5098</ele>
        <time>2011-02-27T13:10:37Z</time>
      </trkpt>
      <trkpt lat="46.40502" lon="-0.4308">
        <ele>30.5195</ele>
        <time>2011-02-27T13:10:38Z</time>
      </trkpt>
      <trkpt lat="46.40501" lon="-0.4308">
        <ele>30.5263</ele>
        <time>2011-02-27T13:10:39Z</time>
      </trkpt>
      <trkpt lat="46.40501" lon="-0.43081">
        <ele>30.5294</ele>
        <time>2011-02-27T13:10:40Z</time>
      </trkpt>
      <trkpt lat="46.405" lon="-0.43082">
        <ele>30.5576</ele>
        <time>2011-02-27T13:10:41Z</time>
      </trkpt>
      <trkpt lat="46.40499" lon="-0.43084">
        <ele>30.5964</ele>
        <time>2011-02-27T13:10:42Z</time>
      </trkpt>
      <trkpt lat="46.40498" lon="-0.43085">
        <ele>30.6482</ele>
        <time>2011-02-27T13:10:43Z</time>
      </trkpt>
      <trkpt lat="46.40497" lon="-0.43086">
        <ele>30.6986</ele>
        <time>2011-02-27T13:10:44Z</time>
      </trkpt>
      <trkpt lat="46.40496" lon="-0.43088">
        <ele>30.7546</ele>
        <time>2011-02-27T13:10:45Z</time>
      </trkpt>
      <trkpt lat="46.40495" lon="-0.43089">
        <ele>30.8093</ele>
        <time>2011-02-27T13:10:46Z</time>
      </trkpt>
      <trkpt lat="46.40495" lon="-0.4309">
        <ele>30.8563</ele>
        <time>2011-02-27T13:10:47Z</time>
      </trkpt>
      <trkpt lat="46.40493" lon="-0.43091">
        <ele>30.8991</ele>
        <time>2011-02-27T13:10:48Z</time>
      </trkpt>
      <trkpt lat="46.40493" lon="-0.43092">
        <ele>30.9287</ele>
        <time>2011-02-27T13:10:49Z</time>
      </trkpt>
      <trkpt lat="46.40492" lon="-0.43094">
        <ele>30.956</ele>
        <time>2011-02-27T13:10:50Z</time>
      </trkpt>
      <trkpt lat="46.40491" lon="-0.43095">
        <ele>30.9838</ele>
        <time>2011-02-27T13:10:51Z</time>
      </trkpt>
      <trkpt lat="46.4049" lon="-0.43096">
        <ele>31.0079</ele>
        <time>2011-02-27T13:10:52Z</time>
      </trkpt>
      <trkpt lat="46.40489" lon="-0.43097">
        <ele>31.0537</ele>
        <time>2011-02-27T13:10:53Z</time>
      </trkpt>
      <trkpt lat="46.40488" lon="-0.43098">
        <ele>31.0942</ele>
        <time>2011-02-27T13:10:54Z</time>
      </trkpt>
      <trkpt lat="46.40487" lon="-0.43099">
        <ele>31.13</ele>
        <time>2011-02-27T13:10:55Z</time>
      </trkpt>
      <trkpt lat="46.40486" lon="-0.431">
        <ele>31.1627</ele>
        <time>2011-02-27T13:10:56Z</time>
      </trkpt>
      <trkpt lat="46.40485" lon="-0.43101">
        <ele>31.1941</ele>
        <time>2011-02-27T13:10:57Z</time>
      </trkpt>
      <trkpt lat="46.40484" lon="-0.43102">
        <ele>31.2207</ele>
        <time>2011-02-27T13:10:58Z</time>
      </trkpt>
      <trkpt lat="46.40481" lon="-0.43107">
        <ele>31.3755</ele>
        <time>2011-02-27T13:11:03Z</time>
      </trkpt>
      <trkpt lat="46.40479" lon="-0.43114">
        <ele>31.5989</ele>
        <time>2011-02-27T13:11:15Z</time>
      </trkpt>
      <trkpt lat="46.40476" lon="-0.43116">
        <ele>31.5995</ele>
        <time>2011-02-27T13:11:17Z</time>
      </trkpt>
      <trkpt lat="46.40473" lon="-0.4312">
        <ele>31.6342</ele>
        <time>2011-02-27T13:11:21Z</time>
      </trkpt>
      <trkpt lat="46.40469" lon="-0.43126">
        <ele>31.756</ele>
        <time>2011-02-27T13:11:26Z</time>
      </trkpt>
      <trkpt lat="46.40467" lon="-0.43128">
        <ele>31.8139</ele>
        <time>2011-02-27T13:11:28Z</time>
      </trkpt>
      <trkpt lat="46.40466" lon="-0.43129">
        <ele>31.8457</ele>
        <time>2011-02-27T13:11:29Z</time>
      </trkpt>
      <trkpt lat="46.40465" lon="-0.4313">
        <ele>31.8697</ele>
        <time>2011-02-27T13:11:30Z</time>
      </trkpt>
      <trkpt lat="46.40464" lon="-0.43131">
        <ele>31.8945</ele>
        <time>2011-02-27T13:11:31Z</time>
      </trkpt>
      <trkpt lat="46.40463" lon="-0.43132">
        <ele>31.9227</ele>
        <time>2011-02-27T13:11:32Z</time>
      </trkpt>
      <trkpt lat="46.40461" lon="-0.43133">
        <ele>31.952</ele>
        <time>2011-02-27T13:11:33Z</time>
      </trkpt>
      <trkpt lat="46.40461" lon="-0.43133">
        <ele>31.9813</ele>
        <time>2011-02-27T13:11:34Z</time>
      </trkpt>
      <trkpt lat="46.40459" lon="-0.43134">
        <ele>32.0071</ele>
        <time>2011-02-27T13:11:35Z</time>
      </trkpt>
      <trkpt lat="46.40459" lon="-0.43135">
        <ele>32.0323</ele>
        <time>2011-02-27T13:11:36Z</time>
      </trkpt>
      <trkpt lat="46.40458" lon="-0.43136">
        <ele>32.0555</ele>
        <time>2011-02-27T13:11:37Z</time>
      </trkpt>
      <trkpt lat="46.40457" lon="-0.43137">
        <ele>32.0784</ele>
        <time>2011-02-27T13:11:38Z</time>
      </trkpt>
      <trkpt lat="46.40456" lon="-0.43138">
        <ele>32.1005</ele>
        <time>2011-02-27T13:11:39Z</time>
      </trkpt>
      <trkpt lat="46.40455" lon="-0.43139">
        <ele>32.1163</ele>
        <time>2011-02-27T13:11:40Z</time>
      </trkpt>
      <trkpt lat="46.40454" lon="-0.43141">
        <ele>32.1223</ele>
        <time>2011-02-27T13:11:41Z</time>
      </trkpt>
      <trkpt lat="46.40453" lon="-0.43142">
        <ele>32.13</ele>
        <time>2011-02-27T13:11:42Z</time>
      </trkpt>
      <trkpt lat="46.40451" lon="-0.43143">
        <ele>32.1393</ele>
        <time>2011-02-27T13:11:43Z</time>
      </trkpt>
      <trkpt lat="46.40451" lon="-0.43144">
        <ele>32.1486</ele>
        <time>2011-02-27T13:11:44Z</time>
      </trkpt>
      <trkpt lat="46.4045" lon="-0.43146">
        <ele>32.1574</ele>
        <time>2011-02-27T13:11:45Z</time>
      </trkpt>
      <trkpt lat="46.40449" lon="-0.43147">
        <ele>32.1672</ele>
        <time>2011-02-27T13:11:46Z</time>
      </trkpt>
      <trkpt lat="46.40448" lon="-0.43148">
        <ele>32.1765</ele>
        <time>2011-02-27T13:11:47Z</time>
      </trkpt>
      <trkpt lat="46.40447" lon="-0.43149">
        <ele>32.1778</ele>
        <time>2011-02-27T13:11:48Z</time>
      </trkpt>
      <trkpt lat="46.40445" lon="-0.43151">
        <ele>32.1753</ele>
        <time>2011-02-27T13:11:49Z</time>
      </trkpt>
      <trkpt lat="46.40445" lon="-0.43152">
        <ele>32.1644</ele>
        <time>2011-02-27T13:11:50Z</time>
      </trkpt>
      <trkpt lat="46.40443" lon="-0.43153">
        <ele>32.1554</ele>
        <time>2011-02-27T13:11:51Z</time>
      </trkpt>
      <trkpt lat="46.40443" lon="-0.43154">
        <ele>32.1484</ele>
        <time>2011-02-27T13:11:52Z</time>
      </trkpt>
      <trkpt lat="46.40442" lon="-0.43155">
        <ele>32.1412</ele>
        <time>2011-02-27T13:11:53Z</time>
      </trkpt>
      <trkpt lat="46.4044" lon="-0.43156">
        <ele>32.1323</ele>
        <time>2011-02-27T13:11:54Z</time>
      </trkpt>
      <trkpt lat="46.4044" lon="-0.43157">
        <ele>32.1242</ele>
        <time>2011-02-27T13:11:55Z</time>
      </trkpt>
      <trkpt lat="46.40439" lon="-0.43158">
        <ele>32.116</ele>
        <time>2011-02-27T13:11:56Z</time>
      </trkpt>
      <trkpt lat="46.40437" lon="-0.43159">
        <ele>32.1108</ele>
        <time>2011-02-27T13:11:57Z</time>
      </trkpt>
      <trkpt lat="46.40436" lon="-0.43161">
        <ele>32.1039</ele>
        <time>2011-02-27T13:11:58Z</time>
      </trkpt>
      <trkpt lat="46.40435" lon="-0.43162">
        <ele>32.0956</ele>
        <time>2011-02-27T13:11:59Z</time>
      </trkpt>
      <trkpt lat="46.40434" lon="-0.43163">
        <ele>32.0876</ele>
        <time>2011-02-27T13:12:00Z</time>
      </trkpt>
      <trkpt lat="46.40434" lon="-0.43165">
        <ele>32.0784</ele>
        <time>2011-02-27T13:12:01Z</time>
      </trkpt>
      <trkpt lat="46.40433" lon="-0.43166">
        <ele>32.0696</ele>
        <time>2011-02-27T13:12:02Z</time>
      </trkpt>
      <trkpt lat="46.40432" lon="-0.43167">
        <ele>32.0587</ele>
        <time>2011-02-27T13:12:03Z</time>
      </trkpt>
      <trkpt lat="46.40431" lon="-0.43168">
        <ele>32.0482</ele>
        <time>2011-02-27T13:12:04Z</time>
      </trkpt>
      <trkpt lat="46.4043" lon="-0.43169">
        <ele>32.0397</ele>
        <time>2011-02-27T13:12:05Z</time>
      </trkpt>
      <trkpt lat="46.40429" lon="-0.4317">
        <ele>32.032</ele>
        <time>2011-02-27T13:12:06Z</time>
      </trkpt>
      <trkpt lat="46.40428" lon="-0.43171">
        <ele>32.0206</ele>
        <time>2011-02-27T13:12:07Z</time>
      </trkpt>
      <trkpt lat="46.40427" lon="-0.43172">
        <ele>32.0097</ele>
        <time>2011-02-27T13:12:08Z</time>
      </trkpt>
      <trkpt lat="46.40426" lon="-0.43173">
        <ele>32.0022</ele>
        <time>2011-02-27T13:12:09Z</time>
      </trkpt>
      <trkpt lat="46.40426" lon="-0.43174">
        <ele>31.9928</ele>
        <time>2011-02-27T13:12:10Z</time>
      </trkpt>
      <trkpt lat="46.40424" lon="-0.43176">
        <ele>31.9833</ele>
        <time>2011-02-27T13:12:11Z</time>
      </trkpt>
      <trkpt lat="46.40424" lon="-0.43177">
        <ele>31.9722</ele>
        <time>2011-02-27T13:12:12Z</time>
      </trkpt>
      <trkpt lat="46.40423" lon="-0.43178">
        <ele>31.9615</ele>
        <time>2011-02-27T13:12:13Z</time>
      </trkpt>
      <trkpt lat="46.40422" lon="-0.43179">
        <ele>31.9504</ele>
        <time>2011-02-27T13:12:14Z</time>
      </trkpt>
      <trkpt lat="46.40421" lon="-0.4318">
        <ele>31.9624</ele>
        <time>2011-02-27T13:12:15Z</time>
      </trkpt>
      <trkpt lat="46.4042" lon="-0.43181">
        <ele>31.9779</ele>
        <time>2011-02-27T13:12:16Z</time>
      </trkpt>
      <trkpt lat="46.40419" lon="-0.43182">
        <ele>31.9821</ele>
        <time>2011-02-27T13:12:17Z</time>
      </trkpt>
      <trkpt lat="46.40418" lon="-0.43182">
        <ele>31.9813</ele>
        <time>2011-02-27T13:12:18Z</time>
      </trkpt>
      <trkpt lat="46.40417" lon="-0.43183">
        <ele>31.9563</ele>
        <time>2011-02-27T13:12:19Z</time>
      </trkpt>
      <trkpt lat="46.40416" lon="-0.43184">
        <ele>31.9217</ele>
        <time>2011-02-27T13:12:20Z</time>
      </trkpt>
      <trkpt lat="46.40416" lon="-0.43185">
        <ele>31.8662</ele>
        <time>2011-02-27T13:12:21Z</time>
      </trkpt>
      <trkpt lat="46.40415" lon="-0.43186">
        <ele>31.8126</ele>
        <time>2011-02-27T13:12:22Z</time>
      </trkpt>
      <trkpt lat="46.40414" lon="-0.43186">
        <ele>31.7599</ele>
        <time>2011-02-27T13:12:23Z</time>
      </trkpt>
      <trkpt lat="46.40414" lon="-0.43187">
        <ele>31.7066</ele>
        <time>2011-02-27T13:12:24Z</time>
      </trkpt>
      <trkpt lat="46.40413" lon="-0.43188">
        <ele>31.6508</ele>
        <time>2011-02-27T13:12:25Z</time>
      </trkpt>
      <trkpt lat="46.40413" lon="-0.43189">
        <ele>31.6183</ele>
        <time>2011-02-27T13:12:26Z</time>
      </trkpt>
      <trkpt lat="46.40412" lon="-0.4319">
        <ele>31.586</ele>
        <time>2011-02-27T13:12:27Z</time>
      </trkpt>
      <trkpt lat="46.40411" lon="-0.4319">
        <ele>31.5384</ele>
        <time>2011-02-27T13:12:28Z</time>
      </trkpt>
      <trkpt lat="46.40409" lon="-0.43193">
        <ele>31.2803</ele>
        <time>2011-02-27T13:12:32Z</time>
      </trkpt>
      <trkpt lat="46.40408" lon="-0.43193">
        <ele>31.2214</ele>
        <time>2011-02-27T13:12:33Z</time>
      </trkpt>
      <trkpt lat="46.40407" lon="-0.43194">
        <ele>31.1623</ele>
        <time>2011-02-27T13:12:34Z</time>
      </trkpt>
      <trkpt lat="46.40406" lon="-0.43195">
        <ele>31.1045</ele>
        <time>2011-02-27T13:12:35Z</time>
      </trkpt>
      <trkpt lat="46.40406" lon="-0.43196">
        <ele>31.0446</ele>
        <time>2011-02-27T13:12:36Z</time>
      </trkpt>
      <trkpt lat="46.40402" lon="-0.432">
        <ele>30.8358</ele>
        <time>2011-02-27T13:12:40Z</time>
      </trkpt>
      <trkpt lat="46.40398" lon="-0.43205">
        <ele>30.7021</ele>
        <time>2011-02-27T13:12:45Z</time>
      </trkpt>
      <trkpt lat="46.40395" lon="-0.43211">
        <ele>30.6787</ele>
        <time>2011-02-27T13:12:49Z</time>
      </trkpt>
      <trkpt lat="46.40393" lon="-0.43216">
        <ele>30.6838</ele>
        <time>2011-02-27T13:12:52Z</time>
      </trkpt>
      <trkpt lat="46.4039" lon="-0.43222">
        <ele>30.7275</ele>
        <time>2011-02-27T13:12:55Z</time>
      </trkpt>
      <trkpt lat="46.40386" lon="-0.43229">
        <ele>30.816</ele>
        <time>2011-02-27T13:13:00Z</time>
      </trkpt>
      <trkpt lat="46.40383" lon="-0.43234">
        <ele>30.9983</ele>
        <time>2011-02-27T13:13:05Z</time>
      </trkpt>
      <trkpt lat="46.40378" lon="-0.43233">
        <ele>31.071</ele>
        <time>2011-02-27T13:13:14Z</time>
      </trkpt>
      <trkpt lat="46.40373" lon="-0.43235">
        <ele>31.3448</ele>
        <time>2011-02-27T13:13:20Z</time>
      </trkpt>
      <trkpt lat="46.40372" lon="-0.43237">
        <ele>31.5039</ele>
        <time>2011-02-27T13:13:22Z</time>
      </trkpt>
      <trkpt lat="46.40371" lon="-0.43239">
        <ele>31.6043</ele>
        <time>2011-02-27T13:13:23Z</time>
      </trkpt>
      <trkpt lat="46.4037" lon="-0.4324">
        <ele>31.7069</ele>
        <time>2011-02-27T13:13:24Z</time>
      </trkpt>
      <trkpt lat="46.40369" lon="-0.43241">
        <ele>31.8124</ele>
        <time>2011-02-27T13:13:25Z</time>
      </trkpt>
      <trkpt lat="46.40369" lon="-0.43243">
        <ele>31.9087</ele>
        <time>2011-02-27T13:13:26Z</time>
      </trkpt>
      <trkpt lat="46.40368" lon="-0.43244">
        <ele>32.0035</ele>
        <time>2011-02-27T13:13:27Z</time>
      </trkpt>
      <trkpt lat="46.40367" lon="-0.43245">
        <ele>32.1002</ele>
        <time>2011-02-27T13:13:28Z</time>
      </trkpt>
      <trkpt lat="46.40364" lon="-0.43252">
        <ele>32.5116</ele>
        <time>2011-02-27T13:13:33Z</time>
      </trkpt>
      <trkpt lat="46.40363" lon="-0.43254">
        <ele>32.6731</ele>
        <time>2011-02-27T13:13:35Z</time>
      </trkpt>
      <trkpt lat="46.40363" lon="-0.43255">
        <ele>32.7535</ele>
        <time>2011-02-27T13:13:36Z</time>
      </trkpt>
      <trkpt lat="46.40363" lon="-0.43257">
        <ele>32.836</ele>
        <time>2011-02-27T13:13:37Z</time>
      </trkpt>
      <trkpt lat="46.40362" lon="-0.43258">
        <ele>32.9177</ele>
        <time>2011-02-27T13:13:38Z</time>
      </trkpt>
      <trkpt lat="46.40362" lon="-0.43259">
        <ele>32.9984</ele>
        <time>2011-02-27T13:13:39Z</time>
      </trkpt>
      <trkpt lat="46.40361" lon="-0.4326">
        <ele>33.078</ele>
        <time>2011-02-27T13:13:40Z</time>
      </trkpt>
      <trkpt lat="46.40358" lon="-0.43267">
        <ele>33.4994</ele>
        <time>2011-02-27T13:13:47Z</time>
      </trkpt>
      <trkpt lat="46.40356" lon="-0.43273">
        <ele>33.9335</ele>
        <time>2011-02-27T13:13:53Z</time>
      </trkpt>
      <trkpt lat="46.40355" lon="-0.43276">
        <ele>34.1109</ele>
        <time>2011-02-27T13:13:56Z</time>
      </trkpt>
      <trkpt lat="46.40354" lon="-0.43277">
        <ele>34.1364</ele>
        <time>2011-02-27T13:13:57Z</time>
      </trkpt>
      <trkpt lat="46.40353" lon="-0.43278">
        <ele>34.1612</ele>
        <time>2011-02-27T13:13:58Z</time>
      </trkpt>
      <trkpt lat="46.40353" lon="-0.4328">
        <ele>34.1902</ele>
        <time>2011-02-27T13:13:59Z</time>
      </trkpt>
      <trkpt lat="46.40352" lon="-0.43282">
        <ele>34.2221</ele>
        <time>2011-02-27T13:14:00Z</time>
      </trkpt>
      <trkpt lat="46.40351" lon="-0.43284">
        <ele>34.2534</ele>
        <time>2011-02-27T13:14:01Z</time>
      </trkpt>
      <trkpt lat="46.4035" lon="-0.43285">
        <ele>34.2898</ele>
        <time>2011-02-27T13:14:02Z</time>
      </trkpt>
      <trkpt lat="46.40347" lon="-0.4329">
        <ele>34.4095</ele>
        <time>2011-02-27T13:14:06Z</time>
      </trkpt>
      <trkpt lat="46.40344" lon="-0.43297">
        <ele>34.4923</ele>
        <time>2011-02-27T13:14:10Z</time>
      </trkpt>
      <trkpt lat="46.40342" lon="-0.43304">
        <ele>34.7376</ele>
        <time>2011-02-27T13:14:14Z</time>
      </trkpt>
      <trkpt lat="46.40339" lon="-0.4331">
        <ele>35.036</ele>
        <time>2011-02-27T13:14:21Z</time>
      </trkpt>
      <trkpt lat="46.40335" lon="-0.43314">
        <ele>35.4755</ele>
        <time>2011-02-27T13:14:26Z</time>
      </trkpt>
      <trkpt lat="46.40331" lon="-0.43317">
        <ele>35.6703</ele>
        <time>2011-02-27T13:14:33Z</time>
      </trkpt>
      <trkpt lat="46.40329" lon="-0.4332">
        <ele>35.8804</ele>
        <time>2011-02-27T13:14:36Z</time>
      </trkpt>
      <trkpt lat="46.40329" lon="-0.43321">
        <ele>35.9442</ele>
        <time>2011-02-27T13:14:37Z</time>
      </trkpt>
      <trkpt lat="46.40328" lon="-0.43323">
        <ele>35.9957</ele>
        <time>2011-02-27T13:14:38Z</time>
      </trkpt>
      <trkpt lat="46.40326" lon="-0.43325">
        <ele>36.0311</ele>
        <time>2011-02-27T13:14:39Z</time>
      </trkpt>
      <trkpt lat="46.40325" lon="-0.43327">
        <ele>36.0641</ele>
        <time>2011-02-27T13:14:40Z</time>
      </trkpt>
      <trkpt lat="46.40324" lon="-0.43328">
        <ele>36.0961</ele>
        <time>2011-02-27T13:14:41Z</time>
      </trkpt>
      <trkpt lat="46.40324" lon="-0.4333">
        <ele>36.1256</ele>
        <time>2011-02-27T13:14:42Z</time>
      </trkpt>
      <trkpt lat="46.40323" lon="-0.43331">
        <ele>36.1482</ele>
        <time>2011-02-27T13:14:43Z</time>
      </trkpt>
      <trkpt lat="46.40322" lon="-0.43332">
        <ele>36.1707</ele>
        <time>2011-02-27T13:14:44Z</time>
      </trkpt>
      <trkpt lat="46.40322" lon="-0.43334">
        <ele>36.1886</ele>
        <time>2011-02-27T13:14:45Z</time>
      </trkpt>
      <trkpt lat="46.40321" lon="-0.43335">
        <ele>36.2069</ele>
        <time>2011-02-27T13:14:46Z</time>
      </trkpt>
      <trkpt lat="46.40321" lon="-0.43337">
        <ele>36.2245</ele>
        <time>2011-02-27T13:14:47Z</time>
      </trkpt>
      <trkpt lat="46.4032" lon="-0.43338">
        <ele>36.2375</ele>
        <time>2011-02-27T13:14:48Z</time>
      </trkpt>
      <trkpt lat="46.4032" lon="-0.4334">
        <ele>36.2566</ele>
        <time>2011-02-27T13:14:49Z</time>
      </trkpt>
      <trkpt lat="46.40319" lon="-0.43342">
        <ele>36.2797</ele>
        <time>2011-02-27T13:14:50Z</time>
      </trkpt>
      <trkpt lat="46.40319" lon="-0.43343">
        <ele>36.303</ele>
        <time>2011-02-27T13:14:51Z</time>
      </trkpt>
      <trkpt lat="46.40318" lon="-0.43345">
        <ele>36.3266</ele>
        <time>2011-02-27T13:14:52Z</time>
      </trkpt>
      <trkpt lat="46.40318" lon="-0.43347">
        <ele>36.3506</ele>
        <time>2011-02-27T13:14:53Z</time>
      </trkpt>
      <trkpt lat="46.40317" lon="-0.43348">
        <ele>36.3747</ele>
        <time>2011-02-27T13:14:54Z</time>
      </trkpt>
      <trkpt lat="46.40317" lon="-0.43348">
        <ele>36.3978</ele>
        <time>2011-02-27T13:14:55Z</time>
      </trkpt>
      <trkpt lat="46.40316" lon="-0.4335">
        <ele>36.509</ele>
        <time>2011-02-27T13:15:00Z</time>
      </trkpt>
      <trkpt lat="46.40316" lon="-0.43351">
        <ele>36.5347</ele>
        <time>2011-02-27T13:15:01Z</time>
      </trkpt>
      <trkpt lat="46.40314" lon="-0.43352">
        <ele>36.5493</ele>
        <time>2011-02-27T13:15:04Z</time>
      </trkpt>
      <trkpt lat="46.40313" lon="-0.43352">
        <ele>36.5495</ele>
        <time>2011-02-27T13:15:05Z</time>
      </trkpt>
      <trkpt lat="46.40312" lon="-0.43352">
        <ele>36.5528</ele>
        <time>2011-02-27T13:15:06Z</time>
      </trkpt>
      <trkpt lat="46.40307" lon="-0.43352">
        <ele>36.3908</ele>
        <time>2011-02-27T13:15:15Z</time>
      </trkpt>
      <trkpt lat="46.40304" lon="-0.43354">
        <ele>36.283</ele>
        <time>2011-02-27T13:15:19Z</time>
      </trkpt>
      <trkpt lat="46.40303" lon="-0.43355">
        <ele>36.242</ele>
        <time>2011-02-27T13:15:20Z</time>
      </trkpt>
      <trkpt lat="46.40303" lon="-0.43356">
        <ele>36.2013</ele>
        <time>2011-02-27T13:15:21Z</time>
      </trkpt>
      <trkpt lat="46.40302" lon="-0.43357">
        <ele>36.1609</ele>
        <time>2011-02-27T13:15:22Z</time>
      </trkpt>
      <trkpt lat="46.40301" lon="-0.43358">
        <ele>36.1211</ele>
        <time>2011-02-27T13:15:23Z</time>
      </trkpt>
      <trkpt lat="46.403" lon="-0.43358">
        <ele>36.0631</ele>
        <time>2011-02-27T13:15:24Z</time>
      </trkpt>
      <trkpt lat="46.40299" lon="-0.43358">
        <ele>36.0129</ele>
        <time>2011-02-27T13:15:25Z</time>
      </trkpt>
      <trkpt lat="46.40299" lon="-0.43359">
        <ele>35.9644</ele>
        <time>2011-02-27T13:15:26Z</time>
      </trkpt>
      <trkpt lat="46.40298" lon="-0.43359">
        <ele>35.9166</ele>
        <time>2011-02-27T13:15:27Z</time>
      </trkpt>
      <trkpt lat="46.40297" lon="-0.4336">
        <ele>35.8667</ele>
        <time>2011-02-27T13:15:28Z</time>
      </trkpt>
      <trkpt lat="46.40293" lon="-0.43358">
        <ele>35.6662</ele>
        <time>2011-02-27T13:15:38Z</time>
      </trkpt>
      <trkpt lat="46.40292" lon="-0.43359">
        <ele>35.5615</ele>
        <time>2011-02-27T13:15:43Z</time>
      </trkpt>
      <trkpt lat="46.40291" lon="-0.43359">
        <ele>35.5289</ele>
        <time>2011-02-27T13:15:44Z</time>
      </trkpt>
      <trkpt lat="46.40291" lon="-0.4336">
        <ele>35.4985</ele>
        <time>2011-02-27T13:15:45Z</time>
      </trkpt>
      <trkpt lat="46.4029" lon="-0.4336">
        <ele>35.4682</ele>
        <time>2011-02-27T13:15:46Z</time>
      </trkpt>
      <trkpt lat="46.40289" lon="-0.43361">
        <ele>35.4331</ele>
        <time>2011-02-27T13:15:47Z</time>
      </trkpt>
      <trkpt lat="46.40288" lon="-0.43362">
        <ele>35.3993</ele>
        <time>2011-02-27T13:15:48Z</time>
      </trkpt>
      <trkpt lat="46.40287" lon="-0.43362">
        <ele>35.3671</ele>
        <time>2011-02-27T13:15:49Z</time>
      </trkpt>
      <trkpt lat="46.40287" lon="-0.43362">
        <ele>35.343</ele>
        <time>2011-02-27T13:15:50Z</time>
      </trkpt>
      <trkpt lat="46.40286" lon="-0.43363">
        <ele>35.3165</ele>
        <time>2011-02-27T13:15:51Z</time>
      </trkpt>
      <trkpt lat="46.40285" lon="-0.43363">
        <ele>35.2909</ele>
        <time>2011-02-27T13:15:52Z</time>
      </trkpt>
      <trkpt lat="46.40284" lon="-0.43364">
        <ele>35.2653</ele>
        <time>2011-02-27T13:15:53Z</time>
      </trkpt>
      <trkpt lat="46.40283" lon="-0.43363">
        <ele>35.2607</ele>
        <time>2011-02-27T13:15:54Z</time>
      </trkpt>
      <trkpt lat="46.40281" lon="-0.43363">
        <ele>35.2768</ele>
        <time>2011-02-27T13:15:55Z</time>
      </trkpt>
      <trkpt lat="46.4028" lon="-0.43363">
        <ele>35.2911</ele>
        <time>2011-02-27T13:15:56Z</time>
      </trkpt>
      <trkpt lat="46.40279" lon="-0.43363">
        <ele>35.3042</ele>
        <time>2011-02-27T13:15:57Z</time>
      </trkpt>
      <trkpt lat="46.40279" lon="-0.43363">
        <ele>35.3091</ele>
        <time>2011-02-27T13:15:58Z</time>
      </trkpt>
      <trkpt lat="46.40273" lon="-0.43363">
        <ele>35.277</ele>
        <time>2011-02-27T13:16:05Z</time>
      </trkpt>
      <trkpt lat="46.40273" lon="-0.43363">
        <ele>35.2464</ele>
        <time>2011-02-27T13:16:06Z</time>
      </trkpt>
      <trkpt lat="46.40271" lon="-0.43364">
        <ele>35.2172</ele>
        <time>2011-02-27T13:16:07Z</time>
      </trkpt>
      <trkpt lat="46.40271" lon="-0.43364">
        <ele>35.1888</ele>
        <time>2011-02-27T13:16:08Z</time>
      </trkpt>
      <trkpt lat="46.4027" lon="-0.43365">
        <ele>35.1589</ele>
        <time>2011-02-27T13:16:09Z</time>
      </trkpt>
      <trkpt lat="46.4027" lon="-0.43366">
        <ele>35.129</ele>
        <time>2011-02-27T13:16:10Z</time>
      </trkpt>
      <trkpt lat="46.40269" lon="-0.43366">
        <ele>35.1021</ele>
        <time>2011-02-27T13:16:11Z</time>
      </trkpt>
      <trkpt lat="46.40268" lon="-0.43366">
        <ele>35.0748</ele>
        <time>2011-02-27T13:16:12Z</time>
      </trkpt>
      <trkpt lat="46.40267" lon="-0.43367">
        <ele>35.0497</ele>
        <time>2011-02-27T13:16:13Z</time>
      </trkpt>
      <trkpt lat="46.40266" lon="-0.43367">
        <ele>35.0262</ele>
        <time>2011-02-27T13:16:14Z</time>
      </trkpt>
      <trkpt lat="46.40265" lon="-0.43367">
        <ele>35.0097</ele>
        <time>2011-02-27T13:16:15Z</time>
      </trkpt>
      <trkpt lat="46.40265" lon="-0.43367">
        <ele>35.0056</ele>
        <time>2011-02-27T13:16:16Z</time>
      </trkpt>
      <trkpt lat="46.40263" lon="-0.43368">
        <ele>35.0008</ele>
        <time>2011-02-27T13:16:17Z</time>
      </trkpt>
      <trkpt lat="46.40263" lon="-0.43368">
        <ele>34.9962</ele>
        <time>2011-02-27T13:16:18Z</time>
      </trkpt>
      <trkpt lat="46.40262" lon="-0.43369">
        <ele>34.9842</ele>
        <time>2011-02-27T13:16:19Z</time>
      </trkpt>
      <trkpt lat="46.40261" lon="-0.4337">
        <ele>34.9861</ele>
        <time>2011-02-27T13:16:20Z</time>
      </trkpt>
      <trkpt lat="46.4026" lon="-0.4337">
        <ele>34.971</ele>
        <time>2011-02-27T13:16:21Z</time>
      </trkpt>
      <trkpt lat="46.40259" lon="-0.43371">
        <ele>34.9563</ele>
        <time>2011-02-27T13:16:22Z</time>
      </trkpt>
      <trkpt lat="46.40258" lon="-0.43372">
        <ele>34.942</ele>
        <time>2011-02-27T13:16:23Z</time>
      </trkpt>
      <trkpt lat="46.40257" lon="-0.43372">
        <ele>34.9298</ele>
        <time>2011-02-27T13:16:24Z</time>
      </trkpt>
      <trkpt lat="46.40256" lon="-0.43373">
        <ele>34.9204</ele>
        <time>2011-02-27T13:16:25Z</time>
      </trkpt>
      <trkpt lat="46.40255" lon="-0.43373">
        <ele>34.9112</ele>
        <time>2011-02-27T13:16:26Z</time>
      </trkpt>
      <trkpt lat="46.40254" lon="-0.43374">
        <ele>34.9054</ele>
        <time>2011-02-27T13:16:27Z</time>
      </trkpt>
      <trkpt lat="46.40253" lon="-0.43375">
        <ele>34.9041</ele>
        <time>2011-02-27T13:16:28Z</time>
      </trkpt>
      <trkpt lat="46.40252" lon="-0.43375">
        <ele>34.8992</ele>
        <time>2011-02-27T13:16:29Z</time>
      </trkpt>
      <trkpt lat="46.40251" lon="-0.43376">
        <ele>34.8898</ele>
        <time>2011-02-27T13:16:30Z</time>
      </trkpt>
      <trkpt lat="46.4025" lon="-0.43376">
        <ele>34.8843</ele>
        <time>2011-02-27T13:16:31Z</time>
      </trkpt>
      <trkpt lat="46.40249" lon="-0.43376">
        <ele>34.8813</ele>
        <time>2011-02-27T13:16:32Z</time>
      </trkpt>
      <trkpt lat="46.40248" lon="-0.43376">
        <ele>34.8775</ele>
        <time>2011-02-27T13:16:34Z</time>
      </trkpt>
      <trkpt lat="46.40247" lon="-0.43376">
        <ele>34.8746</ele>
        <time>2011-02-27T13:16:35Z</time>
      </trkpt>
      <trkpt lat="46.40245" lon="-0.43377">
        <ele>34.8827</ele>
        <time>2011-02-27T13:16:36Z</time>
      </trkpt>
      <trkpt lat="46.40244" lon="-0.43378">
        <ele>34.8958</ele>
        <time>2011-02-27T13:16:37Z</time>
      </trkpt>
      <trkpt lat="46.40243" lon="-0.43378">
        <ele>34.9097</ele>
        <time>2011-02-27T13:16:38Z</time>
      </trkpt>
      <trkpt lat="46.40242" lon="-0.43379">
        <ele>34.9258</ele>
        <time>2011-02-27T13:16:39Z</time>
      </trkpt>
      <trkpt lat="46.40241" lon="-0.4338">
        <ele>34.9431</ele>
        <time>2011-02-27T13:16:40Z</time>
      </trkpt>
      <trkpt lat="46.4024" lon="-0.4338">
        <ele>34.9622</ele>
        <time>2011-02-27T13:16:41Z</time>
      </trkpt>
      <trkpt lat="46.40239" lon="-0.43381">
        <ele>34.9818</ele>
        <time>2011-02-27T13:16:42Z</time>
      </trkpt>
      <trkpt lat="46.40238" lon="-0.43381">
        <ele>35.001</ele>
        <time>2011-02-27T13:16:43Z</time>
      </trkpt>
      <trkpt lat="46.40236" lon="-0.43382">
        <ele>35.0227</ele>
        <time>2011-02-27T13:16:44Z</time>
      </trkpt>
      <trkpt lat="46.40235" lon="-0.43382">
        <ele>35.0486</ele>
        <time>2011-02-27T13:16:45Z</time>
      </trkpt>
      <trkpt lat="46.40234" lon="-0.43383">
        <ele>35.072</ele>
        <time>2011-02-27T13:16:46Z</time>
      </trkpt>
      <trkpt lat="46.40233" lon="-0.43383">
        <ele>35.093</ele>
        <time>2011-02-27T13:16:47Z</time>
      </trkpt>
      <trkpt lat="46.40231" lon="-0.43383">
        <ele>35.1081</ele>
        <time>2011-02-27T13:16:48Z</time>
      </trkpt>
      <trkpt lat="46.4023" lon="-0.43384">
        <ele>35.1229</ele>
        <time>2011-02-27T13:16:49Z</time>
      </trkpt>
      <trkpt lat="46.40229" lon="-0.43385">
        <ele>35.1347</ele>
        <time>2011-02-27T13:16:50Z</time>
      </trkpt>
      <trkpt lat="46.40228" lon="-0.43385">
        <ele>35.1446</ele>
        <time>2011-02-27T13:16:51Z</time>
      </trkpt>
      <trkpt lat="46.40226" lon="-0.43385">
        <ele>35.1559</ele>
        <time>2011-02-27T13:16:52Z</time>
      </trkpt>
      <trkpt lat="46.40225" lon="-0.43386">
        <ele>35.1659</ele>
        <time>2011-02-27T13:16:53Z</time>
      </trkpt>
      <trkpt lat="46.40224" lon="-0.43386">
        <ele>35.17</ele>
        <time>2011-02-27T13:16:54Z</time>
      </trkpt>
      <trkpt lat="46.40223" lon="-0.43386">
        <ele>35.1742</ele>
        <time>2011-02-27T13:16:55Z</time>
      </trkpt>
      <trkpt lat="46.40221" lon="-0.43386">
        <ele>35.1721</ele>
        <time>2011-02-27T13:16:56Z</time>
      </trkpt>
      <trkpt lat="46.4022" lon="-0.43386">
        <ele>35.1634</ele>
        <time>2011-02-27T13:16:57Z</time>
      </trkpt>
      <trkpt lat="46.40218" lon="-0.43386">
        <ele>35.1551</ele>
        <time>2011-02-27T13:16:58Z</time>
      </trkpt>
      <trkpt lat="46.40216" lon="-0.43387">
        <ele>35.1441</ele>
        <time>2011-02-27T13:16:59Z</time>
      </trkpt>
      <trkpt lat="46.40214" lon="-0.43388">
        <ele>35.1355</ele>
        <time>2011-02-27T13:17:00Z</time>
      </trkpt>
      <trkpt lat="46.40213" lon="-0.43389">
        <ele>35.1239</ele>
        <time>2011-02-27T13:17:01Z</time>
      </trkpt>
      <trkpt lat="46.40211" lon="-0.4339">
        <ele>35.1128</ele>
        <time>2011-02-27T13:17:02Z</time>
      </trkpt>
      <trkpt lat="46.4021" lon="-0.4339">
        <ele>35.099</ele>
        <time>2011-02-27T13:17:03Z</time>
      </trkpt>
      <trkpt lat="46.40208" lon="-0.43391">
        <ele>35.0804</ele>
        <time>2011-02-27T13:17:04Z</time>
      </trkpt>
      <trkpt lat="46.40207" lon="-0.43391">
        <ele>35.0587</ele>
        <time>2011-02-27T13:17:05Z</time>
      </trkpt>
      <trkpt lat="46.40206" lon="-0.43392">
        <ele>35.0391</ele>
        <time>2011-02-27T13:17:06Z</time>
      </trkpt>
      <trkpt lat="46.40205" lon="-0.43393">
        <ele>35.018</ele>
        <time>2011-02-27T13:17:07Z</time>
      </trkpt>
      <trkpt lat="46.40204" lon="-0.43393">
        <ele>34.9988</ele>
        <time>2011-02-27T13:17:08Z</time>
      </trkpt>
      <trkpt lat="46.40202" lon="-0.43393">
        <ele>34.9818</ele>
        <time>2011-02-27T13:17:09Z</time>
      </trkpt>
      <trkpt lat="46.40201" lon="-0.43394">
        <ele>34.9596</ele>
        <time>2011-02-27T13:17:10Z</time>
      </trkpt>
      <trkpt lat="46.402" lon="-0.43394">
        <ele>34.9405</ele>
        <time>2011-02-27T13:17:11Z</time>
      </trkpt>
      <trkpt lat="46.40199" lon="-0.43395">
        <ele>34.9154</ele>
        <time>2011-02-27T13:17:12Z</time>
      </trkpt>
      <trkpt lat="46.40198" lon="-0.43395">
        <ele>34.8885</ele>
        <time>2011-02-27T13:17:13Z</time>
      </trkpt>
      <trkpt lat="46.40197" lon="-0.43396">
        <ele>34.8621</ele>
        <time>2011-02-27T13:17:14Z</time>
      </trkpt>
      <trkpt lat="46.40196" lon="-0.43396">
        <ele>34.8384</ele>
        <time>2011-02-27T13:17:15Z</time>
      </trkpt>
      <trkpt lat="46.40195" lon="-0.43396">
        <ele>34.8169</ele>
        <time>2011-02-27T13:17:16Z</time>
      </trkpt>
      <trkpt lat="46.40194" lon="-0.43397">
        <ele>34.8011</ele>
        <time>2011-02-27T13:17:17Z</time>
      </trkpt>
      <trkpt lat="46.40192" lon="-0.43397">
        <ele>34.7893</ele>
        <time>2011-02-27T13:17:18Z</time>
      </trkpt>
      <trkpt lat="46.40191" lon="-0.43397">
        <ele>34.7791</ele>
        <time>2011-02-27T13:17:19Z</time>
      </trkpt>
      <trkpt lat="46.4019" lon="-0.43398">
        <ele>34.7633</ele>
        <time>2011-02-27T13:17:20Z</time>
      </trkpt>
      <trkpt lat="46.40189" lon="-0.43398">
        <ele>34.7409</ele>
        <time>2011-02-27T13:17:21Z</time>
      </trkpt>
      <trkpt lat="46.40188" lon="-0.43399">
        <ele>34.7153</ele>
        <time>2011-02-27T13:17:22Z</time>
      </trkpt>
      <trkpt lat="46.40187" lon="-0.43399">
        <ele>34.6876</ele>
        <time>2011-02-27T13:17:23Z</time>
      </trkpt>
      <trkpt lat="46.40186" lon="-0.43399">
        <ele>34.6585</ele>
        <time>2011-02-27T13:17:24Z</time>
      </trkpt>
      <trkpt lat="46.40185" lon="-0.434">
        <ele>34.6169</ele>
        <time>2011-02-27T13:17:25Z</time>
      </trkpt>
      <trkpt lat="46.40184" lon="-0.43401">
        <ele>34.5681</ele>
        <time>2011-02-27T13:17:26Z</time>
      </trkpt>
      <trkpt lat="46.40183" lon="-0.43401">
        <ele>34.4329</ele>
        <time>2011-02-27T13:17:30Z</time>
      </trkpt>
      <trkpt lat="46.40182" lon="-0.43402">
        <ele>34.3671</ele>
        <time>2011-02-27T13:17:31Z</time>
      </trkpt>
      <trkpt lat="46.40181" lon="-0.43402">
        <ele>34.3013</ele>
        <time>2011-02-27T13:17:32Z</time>
      </trkpt>
      <trkpt lat="46.4018" lon="-0.43402">
        <ele>34.2365</ele>
        <time>2011-02-27T13:17:33Z</time>
      </trkpt>
      <trkpt lat="46.40179" lon="-0.43403">
        <ele>34.1716</ele>
        <time>2011-02-27T13:17:34Z</time>
      </trkpt>
      <trkpt lat="46.40178" lon="-0.43403">
        <ele>34.1075</ele>
        <time>2011-02-27T13:17:35Z</time>
      </trkpt>
      <trkpt lat="46.40176" lon="-0.43404">
        <ele>34.0433</ele>
        <time>2011-02-27T13:17:36Z</time>
      </trkpt>
      <trkpt lat="46.40175" lon="-0.43404">
        <ele>33.9747</ele>
        <time>2011-02-27T13:17:37Z</time>
      </trkpt>
      <trkpt lat="46.40174" lon="-0.43404">
        <ele>33.9014</ele>
        <time>2011-02-27T13:17:38Z</time>
      </trkpt>
      <trkpt lat="46.40173" lon="-0.43404">
        <ele>33.8295</ele>
        <time>2011-02-27T13:17:39Z</time>
      </trkpt>
      <trkpt lat="46.40172" lon="-0.43404">
        <ele>33.7565</ele>
        <time>2011-02-27T13:17:40Z</time>
      </trkpt>
      <trkpt lat="46.40171" lon="-0.43404">
        <ele>33.6836</ele>
        <time>2011-02-27T13:17:41Z</time>
      </trkpt>
      <trkpt lat="46.4017" lon="-0.43403">
        <ele>33.6123</ele>
        <time>2011-02-27T13:17:42Z</time>
      </trkpt>
      <trkpt lat="46.40169" lon="-0.43403">
        <ele>33.5496</ele>
        <time>2011-02-27T13:17:43Z</time>
      </trkpt>
      <trkpt lat="46.40168" lon="-0.43402">
        <ele>33.4879</ele>
        <time>2011-02-27T13:17:44Z</time>
      </trkpt>
      <trkpt lat="46.40167" lon="-0.43401">
        <ele>33.4265</ele>
        <time>2011-02-27T13:17:45Z</time>
      </trkpt>
      <trkpt lat="46.40166" lon="-0.43401">
        <ele>33.3648</ele>
        <time>2011-02-27T13:17:46Z</time>
      </trkpt>
      <trkpt lat="46.40165" lon="-0.43401">
        <ele>33.3011</ele>
        <time>2011-02-27T13:17:47Z</time>
      </trkpt>
      <trkpt lat="46.40164" lon="-0.43401">
        <ele>33.2387</ele>
        <time>2011-02-27T13:17:48Z</time>
      </trkpt>
      <trkpt lat="46.40163" lon="-0.43401">
        <ele>33.1774</ele>
        <time>2011-02-27T13:17:49Z</time>
      </trkpt>
      <trkpt lat="46.40162" lon="-0.43401">
        <ele>33.1115</ele>
        <time>2011-02-27T13:17:50Z</time>
      </trkpt>
      <trkpt lat="46.40161" lon="-0.43402">
        <ele>33.0407</ele>
        <time>2011-02-27T13:17:51Z</time>
      </trkpt>
      <trkpt lat="46.4016" lon="-0.43402">
        <ele>32.9669</ele>
        <time>2011-02-27T13:17:52Z</time>
      </trkpt>
      <trkpt lat="46.40159" lon="-0.43403">
        <ele>32.8891</ele>
        <time>2011-02-27T13:17:53Z</time>
      </trkpt>
      <trkpt lat="46.40161" lon="-0.43403">
        <ele>32.5349</ele>
        <time>2011-02-27T13:18:03Z</time>
      </trkpt>
      <trkpt lat="46.4016" lon="-0.43404">
        <ele>32.4057</ele>
        <time>2011-02-27T13:18:04Z</time>
      </trkpt>
      <trkpt lat="46.40159" lon="-0.43405">
        <ele>32.2702</ele>
        <time>2011-02-27T13:18:05Z</time>
      </trkpt>
      <trkpt lat="46.40157" lon="-0.43405">
        <ele>32.1267</ele>
        <time>2011-02-27T13:18:06Z</time>
      </trkpt>
      <trkpt lat="46.40156" lon="-0.43405">
        <ele>31.9865</ele>
        <time>2011-02-27T13:18:07Z</time>
      </trkpt>
      <trkpt lat="46.40155" lon="-0.43406">
        <ele>31.8484</ele>
        <time>2011-02-27T13:18:08Z</time>
      </trkpt>
      <trkpt lat="46.40155" lon="-0.43406">
        <ele>31.7174</ele>
        <time>2011-02-27T13:18:09Z</time>
      </trkpt>
      <trkpt lat="46.40151" lon="-0.43401">
        <ele>31.5956</ele>
        <time>2011-02-27T13:18:16Z</time>
      </trkpt>
      <trkpt lat="46.40147" lon="-0.43402">
        <ele>31.5649</ele>
        <time>2011-02-27T13:18:25Z</time>
      </trkpt>
      <trkpt lat="46.40146" lon="-0.43409">
        <ele>31.4021</ele>
        <time>2011-02-27T13:18:36Z</time>
      </trkpt>
      <trkpt lat="46.40146" lon="-0.43409">
        <ele>31.2608</ele>
        <time>2011-02-27T13:18:41Z</time>
      </trkpt>
      <trkpt lat="46.40146" lon="-0.43409">
        <ele>31.1606</ele>
        <time>2011-02-27T13:18:42Z</time>
      </trkpt>
      <trkpt lat="46.40146" lon="-0.43408">
        <ele>30.9271</ele>
        <time>2011-02-27T13:18:46Z</time>
      </trkpt>
      <trkpt lat="46.40146" lon="-0.43408">
        <ele>30.8287</ele>
        <time>2011-02-27T13:18:47Z</time>
      </trkpt>
      <trkpt lat="46.40144" lon="-0.43408">
        <ele>30.7314</ele>
        <time>2011-02-27T13:18:48Z</time>
      </trkpt>
      <trkpt lat="46.40143" lon="-0.43408">
        <ele>30.6365</ele>
        <time>2011-02-27T13:18:49Z</time>
      </trkpt>
      <trkpt lat="46.40142" lon="-0.43409">
        <ele>30.5465</ele>
        <time>2011-02-27T13:18:50Z</time>
      </trkpt>
      <trkpt lat="46.40141" lon="-0.43409">
        <ele>30.4558</ele>
        <time>2011-02-27T13:18:51Z</time>
      </trkpt>
      <trkpt lat="46.4014" lon="-0.43409">
        <ele>30.3656</ele>
        <time>2011-02-27T13:18:52Z</time>
      </trkpt>
      <trkpt lat="46.40139" lon="-0.4341">
        <ele>30.2772</ele>
        <time>2011-02-27T13:18:53Z</time>
      </trkpt>
      <trkpt lat="46.40138" lon="-0.43411">
        <ele>30.1925</ele>
        <time>2011-02-27T13:18:54Z</time>
      </trkpt>
      <trkpt lat="46.40136" lon="-0.43412">
        <ele>30.1092</ele>
        <time>2011-02-27T13:18:55Z</time>
      </trkpt>
      <trkpt lat="46.40136" lon="-0.43413">
        <ele>30.0278</ele>
        <time>2011-02-27T13:18:56Z</time>
      </trkpt>
      <trkpt lat="46.40134" lon="-0.43414">
        <ele>29.9482</ele>
        <time>2011-02-27T13:18:57Z</time>
      </trkpt>
      <trkpt lat="46.40133" lon="-0.43414">
        <ele>29.8713</ele>
        <time>2011-02-27T13:18:58Z</time>
      </trkpt>
      <trkpt lat="46.40132" lon="-0.43415">
        <ele>29.7961</ele>
        <time>2011-02-27T13:18:59Z</time>
      </trkpt>
      <trkpt lat="46.40131" lon="-0.43416">
        <ele>29.7237</ele>
        <time>2011-02-27T13:19:00Z</time>
      </trkpt>
      <trkpt lat="46.4013" lon="-0.43417">
        <ele>29.6507</ele>
        <time>2011-02-27T13:19:01Z</time>
      </trkpt>
      <trkpt lat="46.40129" lon="-0.43418">
        <ele>29.5789</ele>
        <time>2011-02-27T13:19:02Z</time>
      </trkpt>
      <trkpt lat="46.40128" lon="-0.43419">
        <ele>29.5075</ele>
        <time>2011-02-27T13:19:03Z</time>
      </trkpt>
      <trkpt lat="46.40127" lon="-0.43419">
        <ele>29.436</ele>
        <time>2011-02-27T13:19:04Z</time>
      </trkpt>
      <trkpt lat="46.40126" lon="-0.4342">
        <ele>29.3647</ele>
        <time>2011-02-27T13:19:05Z</time>
      </trkpt>
      <trkpt lat="46.40125" lon="-0.43421">
        <ele>29.2953</ele>
        <time>2011-02-27T13:19:06Z</time>
      </trkpt>
      <trkpt lat="46.40124" lon="-0.43422">
        <ele>29.2243</ele>
        <time>2011-02-27T13:19:07Z</time>
      </trkpt>
      <trkpt lat="46.40123" lon="-0.43422">
        <ele>29.1549</ele>
        <time>2011-02-27T13:19:08Z</time>
      </trkpt>
      <trkpt lat="46.40122" lon="-0.43423">
        <ele>29.0861</ele>
        <time>2011-02-27T13:19:09Z</time>
      </trkpt>
      <trkpt lat="46.4012" lon="-0.43423">
        <ele>29.0159</ele>
        <time>2011-02-27T13:19:10Z</time>
      </trkpt>
      <trkpt lat="46.40119" lon="-0.43423">
        <ele>28.9424</ele>
        <time>2011-02-27T13:19:11Z</time>
      </trkpt>
      <trkpt lat="46.40118" lon="-0.43424">
        <ele>28.8669</ele>
        <time>2011-02-27T13:19:12Z</time>
      </trkpt>
      <trkpt lat="46.40117" lon="-0.43424">
        <ele>28.7933</ele>
        <time>2011-02-27T13:19:13Z</time>
      </trkpt>
      <trkpt lat="46.40115" lon="-0.43424">
        <ele>28.722</ele>
        <time>2011-02-27T13:19:14Z</time>
      </trkpt>
      <trkpt lat="46.40115" lon="-0.43425">
        <ele>28.6549</ele>
        <time>2011-02-27T13:19:15Z</time>
      </trkpt>
      <trkpt lat="46.40113" lon="-0.43426">
        <ele>28.5913</ele>
        <time>2011-02-27T13:19:16Z</time>
      </trkpt>
      <trkpt lat="46.40113" lon="-0.43426">
        <ele>28.5291</ele>
        <time>2011-02-27T13:19:17Z</time>
      </trkpt>
      <trkpt lat="46.40112" lon="-0.43426">
        <ele>28.4563</ele>
        <time>2011-02-27T13:19:21Z</time>
      </trkpt>
      <trkpt lat="46.40112" lon="-0.43426">
        <ele>28.4019</ele>
        <time>2011-02-27T13:19:22Z</time>
      </trkpt>
      <trkpt lat="46.40111" lon="-0.43427">
        <ele>28.3505</ele>
        <time>2011-02-27T13:19:23Z</time>
      </trkpt>
      <trkpt lat="46.4011" lon="-0.43427">
        <ele>28.3018</ele>
        <time>2011-02-27T13:19:24Z</time>
      </trkpt>
      <trkpt lat="46.40109" lon="-0.43428">
        <ele>28.256</ele>
        <time>2011-02-27T13:19:25Z</time>
      </trkpt>
      <trkpt lat="46.40109" lon="-0.43428">
        <ele>28.2117</ele>
        <time>2011-02-27T13:19:26Z</time>
      </trkpt>
      <trkpt lat="46.40108" lon="-0.43429">
        <ele>28.1671</ele>
        <time>2011-02-27T13:19:27Z</time>
      </trkpt>
      <trkpt lat="46.40107" lon="-0.4343">
        <ele>28.1232</ele>
        <time>2011-02-27T13:19:28Z</time>
      </trkpt>
      <trkpt lat="46.40106" lon="-0.4343">
        <ele>28.081</ele>
        <time>2011-02-27T13:19:29Z</time>
      </trkpt>
      <trkpt lat="46.40105" lon="-0.43431">
        <ele>28.0353</ele>
        <time>2011-02-27T13:19:30Z</time>
      </trkpt>
      <trkpt lat="46.40104" lon="-0.43432">
        <ele>27.9884</ele>
        <time>2011-02-27T13:19:31Z</time>
      </trkpt>
      <trkpt lat="46.40104" lon="-0.43433">
        <ele>27.9421</ele>
        <time>2011-02-27T13:19:32Z</time>
      </trkpt>
      <trkpt lat="46.40103" lon="-0.43433">
        <ele>27.8949</ele>
        <time>2011-02-27T13:19:33Z</time>
      </trkpt>
      <trkpt lat="46.40102" lon="-0.43433">
        <ele>27.8482</ele>
        <time>2011-02-27T13:19:34Z</time>
      </trkpt>
      <trkpt lat="46.40101" lon="-0.43434">
        <ele>27.7978</ele>
        <time>2011-02-27T13:19:35Z</time>
      </trkpt>
      <trkpt lat="46.40099" lon="-0.43435">
        <ele>27.7472</ele>
        <time>2011-02-27T13:19:36Z</time>
      </trkpt>
      <trkpt lat="46.40098" lon="-0.43436">
        <ele>27.6962</ele>
        <time>2011-02-27T13:19:37Z</time>
      </trkpt>
      <trkpt lat="46.40097" lon="-0.43437">
        <ele>27.6442</ele>
        <time>2011-02-27T13:19:38Z</time>
      </trkpt>
      <trkpt lat="46.40096" lon="-0.43437">
        <ele>27.5932</ele>
        <time>2011-02-27T13:19:39Z</time>
      </trkpt>
      <trkpt lat="46.40095" lon="-0.43437">
        <ele>27.5434</ele>
        <time>2011-02-27T13:19:40Z</time>
      </trkpt>
      <trkpt lat="46.40094" lon="-0.43438">
        <ele>27.495</ele>
        <time>2011-02-27T13:19:41Z</time>
      </trkpt>
      <trkpt lat="46.40093" lon="-0.43439">
        <ele>27.4445</ele>
        <time>2011-02-27T13:19:42Z</time>
      </trkpt>
      <trkpt lat="46.40092" lon="-0.4344">
        <ele>27.3938</ele>
        <time>2011-02-27T13:19:43Z</time>
      </trkpt>
      <trkpt lat="46.4009" lon="-0.4344">
        <ele>27.3429</ele>
        <time>2011-02-27T13:19:44Z</time>
      </trkpt>
      <trkpt lat="46.40089" lon="-0.43441">
        <ele>27.2915</ele>
        <time>2011-02-27T13:19:45Z</time>
      </trkpt>
      <trkpt lat="46.40088" lon="-0.43441">
        <ele>27.2411</ele>
        <time>2011-02-27T13:19:46Z</time>
      </trkpt>
      <trkpt lat="46.40086" lon="-0.43441">
        <ele>27.1918</ele>
        <time>2011-02-27T13:19:47Z</time>
      </trkpt>
      <trkpt lat="46.40085" lon="-0.43442">
        <ele>27.1427</ele>
        <time>2011-02-27T13:19:48Z</time>
      </trkpt>
      <trkpt lat="46.40084" lon="-0.43442">
        <ele>27.0933</ele>
        <time>2011-02-27T13:19:49Z</time>
      </trkpt>
      <trkpt lat="46.40083" lon="-0.43443">
        <ele>27.0444</ele>
        <time>2011-02-27T13:19:50Z</time>
      </trkpt>
      <trkpt lat="46.40082" lon="-0.43444">
        <ele>26.9915</ele>
        <time>2011-02-27T13:19:51Z</time>
      </trkpt>
      <trkpt lat="46.40081" lon="-0.43445">
        <ele>26.9347</ele>
        <time>2011-02-27T13:19:52Z</time>
      </trkpt>
      <trkpt lat="46.4008" lon="-0.43446">
        <ele>26.8779</ele>
        <time>2011-02-27T13:19:53Z</time>
      </trkpt>
      <trkpt lat="46.40079" lon="-0.43447">
        <ele>26.8197</ele>
        <time>2011-02-27T13:19:54Z</time>
      </trkpt>
      <trkpt lat="46.40078" lon="-0.43448">
        <ele>26.7613</ele>
        <time>2011-02-27T13:19:55Z</time>
      </trkpt>
      <trkpt lat="46.40077" lon="-0.43448">
        <ele>26.7001</ele>
        <time>2011-02-27T13:19:56Z</time>
      </trkpt>
      <trkpt lat="46.40076" lon="-0.43448">
        <ele>26.6366</ele>
        <time>2011-02-27T13:19:57Z</time>
      </trkpt>
      <trkpt lat="46.40075" lon="-0.43449">
        <ele>26.5651</ele>
        <time>2011-02-27T13:19:58Z</time>
      </trkpt>
      <trkpt lat="46.40074" lon="-0.4345">
        <ele>26.4819</ele>
        <time>2011-02-27T13:19:59Z</time>
      </trkpt>
      <trkpt lat="46.40073" lon="-0.4345">
        <ele>26.3918</ele>
        <time>2011-02-27T13:20:00Z</time>
      </trkpt>
      <trkpt lat="46.40072" lon="-0.43451">
        <ele>26.3004</ele>
        <time>2011-02-27T13:20:01Z</time>
      </trkpt>
      <trkpt lat="46.40071" lon="-0.43452">
        <ele>26.2071</ele>
        <time>2011-02-27T13:20:02Z</time>
      </trkpt>
      <trkpt lat="46.4007" lon="-0.43453">
        <ele>26.1144</ele>
        <time>2011-02-27T13:20:03Z</time>
      </trkpt>
      <trkpt lat="46.40069" lon="-0.43453">
        <ele>26.0221</ele>
        <time>2011-02-27T13:20:04Z</time>
      </trkpt>
      <trkpt lat="46.40068" lon="-0.43454">
        <ele>25.9286</ele>
        <time>2011-02-27T13:20:05Z</time>
      </trkpt>
      <trkpt lat="46.40067" lon="-0.43454">
        <ele>25.8352</ele>
        <time>2011-02-27T13:20:06Z</time>
      </trkpt>
      <trkpt lat="46.40066" lon="-0.43455">
        <ele>25.7412</ele>
        <time>2011-02-27T13:20:07Z</time>
      </trkpt>
      <trkpt lat="46.40065" lon="-0.43456">
        <ele>25.647</ele>
        <time>2011-02-27T13:20:08Z</time>
      </trkpt>
      <trkpt lat="46.40064" lon="-0.43457">
        <ele>25.5516</ele>
        <time>2011-02-27T13:20:09Z</time>
      </trkpt>
      <trkpt lat="46.40063" lon="-0.43458">
        <ele>25.4568</ele>
        <time>2011-02-27T13:20:10Z</time>
      </trkpt>
      <trkpt lat="46.40062" lon="-0.43459">
        <ele>25.3628</ele>
        <time>2011-02-27T13:20:11Z</time>
      </trkpt>
      <trkpt lat="46.4006" lon="-0.43459">
        <ele>25.2679</ele>
        <time>2011-02-27T13:20:12Z</time>
      </trkpt>
      <trkpt lat="46.40059" lon="-0.4346">
        <ele>25.1736</ele>
        <time>2011-02-27T13:20:13Z</time>
      </trkpt>
      <trkpt lat="46.40058" lon="-0.43461">
        <ele>25.0779</ele>
        <time>2011-02-27T13:20:14Z</time>
      </trkpt>
      <trkpt lat="46.40057" lon="-0.43461">
        <ele>24.9843</ele>
        <time>2011-02-27T13:20:15Z</time>
      </trkpt>
      <trkpt lat="46.40056" lon="-0.43462">
        <ele>24.8936</ele>
        <time>2011-02-27T13:20:16Z</time>
      </trkpt>
      <trkpt lat="46.40055" lon="-0.43462">
        <ele>24.806</ele>
        <time>2011-02-27T13:20:17Z</time>
      </trkpt>
      <trkpt lat="46.40054" lon="-0.43463">
        <ele>24.7181</ele>
        <time>2011-02-27T13:20:18Z</time>
      </trkpt>
      <trkpt lat="46.40053" lon="-0.43463">
        <ele>24.6316</ele>
        <time>2011-02-27T13:20:19Z</time>
      </trkpt>
      <trkpt lat="46.40052" lon="-0.43464">
        <ele>24.546</ele>
        <time>2011-02-27T13:20:20Z</time>
      </trkpt>
      <trkpt lat="46.40051" lon="-0.43465">
        <ele>24.4627</ele>
        <time>2011-02-27T13:20:21Z</time>
      </trkpt>
      <trkpt lat="46.4005" lon="-0.43465">
        <ele>24.383</ele>
        <time>2011-02-27T13:20:22Z</time>
      </trkpt>
      <trkpt lat="46.40049" lon="-0.43466">
        <ele>24.3048</ele>
        <time>2011-02-27T13:20:23Z</time>
      </trkpt>
      <trkpt lat="46.40048" lon="-0.43467">
        <ele>24.2275</ele>
        <time>2011-02-27T13:20:24Z</time>
      </trkpt>
      <trkpt lat="46.40048" lon="-0.43467">
        <ele>24.1511</ele>
        <time>2011-02-27T13:20:25Z</time>
      </trkpt>
      <trkpt lat="46.40047" lon="-0.43468">
        <ele>24.0712</ele>
        <time>2011-02-27T13:20:26Z</time>
      </trkpt>
      <trkpt lat="46.40046" lon="-0.43469">
        <ele>23.9919</ele>
        <time>2011-02-27T13:20:27Z</time>
      </trkpt>
      <trkpt lat="46.40044" lon="-0.43469">
        <ele>23.9165</ele>
        <time>2011-02-27T13:20:28Z</time>
      </trkpt>
      <trkpt lat="46.40043" lon="-0.4347">
        <ele>23.843</ele>
        <time>2011-02-27T13:20:29Z</time>
      </trkpt>
      <trkpt lat="46.40042" lon="-0.4347">
        <ele>23.7717</ele>
        <time>2011-02-27T13:20:30Z</time>
      </trkpt>
      <trkpt lat="46.4004" lon="-0.43471">
        <ele>23.7071</ele>
        <time>2011-02-27T13:20:31Z</time>
      </trkpt>
      <trkpt lat="46.40039" lon="-0.43472">
        <ele>23.6421</ele>
        <time>2011-02-27T13:20:32Z</time>
      </trkpt>
      <trkpt lat="46.40039" lon="-0.43472">
        <ele>23.5707</ele>
        <time>2011-02-27T13:20:33Z</time>
      </trkpt>
      <trkpt lat="46.40038" lon="-0.43472">
        <ele>23.5001</ele>
        <time>2011-02-27T13:20:34Z</time>
      </trkpt>
      <trkpt lat="46.40037" lon="-0.43472">
        <ele>23.4218</ele>
        <time>2011-02-27T13:20:35Z</time>
      </trkpt>
      <trkpt lat="46.40036" lon="-0.43472">
        <ele>23.3342</ele>
        <time>2011-02-27T13:20:36Z</time>
      </trkpt>
      <trkpt lat="46.40035" lon="-0.43473">
        <ele>23.2476</ele>
        <time>2011-02-27T13:20:37Z</time>
      </trkpt>
      <trkpt lat="46.40033" lon="-0.43473">
        <ele>23.1604</ele>
        <time>2011-02-27T13:20:38Z</time>
      </trkpt>
      <trkpt lat="46.40031" lon="-0.43474">
        <ele>23.0719</ele>
        <time>2011-02-27T13:20:39Z</time>
      </trkpt>
      <trkpt lat="46.4003" lon="-0.43475">
        <ele>22.9783</ele>
        <time>2011-02-27T13:20:40Z</time>
      </trkpt>
      <trkpt lat="46.40029" lon="-0.43476">
        <ele>22.8859</ele>
        <time>2011-02-27T13:20:41Z</time>
      </trkpt>
      <trkpt lat="46.40028" lon="-0.43477">
        <ele>22.7962</ele>
        <time>2011-02-27T13:20:42Z</time>
      </trkpt>
      <trkpt lat="46.40027" lon="-0.43478">
        <ele>22.7093</ele>
        <time>2011-02-27T13:20:43Z</time>
      </trkpt>
      <trkpt lat="46.40026" lon="-0.43479">
        <ele>22.6273</ele>
        <time>2011-02-27T13:20:44Z</time>
      </trkpt>
      <trkpt lat="46.40025" lon="-0.4348">
        <ele>22.5512</ele>
        <time>2011-02-27T13:20:45Z</time>
      </trkpt>
      <trkpt lat="46.40024" lon="-0.43482">
        <ele>22.4767</ele>
        <time>2011-02-27T13:20:46Z</time>
      </trkpt>
      <trkpt lat="46.40023" lon="-0.43482">
        <ele>22.4102</ele>
        <time>2011-02-27T13:20:47Z</time>
      </trkpt>
      <trkpt lat="46.40023" lon="-0.43483">
        <ele>22.2174</ele>
        <time>2011-02-27T13:20:55Z</time>
      </trkpt>
      <trkpt lat="46.40022" lon="-0.43483">
        <ele>22.174</ele>
        <time>2011-02-27T13:20:56Z</time>
      </trkpt>
      <trkpt lat="46.40021" lon="-0.43484">
        <ele>22.1357</ele>
        <time>2011-02-27T13:20:57Z</time>
      </trkpt>
      <trkpt lat="46.4002" lon="-0.43484">
        <ele>22.1013</ele>
        <time>2011-02-27T13:20:58Z</time>
      </trkpt>
      <trkpt lat="46.40019" lon="-0.43485">
        <ele>22.0672</ele>
        <time>2011-02-27T13:20:59Z</time>
      </trkpt>
      <trkpt lat="46.40018" lon="-0.43486">
        <ele>22.0327</ele>
        <time>2011-02-27T13:21:00Z</time>
      </trkpt>
      <trkpt lat="46.40017" lon="-0.43487">
        <ele>22.0031</ele>
        <time>2011-02-27T13:21:01Z</time>
      </trkpt>
      <trkpt lat="46.40015" lon="-0.43488">
        <ele>21.9779</ele>
        <time>2011-02-27T13:21:02Z</time>
      </trkpt>
      <trkpt lat="46.40015" lon="-0.43489">
        <ele>21.9577</ele>
        <time>2011-02-27T13:21:03Z</time>
      </trkpt>
      <trkpt lat="46.40014" lon="-0.43491">
        <ele>21.9404</ele>
        <time>2011-02-27T13:21:04Z</time>
      </trkpt>
      <trkpt lat="46.40012" lon="-0.43492">
        <ele>21.9239</ele>
        <time>2011-02-27T13:21:05Z</time>
      </trkpt>
      <trkpt lat="46.40012" lon="-0.43493">
        <ele>21.9079</ele>
        <time>2011-02-27T13:21:06Z</time>
      </trkpt>
      <trkpt lat="46.40011" lon="-0.43495">
        <ele>21.8919</ele>
        <time>2011-02-27T13:21:07Z</time>
      </trkpt>
      <trkpt lat="46.4001" lon="-0.43497">
        <ele>21.8766</ele>
        <time>2011-02-27T13:21:08Z</time>
      </trkpt>
      <trkpt lat="46.40009" lon="-0.43499">
        <ele>21.8632</ele>
        <time>2011-02-27T13:21:09Z</time>
      </trkpt>
      <trkpt lat="46.40008" lon="-0.435">
        <ele>21.8503</ele>
        <time>2011-02-27T13:21:10Z</time>
      </trkpt>
      <trkpt lat="46.40007" lon="-0.43502">
        <ele>21.8361</ele>
        <time>2011-02-27T13:21:11Z</time>
      </trkpt>
      <trkpt lat="46.40007" lon="-0.43503">
        <ele>21.8253</ele>
        <time>2011-02-27T13:21:12Z</time>
      </trkpt>
      <trkpt lat="46.40007" lon="-0.43504">
        <ele>21.8147</ele>
        <time>2011-02-27T13:21:13Z</time>
      </trkpt>
      <trkpt lat="46.40006" lon="-0.43505">
        <ele>21.8032</ele>
        <time>2011-02-27T13:21:14Z</time>
      </trkpt>
      <trkpt lat="46.40006" lon="-0.43506">
        <ele>21.7909</ele>
        <time>2011-02-27T13:21:15Z</time>
      </trkpt>
      <trkpt lat="46.40004" lon="-0.43506">
        <ele>21.7789</ele>
        <time>2011-02-27T13:21:16Z</time>
      </trkpt>
      <trkpt lat="46.40003" lon="-0.43507">
        <ele>21.7679</ele>
        <time>2011-02-27T13:21:17Z</time>
      </trkpt>
      <trkpt lat="46.40002" lon="-0.43508">
        <ele>21.7554</ele>
        <time>2011-02-27T13:21:18Z</time>
      </trkpt>
      <trkpt lat="46.40001" lon="-0.43508">
        <ele>21.7424</ele>
        <time>2011-02-27T13:21:19Z</time>
      </trkpt>
      <trkpt lat="46.40001" lon="-0.43509">
        <ele>21.7293</ele>
        <time>2011-02-27T13:21:20Z</time>
      </trkpt>
      <trkpt lat="46.4" lon="-0.4351">
        <ele>21.7125</ele>
        <time>2011-02-27T13:21:21Z</time>
      </trkpt>
      <trkpt lat="46.39999" lon="-0.43512">
        <ele>21.6952</ele>
        <time>2011-02-27T13:21:22Z</time>
      </trkpt>
      <trkpt lat="46.39998" lon="-0.43513">
        <ele>21.675</ele>
        <time>2011-02-27T13:21:23Z</time>
      </trkpt>
      <trkpt lat="46.39998" lon="-0.43514">
        <ele>21.6554</ele>
        <time>2011-02-27T13:21:24Z</time>
      </trkpt>
      <trkpt lat="46.39997" lon="-0.43515">
        <ele>21.6364</ele>
        <time>2011-02-27T13:21:25Z</time>
      </trkpt>
      <trkpt lat="46.39996" lon="-0.43516">
        <ele>21.616</ele>
        <time>2011-02-27T13:21:26Z</time>
      </trkpt>
      <trkpt lat="46.39996" lon="-0.43518">
        <ele>21.5955</ele>
        <time>2011-02-27T13:21:27Z</time>
      </trkpt>
      <trkpt lat="46.39995" lon="-0.43519">
        <ele>21.5765</ele>
        <time>2011-02-27T13:21:28Z</time>
      </trkpt>
      <trkpt lat="46.39994" lon="-0.4352">
        <ele>21.561</ele>
        <time>2011-02-27T13:21:29Z</time>
      </trkpt>
      <trkpt lat="46.39994" lon="-0.43521">
        <ele>21.5472</ele>
        <time>2011-02-27T13:21:30Z</time>
      </trkpt>
      <trkpt lat="46.39993" lon="-0.43522">
        <ele>21.5338</ele>
        <time>2011-02-27T13:21:31Z</time>
      </trkpt>
      <trkpt lat="46.39992" lon="-0.43523">
        <ele>21.5192</ele>
        <time>2011-02-27T13:21:32Z</time>
      </trkpt>
      <trkpt lat="46.39992" lon="-0.43524">
        <ele>21.5067</ele>
        <time>2011-02-27T13:21:33Z</time>
      </trkpt>
      <trkpt lat="46.39991" lon="-0.43525">
        <ele>21.4936</ele>
        <time>2011-02-27T13:21:34Z</time>
      </trkpt>
      <trkpt lat="46.3999" lon="-0.43526">
        <ele>21.4819</ele>
        <time>2011-02-27T13:21:35Z</time>
      </trkpt>
      <trkpt lat="46.3999" lon="-0.43526">
        <ele>21.4645</ele>
        <time>2011-02-27T13:21:36Z</time>
      </trkpt>
      <trkpt lat="46.39989" lon="-0.43527">
        <ele>21.4516</ele>
        <time>2011-02-27T13:21:37Z</time>
      </trkpt>
      <trkpt lat="46.39988" lon="-0.43529">
        <ele>21.4407</ele>
        <time>2011-02-27T13:21:38Z</time>
      </trkpt>
      <trkpt lat="46.39987" lon="-0.4353">
        <ele>21.4279</ele>
        <time>2011-02-27T13:21:39Z</time>
      </trkpt>
      <trkpt lat="46.39986" lon="-0.43531">
        <ele>21.4146</ele>
        <time>2011-02-27T13:21:40Z</time>
      </trkpt>
      <trkpt lat="46.39986" lon="-0.43532">
        <ele>21.396</ele>
        <time>2011-02-27T13:21:41Z</time>
      </trkpt>
      <trkpt lat="46.39985" lon="-0.43533">
        <ele>21.3726</ele>
        <time>2011-02-27T13:21:42Z</time>
      </trkpt>
      <trkpt lat="46.39984" lon="-0.43534">
        <ele>21.3462</ele>
        <time>2011-02-27T13:21:43Z</time>
      </trkpt>
      <trkpt lat="46.39983" lon="-0.43535">
        <ele>21.3131</ele>
        <time>2011-02-27T13:21:44Z</time>
      </trkpt>
      <trkpt lat="46.39982" lon="-0.43537">
        <ele>21.2763</ele>
        <time>2011-02-27T13:21:45Z</time>
      </trkpt>
      <trkpt lat="46.39981" lon="-0.43537">
        <ele>21.2406</ele>
        <time>2011-02-27T13:21:46Z</time>
      </trkpt>
      <trkpt lat="46.3998" lon="-0.43538">
        <ele>21.2026</ele>
        <time>2011-02-27T13:21:47Z</time>
      </trkpt>
      <trkpt lat="46.39979" lon="-0.43539">
        <ele>21.1643</ele>
        <time>2011-02-27T13:21:48Z</time>
      </trkpt>
      <trkpt lat="46.39978" lon="-0.4354">
        <ele>21.1258</ele>
        <time>2011-02-27T13:21:49Z</time>
      </trkpt>
      <trkpt lat="46.39977" lon="-0.43541">
        <ele>21.0871</ele>
        <time>2011-02-27T13:21:50Z</time>
      </trkpt>
      <trkpt lat="46.39976" lon="-0.43542">
        <ele>21.0461</ele>
        <time>2011-02-27T13:21:51Z</time>
      </trkpt>
      <trkpt lat="46.39975" lon="-0.43543">
        <ele>20.999</ele>
        <time>2011-02-27T13:21:52Z</time>
      </trkpt>
      <trkpt lat="46.39974" lon="-0.43545">
        <ele>20.9506</ele>
        <time>2011-02-27T13:21:53Z</time>
      </trkpt>
      <trkpt lat="46.39973" lon="-0.43546">
        <ele>20.9031</ele>
        <time>2011-02-27T13:21:54Z</time>
      </trkpt>
      <trkpt lat="46.39972" lon="-0.43546">
        <ele>20.8593</ele>
        <time>2011-02-27T13:21:55Z</time>
      </trkpt>
      <trkpt lat="46.39971" lon="-0.43547">
        <ele>20.8158</ele>
        <time>2011-02-27T13:21:56Z</time>
      </trkpt>
      <trkpt lat="46.3997" lon="-0.43549">
        <ele>20.7655</ele>
        <time>2011-02-27T13:21:57Z</time>
      </trkpt>
      <trkpt lat="46.39969" lon="-0.4355">
        <ele>20.7143</ele>
        <time>2011-02-27T13:21:58Z</time>
      </trkpt>
      <trkpt lat="46.39968" lon="-0.43551">
        <ele>20.6627</ele>
        <time>2011-02-27T13:21:59Z</time>
      </trkpt>
      <trkpt lat="46.39967" lon="-0.43552">
        <ele>20.6104</ele>
        <time>2011-02-27T13:22:00Z</time>
      </trkpt>
      <trkpt lat="46.39966" lon="-0.43553">
        <ele>20.5596</ele>
        <time>2011-02-27T13:22:01Z</time>
      </trkpt>
      <trkpt lat="46.39965" lon="-0.43553">
        <ele>20.5126</ele>
        <time>2011-02-27T13:22:02Z</time>
      </trkpt>
      <trkpt lat="46.39964" lon="-0.43554">
        <ele>20.4653</ele>
        <time>2011-02-27T13:22:03Z</time>
      </trkpt>
      <trkpt lat="46.39962" lon="-0.43554">
        <ele>20.4198</ele>
        <time>2011-02-27T13:22:04Z</time>
      </trkpt>
      <trkpt lat="46.39961" lon="-0.43555">
        <ele>20.375</ele>
        <time>2011-02-27T13:22:05Z</time>
      </trkpt>
      <trkpt lat="46.3996" lon="-0.43556">
        <ele>20.3308</ele>
        <time>2011-02-27T13:22:06Z</time>
      </trkpt>
      <trkpt lat="46.39959" lon="-0.43557">
        <ele>20.2867</ele>
        <time>2011-02-27T13:22:07Z</time>
      </trkpt>
      <trkpt lat="46.39958" lon="-0.43557">
        <ele>20.2427</ele>
        <time>2011-02-27T13:22:08Z</time>
      </trkpt>
      <trkpt lat="46.39957" lon="-0.43558">
        <ele>20.1999</ele>
        <time>2011-02-27T13:22:09Z</time>
      </trkpt>
      <trkpt lat="46.39957" lon="-0.43558">
        <ele>20.158</ele>
        <time>2011-02-27T13:22:10Z</time>
      </trkpt>
      <trkpt lat="46.39956" lon="-0.43559">
        <ele>20.1169</ele>
        <time>2011-02-27T13:22:11Z</time>
      </trkpt>
      <trkpt lat="46.39955" lon="-0.43559">
        <ele>20.0765</ele>
        <time>2011-02-27T13:22:12Z</time>
      </trkpt>
      <trkpt lat="46.39954" lon="-0.4356">
        <ele>20.036</ele>
        <time>2011-02-27T13:22:13Z</time>
      </trkpt>
      <trkpt lat="46.39953" lon="-0.43561">
        <ele>19.9945</ele>
        <time>2011-02-27T13:22:14Z</time>
      </trkpt>
      <trkpt lat="46.39953" lon="-0.43562">
        <ele>19.9485</ele>
        <time>2011-02-27T13:22:15Z</time>
      </trkpt>
      <trkpt lat="46.39952" lon="-0.43563">
        <ele>19.9023</ele>
        <time>2011-02-27T13:22:16Z</time>
      </trkpt>
      <trkpt lat="46.39951" lon="-0.43565">
        <ele>19.8557</ele>
        <time>2011-02-27T13:22:17Z</time>
      </trkpt>
      <trkpt lat="46.3995" lon="-0.43566">
        <ele>19.8123</ele>
        <time>2011-02-27T13:22:18Z</time>
      </trkpt>
      <trkpt lat="46.39949" lon="-0.43567">
        <ele>19.7742</ele>
        <time>2011-02-27T13:22:19Z</time>
      </trkpt>
      <trkpt lat="46.39948" lon="-0.43568">
        <ele>19.7403</ele>
        <time>2011-02-27T13:22:20Z</time>
      </trkpt>
      <trkpt lat="46.39947" lon="-0.43569">
        <ele>19.7102</ele>
        <time>2011-02-27T13:22:21Z</time>
      </trkpt>
      <trkpt lat="46.39946" lon="-0.4357">
        <ele>19.6811</ele>
        <time>2011-02-27T13:22:22Z</time>
      </trkpt>
      <trkpt lat="46.39945" lon="-0.43571">
        <ele>19.6535</ele>
        <time>2011-02-27T13:22:23Z</time>
      </trkpt>
      <trkpt lat="46.39944" lon="-0.43571">
        <ele>19.6276</ele>
        <time>2011-02-27T13:22:24Z</time>
      </trkpt>
      <trkpt lat="46.39943" lon="-0.43572">
        <ele>19.6067</ele>
        <time>2011-02-27T13:22:25Z</time>
      </trkpt>
      <trkpt lat="46.39942" lon="-0.43572">
        <ele>19.5892</ele>
        <time>2011-02-27T13:22:26Z</time>
      </trkpt>
      <trkpt lat="46.39941" lon="-0.43573">
        <ele>19.571</ele>
        <time>2011-02-27T13:22:27Z</time>
      </trkpt>
      <trkpt lat="46.3994" lon="-0.43574">
        <ele>19.5505</ele>
        <time>2011-02-27T13:22:28Z</time>
      </trkpt>
      <trkpt lat="46.3994" lon="-0.43575">
        <ele>19.5323</ele>
        <time>2011-02-27T13:22:29Z</time>
      </trkpt>
      <trkpt lat="46.39939" lon="-0.43576">
        <ele>19.5142</ele>
        <time>2011-02-27T13:22:30Z</time>
      </trkpt>
      <trkpt lat="46.39938" lon="-0.43577">
        <ele>19.4966</ele>
        <time>2011-02-27T13:22:31Z</time>
      </trkpt>
      <trkpt lat="46.39937" lon="-0.43577">
        <ele>19.4792</ele>
        <time>2011-02-27T13:22:32Z</time>
      </trkpt>
      <trkpt lat="46.39935" lon="-0.43578">
        <ele>19.4627</ele>
        <time>2011-02-27T13:22:33Z</time>
      </trkpt>
      <trkpt lat="46.39934" lon="-0.43579">
        <ele>19.4489</ele>
        <time>2011-02-27T13:22:34Z</time>
      </trkpt>
      <trkpt lat="46.39933" lon="-0.4358">
        <ele>19.4367</ele>
        <time>2011-02-27T13:22:35Z</time>
      </trkpt>
      <trkpt lat="46.39932" lon="-0.43581">
        <ele>19.427</ele>
        <time>2011-02-27T13:22:36Z</time>
      </trkpt>
      <trkpt lat="46.39931" lon="-0.43582">
        <ele>19.4174</ele>
        <time>2011-02-27T13:22:37Z</time>
      </trkpt>
      <trkpt lat="46.3993" lon="-0.43584">
        <ele>19.4107</ele>
        <time>2011-02-27T13:22:38Z</time>
      </trkpt>
      <trkpt lat="46.3993" lon="-0.43585">
        <ele>19.4045</ele>
        <time>2011-02-27T13:22:39Z</time>
      </trkpt>
      <trkpt lat="46.39929" lon="-0.43585">
        <ele>19.4</ele>
        <time>2011-02-27T13:22:40Z</time>
      </trkpt>
      <trkpt lat="46.39928" lon="-0.43586">
        <ele>19.3968</ele>
        <time>2011-02-27T13:22:41Z</time>
      </trkpt>
      <trkpt lat="46.39927" lon="-0.43587">
        <ele>19.3941</ele>
        <time>2011-02-27T13:22:42Z</time>
      </trkpt>
      <trkpt lat="46.39926" lon="-0.43588">
        <ele>19.3923</ele>
        <time>2011-02-27T13:22:43Z</time>
      </trkpt>
      <trkpt lat="46.39925" lon="-0.43589">
        <ele>19.3918</ele>
        <time>2011-02-27T13:22:44Z</time>
      </trkpt>
      <trkpt lat="46.39924" lon="-0.4359">
        <ele>19.3922</ele>
        <time>2011-02-27T13:22:45Z</time>
      </trkpt>
      <trkpt lat="46.39923" lon="-0.4359">
        <ele>19.3941</ele>
        <time>2011-02-27T13:22:46Z</time>
      </trkpt>
      <trkpt lat="46.39922" lon="-0.43591">
        <ele>19.3981</ele>
        <time>2011-02-27T13:22:47Z</time>
      </trkpt>
      <trkpt lat="46.3992" lon="-0.43592">
        <ele>19.404</ele>
        <time>2011-02-27T13:22:48Z</time>
      </trkpt>
      <trkpt lat="46.3992" lon="-0.43592">
        <ele>19.4124</ele>
        <time>2011-02-27T13:22:49Z</time>
      </trkpt>
      <trkpt lat="46.39919" lon="-0.43593">
        <ele>19.4223</ele>
        <time>2011-02-27T13:22:50Z</time>
      </trkpt>
      <trkpt lat="46.39917" lon="-0.43593">
        <ele>19.4322</ele>
        <time>2011-02-27T13:22:51Z</time>
      </trkpt>
      <trkpt lat="46.39916" lon="-0.43594">
        <ele>19.4416</ele>
        <time>2011-02-27T13:22:52Z</time>
      </trkpt>
      <trkpt lat="46.39915" lon="-0.43595">
        <ele>19.4509</ele>
        <time>2011-02-27T13:22:53Z</time>
      </trkpt>
      <trkpt lat="46.39914" lon="-0.43596">
        <ele>19.4614</ele>
        <time>2011-02-27T13:22:54Z</time>
      </trkpt>
      <trkpt lat="46.39913" lon="-0.43597">
        <ele>19.4719</ele>
        <time>2011-02-27T13:22:55Z</time>
      </trkpt>
      <trkpt lat="46.39912" lon="-0.43597">
        <ele>19.4818</ele>
        <time>2011-02-27T13:22:56Z</time>
      </trkpt>
      <trkpt lat="46.3991" lon="-0.43598">
        <ele>19.4913</ele>
        <time>2011-02-27T13:22:57Z</time>
      </trkpt>
      <trkpt lat="46.39909" lon="-0.43599">
        <ele>19.4996</ele>
        <time>2011-02-27T13:22:58Z</time>
      </trkpt>
      <trkpt lat="46.39908" lon="-0.43599">
        <ele>19.505</ele>
        <time>2011-02-27T13:22:59Z</time>
      </trkpt>
      <trkpt lat="46.39907" lon="-0.436">
        <ele>19.508</ele>
        <time>2011-02-27T13:23:00Z</time>
      </trkpt>
      <trkpt lat="46.39906" lon="-0.43601">
        <ele>19.5101</ele>
        <time>2011-02-27T13:23:01Z</time>
      </trkpt>
      <trkpt lat="46.39905" lon="-0.43601">
        <ele>19.5106</ele>
        <time>2011-02-27T13:23:02Z</time>
      </trkpt>
      <trkpt lat="46.39904" lon="-0.43602">
        <ele>19.5098</ele>
        <time>2011-02-27T13:23:03Z</time>
      </trkpt>
      <trkpt lat="46.39903" lon="-0.43603">
        <ele>19.5083</ele>
        <time>2011-02-27T13:23:04Z</time>
      </trkpt>
      <trkpt lat="46.39902" lon="-0.43604">
        <ele>19.5053</ele>
        <time>2011-02-27T13:23:05Z</time>
      </trkpt>
      <trkpt lat="46.39901" lon="-0.43605">
        <ele>19.4998</ele>
        <time>2011-02-27T13:23:06Z</time>
      </trkpt>
      <trkpt lat="46.399" lon="-0.43606">
        <ele>19.4929</ele>
        <time>2011-02-27T13:23:07Z</time>
      </trkpt>
      <trkpt lat="46.39899" lon="-0.43606">
        <ele>19.485</ele>
        <time>2011-02-27T13:23:08Z</time>
      </trkpt>
      <trkpt lat="46.39898" lon="-0.43607">
        <ele>19.4762</ele>
        <time>2011-02-27T13:23:09Z</time>
      </trkpt>
      <trkpt lat="46.39897" lon="-0.43608">
        <ele>19.4658</ele>
        <time>2011-02-27T13:23:10Z</time>
      </trkpt>
      <trkpt lat="46.39896" lon="-0.43608">
        <ele>19.4556</ele>
        <time>2011-02-27T13:23:11Z</time>
      </trkpt>
      <trkpt lat="46.39895" lon="-0.43608">
        <ele>19.4424</ele>
        <time>2011-02-27T13:23:12Z</time>
      </trkpt>
      <trkpt lat="46.39894" lon="-0.43609">
        <ele>19.4281</ele>
        <time>2011-02-27T13:23:13Z</time>
      </trkpt>
      <trkpt lat="46.39893" lon="-0.43609">
        <ele>19.4121</ele>
        <time>2011-02-27T13:23:14Z</time>
      </trkpt>
      <trkpt lat="46.39892" lon="-0.4361">
        <ele>19.395</ele>
        <time>2011-02-27T13:23:15Z</time>
      </trkpt>
      <trkpt lat="46.39891" lon="-0.43611">
        <ele>19.376</ele>
        <time>2011-02-27T13:23:16Z</time>
      </trkpt>
      <trkpt lat="46.3989" lon="-0.43611">
        <ele>19.3571</ele>
        <time>2011-02-27T13:23:17Z</time>
      </trkpt>
      <trkpt lat="46.39889" lon="-0.43612">
        <ele>19.3375</ele>
        <time>2011-02-27T13:23:18Z</time>
      </trkpt>
      <trkpt lat="46.39888" lon="-0.43612">
        <ele>19.3173</ele>
        <time>2011-02-27T13:23:19Z</time>
      </trkpt>
      <trkpt lat="46.39887" lon="-0.43613">
        <ele>19.2972</ele>
        <time>2011-02-27T13:23:20Z</time>
      </trkpt>
      <trkpt lat="46.39885" lon="-0.43613">
        <ele>19.2756</ele>
        <time>2011-02-27T13:23:21Z</time>
      </trkpt>
      <trkpt lat="46.39885" lon="-0.43613">
        <ele>19.252</ele>
        <time>2011-02-27T13:23:22Z</time>
      </trkpt>
      <trkpt lat="46.39883" lon="-0.43613">
        <ele>19.2274</ele>
        <time>2011-02-27T13:23:23Z</time>
      </trkpt>
      <trkpt lat="46.39882" lon="-0.43613">
        <ele>19.2003</ele>
        <time>2011-02-27T13:23:24Z</time>
      </trkpt>
      <trkpt lat="46.39881" lon="-0.43613">
        <ele>19.1738</ele>
        <time>2011-02-27T13:23:25Z</time>
      </trkpt>
      <trkpt lat="46.3988" lon="-0.43613">
        <ele>19.1485</ele>
        <time>2011-02-27T13:23:26Z</time>
      </trkpt>
      <trkpt lat="46.39879" lon="-0.43613">
        <ele>19.1216</ele>
        <time>2011-02-27T13:23:27Z</time>
      </trkpt>
      <trkpt lat="46.39877" lon="-0.43613">
        <ele>19.0964</ele>
        <time>2011-02-27T13:23:28Z</time>
      </trkpt>
      <trkpt lat="46.39876" lon="-0.43613">
        <ele>19.0713</ele>
        <time>2011-02-27T13:23:29Z</time>
      </trkpt>
      <trkpt lat="46.39875" lon="-0.43613">
        <ele>19.0456</ele>
        <time>2011-02-27T13:23:30Z</time>
      </trkpt>
      <trkpt lat="46.39874" lon="-0.43613">
        <ele>19.0205</ele>
        <time>2011-02-27T13:23:31Z</time>
      </trkpt>
      <trkpt lat="46.39873" lon="-0.43613">
        <ele>18.9969</ele>
        <time>2011-02-27T13:23:32Z</time>
      </trkpt>
      <trkpt lat="46.39872" lon="-0.43613">
        <ele>18.9751</ele>
        <time>2011-02-27T13:23:33Z</time>
      </trkpt>
      <trkpt lat="46.39871" lon="-0.43613">
        <ele>18.9513</ele>
        <time>2011-02-27T13:23:34Z</time>
      </trkpt>
      <trkpt lat="46.39869" lon="-0.43613">
        <ele>18.925</ele>
        <time>2011-02-27T13:23:35Z</time>
      </trkpt>
      <trkpt lat="46.39867" lon="-0.43613">
        <ele>18.8997</ele>
        <time>2011-02-27T13:23:36Z</time>
      </trkpt>
      <trkpt lat="46.39866" lon="-0.43612">
        <ele>18.8749</ele>
        <time>2011-02-27T13:23:37Z</time>
      </trkpt>
      <trkpt lat="46.39865" lon="-0.43612">
        <ele>18.8504</ele>
        <time>2011-02-27T13:23:38Z</time>
      </trkpt>
      <trkpt lat="46.39864" lon="-0.43612">
        <ele>18.8287</ele>
        <time>2011-02-27T13:23:39Z</time>
      </trkpt>
      <trkpt lat="46.39863" lon="-0.43611">
        <ele>18.8108</ele>
        <time>2011-02-27T13:23:40Z</time>
      </trkpt>
      <trkpt lat="46.39862" lon="-0.43611">
        <ele>18.7944</ele>
        <time>2011-02-27T13:23:41Z</time>
      </trkpt>
      <trkpt lat="46.39861" lon="-0.4361">
        <ele>18.7777</ele>
        <time>2011-02-27T13:23:42Z</time>
      </trkpt>
      <trkpt lat="46.3986" lon="-0.43609">
        <ele>18.7621</ele>
        <time>2011-02-27T13:23:43Z</time>
      </trkpt>
      <trkpt lat="46.39859" lon="-0.43609">
        <ele>18.745</ele>
        <time>2011-02-27T13:23:44Z</time>
      </trkpt>
      <trkpt lat="46.39858" lon="-0.43608">
        <ele>18.725</ele>
        <time>2011-02-27T13:23:45Z</time>
      </trkpt>
      <trkpt lat="46.39857" lon="-0.43607">
        <ele>18.7021</ele>
        <time>2011-02-27T13:23:46Z</time>
      </trkpt>
      <trkpt lat="46.39856" lon="-0.43606">
        <ele>18.6714</ele>
        <time>2011-02-27T13:23:47Z</time>
      </trkpt>
      <trkpt lat="46.39856" lon="-0.43604">
        <ele>18.6418</ele>
        <time>2011-02-27T13:23:48Z</time>
      </trkpt>
      <trkpt lat="46.39855" lon="-0.43603">
        <ele>18.6108</ele>
        <time>2011-02-27T13:23:49Z</time>
      </trkpt>
      <trkpt lat="46.39855" lon="-0.43602">
        <ele>18.5784</ele>
        <time>2011-02-27T13:23:50Z</time>
      </trkpt>
      <trkpt lat="46.39854" lon="-0.43601">
        <ele>18.5476</ele>
        <time>2011-02-27T13:23:51Z</time>
      </trkpt>
      <trkpt lat="46.39854" lon="-0.436">
        <ele>18.513</ele>
        <time>2011-02-27T13:23:52Z</time>
      </trkpt>
      <trkpt lat="46.39854" lon="-0.43599">
        <ele>18.4788</ele>
        <time>2011-02-27T13:23:53Z</time>
      </trkpt>
      <trkpt lat="46.39854" lon="-0.43598">
        <ele>18.4449</ele>
        <time>2011-02-27T13:23:54Z</time>
      </trkpt>
      <trkpt lat="46.39853" lon="-0.43597">
        <ele>18.4097</ele>
        <time>2011-02-27T13:23:55Z</time>
      </trkpt>
      <trkpt lat="46.39853" lon="-0.43596">
        <ele>18.3714</ele>
        <time>2011-02-27T13:23:56Z</time>
      </trkpt>
      <trkpt lat="46.39852" lon="-0.43594">
        <ele>18.3074</ele>
        <time>2011-02-27T13:23:59Z</time>
      </trkpt>
      <trkpt lat="46.39851" lon="-0.43593">
        <ele>18.2576</ele>
        <time>2011-02-27T13:24:00Z</time>
      </trkpt>
      <trkpt lat="46.3985" lon="-0.43591">
        <ele>18.2086</ele>
        <time>2011-02-27T13:24:01Z</time>
      </trkpt>
      <trkpt lat="46.39849" lon="-0.4359">
        <ele>18.1638</ele>
        <time>2011-02-27T13:24:02Z</time>
      </trkpt>
      <trkpt lat="46.39848" lon="-0.43589">
        <ele>18.1195</ele>
        <time>2011-02-27T13:24:03Z</time>
      </trkpt>
      <trkpt lat="46.39848" lon="-0.43588">
        <ele>18.0756</ele>
        <time>2011-02-27T13:24:04Z</time>
      </trkpt>
      <trkpt lat="46.39846" lon="-0.43586">
        <ele>18.0331</ele>
        <time>2011-02-27T13:24:05Z</time>
      </trkpt>
      <trkpt lat="46.39846" lon="-0.43585">
        <ele>17.9925</ele>
        <time>2011-02-27T13:24:06Z</time>
      </trkpt>
      <trkpt lat="46.39845" lon="-0.43584">
        <ele>17.9519</ele>
        <time>2011-02-27T13:24:07Z</time>
      </trkpt>
      <trkpt lat="46.39844" lon="-0.43582">
        <ele>17.9098</ele>
        <time>2011-02-27T13:24:08Z</time>
      </trkpt>
      <trkpt lat="46.39843" lon="-0.43581">
        <ele>17.8683</ele>
        <time>2011-02-27T13:24:09Z</time>
      </trkpt>
      <trkpt lat="46.39843" lon="-0.4358">
        <ele>17.8249</ele>
        <time>2011-02-27T13:24:10Z</time>
      </trkpt>
      <trkpt lat="46.39842" lon="-0.43578">
        <ele>17.7805</ele>
        <time>2011-02-27T13:24:11Z</time>
      </trkpt>
      <trkpt lat="46.39842" lon="-0.43577">
        <ele>17.7338</ele>
        <time>2011-02-27T13:24:12Z</time>
      </trkpt>
      <trkpt lat="46.39841" lon="-0.43576">
        <ele>17.6861</ele>
        <time>2011-02-27T13:24:13Z</time>
      </trkpt>
      <trkpt lat="46.3984" lon="-0.43575">
        <ele>17.6351</ele>
        <time>2011-02-27T13:24:14Z</time>
      </trkpt>
      <trkpt lat="46.3984" lon="-0.43573">
        <ele>17.5844</ele>
        <time>2011-02-27T13:24:15Z</time>
      </trkpt>
      <trkpt lat="46.3984" lon="-0.43572">
        <ele>17.5338</ele>
        <time>2011-02-27T13:24:16Z</time>
      </trkpt>
      <trkpt lat="46.39839" lon="-0.43571">
        <ele>17.4781</ele>
        <time>2011-02-27T13:24:17Z</time>
      </trkpt>
      <trkpt lat="46.39838" lon="-0.43569">
        <ele>17.4255</ele>
        <time>2011-02-27T13:24:18Z</time>
      </trkpt>
      <trkpt lat="46.39837" lon="-0.43566">
        <ele>17.3734</ele>
        <time>2011-02-27T13:24:19Z</time>
      </trkpt>
      <trkpt lat="46.39835" lon="-0.43563">
        <ele>17.3255</ele>
        <time>2011-02-27T13:24:20Z</time>
      </trkpt>
      <trkpt lat="46.39834" lon="-0.43561">
        <ele>17.2804</ele>
        <time>2011-02-27T13:24:21Z</time>
      </trkpt>
      <trkpt lat="46.39834" lon="-0.43559">
        <ele>17.2432</ele>
        <time>2011-02-27T13:24:22Z</time>
      </trkpt>
      <trkpt lat="46.39833" lon="-0.43558">
        <ele>17.2056</ele>
        <time>2011-02-27T13:24:23Z</time>
      </trkpt>
      <trkpt lat="46.39832" lon="-0.43556">
        <ele>17.1667</ele>
        <time>2011-02-27T13:24:24Z</time>
      </trkpt>
      <trkpt lat="46.39831" lon="-0.43555">
        <ele>17.1304</ele>
        <time>2011-02-27T13:24:25Z</time>
      </trkpt>
      <trkpt lat="46.3983" lon="-0.43553">
        <ele>17.0912</ele>
        <time>2011-02-27T13:24:26Z</time>
      </trkpt>
      <trkpt lat="46.39829" lon="-0.43552">
        <ele>17.0461</ele>
        <time>2011-02-27T13:24:27Z</time>
      </trkpt>
      <trkpt lat="46.39828" lon="-0.43551">
        <ele>16.9976</ele>
        <time>2011-02-27T13:24:28Z</time>
      </trkpt>
      <trkpt lat="46.39827" lon="-0.43551">
        <ele>16.9632</ele>
        <time>2011-02-27T13:24:29Z</time>
      </trkpt>
      <trkpt lat="46.39826" lon="-0.43551">
        <ele>16.9418</ele>
        <time>2011-02-27T13:24:30Z</time>
      </trkpt>
      <trkpt lat="46.39825" lon="-0.4355">
        <ele>16.9283</ele>
        <time>2011-02-27T13:24:31Z</time>
      </trkpt>
      <trkpt lat="46.39824" lon="-0.43551">
        <ele>16.9205</ele>
        <time>2011-02-27T13:24:32Z</time>
      </trkpt>
      <trkpt lat="46.39823" lon="-0.43551">
        <ele>16.9213</ele>
        <time>2011-02-27T13:24:33Z</time>
      </trkpt>
      <trkpt lat="46.39822" lon="-0.43551">
        <ele>16.9303</ele>
        <time>2011-02-27T13:24:34Z</time>
      </trkpt>
      <trkpt lat="46.39821" lon="-0.43551">
        <ele>16.9436</ele>
        <time>2011-02-27T13:24:35Z</time>
      </trkpt>
      <trkpt lat="46.39819" lon="-0.43551">
        <ele>16.9655</ele>
        <time>2011-02-27T13:24:36Z</time>
      </trkpt>
      <trkpt lat="46.39818" lon="-0.43551">
        <ele>16.9904</ele>
        <time>2011-02-27T13:24:37Z</time>
      </trkpt>
      <trkpt lat="46.39817" lon="-0.43552">
        <ele>17.012</ele>
        <time>2011-02-27T13:24:38Z</time>
      </trkpt>
      <trkpt lat="46.39816" lon="-0.43552">
        <ele>17.032</ele>
        <time>2011-02-27T13:24:39Z</time>
      </trkpt>
      <trkpt lat="46.39815" lon="-0.43553">
        <ele>17.0474</ele>
        <time>2011-02-27T13:24:40Z</time>
      </trkpt>
      <trkpt lat="46.39814" lon="-0.43553">
        <ele>17.0635</ele>
        <time>2011-02-27T13:24:41Z</time>
      </trkpt>
      <trkpt lat="46.39813" lon="-0.43554">
        <ele>17.0815</ele>
        <time>2011-02-27T13:24:42Z</time>
      </trkpt>
      <trkpt lat="46.39811" lon="-0.43554">
        <ele>17.1045</ele>
        <time>2011-02-27T13:24:43Z</time>
      </trkpt>
      <trkpt lat="46.3981" lon="-0.43555">
        <ele>17.1304</ele>
        <time>2011-02-27T13:24:44Z</time>
      </trkpt>
      <trkpt lat="46.39809" lon="-0.43555">
        <ele>17.1592</ele>
        <time>2011-02-27T13:24:45Z</time>
      </trkpt>
      <trkpt lat="46.39808" lon="-0.43556">
        <ele>17.1847</ele>
        <time>2011-02-27T13:24:46Z</time>
      </trkpt>
      <trkpt lat="46.39807" lon="-0.43556">
        <ele>17.2116</ele>
        <time>2011-02-27T13:24:47Z</time>
      </trkpt>
      <trkpt lat="46.39806" lon="-0.43556">
        <ele>17.2402</ele>
        <time>2011-02-27T13:24:48Z</time>
      </trkpt>
      <trkpt lat="46.39805" lon="-0.43556">
        <ele>17.2681</ele>
        <time>2011-02-27T13:24:49Z</time>
      </trkpt>
      <trkpt lat="46.39804" lon="-0.43556">
        <ele>17.2966</ele>
        <time>2011-02-27T13:24:50Z</time>
      </trkpt>
      <trkpt lat="46.39803" lon="-0.43557">
        <ele>17.3289</ele>
        <time>2011-02-27T13:24:51Z</time>
      </trkpt>
      <trkpt lat="46.39802" lon="-0.43557">
        <ele>17.3547</ele>
        <time>2011-02-27T13:24:52Z</time>
      </trkpt>
      <trkpt lat="46.39801" lon="-0.43557">
        <ele>17.3825</ele>
        <time>2011-02-27T13:24:53Z</time>
      </trkpt>
      <trkpt lat="46.398" lon="-0.43557">
        <ele>17.4118</ele>
        <time>2011-02-27T13:24:54Z</time>
      </trkpt>
      <trkpt lat="46.398" lon="-0.43557">
        <ele>17.4427</ele>
        <time>2011-02-27T13:24:55Z</time>
      </trkpt>
      <trkpt lat="46.39799" lon="-0.43558">
        <ele>17.4773</ele>
        <time>2011-02-27T13:24:56Z</time>
      </trkpt>
      <trkpt lat="46.39798" lon="-0.43558">
        <ele>17.5122</ele>
        <time>2011-02-27T13:24:57Z</time>
      </trkpt>
      <trkpt lat="46.39797" lon="-0.43558">
        <ele>17.5453</ele>
        <time>2011-02-27T13:24:58Z</time>
      </trkpt>
      <trkpt lat="46.39796" lon="-0.43559">
        <ele>17.5755</ele>
        <time>2011-02-27T13:24:59Z</time>
      </trkpt>
      <trkpt lat="46.39795" lon="-0.43559">
        <ele>17.6076</ele>
        <time>2011-02-27T13:25:00Z</time>
      </trkpt>
      <trkpt lat="46.39795" lon="-0.4356">
        <ele>17.6376</ele>
        <time>2011-02-27T13:25:01Z</time>
      </trkpt>
      <trkpt lat="46.39793" lon="-0.4356">
        <ele>17.6676</ele>
        <time>2011-02-27T13:25:02Z</time>
      </trkpt>
      <trkpt lat="46.39793" lon="-0.43561">
        <ele>17.7005</ele>
        <time>2011-02-27T13:25:03Z</time>
      </trkpt>
      <trkpt lat="46.39792" lon="-0.43562">
        <ele>17.7357</ele>
        <time>2011-02-27T13:25:04Z</time>
      </trkpt>
      <trkpt lat="46.39791" lon="-0.43563">
        <ele>17.754</ele>
        <time>2011-02-27T13:25:05Z</time>
      </trkpt>
      <trkpt lat="46.3979" lon="-0.43564">
        <ele>17.7687</ele>
        <time>2011-02-27T13:25:06Z</time>
      </trkpt>
      <trkpt lat="46.39789" lon="-0.43565">
        <ele>17.7821</ele>
        <time>2011-02-27T13:25:07Z</time>
      </trkpt>
      <trkpt lat="46.39788" lon="-0.43565">
        <ele>17.7939</ele>
        <time>2011-02-27T13:25:08Z</time>
      </trkpt>
      <trkpt lat="46.39787" lon="-0.43565">
        <ele>17.8043</ele>
        <time>2011-02-27T13:25:09Z</time>
      </trkpt>
      <trkpt lat="46.39786" lon="-0.43566">
        <ele>17.8138</ele>
        <time>2011-02-27T13:25:10Z</time>
      </trkpt>
      <trkpt lat="46.39785" lon="-0.43566">
        <ele>17.8112</ele>
        <time>2011-02-27T13:25:11Z</time>
      </trkpt>
      <trkpt lat="46.39784" lon="-0.43566">
        <ele>17.8086</ele>
        <time>2011-02-27T13:25:12Z</time>
      </trkpt>
      <trkpt lat="46.39783" lon="-0.43567">
        <ele>17.8132</ele>
        <time>2011-02-27T13:25:13Z</time>
      </trkpt>
      <trkpt lat="46.39782" lon="-0.43568">
        <ele>17.834</ele>
        <time>2011-02-27T13:25:14Z</time>
      </trkpt>
      <trkpt lat="46.39781" lon="-0.43568">
        <ele>17.856</ele>
        <time>2011-02-27T13:25:15Z</time>
      </trkpt>
      <trkpt lat="46.3978" lon="-0.4357">
        <ele>17.8753</ele>
        <time>2011-02-27T13:25:16Z</time>
      </trkpt>
      <trkpt lat="46.39779" lon="-0.43571">
        <ele>17.8908</ele>
        <time>2011-02-27T13:25:17Z</time>
      </trkpt>
      <trkpt lat="46.39778" lon="-0.43572">
        <ele>17.9045</ele>
        <time>2011-02-27T13:25:18Z</time>
      </trkpt>
      <trkpt lat="46.39776" lon="-0.43573">
        <ele>17.9169</ele>
        <time>2011-02-27T13:25:19Z</time>
      </trkpt>
      <trkpt lat="46.39776" lon="-0.43573">
        <ele>17.9296</ele>
        <time>2011-02-27T13:25:20Z</time>
      </trkpt>
      <trkpt lat="46.39774" lon="-0.43574">
        <ele>17.9375</ele>
        <time>2011-02-27T13:25:21Z</time>
      </trkpt>
      <trkpt lat="46.39773" lon="-0.43575">
        <ele>17.9432</ele>
        <time>2011-02-27T13:25:22Z</time>
      </trkpt>
      <trkpt lat="46.39772" lon="-0.43576">
        <ele>17.9412</ele>
        <time>2011-02-27T13:25:23Z</time>
      </trkpt>
      <trkpt lat="46.39771" lon="-0.43576">
        <ele>17.9372</ele>
        <time>2011-02-27T13:25:24Z</time>
      </trkpt>
      <trkpt lat="46.39769" lon="-0.43576">
        <ele>17.935</ele>
        <time>2011-02-27T13:25:25Z</time>
      </trkpt>
      <trkpt lat="46.39768" lon="-0.43577">
        <ele>17.9289</ele>
        <time>2011-02-27T13:25:26Z</time>
      </trkpt>
      <trkpt lat="46.39766" lon="-0.43577">
        <ele>17.923</ele>
        <time>2011-02-27T13:25:27Z</time>
      </trkpt>
      <trkpt lat="46.39764" lon="-0.43578">
        <ele>17.9165</ele>
        <time>2011-02-27T13:25:28Z</time>
      </trkpt>
      <trkpt lat="46.39763" lon="-0.43578">
        <ele>17.9087</ele>
        <time>2011-02-27T13:25:29Z</time>
      </trkpt>
      <trkpt lat="46.39762" lon="-0.43579">
        <ele>17.9007</ele>
        <time>2011-02-27T13:25:30Z</time>
      </trkpt>
      <trkpt lat="46.39761" lon="-0.4358">
        <ele>17.8882</ele>
        <time>2011-02-27T13:25:31Z</time>
      </trkpt>
      <trkpt lat="46.3976" lon="-0.43581">
        <ele>17.8722</ele>
        <time>2011-02-27T13:25:32Z</time>
      </trkpt>
      <trkpt lat="46.39759" lon="-0.43582">
        <ele>17.8579</ele>
        <time>2011-02-27T13:25:33Z</time>
      </trkpt>
      <trkpt lat="46.39758" lon="-0.43583">
        <ele>17.8427</ele>
        <time>2011-02-27T13:25:34Z</time>
      </trkpt>
      <trkpt lat="46.39757" lon="-0.43584">
        <ele>17.8262</ele>
        <time>2011-02-27T13:25:35Z</time>
      </trkpt>
      <trkpt lat="46.39756" lon="-0.43584">
        <ele>17.8106</ele>
        <time>2011-02-27T13:25:36Z</time>
      </trkpt>
      <trkpt lat="46.39756" lon="-0.43585">
        <ele>17.7974</ele>
        <time>2011-02-27T13:25:37Z</time>
      </trkpt>
      <trkpt lat="46.39755" lon="-0.43586">
        <ele>17.7846</ele>
        <time>2011-02-27T13:25:38Z</time>
      </trkpt>
      <trkpt lat="46.39754" lon="-0.43587">
        <ele>17.7743</ele>
        <time>2011-02-27T13:25:39Z</time>
      </trkpt>
      <trkpt lat="46.39753" lon="-0.43587">
        <ele>17.7677</ele>
        <time>2011-02-27T13:25:40Z</time>
      </trkpt>
      <trkpt lat="46.39752" lon="-0.43588">
        <ele>17.7623</ele>
        <time>2011-02-27T13:25:41Z</time>
      </trkpt>
      <trkpt lat="46.39751" lon="-0.43588">
        <ele>17.7567</ele>
        <time>2011-02-27T13:25:42Z</time>
      </trkpt>
      <trkpt lat="46.3975" lon="-0.43589">
        <ele>17.7518</ele>
        <time>2011-02-27T13:25:43Z</time>
      </trkpt>
      <trkpt lat="46.39749" lon="-0.43589">
        <ele>17.7503</ele>
        <time>2011-02-27T13:25:44Z</time>
      </trkpt>
      <trkpt lat="46.39748" lon="-0.43589">
        <ele>17.7539</ele>
        <time>2011-02-27T13:25:45Z</time>
      </trkpt>
      <trkpt lat="46.39746" lon="-0.43589">
        <ele>17.7634</ele>
        <time>2011-02-27T13:25:46Z</time>
      </trkpt>
      <trkpt lat="46.39745" lon="-0.4359">
        <ele>17.7785</ele>
        <time>2011-02-27T13:25:47Z</time>
      </trkpt>
      <trkpt lat="46.39743" lon="-0.43591">
        <ele>17.7952</ele>
        <time>2011-02-27T13:25:48Z</time>
      </trkpt>
      <trkpt lat="46.39743" lon="-0.43592">
        <ele>17.8119</ele>
        <time>2011-02-27T13:25:49Z</time>
      </trkpt>
      <trkpt lat="46.39742" lon="-0.43593">
        <ele>17.8268</ele>
        <time>2011-02-27T13:25:50Z</time>
      </trkpt>
      <trkpt lat="46.39741" lon="-0.43594">
        <ele>17.8387</ele>
        <time>2011-02-27T13:25:51Z</time>
      </trkpt>
      <trkpt lat="46.3974" lon="-0.43595">
        <ele>17.8487</ele>
        <time>2011-02-27T13:25:52Z</time>
      </trkpt>
      <trkpt lat="46.39739" lon="-0.43596">
        <ele>17.8552</ele>
        <time>2011-02-27T13:25:53Z</time>
      </trkpt>
      <trkpt lat="46.39738" lon="-0.43597">
        <ele>17.8504</ele>
        <time>2011-02-27T13:25:54Z</time>
      </trkpt>
      <trkpt lat="46.39737" lon="-0.43599">
        <ele>17.8455</ele>
        <time>2011-02-27T13:25:55Z</time>
      </trkpt>
      <trkpt lat="46.39736" lon="-0.436">
        <ele>17.8394</ele>
        <time>2011-02-27T13:25:56Z</time>
      </trkpt>
      <trkpt lat="46.39735" lon="-0.43601">
        <ele>17.8345</ele>
        <time>2011-02-27T13:25:57Z</time>
      </trkpt>
      <trkpt lat="46.39734" lon="-0.43602">
        <ele>17.8312</ele>
        <time>2011-02-27T13:25:58Z</time>
      </trkpt>
      <trkpt lat="46.39732" lon="-0.43602">
        <ele>17.8297</ele>
        <time>2011-02-27T13:25:59Z</time>
      </trkpt>
      <trkpt lat="46.39732" lon="-0.43603">
        <ele>17.8313</ele>
        <time>2011-02-27T13:26:00Z</time>
      </trkpt>
      <trkpt lat="46.39731" lon="-0.43604">
        <ele>17.8339</ele>
        <time>2011-02-27T13:26:01Z</time>
      </trkpt>
      <trkpt lat="46.3973" lon="-0.43605">
        <ele>17.8359</ele>
        <time>2011-02-27T13:26:02Z</time>
      </trkpt>
      <trkpt lat="46.39729" lon="-0.43607">
        <ele>17.8307</ele>
        <time>2011-02-27T13:26:03Z</time>
      </trkpt>
      <trkpt lat="46.39727" lon="-0.43609">
        <ele>17.8209</ele>
        <time>2011-02-27T13:26:04Z</time>
      </trkpt>
      <trkpt lat="46.39726" lon="-0.43611">
        <ele>17.8051</ele>
        <time>2011-02-27T13:26:05Z</time>
      </trkpt>
      <trkpt lat="46.39725" lon="-0.43612">
        <ele>17.7854</ele>
        <time>2011-02-27T13:26:06Z</time>
      </trkpt>
      <trkpt lat="46.39723" lon="-0.43613">
        <ele>17.7651</ele>
        <time>2011-02-27T13:26:07Z</time>
      </trkpt>
      <trkpt lat="46.39722" lon="-0.43614">
        <ele>17.7447</ele>
        <time>2011-02-27T13:26:08Z</time>
      </trkpt>
      <trkpt lat="46.39721" lon="-0.43616">
        <ele>17.7223</ele>
        <time>2011-02-27T13:26:09Z</time>
      </trkpt>
      <trkpt lat="46.3972" lon="-0.43617">
        <ele>17.7008</ele>
        <time>2011-02-27T13:26:10Z</time>
      </trkpt>
      <trkpt lat="46.39719" lon="-0.43618">
        <ele>17.6772</ele>
        <time>2011-02-27T13:26:11Z</time>
      </trkpt>
      <trkpt lat="46.39717" lon="-0.43619">
        <ele>17.6541</ele>
        <time>2011-02-27T13:26:12Z</time>
      </trkpt>
      <trkpt lat="46.39716" lon="-0.43619">
        <ele>17.6327</ele>
        <time>2011-02-27T13:26:13Z</time>
      </trkpt>
      <trkpt lat="46.39715" lon="-0.4362">
        <ele>17.615</ele>
        <time>2011-02-27T13:26:14Z</time>
      </trkpt>
      <trkpt lat="46.39714" lon="-0.43621">
        <ele>17.6002</ele>
        <time>2011-02-27T13:26:15Z</time>
      </trkpt>
      <trkpt lat="46.39713" lon="-0.43621">
        <ele>17.5869</ele>
        <time>2011-02-27T13:26:16Z</time>
      </trkpt>
      <trkpt lat="46.39711" lon="-0.43622">
        <ele>17.5471</ele>
        <time>2011-02-27T13:26:20Z</time>
      </trkpt>
      <trkpt lat="46.3971" lon="-0.43623">
        <ele>17.5217</ele>
        <time>2011-02-27T13:26:21Z</time>
      </trkpt>
      <trkpt lat="46.39708" lon="-0.43623">
        <ele>17.4923</ele>
        <time>2011-02-27T13:26:22Z</time>
      </trkpt>
      <trkpt lat="46.39707" lon="-0.43624">
        <ele>17.46</ele>
        <time>2011-02-27T13:26:23Z</time>
      </trkpt>
      <trkpt lat="46.39706" lon="-0.43624">
        <ele>17.4234</ele>
        <time>2011-02-27T13:26:24Z</time>
      </trkpt>
      <trkpt lat="46.39705" lon="-0.43625">
        <ele>17.3822</ele>
        <time>2011-02-27T13:26:25Z</time>
      </trkpt>
      <trkpt lat="46.39705" lon="-0.43626">
        <ele>17.3411</ele>
        <time>2011-02-27T13:26:26Z</time>
      </trkpt>
      <trkpt lat="46.39703" lon="-0.43627">
        <ele>17.3016</ele>
        <time>2011-02-27T13:26:27Z</time>
      </trkpt>
      <trkpt lat="46.39703" lon="-0.43628">
        <ele>17.2601</ele>
        <time>2011-02-27T13:26:28Z</time>
      </trkpt>
      <trkpt lat="46.39702" lon="-0.43629">
        <ele>17.2206</ele>
        <time>2011-02-27T13:26:29Z</time>
      </trkpt>
      <trkpt lat="46.39702" lon="-0.4363">
        <ele>17.1824</ele>
        <time>2011-02-27T13:26:30Z</time>
      </trkpt>
      <trkpt lat="46.397" lon="-0.4363">
        <ele>17.1455</ele>
        <time>2011-02-27T13:26:31Z</time>
      </trkpt>
      <trkpt lat="46.397" lon="-0.43631">
        <ele>17.1098</ele>
        <time>2011-02-27T13:26:32Z</time>
      </trkpt>
      <trkpt lat="46.39699" lon="-0.43632">
        <ele>17.0734</ele>
        <time>2011-02-27T13:26:33Z</time>
      </trkpt>
      <trkpt lat="46.39698" lon="-0.43632">
        <ele>17.0368</ele>
        <time>2011-02-27T13:26:34Z</time>
      </trkpt>
      <trkpt lat="46.39697" lon="-0.43633">
        <ele>16.9999</ele>
        <time>2011-02-27T13:26:35Z</time>
      </trkpt>
      <trkpt lat="46.39696" lon="-0.43634">
        <ele>16.9538</ele>
        <time>2011-02-27T13:26:36Z</time>
      </trkpt>
      <trkpt lat="46.39696" lon="-0.43636">
        <ele>16.9041</ele>
        <time>2011-02-27T13:26:37Z</time>
      </trkpt>
      <trkpt lat="46.39695" lon="-0.43637">
        <ele>16.8502</ele>
        <time>2011-02-27T13:26:38Z</time>
      </trkpt>
      <trkpt lat="46.39695" lon="-0.43638">
        <ele>16.7947</ele>
        <time>2011-02-27T13:26:39Z</time>
      </trkpt>
      <trkpt lat="46.39695" lon="-0.43639">
        <ele>16.7374</ele>
        <time>2011-02-27T13:26:40Z</time>
      </trkpt>
      <trkpt lat="46.39694" lon="-0.4364">
        <ele>16.6816</ele>
        <time>2011-02-27T13:26:41Z</time>
      </trkpt>
      <trkpt lat="46.39693" lon="-0.43641">
        <ele>16.6269</ele>
        <time>2011-02-27T13:26:42Z</time>
      </trkpt>
      <trkpt lat="46.39692" lon="-0.43641">
        <ele>16.5739</ele>
        <time>2011-02-27T13:26:43Z</time>
      </trkpt>
      <trkpt lat="46.39691" lon="-0.43642">
        <ele>16.5213</ele>
        <time>2011-02-27T13:26:44Z</time>
      </trkpt>
      <trkpt lat="46.3969" lon="-0.43642">
        <ele>16.4697</ele>
        <time>2011-02-27T13:26:45Z</time>
      </trkpt>
      <trkpt lat="46.39689" lon="-0.43642">
        <ele>16.4186</ele>
        <time>2011-02-27T13:26:46Z</time>
      </trkpt>
      <trkpt lat="46.39687" lon="-0.43643">
        <ele>16.3669</ele>
        <time>2011-02-27T13:26:47Z</time>
      </trkpt>
      <trkpt lat="46.39686" lon="-0.43644">
        <ele>16.3125</ele>
        <time>2011-02-27T13:26:48Z</time>
      </trkpt>
      <trkpt lat="46.39685" lon="-0.43644">
        <ele>16.2593</ele>
        <time>2011-02-27T13:26:49Z</time>
      </trkpt>
      <trkpt lat="46.39683" lon="-0.43645">
        <ele>16.2079</ele>
        <time>2011-02-27T13:26:50Z</time>
      </trkpt>
      <trkpt lat="46.39682" lon="-0.43645">
        <ele>16.1556</ele>
        <time>2011-02-27T13:26:51Z</time>
      </trkpt>
      <trkpt lat="46.39681" lon="-0.43646">
        <ele>16.1049</ele>
        <time>2011-02-27T13:26:52Z</time>
      </trkpt>
      <trkpt lat="46.3968" lon="-0.43647">
        <ele>16.0567</ele>
        <time>2011-02-27T13:26:53Z</time>
      </trkpt>
      <trkpt lat="46.39679" lon="-0.43648">
        <ele>16.0096</ele>
        <time>2011-02-27T13:26:54Z</time>
      </trkpt>
      <trkpt lat="46.39678" lon="-0.43649">
        <ele>15.9649</ele>
        <time>2011-02-27T13:26:55Z</time>
      </trkpt>
      <trkpt lat="46.39677" lon="-0.4365">
        <ele>15.9223</ele>
        <time>2011-02-27T13:26:56Z</time>
      </trkpt>
      <trkpt lat="46.39676" lon="-0.43651">
        <ele>15.8737</ele>
        <time>2011-02-27T13:26:57Z</time>
      </trkpt>
      <trkpt lat="46.39675" lon="-0.43653">
        <ele>15.8199</ele>
        <time>2011-02-27T13:26:58Z</time>
      </trkpt>
      <trkpt lat="46.39674" lon="-0.43655">
        <ele>15.7644</ele>
        <time>2011-02-27T13:26:59Z</time>
      </trkpt>
      <trkpt lat="46.39673" lon="-0.43657">
        <ele>15.7024</ele>
        <time>2011-02-27T13:27:00Z</time>
      </trkpt>
      <trkpt lat="46.39672" lon="-0.43658">
        <ele>15.6405</ele>
        <time>2011-02-27T13:27:01Z</time>
      </trkpt>
      <trkpt lat="46.39671" lon="-0.4366">
        <ele>15.5717</ele>
        <time>2011-02-27T13:27:02Z</time>
      </trkpt>
      <trkpt lat="46.39669" lon="-0.43661">
        <ele>15.5123</ele>
        <time>2011-02-27T13:27:03Z</time>
      </trkpt>
      <trkpt lat="46.39668" lon="-0.43662">
        <ele>15.4628</ele>
        <time>2011-02-27T13:27:04Z</time>
      </trkpt>
      <trkpt lat="46.39666" lon="-0.43663">
        <ele>15.4148</ele>
        <time>2011-02-27T13:27:05Z</time>
      </trkpt>
      <trkpt lat="46.39666" lon="-0.43665">
        <ele>15.3692</ele>
        <time>2011-02-27T13:27:06Z</time>
      </trkpt>
      <trkpt lat="46.39665" lon="-0.43666">
        <ele>15.3264</ele>
        <time>2011-02-27T13:27:07Z</time>
      </trkpt>
      <trkpt lat="46.39664" lon="-0.43667">
        <ele>15.2871</ele>
        <time>2011-02-27T13:27:08Z</time>
      </trkpt>
      <trkpt lat="46.39663" lon="-0.43668">
        <ele>15.2491</ele>
        <time>2011-02-27T13:27:09Z</time>
      </trkpt>
      <trkpt lat="46.39662" lon="-0.43669">
        <ele>15.2202</ele>
        <time>2011-02-27T13:27:10Z</time>
      </trkpt>
      <trkpt lat="46.39661" lon="-0.43669">
        <ele>15.191</ele>
        <time>2011-02-27T13:27:11Z</time>
      </trkpt>
      <trkpt lat="46.3966" lon="-0.4367">
        <ele>15.1617</ele>
        <time>2011-02-27T13:27:12Z</time>
      </trkpt>
      <trkpt lat="46.39659" lon="-0.43671">
        <ele>15.1338</ele>
        <time>2011-02-27T13:27:13Z</time>
      </trkpt>
      <trkpt lat="46.39658" lon="-0.43672">
        <ele>15.1087</ele>
        <time>2011-02-27T13:27:14Z</time>
      </trkpt>
      <trkpt lat="46.39657" lon="-0.43673">
        <ele>15.086</ele>
        <time>2011-02-27T13:27:15Z</time>
      </trkpt>
      <trkpt lat="46.39656" lon="-0.43674">
        <ele>15.0706</ele>
        <time>2011-02-27T13:27:16Z</time>
      </trkpt>
      <trkpt lat="46.39655" lon="-0.43675">
        <ele>15.0579</ele>
        <time>2011-02-27T13:27:17Z</time>
      </trkpt>
      <trkpt lat="46.39653" lon="-0.43676">
        <ele>15.0576</ele>
        <time>2011-02-27T13:27:18Z</time>
      </trkpt>
      <trkpt lat="46.39652" lon="-0.43676">
        <ele>15.0717</ele>
        <time>2011-02-27T13:27:19Z</time>
      </trkpt>
      <trkpt lat="46.39651" lon="-0.43677">
        <ele>15.0909</ele>
        <time>2011-02-27T13:27:20Z</time>
      </trkpt>
      <trkpt lat="46.3965" lon="-0.43677">
        <ele>15.1152</ele>
        <time>2011-02-27T13:27:21Z</time>
      </trkpt>
      <trkpt lat="46.39648" lon="-0.43678">
        <ele>15.1428</ele>
        <time>2011-02-27T13:27:22Z</time>
      </trkpt>
      <trkpt lat="46.39648" lon="-0.43678">
        <ele>15.1755</ele>
        <time>2011-02-27T13:27:23Z</time>
      </trkpt>
      <trkpt lat="46.39646" lon="-0.43681">
        <ele>15.2863</ele>
        <time>2011-02-27T13:27:32Z</time>
      </trkpt>
      <trkpt lat="46.39645" lon="-0.43682">
        <ele>15.3561</ele>
        <time>2011-02-27T13:27:33Z</time>
      </trkpt>
      <trkpt lat="46.39644" lon="-0.43684">
        <ele>15.4255</ele>
        <time>2011-02-27T13:27:34Z</time>
      </trkpt>
      <trkpt lat="46.39643" lon="-0.43686">
        <ele>15.4953</ele>
        <time>2011-02-27T13:27:35Z</time>
      </trkpt>
      <trkpt lat="46.39642" lon="-0.43688">
        <ele>15.5644</ele>
        <time>2011-02-27T13:27:36Z</time>
      </trkpt>
      <trkpt lat="46.39641" lon="-0.43689">
        <ele>15.6322</ele>
        <time>2011-02-27T13:27:37Z</time>
      </trkpt>
      <trkpt lat="46.39639" lon="-0.4369">
        <ele>15.6974</ele>
        <time>2011-02-27T13:27:38Z</time>
      </trkpt>
      <trkpt lat="46.39638" lon="-0.43692">
        <ele>15.7601</ele>
        <time>2011-02-27T13:27:39Z</time>
      </trkpt>
      <trkpt lat="46.39637" lon="-0.43693">
        <ele>15.8202</ele>
        <time>2011-02-27T13:27:40Z</time>
      </trkpt>
      <trkpt lat="46.39635" lon="-0.43694">
        <ele>15.8775</ele>
        <time>2011-02-27T13:27:41Z</time>
      </trkpt>
      <trkpt lat="46.39634" lon="-0.43694">
        <ele>15.9314</ele>
        <time>2011-02-27T13:27:42Z</time>
      </trkpt>
      <trkpt lat="46.39633" lon="-0.43695">
        <ele>15.9816</ele>
        <time>2011-02-27T13:27:43Z</time>
      </trkpt>
      <trkpt lat="46.39632" lon="-0.43696">
        <ele>16.0327</ele>
        <time>2011-02-27T13:27:44Z</time>
      </trkpt>
      <trkpt lat="46.39631" lon="-0.43696">
        <ele>16.0808</ele>
        <time>2011-02-27T13:27:45Z</time>
      </trkpt>
      <trkpt lat="46.39631" lon="-0.43697">
        <ele>16.1264</ele>
        <time>2011-02-27T13:27:46Z</time>
      </trkpt>
      <trkpt lat="46.3963" lon="-0.43698">
        <ele>16.1691</ele>
        <time>2011-02-27T13:27:47Z</time>
      </trkpt>
      <trkpt lat="46.39629" lon="-0.437">
        <ele>16.2092</ele>
        <time>2011-02-27T13:27:48Z</time>
      </trkpt>
      <trkpt lat="46.39628" lon="-0.43701">
        <ele>16.2458</ele>
        <time>2011-02-27T13:27:49Z</time>
      </trkpt>
      <trkpt lat="46.39628" lon="-0.43702">
        <ele>16.2806</ele>
        <time>2011-02-27T13:27:50Z</time>
      </trkpt>
      <trkpt lat="46.39627" lon="-0.43703">
        <ele>16.313</ele>
        <time>2011-02-27T13:27:51Z</time>
      </trkpt>
      <trkpt lat="46.39626" lon="-0.43704">
        <ele>16.3435</ele>
        <time>2011-02-27T13:27:52Z</time>
      </trkpt>
      <trkpt lat="46.39625" lon="-0.43705">
        <ele>16.3773</ele>
        <time>2011-02-27T13:27:53Z</time>
      </trkpt>
      <trkpt lat="46.39624" lon="-0.43705">
        <ele>16.4147</ele>
        <time>2011-02-27T13:27:54Z</time>
      </trkpt>
      <trkpt lat="46.39623" lon="-0.43706">
        <ele>16.4528</ele>
        <time>2011-02-27T13:27:55Z</time>
      </trkpt>
      <trkpt lat="46.39623" lon="-0.43707">
        <ele>16.4886</ele>
        <time>2011-02-27T13:27:56Z</time>
      </trkpt>
      <trkpt lat="46.39622" lon="-0.43708">
        <ele>16.5217</ele>
        <time>2011-02-27T13:27:57Z</time>
      </trkpt>
      <trkpt lat="46.39621" lon="-0.43709">
        <ele>16.555</ele>
        <time>2011-02-27T13:27:58Z</time>
      </trkpt>
      <trkpt lat="46.3962" lon="-0.43709">
        <ele>16.588</ele>
        <time>2011-02-27T13:27:59Z</time>
      </trkpt>
      <trkpt lat="46.39619" lon="-0.4371">
        <ele>16.6196</ele>
        <time>2011-02-27T13:28:00Z</time>
      </trkpt>
      <trkpt lat="46.39619" lon="-0.4371">
        <ele>16.6502</ele>
        <time>2011-02-27T13:28:01Z</time>
      </trkpt>
      <trkpt lat="46.39618" lon="-0.43711">
        <ele>16.6816</ele>
        <time>2011-02-27T13:28:02Z</time>
      </trkpt>
      <trkpt lat="46.39618" lon="-0.43712">
        <ele>16.7127</ele>
        <time>2011-02-27T13:28:03Z</time>
      </trkpt>
      <trkpt lat="46.39617" lon="-0.43713">
        <ele>16.7437</ele>
        <time>2011-02-27T13:28:04Z</time>
      </trkpt>
      <trkpt lat="46.39616" lon="-0.43714">
        <ele>16.7743</ele>
        <time>2011-02-27T13:28:05Z</time>
      </trkpt>
      <trkpt lat="46.39615" lon="-0.43714">
        <ele>16.8059</ele>
        <time>2011-02-27T13:28:06Z</time>
      </trkpt>
      <trkpt lat="46.39615" lon="-0.43715">
        <ele>16.8353</ele>
        <time>2011-02-27T13:28:07Z</time>
      </trkpt>
      <trkpt lat="46.39614" lon="-0.43716">
        <ele>16.8648</ele>
        <time>2011-02-27T13:28:08Z</time>
      </trkpt>
      <trkpt lat="46.39613" lon="-0.43717">
        <ele>16.8945</ele>
        <time>2011-02-27T13:28:09Z</time>
      </trkpt>
      <trkpt lat="46.39612" lon="-0.43718">
        <ele>16.9251</ele>
        <time>2011-02-27T13:28:10Z</time>
      </trkpt>
      <trkpt lat="46.39611" lon="-0.43719">
        <ele>16.9507</ele>
        <time>2011-02-27T13:28:11Z</time>
      </trkpt>
      <trkpt lat="46.3961" lon="-0.4372">
        <ele>16.9764</ele>
        <time>2011-02-27T13:28:12Z</time>
      </trkpt>
      <trkpt lat="46.39609" lon="-0.43721">
        <ele>16.9994</ele>
        <time>2011-02-27T13:28:13Z</time>
      </trkpt>
      <trkpt lat="46.39608" lon="-0.43722">
        <ele>17.0227</ele>
        <time>2011-02-27T13:28:14Z</time>
      </trkpt>
      <trkpt lat="46.39607" lon="-0.43722">
        <ele>17.0447</ele>
        <time>2011-02-27T13:28:15Z</time>
      </trkpt>
      <trkpt lat="46.39607" lon="-0.43723">
        <ele>17.0652</ele>
        <time>2011-02-27T13:28:16Z</time>
      </trkpt>
      <trkpt lat="46.39606" lon="-0.43725">
        <ele>17.085</ele>
        <time>2011-02-27T13:28:17Z</time>
      </trkpt>
      <trkpt lat="46.39605" lon="-0.43726">
        <ele>17.1014</ele>
        <time>2011-02-27T13:28:18Z</time>
      </trkpt>
      <trkpt lat="46.39604" lon="-0.43727">
        <ele>17.1132</ele>
        <time>2011-02-27T13:28:19Z</time>
      </trkpt>
      <trkpt lat="46.39603" lon="-0.43728">
        <ele>17.1237</ele>
        <time>2011-02-27T13:28:20Z</time>
      </trkpt>
      <trkpt lat="46.39602" lon="-0.43729">
        <ele>17.1354</ele>
        <time>2011-02-27T13:28:21Z</time>
      </trkpt>
      <trkpt lat="46.39601" lon="-0.4373">
        <ele>17.15</ele>
        <time>2011-02-27T13:28:22Z</time>
      </trkpt>
      <trkpt lat="46.396" lon="-0.43732">
        <ele>17.1523</ele>
        <time>2011-02-27T13:28:23Z</time>
      </trkpt>
      <trkpt lat="46.39599" lon="-0.43734">
        <ele>17.1408</ele>
        <time>2011-02-27T13:28:24Z</time>
      </trkpt>
      <trkpt lat="46.39597" lon="-0.43736">
        <ele>17.1253</ele>
        <time>2011-02-27T13:28:25Z</time>
      </trkpt>
      <trkpt lat="46.39596" lon="-0.43738">
        <ele>17.1064</ele>
        <time>2011-02-27T13:28:26Z</time>
      </trkpt>
      <trkpt lat="46.39595" lon="-0.4374">
        <ele>17.0864</ele>
        <time>2011-02-27T13:28:27Z</time>
      </trkpt>
      <trkpt lat="46.39594" lon="-0.43741">
        <ele>17.0671</ele>
        <time>2011-02-27T13:28:28Z</time>
      </trkpt>
      <trkpt lat="46.39593" lon="-0.43743">
        <ele>17.0521</ele>
        <time>2011-02-27T13:28:29Z</time>
      </trkpt>
      <trkpt lat="46.39592" lon="-0.43744">
        <ele>17.0363</ele>
        <time>2011-02-27T13:28:30Z</time>
      </trkpt>
      <trkpt lat="46.39592" lon="-0.43745">
        <ele>17.0131</ele>
        <time>2011-02-27T13:28:31Z</time>
      </trkpt>
      <trkpt lat="46.39591" lon="-0.43747">
        <ele>16.9921</ele>
        <time>2011-02-27T13:28:32Z</time>
      </trkpt>
      <trkpt lat="46.3959" lon="-0.43747">
        <ele>16.9726</ele>
        <time>2011-02-27T13:28:33Z</time>
      </trkpt>
      <trkpt lat="46.39589" lon="-0.43749">
        <ele>16.9513</ele>
        <time>2011-02-27T13:28:34Z</time>
      </trkpt>
      <trkpt lat="46.39588" lon="-0.43749">
        <ele>16.9304</ele>
        <time>2011-02-27T13:28:35Z</time>
      </trkpt>
      <trkpt lat="46.39587" lon="-0.4375">
        <ele>16.912</ele>
        <time>2011-02-27T13:28:36Z</time>
      </trkpt>
      <trkpt lat="46.39586" lon="-0.43751">
        <ele>16.8926</ele>
        <time>2011-02-27T13:28:37Z</time>
      </trkpt>
      <trkpt lat="46.39585" lon="-0.43753">
        <ele>16.8705</ele>
        <time>2011-02-27T13:28:38Z</time>
      </trkpt>
      <trkpt lat="46.39584" lon="-0.43754">
        <ele>16.8549</ele>
        <time>2011-02-27T13:28:39Z</time>
      </trkpt>
      <trkpt lat="46.39583" lon="-0.43755">
        <ele>16.8407</ele>
        <time>2011-02-27T13:28:40Z</time>
      </trkpt>
      <trkpt lat="46.39582" lon="-0.43755">
        <ele>16.827</ele>
        <time>2011-02-27T13:28:41Z</time>
      </trkpt>
      <trkpt lat="46.39581" lon="-0.43757">
        <ele>16.8092</ele>
        <time>2011-02-27T13:28:42Z</time>
      </trkpt>
      <trkpt lat="46.39581" lon="-0.43758">
        <ele>16.7907</ele>
        <time>2011-02-27T13:28:43Z</time>
      </trkpt>
      <trkpt lat="46.39579" lon="-0.43758">
        <ele>16.7752</ele>
        <time>2011-02-27T13:28:44Z</time>
      </trkpt>
      <trkpt lat="46.39579" lon="-0.43759">
        <ele>16.7615</ele>
        <time>2011-02-27T13:28:45Z</time>
      </trkpt>
      <trkpt lat="46.39578" lon="-0.4376">
        <ele>16.7519</ele>
        <time>2011-02-27T13:28:46Z</time>
      </trkpt>
      <trkpt lat="46.39576" lon="-0.4376">
        <ele>16.7417</ele>
        <time>2011-02-27T13:28:47Z</time>
      </trkpt>
      <trkpt lat="46.39575" lon="-0.43761">
        <ele>16.727</ele>
        <time>2011-02-27T13:28:48Z</time>
      </trkpt>
      <trkpt lat="46.39574" lon="-0.43762">
        <ele>16.7152</ele>
        <time>2011-02-27T13:28:49Z</time>
      </trkpt>
      <trkpt lat="46.39574" lon="-0.43763">
        <ele>16.7022</ele>
        <time>2011-02-27T13:28:50Z</time>
      </trkpt>
      <trkpt lat="46.39573" lon="-0.43764">
        <ele>16.6879</ele>
        <time>2011-02-27T13:28:51Z</time>
      </trkpt>
      <trkpt lat="46.39572" lon="-0.43766">
        <ele>16.6723</ele>
        <time>2011-02-27T13:28:52Z</time>
      </trkpt>
      <trkpt lat="46.39571" lon="-0.43767">
        <ele>16.6575</ele>
        <time>2011-02-27T13:28:53Z</time>
      </trkpt>
      <trkpt lat="46.3957" lon="-0.43768">
        <ele>16.6376</ele>
        <time>2011-02-27T13:28:54Z</time>
      </trkpt>
      <trkpt lat="46.3957" lon="-0.43769">
        <ele>16.6154</ele>
        <time>2011-02-27T13:28:55Z</time>
      </trkpt>
      <trkpt lat="46.39569" lon="-0.4377">
        <ele>16.5915</ele>
        <time>2011-02-27T13:28:56Z</time>
      </trkpt>
      <trkpt lat="46.39568" lon="-0.43771">
        <ele>16.5669</ele>
        <time>2011-02-27T13:28:57Z</time>
      </trkpt>
      <trkpt lat="46.39567" lon="-0.43771">
        <ele>16.5401</ele>
        <time>2011-02-27T13:28:58Z</time>
      </trkpt>
      <trkpt lat="46.39566" lon="-0.43772">
        <ele>16.5123</ele>
        <time>2011-02-27T13:28:59Z</time>
      </trkpt>
      <trkpt lat="46.39566" lon="-0.43773">
        <ele>16.4841</ele>
        <time>2011-02-27T13:29:00Z</time>
      </trkpt>
      <trkpt lat="46.39565" lon="-0.43774">
        <ele>16.4519</ele>
        <time>2011-02-27T13:29:01Z</time>
      </trkpt>
      <trkpt lat="46.39564" lon="-0.43775">
        <ele>16.4171</ele>
        <time>2011-02-27T13:29:02Z</time>
      </trkpt>
      <trkpt lat="46.39563" lon="-0.43777">
        <ele>16.376</ele>
        <time>2011-02-27T13:29:03Z</time>
      </trkpt>
      <trkpt lat="46.39562" lon="-0.43778">
        <ele>16.3252</ele>
        <time>2011-02-27T13:29:04Z</time>
      </trkpt>
      <trkpt lat="46.39562" lon="-0.43779">
        <ele>16.2699</ele>
        <time>2011-02-27T13:29:05Z</time>
      </trkpt>
      <trkpt lat="46.39561" lon="-0.4378">
        <ele>16.2129</ele>
        <time>2011-02-27T13:29:06Z</time>
      </trkpt>
      <trkpt lat="46.3956" lon="-0.43781">
        <ele>16.1578</ele>
        <time>2011-02-27T13:29:07Z</time>
      </trkpt>
      <trkpt lat="46.3956" lon="-0.43782">
        <ele>16.1041</ele>
        <time>2011-02-27T13:29:08Z</time>
      </trkpt>
      <trkpt lat="46.39559" lon="-0.43782">
        <ele>16.0518</ele>
        <time>2011-02-27T13:29:09Z</time>
      </trkpt>
      <trkpt lat="46.39558" lon="-0.43783">
        <ele>16.005</ele>
        <time>2011-02-27T13:29:10Z</time>
      </trkpt>
      <trkpt lat="46.39558" lon="-0.43784">
        <ele>15.9546</ele>
        <time>2011-02-27T13:29:11Z</time>
      </trkpt>
      <trkpt lat="46.39557" lon="-0.43785">
        <ele>15.9042</ele>
        <time>2011-02-27T13:29:12Z</time>
      </trkpt>
      <trkpt lat="46.39556" lon="-0.43786">
        <ele>15.8542</ele>
        <time>2011-02-27T13:29:13Z</time>
      </trkpt>
      <trkpt lat="46.39555" lon="-0.43787">
        <ele>15.8075</ele>
        <time>2011-02-27T13:29:14Z</time>
      </trkpt>
      <trkpt lat="46.39555" lon="-0.43788">
        <ele>15.7617</ele>
        <time>2011-02-27T13:29:15Z</time>
      </trkpt>
      <trkpt lat="46.39554" lon="-0.43788">
        <ele>15.7199</ele>
        <time>2011-02-27T13:29:16Z</time>
      </trkpt>
      <trkpt lat="46.39553" lon="-0.4379">
        <ele>15.6825</ele>
        <time>2011-02-27T13:29:17Z</time>
      </trkpt>
      <trkpt lat="46.39552" lon="-0.43791">
        <ele>15.6516</ele>
        <time>2011-02-27T13:29:18Z</time>
      </trkpt>
      <trkpt lat="46.39551" lon="-0.43792">
        <ele>15.6249</ele>
        <time>2011-02-27T13:29:19Z</time>
      </trkpt>
      <trkpt lat="46.3955" lon="-0.43793">
        <ele>15.6014</ele>
        <time>2011-02-27T13:29:20Z</time>
      </trkpt>
      <trkpt lat="46.39549" lon="-0.43794">
        <ele>15.5836</ele>
        <time>2011-02-27T13:29:21Z</time>
      </trkpt>
      <trkpt lat="46.39548" lon="-0.43795">
        <ele>15.5716</ele>
        <time>2011-02-27T13:29:22Z</time>
      </trkpt>
      <trkpt lat="46.39547" lon="-0.43796">
        <ele>15.5627</ele>
        <time>2011-02-27T13:29:23Z</time>
      </trkpt>
      <trkpt lat="46.39546" lon="-0.43797">
        <ele>15.5589</ele>
        <time>2011-02-27T13:29:24Z</time>
      </trkpt>
      <trkpt lat="46.39545" lon="-0.43798">
        <ele>15.558</ele>
        <time>2011-02-27T13:29:25Z</time>
      </trkpt>
      <trkpt lat="46.39545" lon="-0.43799">
        <ele>15.5596</ele>
        <time>2011-02-27T13:29:26Z</time>
      </trkpt>
      <trkpt lat="46.39544" lon="-0.43801">
        <ele>15.5615</ele>
        <time>2011-02-27T13:29:27Z</time>
      </trkpt>
      <trkpt lat="46.39544" lon="-0.43802">
        <ele>15.5614</ele>
        <time>2011-02-27T13:29:28Z</time>
      </trkpt>
      <trkpt lat="46.39543" lon="-0.43803">
        <ele>15.5617</ele>
        <time>2011-02-27T13:29:29Z</time>
      </trkpt>
      <trkpt lat="46.39542" lon="-0.43804">
        <ele>15.5561</ele>
        <time>2011-02-27T13:29:30Z</time>
      </trkpt>
      <trkpt lat="46.39542" lon="-0.43805">
        <ele>15.5511</ele>
        <time>2011-02-27T13:29:31Z</time>
      </trkpt>
      <trkpt lat="46.39541" lon="-0.43806">
        <ele>15.5413</ele>
        <time>2011-02-27T13:29:32Z</time>
      </trkpt>
      <trkpt lat="46.3954" lon="-0.43807">
        <ele>15.5329</ele>
        <time>2011-02-27T13:29:33Z</time>
      </trkpt>
      <trkpt lat="46.39539" lon="-0.43808">
        <ele>15.5233</ele>
        <time>2011-02-27T13:29:34Z</time>
      </trkpt>
      <trkpt lat="46.39538" lon="-0.43809">
        <ele>15.5105</ele>
        <time>2011-02-27T13:29:35Z</time>
      </trkpt>
      <trkpt lat="46.39537" lon="-0.4381">
        <ele>15.496</ele>
        <time>2011-02-27T13:29:36Z</time>
      </trkpt>
      <trkpt lat="46.39537" lon="-0.43811">
        <ele>15.4812</ele>
        <time>2011-02-27T13:29:37Z</time>
      </trkpt>
      <trkpt lat="46.39536" lon="-0.43813">
        <ele>15.4663</ele>
        <time>2011-02-27T13:29:38Z</time>
      </trkpt>
      <trkpt lat="46.39535" lon="-0.43814">
        <ele>15.4533</ele>
        <time>2011-02-27T13:29:39Z</time>
      </trkpt>
      <trkpt lat="46.39534" lon="-0.43815">
        <ele>15.4414</ele>
        <time>2011-02-27T13:29:40Z</time>
      </trkpt>
      <trkpt lat="46.39534" lon="-0.43816">
        <ele>15.4323</ele>
        <time>2011-02-27T13:29:41Z</time>
      </trkpt>
      <trkpt lat="46.39533" lon="-0.43817">
        <ele>15.424</ele>
        <time>2011-02-27T13:29:42Z</time>
      </trkpt>
      <trkpt lat="46.39533" lon="-0.43818">
        <ele>15.4131</ele>
        <time>2011-02-27T13:29:43Z</time>
      </trkpt>
      <trkpt lat="46.39533" lon="-0.43819">
        <ele>15.3934</ele>
        <time>2011-02-27T13:29:44Z</time>
      </trkpt>
      <trkpt lat="46.39531" lon="-0.4382">
        <ele>15.3698</ele>
        <time>2011-02-27T13:29:45Z</time>
      </trkpt>
      <trkpt lat="46.39531" lon="-0.43822">
        <ele>15.3468</ele>
        <time>2011-02-27T13:29:46Z</time>
      </trkpt>
      <trkpt lat="46.3953" lon="-0.43823">
        <ele>15.3468</ele>
        <time>2011-02-27T13:29:47Z</time>
      </trkpt>
      <trkpt lat="46.39529" lon="-0.43824">
        <ele>15.3249</ele>
        <time>2011-02-27T13:29:48Z</time>
      </trkpt>
      <trkpt lat="46.39528" lon="-0.43825">
        <ele>15.3002</ele>
        <time>2011-02-27T13:29:49Z</time>
      </trkpt>
      <trkpt lat="46.39528" lon="-0.43825">
        <ele>15.2761</ele>
        <time>2011-02-27T13:29:50Z</time>
      </trkpt>
      <trkpt lat="46.39526" lon="-0.43826">
        <ele>15.2428</ele>
        <time>2011-02-27T13:29:51Z</time>
      </trkpt>
      <trkpt lat="46.39525" lon="-0.43828">
        <ele>15.2136</ele>
        <time>2011-02-27T13:29:52Z</time>
      </trkpt>
      <trkpt lat="46.39523" lon="-0.4383">
        <ele>15.1893</ele>
        <time>2011-02-27T13:29:53Z</time>
      </trkpt>
      <trkpt lat="46.39522" lon="-0.43832">
        <ele>15.1788</ele>
        <time>2011-02-27T13:29:54Z</time>
      </trkpt>
      <trkpt lat="46.39521" lon="-0.43834">
        <ele>15.1662</ele>
        <time>2011-02-27T13:29:55Z</time>
      </trkpt>
      <trkpt lat="46.3952" lon="-0.43835">
        <ele>15.1593</ele>
        <time>2011-02-27T13:29:56Z</time>
      </trkpt>
      <trkpt lat="46.39519" lon="-0.43837">
        <ele>15.1569</ele>
        <time>2011-02-27T13:29:57Z</time>
      </trkpt>
      <trkpt lat="46.39519" lon="-0.43838">
        <ele>15.1558</ele>
        <time>2011-02-27T13:29:58Z</time>
      </trkpt>
      <trkpt lat="46.39518" lon="-0.43839">
        <ele>15.1527</ele>
        <time>2011-02-27T13:29:59Z</time>
      </trkpt>
      <trkpt lat="46.39518" lon="-0.4384">
        <ele>15.1484</ele>
        <time>2011-02-27T13:30:00Z</time>
      </trkpt>
      <trkpt lat="46.39518" lon="-0.43841">
        <ele>15.1443</ele>
        <time>2011-02-27T13:30:01Z</time>
      </trkpt>
      <trkpt lat="46.39518" lon="-0.43842">
        <ele>15.1389</ele>
        <time>2011-02-27T13:30:02Z</time>
      </trkpt>
      <trkpt lat="46.39521" lon="-0.43842">
        <ele>15.1232</ele>
        <time>2011-02-27T13:30:18Z</time>
      </trkpt>
      <trkpt lat="46.39521" lon="-0.43842">
        <ele>15.1662</ele>
        <time>2011-02-27T13:30:19Z</time>
      </trkpt>
      <trkpt lat="46.39524" lon="-0.43841">
        <ele>15.1684</ele>
        <time>2011-02-27T13:30:35Z</time>
      </trkpt>
      <trkpt lat="46.39523" lon="-0.43841">
        <ele>15.1581</ele>
        <time>2011-02-27T13:30:36Z</time>
      </trkpt>
      <trkpt lat="46.39522" lon="-0.43842">
        <ele>15.1315</ele>
        <time>2011-02-27T13:30:37Z</time>
      </trkpt>
      <trkpt lat="46.3952" lon="-0.43843">
        <ele>15.1026</ele>
        <time>2011-02-27T13:30:38Z</time>
      </trkpt>
      <trkpt lat="46.39519" lon="-0.43844">
        <ele>15.0663</ele>
        <time>2011-02-27T13:30:39Z</time>
      </trkpt>
      <trkpt lat="46.39518" lon="-0.43845">
        <ele>15.0221</ele>
        <time>2011-02-27T13:30:40Z</time>
      </trkpt>
      <trkpt lat="46.39517" lon="-0.43846">
        <ele>14.986</ele>
        <time>2011-02-27T13:30:41Z</time>
      </trkpt>
      <trkpt lat="46.39516" lon="-0.43847">
        <ele>14.958</ele>
        <time>2011-02-27T13:30:42Z</time>
      </trkpt>
      <trkpt lat="46.39515" lon="-0.43848">
        <ele>14.9311</ele>
        <time>2011-02-27T13:30:43Z</time>
      </trkpt>
      <trkpt lat="46.39514" lon="-0.43849">
        <ele>14.9024</ele>
        <time>2011-02-27T13:30:44Z</time>
      </trkpt>
      <trkpt lat="46.39513" lon="-0.4385">
        <ele>14.8692</ele>
        <time>2011-02-27T13:30:45Z</time>
      </trkpt>
      <trkpt lat="46.39513" lon="-0.43851">
        <ele>14.8344</ele>
        <time>2011-02-27T13:30:46Z</time>
      </trkpt>
      <trkpt lat="46.39512" lon="-0.43852">
        <ele>14.822</ele>
        <time>2011-02-27T13:30:47Z</time>
      </trkpt>
      <trkpt lat="46.39511" lon="-0.43853">
        <ele>14.8107</ele>
        <time>2011-02-27T13:30:48Z</time>
      </trkpt>
      <trkpt lat="46.3951" lon="-0.43855">
        <ele>14.8245</ele>
        <time>2011-02-27T13:30:49Z</time>
      </trkpt>
      <trkpt lat="46.3951" lon="-0.43856">
        <ele>14.8536</ele>
        <time>2011-02-27T13:30:50Z</time>
      </trkpt>
      <trkpt lat="46.39509" lon="-0.43857">
        <ele>14.892</ele>
        <time>2011-02-27T13:30:51Z</time>
      </trkpt>
      <trkpt lat="46.39508" lon="-0.43859">
        <ele>14.9373</ele>
        <time>2011-02-27T13:30:52Z</time>
      </trkpt>
      <trkpt lat="46.39508" lon="-0.4386">
        <ele>14.9853</ele>
        <time>2011-02-27T13:30:53Z</time>
      </trkpt>
      <trkpt lat="46.39507" lon="-0.43862">
        <ele>15.0294</ele>
        <time>2011-02-27T13:30:54Z</time>
      </trkpt>
      <trkpt lat="46.39506" lon="-0.43863">
        <ele>15.0862</ele>
        <time>2011-02-27T13:30:55Z</time>
      </trkpt>
      <trkpt lat="46.39505" lon="-0.43865">
        <ele>15.1524</ele>
        <time>2011-02-27T13:30:56Z</time>
      </trkpt>
      <trkpt lat="46.39504" lon="-0.43866">
        <ele>15.2257</ele>
        <time>2011-02-27T13:30:57Z</time>
      </trkpt>
      <trkpt lat="46.39503" lon="-0.43867">
        <ele>15.3031</ele>
        <time>2011-02-27T13:30:58Z</time>
      </trkpt>
      <trkpt lat="46.39502" lon="-0.43868">
        <ele>15.3801</ele>
        <time>2011-02-27T13:30:59Z</time>
      </trkpt>
      <trkpt lat="46.39501" lon="-0.43869">
        <ele>15.4546</ele>
        <time>2011-02-27T13:31:00Z</time>
      </trkpt>
      <trkpt lat="46.395" lon="-0.4387">
        <ele>15.5273</ele>
        <time>2011-02-27T13:31:01Z</time>
      </trkpt>
      <trkpt lat="46.395" lon="-0.43872">
        <ele>15.5994</ele>
        <time>2011-02-27T13:31:02Z</time>
      </trkpt>
      <trkpt lat="46.39499" lon="-0.43873">
        <ele>15.6704</ele>
        <time>2011-02-27T13:31:03Z</time>
      </trkpt>
      <trkpt lat="46.39498" lon="-0.43874">
        <ele>15.7407</ele>
        <time>2011-02-27T13:31:04Z</time>
      </trkpt>
      <trkpt lat="46.39497" lon="-0.43875">
        <ele>15.809</ele>
        <time>2011-02-27T13:31:05Z</time>
      </trkpt>
      <trkpt lat="46.39497" lon="-0.43877">
        <ele>15.8721</ele>
        <time>2011-02-27T13:31:06Z</time>
      </trkpt>
      <trkpt lat="46.39496" lon="-0.43877">
        <ele>15.9331</ele>
        <time>2011-02-27T13:31:07Z</time>
      </trkpt>
      <trkpt lat="46.39496" lon="-0.43879">
        <ele>15.9675</ele>
        <time>2011-02-27T13:31:08Z</time>
      </trkpt>
      <trkpt lat="46.39495" lon="-0.43881">
        <ele>16.012</ele>
        <time>2011-02-27T13:31:11Z</time>
      </trkpt>
      <trkpt lat="46.39494" lon="-0.43883">
        <ele>16.0415</ele>
        <time>2011-02-27T13:31:12Z</time>
      </trkpt>
      <trkpt lat="46.39494" lon="-0.43884">
        <ele>16.0797</ele>
        <time>2011-02-27T13:31:13Z</time>
      </trkpt>
      <trkpt lat="46.39492" lon="-0.43886">
        <ele>16.1094</ele>
        <time>2011-02-27T13:31:14Z</time>
      </trkpt>
      <trkpt lat="46.39492" lon="-0.43887">
        <ele>16.1103</ele>
        <time>2011-02-27T13:31:15Z</time>
      </trkpt>
      <trkpt lat="46.39491" lon="-0.43889">
        <ele>16.1228</ele>
        <time>2011-02-27T13:31:16Z</time>
      </trkpt>
      <trkpt lat="46.39491" lon="-0.43891">
        <ele>16.1262</ele>
        <time>2011-02-27T13:31:17Z</time>
      </trkpt>
      <trkpt lat="46.3949" lon="-0.43893">
        <ele>16.1294</ele>
        <time>2011-02-27T13:31:18Z</time>
      </trkpt>
      <trkpt lat="46.39489" lon="-0.43894">
        <ele>16.1301</ele>
        <time>2011-02-27T13:31:19Z</time>
      </trkpt>
      <trkpt lat="46.39489" lon="-0.43896">
        <ele>16.1285</ele>
        <time>2011-02-27T13:31:20Z</time>
      </trkpt>
      <trkpt lat="46.39488" lon="-0.43897">
        <ele>16.1314</ele>
        <time>2011-02-27T13:31:21Z</time>
      </trkpt>
      <trkpt lat="46.39487" lon="-0.43898">
        <ele>16.1485</ele>
        <time>2011-02-27T13:31:22Z</time>
      </trkpt>
      <trkpt lat="46.39486" lon="-0.439">
        <ele>16.1722</ele>
        <time>2011-02-27T13:31:23Z</time>
      </trkpt>
      <trkpt lat="46.39485" lon="-0.43901">
        <ele>16.1944</ele>
        <time>2011-02-27T13:31:24Z</time>
      </trkpt>
      <trkpt lat="46.39484" lon="-0.43902">
        <ele>16.2211</ele>
        <time>2011-02-27T13:31:25Z</time>
      </trkpt>
      <trkpt lat="46.39483" lon="-0.43904">
        <ele>16.2473</ele>
        <time>2011-02-27T13:31:26Z</time>
      </trkpt>
      <trkpt lat="46.39483" lon="-0.43905">
        <ele>16.2703</ele>
        <time>2011-02-27T13:31:27Z</time>
      </trkpt>
      <trkpt lat="46.39481" lon="-0.43907">
        <ele>16.2921</ele>
        <time>2011-02-27T13:31:28Z</time>
      </trkpt>
      <trkpt lat="46.39481" lon="-0.43909">
        <ele>16.3168</ele>
        <time>2011-02-27T13:31:29Z</time>
      </trkpt>
      <trkpt lat="46.3948" lon="-0.4391">
        <ele>16.3422</ele>
        <time>2011-02-27T13:31:30Z</time>
      </trkpt>
      <trkpt lat="46.39479" lon="-0.43912">
        <ele>16.3711</ele>
        <time>2011-02-27T13:31:31Z</time>
      </trkpt>
      <trkpt lat="46.39478" lon="-0.43914">
        <ele>16.4037</ele>
        <time>2011-02-27T13:31:32Z</time>
      </trkpt>
      <trkpt lat="46.39478" lon="-0.43915">
        <ele>16.44</ele>
        <time>2011-02-27T13:31:33Z</time>
      </trkpt>
      <trkpt lat="46.39477" lon="-0.43917">
        <ele>16.477</ele>
        <time>2011-02-27T13:31:34Z</time>
      </trkpt>
      <trkpt lat="46.39476" lon="-0.43918">
        <ele>16.5148</ele>
        <time>2011-02-27T13:31:35Z</time>
      </trkpt>
      <trkpt lat="46.39475" lon="-0.4392">
        <ele>16.5494</ele>
        <time>2011-02-27T13:31:36Z</time>
      </trkpt>
      <trkpt lat="46.39474" lon="-0.43921">
        <ele>16.5817</ele>
        <time>2011-02-27T13:31:37Z</time>
      </trkpt>
      <trkpt lat="46.39473" lon="-0.43923">
        <ele>16.6101</ele>
        <time>2011-02-27T13:31:38Z</time>
      </trkpt>
      <trkpt lat="46.39472" lon="-0.43923">
        <ele>16.636</ele>
        <time>2011-02-27T13:31:39Z</time>
      </trkpt>
      <trkpt lat="46.39471" lon="-0.43924">
        <ele>16.6575</ele>
        <time>2011-02-27T13:31:40Z</time>
      </trkpt>
      <trkpt lat="46.3947" lon="-0.43925">
        <ele>16.679</ele>
        <time>2011-02-27T13:31:41Z</time>
      </trkpt>
      <trkpt lat="46.3947" lon="-0.43926">
        <ele>16.6962</ele>
        <time>2011-02-27T13:31:42Z</time>
      </trkpt>
      <trkpt lat="46.39469" lon="-0.43927">
        <ele>16.711</ele>
        <time>2011-02-27T13:31:43Z</time>
      </trkpt>
      <trkpt lat="46.39468" lon="-0.43929">
        <ele>16.72</ele>
        <time>2011-02-27T13:31:44Z</time>
      </trkpt>
      <trkpt lat="46.39467" lon="-0.43931">
        <ele>16.7221</ele>
        <time>2011-02-27T13:31:45Z</time>
      </trkpt>
      <trkpt lat="46.39466" lon="-0.43932">
        <ele>16.7269</ele>
        <time>2011-02-27T13:31:46Z</time>
      </trkpt>
      <trkpt lat="46.39465" lon="-0.43934">
        <ele>16.7265</ele>
        <time>2011-02-27T13:31:47Z</time>
      </trkpt>
      <trkpt lat="46.39464" lon="-0.43936">
        <ele>16.7222</ele>
        <time>2011-02-27T13:31:48Z</time>
      </trkpt>
      <trkpt lat="46.39464" lon="-0.43938">
        <ele>16.7172</ele>
        <time>2011-02-27T13:31:49Z</time>
      </trkpt>
      <trkpt lat="46.39463" lon="-0.4394">
        <ele>16.7062</ele>
        <time>2011-02-27T13:31:50Z</time>
      </trkpt>
      <trkpt lat="46.39463" lon="-0.43941">
        <ele>16.6937</ele>
        <time>2011-02-27T13:31:51Z</time>
      </trkpt>
      <trkpt lat="46.39463" lon="-0.43942">
        <ele>16.6789</ele>
        <time>2011-02-27T13:31:52Z</time>
      </trkpt>
      <trkpt lat="46.39462" lon="-0.43944">
        <ele>16.6621</ele>
        <time>2011-02-27T13:31:53Z</time>
      </trkpt>
      <trkpt lat="46.39462" lon="-0.43945">
        <ele>16.6456</ele>
        <time>2011-02-27T13:31:54Z</time>
      </trkpt>
      <trkpt lat="46.39461" lon="-0.43946">
        <ele>16.6288</ele>
        <time>2011-02-27T13:31:55Z</time>
      </trkpt>
      <trkpt lat="46.3946" lon="-0.43947">
        <ele>16.6121</ele>
        <time>2011-02-27T13:31:56Z</time>
      </trkpt>
      <trkpt lat="46.3946" lon="-0.43948">
        <ele>16.5943</ele>
        <time>2011-02-27T13:31:57Z</time>
      </trkpt>
      <trkpt lat="46.39459" lon="-0.4395">
        <ele>16.5715</ele>
        <time>2011-02-27T13:31:58Z</time>
      </trkpt>
      <trkpt lat="46.39459" lon="-0.43952">
        <ele>16.5484</ele>
        <time>2011-02-27T13:31:59Z</time>
      </trkpt>
      <trkpt lat="46.39458" lon="-0.43954">
        <ele>16.5264</ele>
        <time>2011-02-27T13:32:00Z</time>
      </trkpt>
      <trkpt lat="46.39458" lon="-0.43955">
        <ele>16.5046</ele>
        <time>2011-02-27T13:32:01Z</time>
      </trkpt>
      <trkpt lat="46.39457" lon="-0.43956">
        <ele>16.4837</ele>
        <time>2011-02-27T13:32:02Z</time>
      </trkpt>
      <trkpt lat="46.39457" lon="-0.43958">
        <ele>16.4597</ele>
        <time>2011-02-27T13:32:03Z</time>
      </trkpt>
      <trkpt lat="46.39457" lon="-0.43959">
        <ele>16.4359</ele>
        <time>2011-02-27T13:32:04Z</time>
      </trkpt>
      <trkpt lat="46.39457" lon="-0.4396">
        <ele>16.4098</ele>
        <time>2011-02-27T13:32:05Z</time>
      </trkpt>
      <trkpt lat="46.39456" lon="-0.43961">
        <ele>16.3802</ele>
        <time>2011-02-27T13:32:06Z</time>
      </trkpt>
      <trkpt lat="46.39456" lon="-0.43963">
        <ele>16.3525</ele>
        <time>2011-02-27T13:32:07Z</time>
      </trkpt>
      <trkpt lat="46.39455" lon="-0.43964">
        <ele>16.3298</ele>
        <time>2011-02-27T13:32:08Z</time>
      </trkpt>
      <trkpt lat="46.39455" lon="-0.43964">
        <ele>16.3033</ele>
        <time>2011-02-27T13:32:09Z</time>
      </trkpt>
      <trkpt lat="46.39455" lon="-0.43965">
        <ele>16.2668</ele>
        <time>2011-02-27T13:32:10Z</time>
      </trkpt>
      <trkpt lat="46.39455" lon="-0.43966">
        <ele>16.2338</ele>
        <time>2011-02-27T13:32:11Z</time>
      </trkpt>
      <trkpt lat="46.39455" lon="-0.43967">
        <ele>16.2061</ele>
        <time>2011-02-27T13:32:12Z</time>
      </trkpt>
      <trkpt lat="46.39455" lon="-0.43969">
        <ele>16.1836</ele>
        <time>2011-02-27T13:32:13Z</time>
      </trkpt>
      <trkpt lat="46.39454" lon="-0.4397">
        <ele>16.1628</ele>
        <time>2011-02-27T13:32:14Z</time>
      </trkpt>
      <trkpt lat="46.39454" lon="-0.43971">
        <ele>16.142</ele>
        <time>2011-02-27T13:32:15Z</time>
      </trkpt>
      <trkpt lat="46.39454" lon="-0.43972">
        <ele>16.1189</ele>
        <time>2011-02-27T13:32:16Z</time>
      </trkpt>
      <trkpt lat="46.39454" lon="-0.43973">
        <ele>16.0956</ele>
        <time>2011-02-27T13:32:17Z</time>
      </trkpt>
      <trkpt lat="46.39454" lon="-0.43975">
        <ele>16.0693</ele>
        <time>2011-02-27T13:32:18Z</time>
      </trkpt>
      <trkpt lat="46.39454" lon="-0.43976">
        <ele>16.0389</ele>
        <time>2011-02-27T13:32:19Z</time>
      </trkpt>
      <trkpt lat="46.39454" lon="-0.43978">
        <ele>16.0015</ele>
        <time>2011-02-27T13:32:20Z</time>
      </trkpt>
      <trkpt lat="46.39454" lon="-0.43979">
        <ele>15.9585</ele>
        <time>2011-02-27T13:32:21Z</time>
      </trkpt>
      <trkpt lat="46.39454" lon="-0.43981">
        <ele>15.9016</ele>
        <time>2011-02-27T13:32:22Z</time>
      </trkpt>
      <trkpt lat="46.39453" lon="-0.43983">
        <ele>15.8421</ele>
        <time>2011-02-27T13:32:23Z</time>
      </trkpt>
      <trkpt lat="46.39453" lon="-0.43984">
        <ele>15.7818</ele>
        <time>2011-02-27T13:32:24Z</time>
      </trkpt>
      <trkpt lat="46.39453" lon="-0.43986">
        <ele>15.715</ele>
        <time>2011-02-27T13:32:25Z</time>
      </trkpt>
      <trkpt lat="46.39453" lon="-0.43987">
        <ele>15.6484</ele>
        <time>2011-02-27T13:32:26Z</time>
      </trkpt>
      <trkpt lat="46.39453" lon="-0.43989">
        <ele>15.5813</ele>
        <time>2011-02-27T13:32:27Z</time>
      </trkpt>
      <trkpt lat="46.39453" lon="-0.4399">
        <ele>15.5145</ele>
        <time>2011-02-27T13:32:28Z</time>
      </trkpt>
      <trkpt lat="46.39453" lon="-0.43991">
        <ele>15.4415</ele>
        <time>2011-02-27T13:32:29Z</time>
      </trkpt>
      <trkpt lat="46.39453" lon="-0.43993">
        <ele>15.3611</ele>
        <time>2011-02-27T13:32:30Z</time>
      </trkpt>
      <trkpt lat="46.39453" lon="-0.43994">
        <ele>15.2795</ele>
        <time>2011-02-27T13:32:31Z</time>
      </trkpt>
      <trkpt lat="46.39452" lon="-0.43996">
        <ele>15.2009</ele>
        <time>2011-02-27T13:32:32Z</time>
      </trkpt>
      <trkpt lat="46.39452" lon="-0.43998">
        <ele>15.1251</ele>
        <time>2011-02-27T13:32:33Z</time>
      </trkpt>
      <trkpt lat="46.39452" lon="-0.43999">
        <ele>15.0484</ele>
        <time>2011-02-27T13:32:34Z</time>
      </trkpt>
      <trkpt lat="46.39452" lon="-0.44">
        <ele>14.9762</ele>
        <time>2011-02-27T13:32:35Z</time>
      </trkpt>
      <trkpt lat="46.39451" lon="-0.44002">
        <ele>14.9141</ele>
        <time>2011-02-27T13:32:36Z</time>
      </trkpt>
      <trkpt lat="46.39451" lon="-0.44003">
        <ele>14.8576</ele>
        <time>2011-02-27T13:32:37Z</time>
      </trkpt>
      <trkpt lat="46.39451" lon="-0.44004">
        <ele>14.8055</ele>
        <time>2011-02-27T13:32:38Z</time>
      </trkpt>
      <trkpt lat="46.3945" lon="-0.44004">
        <ele>14.7618</ele>
        <time>2011-02-27T13:32:39Z</time>
      </trkpt>
      <trkpt lat="46.39449" lon="-0.44006">
        <ele>14.7083</ele>
        <time>2011-02-27T13:32:40Z</time>
      </trkpt>
      <trkpt lat="46.39449" lon="-0.44007">
        <ele>14.66</ele>
        <time>2011-02-27T13:32:41Z</time>
      </trkpt>
      <trkpt lat="46.39448" lon="-0.44011">
        <ele>14.6092</ele>
        <time>2011-02-27T13:32:45Z</time>
      </trkpt>
      <trkpt lat="46.39448" lon="-0.44013">
        <ele>14.5805</ele>
        <time>2011-02-27T13:32:46Z</time>
      </trkpt>
      <trkpt lat="46.39448" lon="-0.44014">
        <ele>14.5549</ele>
        <time>2011-02-27T13:32:47Z</time>
      </trkpt>
      <trkpt lat="46.39448" lon="-0.44015">
        <ele>14.5237</ele>
        <time>2011-02-27T13:32:48Z</time>
      </trkpt>
      <trkpt lat="46.39448" lon="-0.44017">
        <ele>14.494</ele>
        <time>2011-02-27T13:32:49Z</time>
      </trkpt>
      <trkpt lat="46.39448" lon="-0.44018">
        <ele>14.4691</ele>
        <time>2011-02-27T13:32:50Z</time>
      </trkpt>
      <trkpt lat="46.39448" lon="-0.44019">
        <ele>14.4436</ele>
        <time>2011-02-27T13:32:51Z</time>
      </trkpt>
      <trkpt lat="46.39448" lon="-0.4402">
        <ele>14.416</ele>
        <time>2011-02-27T13:32:52Z</time>
      </trkpt>
      <trkpt lat="46.39448" lon="-0.44022">
        <ele>14.3809</ele>
        <time>2011-02-27T13:32:53Z</time>
      </trkpt>
      <trkpt lat="46.39448" lon="-0.44023">
        <ele>14.3492</ele>
        <time>2011-02-27T13:32:54Z</time>
      </trkpt>
      <trkpt lat="46.39447" lon="-0.44026">
        <ele>14.2643</ele>
        <time>2011-02-27T13:32:58Z</time>
      </trkpt>
      <trkpt lat="46.39447" lon="-0.44028">
        <ele>14.2334</ele>
        <time>2011-02-27T13:32:59Z</time>
      </trkpt>
      <trkpt lat="46.39447" lon="-0.44029">
        <ele>14.1915</ele>
        <time>2011-02-27T13:33:00Z</time>
      </trkpt>
      <trkpt lat="46.39447" lon="-0.4403">
        <ele>14.1508</ele>
        <time>2011-02-27T13:33:01Z</time>
      </trkpt>
      <trkpt lat="46.39447" lon="-0.44032">
        <ele>14.1176</ele>
        <time>2011-02-27T13:33:02Z</time>
      </trkpt>
      <trkpt lat="46.39446" lon="-0.44033">
        <ele>14.0863</ele>
        <time>2011-02-27T13:33:03Z</time>
      </trkpt>
      <trkpt lat="46.39446" lon="-0.44034">
        <ele>14.0573</ele>
        <time>2011-02-27T13:33:04Z</time>
      </trkpt>
      <trkpt lat="46.39446" lon="-0.44036">
        <ele>14.0409</ele>
        <time>2011-02-27T13:33:05Z</time>
      </trkpt>
      <trkpt lat="46.39446" lon="-0.44038">
        <ele>14.0218</ele>
        <time>2011-02-27T13:33:06Z</time>
      </trkpt>
      <trkpt lat="46.39446" lon="-0.4404">
        <ele>14.0097</ele>
        <time>2011-02-27T13:33:07Z</time>
      </trkpt>
      <trkpt lat="46.39445" lon="-0.44043">
        <ele>14.0078</ele>
        <time>2011-02-27T13:33:08Z</time>
      </trkpt>
      <trkpt lat="46.39445" lon="-0.44045">
        <ele>14.0289</ele>
        <time>2011-02-27T13:33:09Z</time>
      </trkpt>
      <trkpt lat="46.39444" lon="-0.44047">
        <ele>14.0681</ele>
        <time>2011-02-27T13:33:10Z</time>
      </trkpt>
      <trkpt lat="46.39444" lon="-0.44049">
        <ele>14.1202</ele>
        <time>2011-02-27T13:33:11Z</time>
      </trkpt>
      <trkpt lat="46.39443" lon="-0.44051">
        <ele>14.1743</ele>
        <time>2011-02-27T13:33:12Z</time>
      </trkpt>
      <trkpt lat="46.39442" lon="-0.44054">
        <ele>14.2243</ele>
        <time>2011-02-27T13:33:13Z</time>
      </trkpt>
      <trkpt lat="46.39442" lon="-0.44056">
        <ele>14.2739</ele>
        <time>2011-02-27T13:33:14Z</time>
      </trkpt>
      <trkpt lat="46.39442" lon="-0.44057">
        <ele>14.3247</ele>
        <time>2011-02-27T13:33:15Z</time>
      </trkpt>
      <trkpt lat="46.39441" lon="-0.44059">
        <ele>14.3724</ele>
        <time>2011-02-27T13:33:16Z</time>
      </trkpt>
      <trkpt lat="46.3944" lon="-0.44061">
        <ele>14.4137</ele>
        <time>2011-02-27T13:33:17Z</time>
      </trkpt>
      <trkpt lat="46.3944" lon="-0.44062">
        <ele>14.4529</ele>
        <time>2011-02-27T13:33:18Z</time>
      </trkpt>
      <trkpt lat="46.39439" lon="-0.44064">
        <ele>14.491</ele>
        <time>2011-02-27T13:33:19Z</time>
      </trkpt>
      <trkpt lat="46.39439" lon="-0.44066">
        <ele>14.5302</ele>
        <time>2011-02-27T13:33:20Z</time>
      </trkpt>
      <trkpt lat="46.39439" lon="-0.44067">
        <ele>14.5689</ele>
        <time>2011-02-27T13:33:21Z</time>
      </trkpt>
      <trkpt lat="46.39439" lon="-0.44069">
        <ele>14.6089</ele>
        <time>2011-02-27T13:33:22Z</time>
      </trkpt>
      <trkpt lat="46.39439" lon="-0.4407">
        <ele>14.643</ele>
        <time>2011-02-27T13:33:23Z</time>
      </trkpt>
      <trkpt lat="46.39439" lon="-0.44071">
        <ele>14.6751</ele>
        <time>2011-02-27T13:33:24Z</time>
      </trkpt>
      <trkpt lat="46.39439" lon="-0.44072">
        <ele>14.7117</ele>
        <time>2011-02-27T13:33:25Z</time>
      </trkpt>
      <trkpt lat="46.39439" lon="-0.44073">
        <ele>14.7465</ele>
        <time>2011-02-27T13:33:26Z</time>
      </trkpt>
      <trkpt lat="46.39439" lon="-0.44075">
        <ele>14.7791</ele>
        <time>2011-02-27T13:33:27Z</time>
      </trkpt>
      <trkpt lat="46.39439" lon="-0.44076">
        <ele>14.8086</ele>
        <time>2011-02-27T13:33:28Z</time>
      </trkpt>
      <trkpt lat="46.39439" lon="-0.44078">
        <ele>14.8368</ele>
        <time>2011-02-27T13:33:29Z</time>
      </trkpt>
      <trkpt lat="46.39438" lon="-0.44079">
        <ele>14.8605</ele>
        <time>2011-02-27T13:33:30Z</time>
      </trkpt>
      <trkpt lat="46.39438" lon="-0.4408">
        <ele>14.8836</ele>
        <time>2011-02-27T13:33:31Z</time>
      </trkpt>
      <trkpt lat="46.39438" lon="-0.44082">
        <ele>14.902</ele>
        <time>2011-02-27T13:33:32Z</time>
      </trkpt>
      <trkpt lat="46.39437" lon="-0.44083">
        <ele>14.921</ele>
        <time>2011-02-27T13:33:33Z</time>
      </trkpt>
      <trkpt lat="46.39436" lon="-0.44084">
        <ele>14.9408</ele>
        <time>2011-02-27T13:33:34Z</time>
      </trkpt>
      <trkpt lat="46.39436" lon="-0.44086">
        <ele>14.9605</ele>
        <time>2011-02-27T13:33:35Z</time>
      </trkpt>
      <trkpt lat="46.39436" lon="-0.44088">
        <ele>14.9827</ele>
        <time>2011-02-27T13:33:36Z</time>
      </trkpt>
      <trkpt lat="46.39436" lon="-0.4409">
        <ele>15.0032</ele>
        <time>2011-02-27T13:33:37Z</time>
      </trkpt>
      <trkpt lat="46.39436" lon="-0.44091">
        <ele>15.0205</ele>
        <time>2011-02-27T13:33:38Z</time>
      </trkpt>
      <trkpt lat="46.39436" lon="-0.44093">
        <ele>15.037</ele>
        <time>2011-02-27T13:33:39Z</time>
      </trkpt>
      <trkpt lat="46.39435" lon="-0.44095">
        <ele>15.0529</ele>
        <time>2011-02-27T13:33:40Z</time>
      </trkpt>
      <trkpt lat="46.39434" lon="-0.44096">
        <ele>15.0698</ele>
        <time>2011-02-27T13:33:41Z</time>
      </trkpt>
      <trkpt lat="46.39434" lon="-0.44098">
        <ele>15.0852</ele>
        <time>2011-02-27T13:33:42Z</time>
      </trkpt>
      <trkpt lat="46.39434" lon="-0.441">
        <ele>15.1013</ele>
        <time>2011-02-27T13:33:43Z</time>
      </trkpt>
      <trkpt lat="46.39434" lon="-0.44102">
        <ele>15.1161</ele>
        <time>2011-02-27T13:33:44Z</time>
      </trkpt>
      <trkpt lat="46.39434" lon="-0.44104">
        <ele>15.1306</ele>
        <time>2011-02-27T13:33:45Z</time>
      </trkpt>
      <trkpt lat="46.39434" lon="-0.44106">
        <ele>15.1482</ele>
        <time>2011-02-27T13:33:46Z</time>
      </trkpt>
      <trkpt lat="46.39434" lon="-0.44108">
        <ele>15.1684</ele>
        <time>2011-02-27T13:33:47Z</time>
      </trkpt>
      <trkpt lat="46.39434" lon="-0.44109">
        <ele>15.1897</ele>
        <time>2011-02-27T13:33:48Z</time>
      </trkpt>
      <trkpt lat="46.39434" lon="-0.44109">
        <ele>15.2099</ele>
        <time>2011-02-27T13:33:49Z</time>
      </trkpt>
      <trkpt lat="46.39434" lon="-0.4411">
        <ele>15.2302</ele>
        <time>2011-02-27T13:33:50Z</time>
      </trkpt>
      <trkpt lat="46.39434" lon="-0.44111">
        <ele>15.254</ele>
        <time>2011-02-27T13:33:51Z</time>
      </trkpt>
      <trkpt lat="46.39434" lon="-0.44112">
        <ele>15.2805</ele>
        <time>2011-02-27T13:33:52Z</time>
      </trkpt>
      <trkpt lat="46.39434" lon="-0.44114">
        <ele>15.3056</ele>
        <time>2011-02-27T13:33:53Z</time>
      </trkpt>
      <trkpt lat="46.39434" lon="-0.44115">
        <ele>15.3324</ele>
        <time>2011-02-27T13:33:54Z</time>
      </trkpt>
      <trkpt lat="46.39434" lon="-0.44116">
        <ele>15.3598</ele>
        <time>2011-02-27T13:33:55Z</time>
      </trkpt>
      <trkpt lat="46.39434" lon="-0.44117">
        <ele>15.3846</ele>
        <time>2011-02-27T13:33:56Z</time>
      </trkpt>
      <trkpt lat="46.39435" lon="-0.44118">
        <ele>15.411</ele>
        <time>2011-02-27T13:33:57Z</time>
      </trkpt>
      <trkpt lat="46.39435" lon="-0.44119">
        <ele>15.4365</ele>
        <time>2011-02-27T13:33:58Z</time>
      </trkpt>
      <trkpt lat="46.39435" lon="-0.4412">
        <ele>15.4662</ele>
        <time>2011-02-27T13:33:59Z</time>
      </trkpt>
      <trkpt lat="46.39434" lon="-0.44121">
        <ele>15.4973</ele>
        <time>2011-02-27T13:34:00Z</time>
      </trkpt>
      <trkpt lat="46.39434" lon="-0.44122">
        <ele>15.5327</ele>
        <time>2011-02-27T13:34:01Z</time>
      </trkpt>
      <trkpt lat="46.39433" lon="-0.44123">
        <ele>15.5691</ele>
        <time>2011-02-27T13:34:02Z</time>
      </trkpt>
      <trkpt lat="46.39433" lon="-0.44124">
        <ele>15.6065</ele>
        <time>2011-02-27T13:34:03Z</time>
      </trkpt>
      <trkpt lat="46.39433" lon="-0.44126">
        <ele>15.6405</ele>
        <time>2011-02-27T13:34:04Z</time>
      </trkpt>
      <trkpt lat="46.39432" lon="-0.44127">
        <ele>15.6723</ele>
        <time>2011-02-27T13:34:05Z</time>
      </trkpt>
      <trkpt lat="46.39432" lon="-0.44129">
        <ele>15.7052</ele>
        <time>2011-02-27T13:34:06Z</time>
      </trkpt>
      <trkpt lat="46.39431" lon="-0.44131">
        <ele>15.7332</ele>
        <time>2011-02-27T13:34:07Z</time>
      </trkpt>
      <trkpt lat="46.39431" lon="-0.44132">
        <ele>15.7612</ele>
        <time>2011-02-27T13:34:08Z</time>
      </trkpt>
      <trkpt lat="46.39431" lon="-0.44134">
        <ele>15.7887</ele>
        <time>2011-02-27T13:34:09Z</time>
      </trkpt>
      <trkpt lat="46.39431" lon="-0.44136">
        <ele>15.8126</ele>
        <time>2011-02-27T13:34:10Z</time>
      </trkpt>
      <trkpt lat="46.39432" lon="-0.44138">
        <ele>15.8301</ele>
        <time>2011-02-27T13:34:11Z</time>
      </trkpt>
      <trkpt lat="46.39431" lon="-0.4414">
        <ele>15.8301</ele>
        <time>2011-02-27T13:34:12Z</time>
      </trkpt>
      <trkpt lat="46.39431" lon="-0.44142">
        <ele>15.8298</ele>
        <time>2011-02-27T13:34:13Z</time>
      </trkpt>
      <trkpt lat="46.3943" lon="-0.44143">
        <ele>15.8309</ele>
        <time>2011-02-27T13:34:14Z</time>
      </trkpt>
      <trkpt lat="46.3943" lon="-0.44144">
        <ele>15.8343</ele>
        <time>2011-02-27T13:34:15Z</time>
      </trkpt>
      <trkpt lat="46.39427" lon="-0.44152">
        <ele>15.8265</ele>
        <time>2011-02-27T13:34:18Z</time>
      </trkpt>
      <trkpt lat="46.39423" lon="-0.44154">
        <ele>15.825</ele>
        <time>2011-02-27T13:34:23Z</time>
      </trkpt>
      <trkpt lat="46.39424" lon="-0.44159">
        <ele>15.7041</ele>
        <time>2011-02-27T13:34:41Z</time>
      </trkpt>
      <trkpt lat="46.39424" lon="-0.4416">
        <ele>15.6269</ele>
        <time>2011-02-27T13:34:42Z</time>
      </trkpt>
      <trkpt lat="46.39424" lon="-0.44161">
        <ele>15.548</ele>
        <time>2011-02-27T13:34:43Z</time>
      </trkpt>
      <trkpt lat="46.39425" lon="-0.44163">
        <ele>15.4685</ele>
        <time>2011-02-27T13:34:44Z</time>
      </trkpt>
      <trkpt lat="46.39425" lon="-0.44165">
        <ele>15.3899</ele>
        <time>2011-02-27T13:34:45Z</time>
      </trkpt>
      <trkpt lat="46.39425" lon="-0.44166">
        <ele>15.3116</ele>
        <time>2011-02-27T13:34:46Z</time>
      </trkpt>
      <trkpt lat="46.39424" lon="-0.44168">
        <ele>15.2331</ele>
        <time>2011-02-27T13:34:47Z</time>
      </trkpt>
      <trkpt lat="46.39424" lon="-0.4417">
        <ele>15.1535</ele>
        <time>2011-02-27T13:34:48Z</time>
      </trkpt>
      <trkpt lat="46.39424" lon="-0.44171">
        <ele>15.0751</ele>
        <time>2011-02-27T13:34:49Z</time>
      </trkpt>
      <trkpt lat="46.39425" lon="-0.44173">
        <ele>15.0006</ele>
        <time>2011-02-27T13:34:50Z</time>
      </trkpt>
      <trkpt lat="46.39425" lon="-0.44174">
        <ele>14.9284</ele>
        <time>2011-02-27T13:34:51Z</time>
      </trkpt>
      <trkpt lat="46.39424" lon="-0.44176">
        <ele>14.8528</ele>
        <time>2011-02-27T13:34:52Z</time>
      </trkpt>
      <trkpt lat="46.39424" lon="-0.44178">
        <ele>14.7732</ele>
        <time>2011-02-27T13:34:53Z</time>
      </trkpt>
      <trkpt lat="46.39424" lon="-0.44179">
        <ele>14.6922</ele>
        <time>2011-02-27T13:34:54Z</time>
      </trkpt>
      <trkpt lat="46.39423" lon="-0.44181">
        <ele>14.6124</ele>
        <time>2011-02-27T13:34:55Z</time>
      </trkpt>
      <trkpt lat="46.39423" lon="-0.44183">
        <ele>14.5402</ele>
        <time>2011-02-27T13:34:56Z</time>
      </trkpt>
      <trkpt lat="46.39422" lon="-0.44185">
        <ele>14.4769</ele>
        <time>2011-02-27T13:34:57Z</time>
      </trkpt>
      <trkpt lat="46.39422" lon="-0.44187">
        <ele>14.4222</ele>
        <time>2011-02-27T13:34:58Z</time>
      </trkpt>
      <trkpt lat="46.39421" lon="-0.44188">
        <ele>14.3723</ele>
        <time>2011-02-27T13:34:59Z</time>
      </trkpt>
      <trkpt lat="46.39421" lon="-0.4419">
        <ele>14.3324</ele>
        <time>2011-02-27T13:35:00Z</time>
      </trkpt>
      <trkpt lat="46.3942" lon="-0.44191">
        <ele>14.302</ele>
        <time>2011-02-27T13:35:01Z</time>
      </trkpt>
      <trkpt lat="46.3942" lon="-0.44192">
        <ele>14.2714</ele>
        <time>2011-02-27T13:35:02Z</time>
      </trkpt>
      <trkpt lat="46.3942" lon="-0.44194">
        <ele>14.2419</ele>
        <time>2011-02-27T13:35:03Z</time>
      </trkpt>
      <trkpt lat="46.39419" lon="-0.44195">
        <ele>14.213</ele>
        <time>2011-02-27T13:35:04Z</time>
      </trkpt>
      <trkpt lat="46.39419" lon="-0.44196">
        <ele>14.1858</ele>
        <time>2011-02-27T13:35:05Z</time>
      </trkpt>
      <trkpt lat="46.39418" lon="-0.44198">
        <ele>14.1616</ele>
        <time>2011-02-27T13:35:06Z</time>
      </trkpt>
      <trkpt lat="46.39418" lon="-0.44199">
        <ele>14.138</ele>
        <time>2011-02-27T13:35:07Z</time>
      </trkpt>
      <trkpt lat="46.39418" lon="-0.442">
        <ele>14.1161</ele>
        <time>2011-02-27T13:35:08Z</time>
      </trkpt>
      <trkpt lat="46.39418" lon="-0.44202">
        <ele>14.0921</ele>
        <time>2011-02-27T13:35:09Z</time>
      </trkpt>
      <trkpt lat="46.39417" lon="-0.44203">
        <ele>14.0713</ele>
        <time>2011-02-27T13:35:10Z</time>
      </trkpt>
      <trkpt lat="46.39417" lon="-0.44205">
        <ele>14.0512</ele>
        <time>2011-02-27T13:35:11Z</time>
      </trkpt>
      <trkpt lat="46.39417" lon="-0.44206">
        <ele>14.0309</ele>
        <time>2011-02-27T13:35:12Z</time>
      </trkpt>
      <trkpt lat="46.39417" lon="-0.44207">
        <ele>14.0115</ele>
        <time>2011-02-27T13:35:13Z</time>
      </trkpt>
      <trkpt lat="46.39417" lon="-0.44209">
        <ele>13.9905</ele>
        <time>2011-02-27T13:35:14Z</time>
      </trkpt>
      <trkpt lat="46.39416" lon="-0.4421">
        <ele>13.9691</ele>
        <time>2011-02-27T13:35:15Z</time>
      </trkpt>
      <trkpt lat="46.39416" lon="-0.44211">
        <ele>13.9467</ele>
        <time>2011-02-27T13:35:16Z</time>
      </trkpt>
      <trkpt lat="46.39415" lon="-0.44213">
        <ele>13.9191</ele>
        <time>2011-02-27T13:35:17Z</time>
      </trkpt>
      <trkpt lat="46.39415" lon="-0.44214">
        <ele>13.8869</ele>
        <time>2011-02-27T13:35:18Z</time>
      </trkpt>
      <trkpt lat="46.39415" lon="-0.44216">
        <ele>13.8543</ele>
        <time>2011-02-27T13:35:19Z</time>
      </trkpt>
      <trkpt lat="46.39415" lon="-0.44218">
        <ele>13.8181</ele>
        <time>2011-02-27T13:35:20Z</time>
      </trkpt>
      <trkpt lat="46.39414" lon="-0.4422">
        <ele>13.7812</ele>
        <time>2011-02-27T13:35:21Z</time>
      </trkpt>
      <trkpt lat="46.39414" lon="-0.44221">
        <ele>13.7433</ele>
        <time>2011-02-27T13:35:22Z</time>
      </trkpt>
      <trkpt lat="46.39413" lon="-0.44222">
        <ele>13.7062</ele>
        <time>2011-02-27T13:35:23Z</time>
      </trkpt>
      <trkpt lat="46.39412" lon="-0.44224">
        <ele>13.6718</ele>
        <time>2011-02-27T13:35:24Z</time>
      </trkpt>
      <trkpt lat="46.39412" lon="-0.44225">
        <ele>13.6406</ele>
        <time>2011-02-27T13:35:25Z</time>
      </trkpt>
      <trkpt lat="46.39411" lon="-0.44226">
        <ele>13.6139</ele>
        <time>2011-02-27T13:35:26Z</time>
      </trkpt>
      <trkpt lat="46.3941" lon="-0.44228">
        <ele>13.5884</ele>
        <time>2011-02-27T13:35:27Z</time>
      </trkpt>
      <trkpt lat="46.3941" lon="-0.44229">
        <ele>13.5644</ele>
        <time>2011-02-27T13:35:28Z</time>
      </trkpt>
      <trkpt lat="46.3941" lon="-0.44231">
        <ele>13.5426</ele>
        <time>2011-02-27T13:35:29Z</time>
      </trkpt>
      <trkpt lat="46.39409" lon="-0.44232">
        <ele>13.521</ele>
        <time>2011-02-27T13:35:30Z</time>
      </trkpt>
      <trkpt lat="46.39409" lon="-0.44234">
        <ele>13.5053</ele>
        <time>2011-02-27T13:35:31Z</time>
      </trkpt>
      <trkpt lat="46.39409" lon="-0.44235">
        <ele>13.494</ele>
        <time>2011-02-27T13:35:32Z</time>
      </trkpt>
      <trkpt lat="46.39408" lon="-0.44237">
        <ele>13.4897</ele>
        <time>2011-02-27T13:35:33Z</time>
      </trkpt>
      <trkpt lat="46.39408" lon="-0.44238">
        <ele>13.4904</ele>
        <time>2011-02-27T13:35:34Z</time>
      </trkpt>
      <trkpt lat="46.39407" lon="-0.44239">
        <ele>13.4923</ele>
        <time>2011-02-27T13:35:35Z</time>
      </trkpt>
      <trkpt lat="46.39407" lon="-0.44241">
        <ele>13.498</ele>
        <time>2011-02-27T13:35:36Z</time>
      </trkpt>
      <trkpt lat="46.39406" lon="-0.44243">
        <ele>13.5036</ele>
        <time>2011-02-27T13:35:37Z</time>
      </trkpt>
      <trkpt lat="46.39405" lon="-0.44244">
        <ele>13.5088</ele>
        <time>2011-02-27T13:35:38Z</time>
      </trkpt>
      <trkpt lat="46.39405" lon="-0.44246">
        <ele>13.5097</ele>
        <time>2011-02-27T13:35:39Z</time>
      </trkpt>
      <trkpt lat="46.39405" lon="-0.44248">
        <ele>13.5037</ele>
        <time>2011-02-27T13:35:40Z</time>
      </trkpt>
      <trkpt lat="46.39404" lon="-0.4425">
        <ele>13.4941</ele>
        <time>2011-02-27T13:35:41Z</time>
      </trkpt>
      <trkpt lat="46.39404" lon="-0.44251">
        <ele>13.4856</ele>
        <time>2011-02-27T13:35:42Z</time>
      </trkpt>
      <trkpt lat="46.39404" lon="-0.44253">
        <ele>13.4793</ele>
        <time>2011-02-27T13:35:43Z</time>
      </trkpt>
      <trkpt lat="46.39403" lon="-0.44255">
        <ele>13.4708</ele>
        <time>2011-02-27T13:35:44Z</time>
      </trkpt>
      <trkpt lat="46.39402" lon="-0.44256">
        <ele>13.4631</ele>
        <time>2011-02-27T13:35:45Z</time>
      </trkpt>
      <trkpt lat="46.39402" lon="-0.44257">
        <ele>13.4557</ele>
        <time>2011-02-27T13:35:46Z</time>
      </trkpt>
      <trkpt lat="46.39402" lon="-0.44259">
        <ele>13.4468</ele>
        <time>2011-02-27T13:35:47Z</time>
      </trkpt>
      <trkpt lat="46.39401" lon="-0.4426">
        <ele>13.4339</ele>
        <time>2011-02-27T13:35:48Z</time>
      </trkpt>
      <trkpt lat="46.39401" lon="-0.44261">
        <ele>13.4157</ele>
        <time>2011-02-27T13:35:49Z</time>
      </trkpt>
      <trkpt lat="46.39401" lon="-0.44262">
        <ele>13.3979</ele>
        <time>2011-02-27T13:35:50Z</time>
      </trkpt>
      <trkpt lat="46.394" lon="-0.44263">
        <ele>13.3809</ele>
        <time>2011-02-27T13:35:51Z</time>
      </trkpt>
      <trkpt lat="46.394" lon="-0.44264">
        <ele>13.361</ele>
        <time>2011-02-27T13:35:52Z</time>
      </trkpt>
      <trkpt lat="46.39399" lon="-0.44266">
        <ele>13.336</ele>
        <time>2011-02-27T13:35:53Z</time>
      </trkpt>
      <trkpt lat="46.39399" lon="-0.44268">
        <ele>13.3065</ele>
        <time>2011-02-27T13:35:54Z</time>
      </trkpt>
      <trkpt lat="46.39398" lon="-0.44269">
        <ele>13.2744</ele>
        <time>2011-02-27T13:35:55Z</time>
      </trkpt>
      <trkpt lat="46.39397" lon="-0.44271">
        <ele>13.2401</ele>
        <time>2011-02-27T13:35:56Z</time>
      </trkpt>
      <trkpt lat="46.39396" lon="-0.44273">
        <ele>13.2069</ele>
        <time>2011-02-27T13:35:57Z</time>
      </trkpt>
      <trkpt lat="46.39396" lon="-0.44274">
        <ele>13.1746</ele>
        <time>2011-02-27T13:35:58Z</time>
      </trkpt>
      <trkpt lat="46.39396" lon="-0.44276">
        <ele>13.1431</ele>
        <time>2011-02-27T13:35:59Z</time>
      </trkpt>
      <trkpt lat="46.39395" lon="-0.44278">
        <ele>13.1106</ele>
        <time>2011-02-27T13:36:00Z</time>
      </trkpt>
      <trkpt lat="46.39394" lon="-0.4428">
        <ele>13.0746</ele>
        <time>2011-02-27T13:36:01Z</time>
      </trkpt>
      <trkpt lat="46.39394" lon="-0.44281">
        <ele>13.0391</ele>
        <time>2011-02-27T13:36:02Z</time>
      </trkpt>
      <trkpt lat="46.39393" lon="-0.44283">
        <ele>13.0012</ele>
        <time>2011-02-27T13:36:03Z</time>
      </trkpt>
      <trkpt lat="46.39393" lon="-0.44285">
        <ele>12.9637</ele>
        <time>2011-02-27T13:36:04Z</time>
      </trkpt>
      <trkpt lat="46.39392" lon="-0.44286">
        <ele>12.9238</ele>
        <time>2011-02-27T13:36:05Z</time>
      </trkpt>
      <trkpt lat="46.39391" lon="-0.44288">
        <ele>12.8859</ele>
        <time>2011-02-27T13:36:06Z</time>
      </trkpt>
      <trkpt lat="46.3939" lon="-0.44289">
        <ele>12.85</ele>
        <time>2011-02-27T13:36:07Z</time>
      </trkpt>
      <trkpt lat="46.39389" lon="-0.44291">
        <ele>12.8129</ele>
        <time>2011-02-27T13:36:08Z</time>
      </trkpt>
      <trkpt lat="46.39389" lon="-0.44292">
        <ele>12.7769</ele>
        <time>2011-02-27T13:36:09Z</time>
      </trkpt>
      <trkpt lat="46.39388" lon="-0.44294">
        <ele>12.7392</ele>
        <time>2011-02-27T13:36:10Z</time>
      </trkpt>
      <trkpt lat="46.39388" lon="-0.44295">
        <ele>12.7023</ele>
        <time>2011-02-27T13:36:11Z</time>
      </trkpt>
      <trkpt lat="46.39387" lon="-0.44297">
        <ele>12.6646</ele>
        <time>2011-02-27T13:36:12Z</time>
      </trkpt>
      <trkpt lat="46.39386" lon="-0.44298">
        <ele>12.6283</ele>
        <time>2011-02-27T13:36:13Z</time>
      </trkpt>
      <trkpt lat="46.39385" lon="-0.443">
        <ele>12.5924</ele>
        <time>2011-02-27T13:36:14Z</time>
      </trkpt>
      <trkpt lat="46.39385" lon="-0.44301">
        <ele>12.5597</ele>
        <time>2011-02-27T13:36:15Z</time>
      </trkpt>
      <trkpt lat="46.39385" lon="-0.44302">
        <ele>12.5272</ele>
        <time>2011-02-27T13:36:16Z</time>
      </trkpt>
      <trkpt lat="46.39384" lon="-0.44303">
        <ele>12.498</ele>
        <time>2011-02-27T13:36:17Z</time>
      </trkpt>
      <trkpt lat="46.39383" lon="-0.44305">
        <ele>12.4669</ele>
        <time>2011-02-27T13:36:18Z</time>
      </trkpt>
      <trkpt lat="46.39383" lon="-0.44306">
        <ele>12.4344</ele>
        <time>2011-02-27T13:36:19Z</time>
      </trkpt>
      <trkpt lat="46.39382" lon="-0.44307">
        <ele>12.4007</ele>
        <time>2011-02-27T13:36:20Z</time>
      </trkpt>
      <trkpt lat="46.39382" lon="-0.44308">
        <ele>12.3684</ele>
        <time>2011-02-27T13:36:21Z</time>
      </trkpt>
      <trkpt lat="46.39381" lon="-0.44309">
        <ele>12.337</ele>
        <time>2011-02-27T13:36:22Z</time>
      </trkpt>
      <trkpt lat="46.39381" lon="-0.44311">
        <ele>12.3078</ele>
        <time>2011-02-27T13:36:23Z</time>
      </trkpt>
      <trkpt lat="46.39381" lon="-0.44312">
        <ele>12.277</ele>
        <time>2011-02-27T13:36:24Z</time>
      </trkpt>
      <trkpt lat="46.3938" lon="-0.44313">
        <ele>12.2472</ele>
        <time>2011-02-27T13:36:25Z</time>
      </trkpt>
      <trkpt lat="46.3938" lon="-0.44314">
        <ele>12.22</ele>
        <time>2011-02-27T13:36:26Z</time>
      </trkpt>
      <trkpt lat="46.39379" lon="-0.44316">
        <ele>12.1933</ele>
        <time>2011-02-27T13:36:27Z</time>
      </trkpt>
      <trkpt lat="46.39378" lon="-0.44317">
        <ele>12.1635</ele>
        <time>2011-02-27T13:36:28Z</time>
      </trkpt>
      <trkpt lat="46.39378" lon="-0.44319">
        <ele>12.1341</ele>
        <time>2011-02-27T13:36:29Z</time>
      </trkpt>
      <trkpt lat="46.39377" lon="-0.4432">
        <ele>12.1051</ele>
        <time>2011-02-27T13:36:30Z</time>
      </trkpt>
      <trkpt lat="46.39377" lon="-0.44322">
        <ele>12.0768</ele>
        <time>2011-02-27T13:36:31Z</time>
      </trkpt>
      <trkpt lat="46.39376" lon="-0.44323">
        <ele>12.049</ele>
        <time>2011-02-27T13:36:32Z</time>
      </trkpt>
      <trkpt lat="46.39376" lon="-0.44325">
        <ele>12.0191</ele>
        <time>2011-02-27T13:36:33Z</time>
      </trkpt>
      <trkpt lat="46.39376" lon="-0.44326">
        <ele>11.9866</ele>
        <time>2011-02-27T13:36:34Z</time>
      </trkpt>
      <trkpt lat="46.39375" lon="-0.44327">
        <ele>11.9538</ele>
        <time>2011-02-27T13:36:35Z</time>
      </trkpt>
      <trkpt lat="46.39375" lon="-0.44328">
        <ele>11.9186</ele>
        <time>2011-02-27T13:36:36Z</time>
      </trkpt>
      <trkpt lat="46.39375" lon="-0.4433">
        <ele>11.8812</ele>
        <time>2011-02-27T13:36:37Z</time>
      </trkpt>
      <trkpt lat="46.39374" lon="-0.44332">
        <ele>11.8427</ele>
        <time>2011-02-27T13:36:38Z</time>
      </trkpt>
      <trkpt lat="46.39373" lon="-0.44335">
        <ele>11.8015</ele>
        <time>2011-02-27T13:36:39Z</time>
      </trkpt>
      <trkpt lat="46.39372" lon="-0.44337">
        <ele>11.7612</ele>
        <time>2011-02-27T13:36:40Z</time>
      </trkpt>
      <trkpt lat="46.39372" lon="-0.44339">
        <ele>11.7184</ele>
        <time>2011-02-27T13:36:41Z</time>
      </trkpt>
      <trkpt lat="46.39371" lon="-0.44341">
        <ele>11.6776</ele>
        <time>2011-02-27T13:36:42Z</time>
      </trkpt>
      <trkpt lat="46.3937" lon="-0.44343">
        <ele>11.6386</ele>
        <time>2011-02-27T13:36:43Z</time>
      </trkpt>
      <trkpt lat="46.39369" lon="-0.44344">
        <ele>11.6018</ele>
        <time>2011-02-27T13:36:44Z</time>
      </trkpt>
      <trkpt lat="46.39369" lon="-0.44346">
        <ele>11.5661</ele>
        <time>2011-02-27T13:36:45Z</time>
      </trkpt>
      <trkpt lat="46.39368" lon="-0.44347">
        <ele>11.5308</ele>
        <time>2011-02-27T13:36:46Z</time>
      </trkpt>
      <trkpt lat="46.39368" lon="-0.44348">
        <ele>11.4943</ele>
        <time>2011-02-27T13:36:47Z</time>
      </trkpt>
      <trkpt lat="46.39367" lon="-0.4435">
        <ele>11.4558</ele>
        <time>2011-02-27T13:36:48Z</time>
      </trkpt>
      <trkpt lat="46.39367" lon="-0.44351">
        <ele>11.4173</ele>
        <time>2011-02-27T13:36:49Z</time>
      </trkpt>
      <trkpt lat="46.39367" lon="-0.44352">
        <ele>11.379</ele>
        <time>2011-02-27T13:36:50Z</time>
      </trkpt>
      <trkpt lat="46.39366" lon="-0.44354">
        <ele>11.3424</ele>
        <time>2011-02-27T13:36:51Z</time>
      </trkpt>
      <trkpt lat="46.39365" lon="-0.44355">
        <ele>11.3075</ele>
        <time>2011-02-27T13:36:52Z</time>
      </trkpt>
      <trkpt lat="46.39365" lon="-0.44356">
        <ele>11.2738</ele>
        <time>2011-02-27T13:36:53Z</time>
      </trkpt>
      <trkpt lat="46.39365" lon="-0.44358">
        <ele>11.2396</ele>
        <time>2011-02-27T13:36:54Z</time>
      </trkpt>
      <trkpt lat="46.39365" lon="-0.44359">
        <ele>11.2055</ele>
        <time>2011-02-27T13:36:55Z</time>
      </trkpt>
      <trkpt lat="46.39364" lon="-0.4436">
        <ele>11.1707</ele>
        <time>2011-02-27T13:36:56Z</time>
      </trkpt>
      <trkpt lat="46.39364" lon="-0.44361">
        <ele>11.1303</ele>
        <time>2011-02-27T13:36:57Z</time>
      </trkpt>
      <trkpt lat="46.39364" lon="-0.44363">
        <ele>11.0894</ele>
        <time>2011-02-27T13:36:58Z</time>
      </trkpt>
      <trkpt lat="46.39363" lon="-0.44364">
        <ele>11.046</ele>
        <time>2011-02-27T13:36:59Z</time>
      </trkpt>
      <trkpt lat="46.39362" lon="-0.44365">
        <ele>11.003</ele>
        <time>2011-02-27T13:37:00Z</time>
      </trkpt>
      <trkpt lat="46.39362" lon="-0.44366">
        <ele>10.9617</ele>
        <time>2011-02-27T13:37:01Z</time>
      </trkpt>
      <trkpt lat="46.39361" lon="-0.44367">
        <ele>10.9204</ele>
        <time>2011-02-27T13:37:02Z</time>
      </trkpt>
      <trkpt lat="46.39361" lon="-0.44369">
        <ele>10.8787</ele>
        <time>2011-02-27T13:37:03Z</time>
      </trkpt>
      <trkpt lat="46.3936" lon="-0.4437">
        <ele>10.8264</ele>
        <time>2011-02-27T13:37:04Z</time>
      </trkpt>
      <trkpt lat="46.3936" lon="-0.44372">
        <ele>10.773</ele>
        <time>2011-02-27T13:37:05Z</time>
      </trkpt>
      <trkpt lat="46.39359" lon="-0.44373">
        <ele>10.719</ele>
        <time>2011-02-27T13:37:06Z</time>
      </trkpt>
      <trkpt lat="46.39359" lon="-0.44374">
        <ele>10.6648</ele>
        <time>2011-02-27T13:37:07Z</time>
      </trkpt>
      <trkpt lat="46.39359" lon="-0.44376">
        <ele>10.6103</ele>
        <time>2011-02-27T13:37:08Z</time>
      </trkpt>
      <trkpt lat="46.39359" lon="-0.44377">
        <ele>10.5594</ele>
        <time>2011-02-27T13:37:09Z</time>
      </trkpt>
      <trkpt lat="46.39358" lon="-0.44378">
        <ele>10.5097</ele>
        <time>2011-02-27T13:37:10Z</time>
      </trkpt>
      <trkpt lat="46.39358" lon="-0.4438">
        <ele>10.4646</ele>
        <time>2011-02-27T13:37:11Z</time>
      </trkpt>
      <trkpt lat="46.39357" lon="-0.44381">
        <ele>10.4206</ele>
        <time>2011-02-27T13:37:12Z</time>
      </trkpt>
      <trkpt lat="46.39357" lon="-0.44383">
        <ele>10.3831</ele>
        <time>2011-02-27T13:37:13Z</time>
      </trkpt>
      <trkpt lat="46.39357" lon="-0.44385">
        <ele>10.3457</ele>
        <time>2011-02-27T13:37:14Z</time>
      </trkpt>
      <trkpt lat="46.39356" lon="-0.44387">
        <ele>10.3151</ele>
        <time>2011-02-27T13:37:15Z</time>
      </trkpt>
      <trkpt lat="46.39356" lon="-0.44388">
        <ele>10.2867</ele>
        <time>2011-02-27T13:37:16Z</time>
      </trkpt>
      <trkpt lat="46.39356" lon="-0.4439">
        <ele>10.2497</ele>
        <time>2011-02-27T13:37:17Z</time>
      </trkpt>
      <trkpt lat="46.39355" lon="-0.44391">
        <ele>10.2136</ele>
        <time>2011-02-27T13:37:18Z</time>
      </trkpt>
      <trkpt lat="46.39355" lon="-0.44392">
        <ele>10.1773</ele>
        <time>2011-02-27T13:37:19Z</time>
      </trkpt>
      <trkpt lat="46.39354" lon="-0.44394">
        <ele>10.1402</ele>
        <time>2011-02-27T13:37:20Z</time>
      </trkpt>
      <trkpt lat="46.39354" lon="-0.44395">
        <ele>10.1067</ele>
        <time>2011-02-27T13:37:21Z</time>
      </trkpt>
      <trkpt lat="46.39354" lon="-0.44397">
        <ele>10.074</ele>
        <time>2011-02-27T13:37:22Z</time>
      </trkpt>
      <trkpt lat="46.39353" lon="-0.44399">
        <ele>10.0406</ele>
        <time>2011-02-27T13:37:23Z</time>
      </trkpt>
      <trkpt lat="46.39353" lon="-0.44401">
        <ele>10.0123</ele>
        <time>2011-02-27T13:37:24Z</time>
      </trkpt>
      <trkpt lat="46.39352" lon="-0.44402">
        <ele>9.9896</ele>
        <time>2011-02-27T13:37:25Z</time>
      </trkpt>
      <trkpt lat="46.39352" lon="-0.44404">
        <ele>9.9696</ele>
        <time>2011-02-27T13:37:26Z</time>
      </trkpt>
      <trkpt lat="46.39352" lon="-0.44406">
        <ele>9.9501</ele>
        <time>2011-02-27T13:37:27Z</time>
      </trkpt>
      <trkpt lat="46.39352" lon="-0.44407">
        <ele>9.9299</ele>
        <time>2011-02-27T13:37:28Z</time>
      </trkpt>
      <trkpt lat="46.39351" lon="-0.44409">
        <ele>9.9109</ele>
        <time>2011-02-27T13:37:29Z</time>
      </trkpt>
      <trkpt lat="46.39351" lon="-0.44411">
        <ele>9.8939</ele>
        <time>2011-02-27T13:37:30Z</time>
      </trkpt>
      <trkpt lat="46.39351" lon="-0.44412">
        <ele>9.8741</ele>
        <time>2011-02-27T13:37:31Z</time>
      </trkpt>
      <trkpt lat="46.3935" lon="-0.44414">
        <ele>9.8518</ele>
        <time>2011-02-27T13:37:32Z</time>
      </trkpt>
      <trkpt lat="46.39351" lon="-0.44416">
        <ele>9.8317</ele>
        <time>2011-02-27T13:37:33Z</time>
      </trkpt>
      <trkpt lat="46.39351" lon="-0.44418">
        <ele>9.8128</ele>
        <time>2011-02-27T13:37:34Z</time>
      </trkpt>
      <trkpt lat="46.39351" lon="-0.4442">
        <ele>9.795</ele>
        <time>2011-02-27T13:37:35Z</time>
      </trkpt>
      <trkpt lat="46.39351" lon="-0.44421">
        <ele>9.7843</ele>
        <time>2011-02-27T13:37:36Z</time>
      </trkpt>
      <trkpt lat="46.39351" lon="-0.44423">
        <ele>9.7706</ele>
        <time>2011-02-27T13:37:37Z</time>
      </trkpt>
      <trkpt lat="46.3935" lon="-0.44424">
        <ele>9.7579</ele>
        <time>2011-02-27T13:37:38Z</time>
      </trkpt>
      <trkpt lat="46.3935" lon="-0.44426">
        <ele>9.7467</ele>
        <time>2011-02-27T13:37:39Z</time>
      </trkpt>
      <trkpt lat="46.3935" lon="-0.44428">
        <ele>9.7375</ele>
        <time>2011-02-27T13:37:40Z</time>
      </trkpt>
      <trkpt lat="46.3935" lon="-0.44429">
        <ele>9.7315</ele>
        <time>2011-02-27T13:37:41Z</time>
      </trkpt>
      <trkpt lat="46.39349" lon="-0.4443">
        <ele>9.727</ele>
        <time>2011-02-27T13:37:42Z</time>
      </trkpt>
      <trkpt lat="46.39349" lon="-0.44432">
        <ele>9.7163</ele>
        <time>2011-02-27T13:37:43Z</time>
      </trkpt>
      <trkpt lat="46.39349" lon="-0.44433">
        <ele>9.708</ele>
        <time>2011-02-27T13:37:44Z</time>
      </trkpt>
      <trkpt lat="46.39349" lon="-0.44435">
        <ele>9.6999</ele>
        <time>2011-02-27T13:37:45Z</time>
      </trkpt>
      <trkpt lat="46.39348" lon="-0.44436">
        <ele>9.6887</ele>
        <time>2011-02-27T13:37:46Z</time>
      </trkpt>
      <trkpt lat="46.39348" lon="-0.44438">
        <ele>9.6748</ele>
        <time>2011-02-27T13:37:47Z</time>
      </trkpt>
      <trkpt lat="46.39348" lon="-0.4444">
        <ele>9.6604</ele>
        <time>2011-02-27T13:37:48Z</time>
      </trkpt>
      <trkpt lat="46.39348" lon="-0.44441">
        <ele>9.6479</ele>
        <time>2011-02-27T13:37:49Z</time>
      </trkpt>
      <trkpt lat="46.39348" lon="-0.44443">
        <ele>9.6395</ele>
        <time>2011-02-27T13:37:50Z</time>
      </trkpt>
      <trkpt lat="46.39348" lon="-0.44445">
        <ele>9.6398</ele>
        <time>2011-02-27T13:37:51Z</time>
      </trkpt>
      <trkpt lat="46.39348" lon="-0.44446">
        <ele>9.6495</ele>
        <time>2011-02-27T13:37:52Z</time>
      </trkpt>
      <trkpt lat="46.39348" lon="-0.44448">
        <ele>9.669</ele>
        <time>2011-02-27T13:37:53Z</time>
      </trkpt>
      <trkpt lat="46.39348" lon="-0.44449">
        <ele>9.7009</ele>
        <time>2011-02-27T13:37:54Z</time>
      </trkpt>
      <trkpt lat="46.39348" lon="-0.44451">
        <ele>9.7345</ele>
        <time>2011-02-27T13:37:55Z</time>
      </trkpt>
      <trkpt lat="46.39348" lon="-0.44452">
        <ele>9.7778</ele>
        <time>2011-02-27T13:37:56Z</time>
      </trkpt>
      <trkpt lat="46.39347" lon="-0.44458">
        <ele>10.0684</ele>
        <time>2011-02-27T13:38:01Z</time>
      </trkpt>
      <trkpt lat="46.39348" lon="-0.44461">
        <ele>10.1372</ele>
        <time>2011-02-27T13:38:04Z</time>
      </trkpt>
      <trkpt lat="46.39348" lon="-0.44462">
        <ele>10.1923</ele>
        <time>2011-02-27T13:38:05Z</time>
      </trkpt>
      <trkpt lat="46.39348" lon="-0.44463">
        <ele>10.2437</ele>
        <time>2011-02-27T13:38:06Z</time>
      </trkpt>
      <trkpt lat="46.39348" lon="-0.44464">
        <ele>10.2943</ele>
        <time>2011-02-27T13:38:07Z</time>
      </trkpt>
      <trkpt lat="46.39348" lon="-0.44465">
        <ele>10.3446</ele>
        <time>2011-02-27T13:38:08Z</time>
      </trkpt>
      <trkpt lat="46.39348" lon="-0.44466">
        <ele>10.3924</ele>
        <time>2011-02-27T13:38:09Z</time>
      </trkpt>
      <trkpt lat="46.39348" lon="-0.44467">
        <ele>10.4368</ele>
        <time>2011-02-27T13:38:10Z</time>
      </trkpt>
      <trkpt lat="46.39348" lon="-0.44469">
        <ele>10.4879</ele>
        <time>2011-02-27T13:38:11Z</time>
      </trkpt>
      <trkpt lat="46.39348" lon="-0.4447">
        <ele>10.5361</ele>
        <time>2011-02-27T13:38:12Z</time>
      </trkpt>
      <trkpt lat="46.39347" lon="-0.44471">
        <ele>10.5972</ele>
        <time>2011-02-27T13:38:13Z</time>
      </trkpt>
      <trkpt lat="46.39347" lon="-0.44472">
        <ele>10.6535</ele>
        <time>2011-02-27T13:38:14Z</time>
      </trkpt>
      <trkpt lat="46.39346" lon="-0.44474">
        <ele>10.7015</ele>
        <time>2011-02-27T13:38:15Z</time>
      </trkpt>
      <trkpt lat="46.39346" lon="-0.44475">
        <ele>10.7417</ele>
        <time>2011-02-27T13:38:16Z</time>
      </trkpt>
      <trkpt lat="46.39347" lon="-0.44476">
        <ele>10.7797</ele>
        <time>2011-02-27T13:38:17Z</time>
      </trkpt>
      <trkpt lat="46.39347" lon="-0.44477">
        <ele>10.8142</ele>
        <time>2011-02-27T13:38:18Z</time>
      </trkpt>
      <trkpt lat="46.39347" lon="-0.44479">
        <ele>10.854</ele>
        <time>2011-02-27T13:38:19Z</time>
      </trkpt>
      <trkpt lat="46.39347" lon="-0.4448">
        <ele>10.8983</ele>
        <time>2011-02-27T13:38:20Z</time>
      </trkpt>
      <trkpt lat="46.39348" lon="-0.44482">
        <ele>10.9466</ele>
        <time>2011-02-27T13:38:21Z</time>
      </trkpt>
      <trkpt lat="46.39348" lon="-0.44485">
        <ele>10.9996</ele>
        <time>2011-02-27T13:38:22Z</time>
      </trkpt>
      <trkpt lat="46.39348" lon="-0.44486">
        <ele>11.0602</ele>
        <time>2011-02-27T13:38:23Z</time>
      </trkpt>
      <trkpt lat="46.39349" lon="-0.4449">
        <ele>11.1197</ele>
        <time>2011-02-27T13:38:26Z</time>
      </trkpt>
      <trkpt lat="46.39349" lon="-0.44491">
        <ele>11.1607</ele>
        <time>2011-02-27T13:38:27Z</time>
      </trkpt>
      <trkpt lat="46.39349" lon="-0.44493">
        <ele>11.1987</ele>
        <time>2011-02-27T13:38:28Z</time>
      </trkpt>
      <trkpt lat="46.39349" lon="-0.44494">
        <ele>11.2321</ele>
        <time>2011-02-27T13:38:29Z</time>
      </trkpt>
      <trkpt lat="46.39349" lon="-0.44496">
        <ele>11.263</ele>
        <time>2011-02-27T13:38:30Z</time>
      </trkpt>
      <trkpt lat="46.39349" lon="-0.44497">
        <ele>11.294</ele>
        <time>2011-02-27T13:38:31Z</time>
      </trkpt>
      <trkpt lat="46.39349" lon="-0.44498">
        <ele>11.3238</ele>
        <time>2011-02-27T13:38:32Z</time>
      </trkpt>
      <trkpt lat="46.39349" lon="-0.44499">
        <ele>11.353</ele>
        <time>2011-02-27T13:38:33Z</time>
      </trkpt>
      <trkpt lat="46.39349" lon="-0.445">
        <ele>11.3837</ele>
        <time>2011-02-27T13:38:34Z</time>
      </trkpt>
      <trkpt lat="46.3935" lon="-0.44501">
        <ele>11.4163</ele>
        <time>2011-02-27T13:38:35Z</time>
      </trkpt>
      <trkpt lat="46.3935" lon="-0.44503">
        <ele>11.4483</ele>
        <time>2011-02-27T13:38:36Z</time>
      </trkpt>
      <trkpt lat="46.3935" lon="-0.44504">
        <ele>11.4854</ele>
        <time>2011-02-27T13:38:37Z</time>
      </trkpt>
      <trkpt lat="46.3935" lon="-0.44505">
        <ele>11.5229</ele>
        <time>2011-02-27T13:38:38Z</time>
      </trkpt>
      <trkpt lat="46.39351" lon="-0.44507">
        <ele>11.5601</ele>
        <time>2011-02-27T13:38:39Z</time>
      </trkpt>
      <trkpt lat="46.39351" lon="-0.44509">
        <ele>11.5949</ele>
        <time>2011-02-27T13:38:40Z</time>
      </trkpt>
      <trkpt lat="46.39351" lon="-0.44511">
        <ele>11.6287</ele>
        <time>2011-02-27T13:38:41Z</time>
      </trkpt>
      <trkpt lat="46.39352" lon="-0.44512">
        <ele>11.6621</ele>
        <time>2011-02-27T13:38:42Z</time>
      </trkpt>
      <trkpt lat="46.39352" lon="-0.44514">
        <ele>11.6979</ele>
        <time>2011-02-27T13:38:43Z</time>
      </trkpt>
      <trkpt lat="46.39352" lon="-0.44515">
        <ele>11.733</ele>
        <time>2011-02-27T13:38:44Z</time>
      </trkpt>
      <trkpt lat="46.39352" lon="-0.44516">
        <ele>11.7658</ele>
        <time>2011-02-27T13:38:45Z</time>
      </trkpt>
      <trkpt lat="46.39352" lon="-0.44518">
        <ele>11.7988</ele>
        <time>2011-02-27T13:38:46Z</time>
      </trkpt>
      <trkpt lat="46.39352" lon="-0.4452">
        <ele>11.8325</ele>
        <time>2011-02-27T13:38:47Z</time>
      </trkpt>
      <trkpt lat="46.39353" lon="-0.44521">
        <ele>11.8656</ele>
        <time>2011-02-27T13:38:48Z</time>
      </trkpt>
      <trkpt lat="46.39353" lon="-0.44522">
        <ele>11.896</ele>
        <time>2011-02-27T13:38:49Z</time>
      </trkpt>
      <trkpt lat="46.39353" lon="-0.44524">
        <ele>11.9215</ele>
        <time>2011-02-27T13:38:50Z</time>
      </trkpt>
      <trkpt lat="46.39353" lon="-0.44525">
        <ele>11.9432</ele>
        <time>2011-02-27T13:38:51Z</time>
      </trkpt>
      <trkpt lat="46.39353" lon="-0.44526">
        <ele>11.9698</ele>
        <time>2011-02-27T13:38:52Z</time>
      </trkpt>
      <trkpt lat="46.39353" lon="-0.44526">
        <ele>12.0031</ele>
        <time>2011-02-27T13:38:53Z</time>
      </trkpt>
      <trkpt lat="46.39353" lon="-0.44527">
        <ele>12.0403</ele>
        <time>2011-02-27T13:38:54Z</time>
      </trkpt>
      <trkpt lat="46.39353" lon="-0.44528">
        <ele>12.082</ele>
        <time>2011-02-27T13:38:55Z</time>
      </trkpt>
      <trkpt lat="46.39353" lon="-0.44529">
        <ele>12.1388</ele>
        <time>2011-02-27T13:38:56Z</time>
      </trkpt>
      <trkpt lat="46.39353" lon="-0.4453">
        <ele>12.195</ele>
        <time>2011-02-27T13:38:57Z</time>
      </trkpt>
      <trkpt lat="46.39352" lon="-0.44531">
        <ele>12.2539</ele>
        <time>2011-02-27T13:38:58Z</time>
      </trkpt>
      <trkpt lat="46.39353" lon="-0.44532">
        <ele>12.3208</ele>
        <time>2011-02-27T13:38:59Z</time>
      </trkpt>
      <trkpt lat="46.39353" lon="-0.44534">
        <ele>12.3875</ele>
        <time>2011-02-27T13:39:00Z</time>
      </trkpt>
      <trkpt lat="46.39354" lon="-0.44535">
        <ele>12.4545</ele>
        <time>2011-02-27T13:39:01Z</time>
      </trkpt>
      <trkpt lat="46.39354" lon="-0.44537">
        <ele>12.5213</ele>
        <time>2011-02-27T13:39:02Z</time>
      </trkpt>
      <trkpt lat="46.39354" lon="-0.44538">
        <ele>12.5837</ele>
        <time>2011-02-27T13:39:03Z</time>
      </trkpt>
      <trkpt lat="46.39354" lon="-0.4454">
        <ele>12.648</ele>
        <time>2011-02-27T13:39:04Z</time>
      </trkpt>
      <trkpt lat="46.39355" lon="-0.44542">
        <ele>12.7086</ele>
        <time>2011-02-27T13:39:05Z</time>
      </trkpt>
      <trkpt lat="46.39355" lon="-0.44543">
        <ele>12.7665</ele>
        <time>2011-02-27T13:39:06Z</time>
      </trkpt>
      <trkpt lat="46.39354" lon="-0.44546">
        <ele>12.8261</ele>
        <time>2011-02-27T13:39:07Z</time>
      </trkpt>
      <trkpt lat="46.39354" lon="-0.44549">
        <ele>12.8797</ele>
        <time>2011-02-27T13:39:08Z</time>
      </trkpt>
      <trkpt lat="46.39355" lon="-0.44551">
        <ele>12.9361</ele>
        <time>2011-02-27T13:39:09Z</time>
      </trkpt>
      <trkpt lat="46.39355" lon="-0.44553">
        <ele>12.9919</ele>
        <time>2011-02-27T13:39:10Z</time>
      </trkpt>
      <trkpt lat="46.39355" lon="-0.44555">
        <ele>13.0352</ele>
        <time>2011-02-27T13:39:11Z</time>
      </trkpt>
      <trkpt lat="46.39355" lon="-0.44558">
        <ele>13.0821</ele>
        <time>2011-02-27T13:39:12Z</time>
      </trkpt>
      <trkpt lat="46.39356" lon="-0.4456">
        <ele>13.1253</ele>
        <time>2011-02-27T13:39:13Z</time>
      </trkpt>
      <trkpt lat="46.39356" lon="-0.44562">
        <ele>13.1519</ele>
        <time>2011-02-27T13:39:14Z</time>
      </trkpt>
      <trkpt lat="46.39356" lon="-0.44563">
        <ele>13.1678</ele>
        <time>2011-02-27T13:39:15Z</time>
      </trkpt>
      <trkpt lat="46.39356" lon="-0.44565">
        <ele>13.1776</ele>
        <time>2011-02-27T13:39:16Z</time>
      </trkpt>
      <trkpt lat="46.39356" lon="-0.44567">
        <ele>13.182</ele>
        <time>2011-02-27T13:39:17Z</time>
      </trkpt>
      <trkpt lat="46.39357" lon="-0.44569">
        <ele>13.1835</ele>
        <time>2011-02-27T13:39:18Z</time>
      </trkpt>
      <trkpt lat="46.39357" lon="-0.4457">
        <ele>13.1796</ele>
        <time>2011-02-27T13:39:19Z</time>
      </trkpt>
      <trkpt lat="46.39357" lon="-0.44572">
        <ele>13.1728</ele>
        <time>2011-02-27T13:39:20Z</time>
      </trkpt>
      <trkpt lat="46.39358" lon="-0.44574">
        <ele>13.1444</ele>
        <time>2011-02-27T13:39:23Z</time>
      </trkpt>
      <trkpt lat="46.39358" lon="-0.44575">
        <ele>13.1166</ele>
        <time>2011-02-27T13:39:24Z</time>
      </trkpt>
      <trkpt lat="46.39358" lon="-0.44577">
        <ele>13.0951</ele>
        <time>2011-02-27T13:39:25Z</time>
      </trkpt>
      <trkpt lat="46.39358" lon="-0.44578">
        <ele>13.0755</ele>
        <time>2011-02-27T13:39:26Z</time>
      </trkpt>
      <trkpt lat="46.39358" lon="-0.4458">
        <ele>13.0567</ele>
        <time>2011-02-27T13:39:27Z</time>
      </trkpt>
      <trkpt lat="46.39358" lon="-0.44581">
        <ele>13.037</ele>
        <time>2011-02-27T13:39:28Z</time>
      </trkpt>
      <trkpt lat="46.39358" lon="-0.44583">
        <ele>13.0145</ele>
        <time>2011-02-27T13:39:29Z</time>
      </trkpt>
      <trkpt lat="46.39358" lon="-0.44585">
        <ele>12.9851</ele>
        <time>2011-02-27T13:39:30Z</time>
      </trkpt>
      <trkpt lat="46.39358" lon="-0.44586">
        <ele>12.956</ele>
        <time>2011-02-27T13:39:31Z</time>
      </trkpt>
      <trkpt lat="46.39359" lon="-0.44588">
        <ele>12.9249</ele>
        <time>2011-02-27T13:39:32Z</time>
      </trkpt>
      <trkpt lat="46.39359" lon="-0.44589">
        <ele>12.8953</ele>
        <time>2011-02-27T13:39:33Z</time>
      </trkpt>
      <trkpt lat="46.39359" lon="-0.4459">
        <ele>12.8647</ele>
        <time>2011-02-27T13:39:34Z</time>
      </trkpt>
      <trkpt lat="46.39359" lon="-0.44591">
        <ele>12.8332</ele>
        <time>2011-02-27T13:39:35Z</time>
      </trkpt>
      <trkpt lat="46.39359" lon="-0.44592">
        <ele>12.8026</ele>
        <time>2011-02-27T13:39:36Z</time>
      </trkpt>
      <trkpt lat="46.3936" lon="-0.44593">
        <ele>12.7722</ele>
        <time>2011-02-27T13:39:37Z</time>
      </trkpt>
      <trkpt lat="46.3936" lon="-0.44594">
        <ele>12.7439</ele>
        <time>2011-02-27T13:39:38Z</time>
      </trkpt>
      <trkpt lat="46.39361" lon="-0.44596">
        <ele>12.7181</ele>
        <time>2011-02-27T13:39:39Z</time>
      </trkpt>
      <trkpt lat="46.39362" lon="-0.44598">
        <ele>12.695</ele>
        <time>2011-02-27T13:39:40Z</time>
      </trkpt>
      <trkpt lat="46.39362" lon="-0.44599">
        <ele>12.6746</ele>
        <time>2011-02-27T13:39:41Z</time>
      </trkpt>
      <trkpt lat="46.39363" lon="-0.44601">
        <ele>12.6538</ele>
        <time>2011-02-27T13:39:42Z</time>
      </trkpt>
      <trkpt lat="46.39364" lon="-0.44602">
        <ele>12.6282</ele>
        <time>2011-02-27T13:39:43Z</time>
      </trkpt>
      <trkpt lat="46.39364" lon="-0.44603">
        <ele>12.6044</ele>
        <time>2011-02-27T13:39:44Z</time>
      </trkpt>
      <trkpt lat="46.39364" lon="-0.44604">
        <ele>12.5788</ele>
        <time>2011-02-27T13:39:45Z</time>
      </trkpt>
      <trkpt lat="46.39364" lon="-0.44606">
        <ele>12.5534</ele>
        <time>2011-02-27T13:39:46Z</time>
      </trkpt>
      <trkpt lat="46.39364" lon="-0.44607">
        <ele>12.5224</ele>
        <time>2011-02-27T13:39:47Z</time>
      </trkpt>
      <trkpt lat="46.39365" lon="-0.44608">
        <ele>12.4927</ele>
        <time>2011-02-27T13:39:48Z</time>
      </trkpt>
      <trkpt lat="46.39365" lon="-0.4461">
        <ele>12.4457</ele>
        <time>2011-02-27T13:39:49Z</time>
      </trkpt>
      <trkpt lat="46.39365" lon="-0.44611">
        <ele>12.4</ele>
        <time>2011-02-27T13:39:50Z</time>
      </trkpt>
      <trkpt lat="46.39365" lon="-0.44613">
        <ele>12.3441</ele>
        <time>2011-02-27T13:39:51Z</time>
      </trkpt>
      <trkpt lat="46.39365" lon="-0.44614">
        <ele>12.2886</ele>
        <time>2011-02-27T13:39:52Z</time>
      </trkpt>
      <trkpt lat="46.39366" lon="-0.44616">
        <ele>12.2373</ele>
        <time>2011-02-27T13:39:53Z</time>
      </trkpt>
      <trkpt lat="46.39366" lon="-0.44617">
        <ele>12.1913</ele>
        <time>2011-02-27T13:39:54Z</time>
      </trkpt>
      <trkpt lat="46.39366" lon="-0.44619">
        <ele>12.1499</ele>
        <time>2011-02-27T13:39:55Z</time>
      </trkpt>
      <trkpt lat="46.39367" lon="-0.44621">
        <ele>12.1132</ele>
        <time>2011-02-27T13:39:56Z</time>
      </trkpt>
      <trkpt lat="46.39367" lon="-0.44624">
        <ele>12.0543</ele>
        <time>2011-02-27T13:39:57Z</time>
      </trkpt>
      <trkpt lat="46.39367" lon="-0.44627">
        <ele>11.9841</ele>
        <time>2011-02-27T13:39:58Z</time>
      </trkpt>
      <trkpt lat="46.39367" lon="-0.4463">
        <ele>11.9169</ele>
        <time>2011-02-27T13:39:59Z</time>
      </trkpt>
      <trkpt lat="46.39367" lon="-0.44632">
        <ele>11.8542</ele>
        <time>2011-02-27T13:40:00Z</time>
      </trkpt>
      <trkpt lat="46.39367" lon="-0.44634">
        <ele>11.7897</ele>
        <time>2011-02-27T13:40:01Z</time>
      </trkpt>
      <trkpt lat="46.39367" lon="-0.44636">
        <ele>11.7288</ele>
        <time>2011-02-27T13:40:02Z</time>
      </trkpt>
      <trkpt lat="46.39368" lon="-0.44638">
        <ele>11.6689</ele>
        <time>2011-02-27T13:40:03Z</time>
      </trkpt>
      <trkpt lat="46.39369" lon="-0.4464">
        <ele>11.6127</ele>
        <time>2011-02-27T13:40:04Z</time>
      </trkpt>
      <trkpt lat="46.3937" lon="-0.44642">
        <ele>11.5734</ele>
        <time>2011-02-27T13:40:05Z</time>
      </trkpt>
      <trkpt lat="46.3937" lon="-0.44644">
        <ele>11.5422</ele>
        <time>2011-02-27T13:40:06Z</time>
      </trkpt>
      <trkpt lat="46.3937" lon="-0.44646">
        <ele>11.5173</ele>
        <time>2011-02-27T13:40:07Z</time>
      </trkpt>
      <trkpt lat="46.39371" lon="-0.44648">
        <ele>11.4994</ele>
        <time>2011-02-27T13:40:08Z</time>
      </trkpt>
      <trkpt lat="46.39371" lon="-0.44649">
        <ele>11.4929</ele>
        <time>2011-02-27T13:40:09Z</time>
      </trkpt>
      <trkpt lat="46.39372" lon="-0.44651">
        <ele>11.4959</ele>
        <time>2011-02-27T13:40:10Z</time>
      </trkpt>
      <trkpt lat="46.39372" lon="-0.44652">
        <ele>11.5105</ele>
        <time>2011-02-27T13:40:11Z</time>
      </trkpt>
      <trkpt lat="46.39373" lon="-0.44654">
        <ele>11.5329</ele>
        <time>2011-02-27T13:40:12Z</time>
      </trkpt>
      <trkpt lat="46.39373" lon="-0.44656">
        <ele>11.5575</ele>
        <time>2011-02-27T13:40:13Z</time>
      </trkpt>
      <trkpt lat="46.39374" lon="-0.44657">
        <ele>11.5784</ele>
        <time>2011-02-27T13:40:14Z</time>
      </trkpt>
      <trkpt lat="46.39375" lon="-0.44659">
        <ele>11.6046</ele>
        <time>2011-02-27T13:40:15Z</time>
      </trkpt>
      <trkpt lat="46.39375" lon="-0.44661">
        <ele>11.6358</ele>
        <time>2011-02-27T13:40:16Z</time>
      </trkpt>
      <trkpt lat="46.39376" lon="-0.44662">
        <ele>11.6684</ele>
        <time>2011-02-27T13:40:17Z</time>
      </trkpt>
      <trkpt lat="46.39377" lon="-0.44664">
        <ele>11.6972</ele>
        <time>2011-02-27T13:40:18Z</time>
      </trkpt>
      <trkpt lat="46.39377" lon="-0.44665">
        <ele>11.7196</ele>
        <time>2011-02-27T13:40:19Z</time>
      </trkpt>
      <trkpt lat="46.39376" lon="-0.44667">
        <ele>11.7553</ele>
        <time>2011-02-27T13:40:23Z</time>
      </trkpt>
      <trkpt lat="46.39376" lon="-0.44668">
        <ele>11.7732</ele>
        <time>2011-02-27T13:40:24Z</time>
      </trkpt>
      <trkpt lat="46.39376" lon="-0.4467">
        <ele>11.7883</ele>
        <time>2011-02-27T13:40:25Z</time>
      </trkpt>
      <trkpt lat="46.39377" lon="-0.44671">
        <ele>11.7993</ele>
        <time>2011-02-27T13:40:26Z</time>
      </trkpt>
      <trkpt lat="46.39377" lon="-0.44672">
        <ele>11.8078</ele>
        <time>2011-02-27T13:40:27Z</time>
      </trkpt>
      <trkpt lat="46.39377" lon="-0.44674">
        <ele>11.8157</ele>
        <time>2011-02-27T13:40:28Z</time>
      </trkpt>
      <trkpt lat="46.39377" lon="-0.44675">
        <ele>11.8241</ele>
        <time>2011-02-27T13:40:29Z</time>
      </trkpt>
      <trkpt lat="46.39378" lon="-0.44677">
        <ele>11.8317</ele>
        <time>2011-02-27T13:40:30Z</time>
      </trkpt>
      <trkpt lat="46.39378" lon="-0.44678">
        <ele>11.8422</ele>
        <time>2011-02-27T13:40:31Z</time>
      </trkpt>
      <trkpt lat="46.39378" lon="-0.4468">
        <ele>11.8527</ele>
        <time>2011-02-27T13:40:32Z</time>
      </trkpt>
      <trkpt lat="46.39378" lon="-0.44681">
        <ele>11.8656</ele>
        <time>2011-02-27T13:40:33Z</time>
      </trkpt>
      <trkpt lat="46.39379" lon="-0.44683">
        <ele>11.8698</ele>
        <time>2011-02-27T13:40:34Z</time>
      </trkpt>
      <trkpt lat="46.39379" lon="-0.44686">
        <ele>11.8762</ele>
        <time>2011-02-27T13:40:35Z</time>
      </trkpt>
      <trkpt lat="46.39379" lon="-0.44687">
        <ele>11.8857</ele>
        <time>2011-02-27T13:40:36Z</time>
      </trkpt>
      <trkpt lat="46.3938" lon="-0.44689">
        <ele>11.8915</ele>
        <time>2011-02-27T13:40:37Z</time>
      </trkpt>
      <trkpt lat="46.39381" lon="-0.44691">
        <ele>11.8992</ele>
        <time>2011-02-27T13:40:38Z</time>
      </trkpt>
      <trkpt lat="46.39381" lon="-0.44693">
        <ele>11.9076</ele>
        <time>2011-02-27T13:40:39Z</time>
      </trkpt>
      <trkpt lat="46.39382" lon="-0.44695">
        <ele>11.9157</ele>
        <time>2011-02-27T13:40:40Z</time>
      </trkpt>
      <trkpt lat="46.39383" lon="-0.44696">
        <ele>11.9232</ele>
        <time>2011-02-27T13:40:41Z</time>
      </trkpt>
      <trkpt lat="46.39383" lon="-0.44698">
        <ele>11.9295</ele>
        <time>2011-02-27T13:40:42Z</time>
      </trkpt>
      <trkpt lat="46.39384" lon="-0.447">
        <ele>11.9351</ele>
        <time>2011-02-27T13:40:43Z</time>
      </trkpt>
      <trkpt lat="46.39384" lon="-0.44701">
        <ele>11.947</ele>
        <time>2011-02-27T13:40:44Z</time>
      </trkpt>
      <trkpt lat="46.39385" lon="-0.44702">
        <ele>11.9601</ele>
        <time>2011-02-27T13:40:45Z</time>
      </trkpt>
      <trkpt lat="46.39385" lon="-0.44704">
        <ele>11.9727</ele>
        <time>2011-02-27T13:40:46Z</time>
      </trkpt>
      <trkpt lat="46.39385" lon="-0.44706">
        <ele>11.9822</ele>
        <time>2011-02-27T13:40:47Z</time>
      </trkpt>
      <trkpt lat="46.39385" lon="-0.44707">
        <ele>11.9919</ele>
        <time>2011-02-27T13:40:48Z</time>
      </trkpt>
      <trkpt lat="46.39385" lon="-0.44709">
        <ele>11.9939</ele>
        <time>2011-02-27T13:40:49Z</time>
      </trkpt>
      <trkpt lat="46.39385" lon="-0.44711">
        <ele>11.9983</ele>
        <time>2011-02-27T13:40:50Z</time>
      </trkpt>
      <trkpt lat="46.39385" lon="-0.44712">
        <ele>12.0021</ele>
        <time>2011-02-27T13:40:51Z</time>
      </trkpt>
      <trkpt lat="46.39386" lon="-0.44714">
        <ele>12.003</ele>
        <time>2011-02-27T13:40:52Z</time>
      </trkpt>
      <trkpt lat="46.39386" lon="-0.44715">
        <ele>12.0061</ele>
        <time>2011-02-27T13:40:53Z</time>
      </trkpt>
      <trkpt lat="46.39386" lon="-0.44717">
        <ele>12.0134</ele>
        <time>2011-02-27T13:40:54Z</time>
      </trkpt>
      <trkpt lat="46.39386" lon="-0.44718">
        <ele>12.0192</ele>
        <time>2011-02-27T13:40:55Z</time>
      </trkpt>
      <trkpt lat="46.39386" lon="-0.4472">
        <ele>12.0273</ele>
        <time>2011-02-27T13:40:56Z</time>
      </trkpt>
      <trkpt lat="46.39385" lon="-0.44723">
        <ele>12.0318</ele>
        <time>2011-02-27T13:40:57Z</time>
      </trkpt>
      <trkpt lat="46.39386" lon="-0.44725">
        <ele>12.0332</ele>
        <time>2011-02-27T13:40:58Z</time>
      </trkpt>
      <trkpt lat="46.39385" lon="-0.44728">
        <ele>12.0328</ele>
        <time>2011-02-27T13:40:59Z</time>
      </trkpt>
      <trkpt lat="46.39385" lon="-0.4473">
        <ele>12.0371</ele>
        <time>2011-02-27T13:41:00Z</time>
      </trkpt>
      <trkpt lat="46.39385" lon="-0.44731">
        <ele>12.0468</ele>
        <time>2011-02-27T13:41:01Z</time>
      </trkpt>
      <trkpt lat="46.39386" lon="-0.44732">
        <ele>12.0577</ele>
        <time>2011-02-27T13:41:02Z</time>
      </trkpt>
      <trkpt lat="46.39386" lon="-0.44734">
        <ele>12.068</ele>
        <time>2011-02-27T13:41:03Z</time>
      </trkpt>
      <trkpt lat="46.39386" lon="-0.44735">
        <ele>12.0789</ele>
        <time>2011-02-27T13:41:04Z</time>
      </trkpt>
      <trkpt lat="46.39386" lon="-0.44737">
        <ele>12.0945</ele>
        <time>2011-02-27T13:41:05Z</time>
      </trkpt>
      <trkpt lat="46.39386" lon="-0.44738">
        <ele>12.1118</ele>
        <time>2011-02-27T13:41:06Z</time>
      </trkpt>
      <trkpt lat="46.39387" lon="-0.44739">
        <ele>12.1281</ele>
        <time>2011-02-27T13:41:07Z</time>
      </trkpt>
      <trkpt lat="46.39387" lon="-0.44741">
        <ele>12.1447</ele>
        <time>2011-02-27T13:41:08Z</time>
      </trkpt>
      <trkpt lat="46.39388" lon="-0.44742">
        <ele>12.1563</ele>
        <time>2011-02-27T13:41:09Z</time>
      </trkpt>
      <trkpt lat="46.39387" lon="-0.44744">
        <ele>12.1683</ele>
        <time>2011-02-27T13:41:10Z</time>
      </trkpt>
      <trkpt lat="46.39388" lon="-0.44745">
        <ele>12.1835</ele>
        <time>2011-02-27T13:41:11Z</time>
      </trkpt>
      <trkpt lat="46.39388" lon="-0.44746">
        <ele>12.1982</ele>
        <time>2011-02-27T13:41:12Z</time>
      </trkpt>
      <trkpt lat="46.39388" lon="-0.44747">
        <ele>12.2081</ele>
        <time>2011-02-27T13:41:13Z</time>
      </trkpt>
      <trkpt lat="46.39388" lon="-0.44749">
        <ele>12.218</ele>
        <time>2011-02-27T13:41:14Z</time>
      </trkpt>
      <trkpt lat="46.39389" lon="-0.4475">
        <ele>12.2267</ele>
        <time>2011-02-27T13:41:15Z</time>
      </trkpt>
      <trkpt lat="46.39389" lon="-0.44751">
        <ele>12.236</ele>
        <time>2011-02-27T13:41:16Z</time>
      </trkpt>
      <trkpt lat="46.39389" lon="-0.44752">
        <ele>12.245</ele>
        <time>2011-02-27T13:41:17Z</time>
      </trkpt>
      <trkpt lat="46.3939" lon="-0.44753">
        <ele>12.2534</ele>
        <time>2011-02-27T13:41:18Z</time>
      </trkpt>
      <trkpt lat="46.3939" lon="-0.44754">
        <ele>12.2609</ele>
        <time>2011-02-27T13:41:19Z</time>
      </trkpt>
      <trkpt lat="46.39391" lon="-0.44756">
        <ele>12.2677</ele>
        <time>2011-02-27T13:41:20Z</time>
      </trkpt>
      <trkpt lat="46.39391" lon="-0.44757">
        <ele>12.2707</ele>
        <time>2011-02-27T13:41:21Z</time>
      </trkpt>
      <trkpt lat="46.39391" lon="-0.44759">
        <ele>12.2726</ele>
        <time>2011-02-27T13:41:22Z</time>
      </trkpt>
      <trkpt lat="46.39391" lon="-0.4476">
        <ele>12.2756</ele>
        <time>2011-02-27T13:41:23Z</time>
      </trkpt>
      <trkpt lat="46.39391" lon="-0.44762">
        <ele>12.2761</ele>
        <time>2011-02-27T13:41:24Z</time>
      </trkpt>
      <trkpt lat="46.39392" lon="-0.44763">
        <ele>12.2822</ele>
        <time>2011-02-27T13:41:25Z</time>
      </trkpt>
      <trkpt lat="46.39393" lon="-0.44765">
        <ele>12.2915</ele>
        <time>2011-02-27T13:41:26Z</time>
      </trkpt>
      <trkpt lat="46.39393" lon="-0.44766">
        <ele>12.3076</ele>
        <time>2011-02-27T13:41:27Z</time>
      </trkpt>
      <trkpt lat="46.39394" lon="-0.44768">
        <ele>12.3224</ele>
        <time>2011-02-27T13:41:28Z</time>
      </trkpt>
      <trkpt lat="46.39394" lon="-0.4477">
        <ele>12.3405</ele>
        <time>2011-02-27T13:41:29Z</time>
      </trkpt>
      <trkpt lat="46.39394" lon="-0.44771">
        <ele>12.363</ele>
        <time>2011-02-27T13:41:30Z</time>
      </trkpt>
      <trkpt lat="46.39395" lon="-0.44773">
        <ele>12.3774</ele>
        <time>2011-02-27T13:41:31Z</time>
      </trkpt>
      <trkpt lat="46.39395" lon="-0.44775">
        <ele>12.3844</ele>
        <time>2011-02-27T13:41:32Z</time>
      </trkpt>
      <trkpt lat="46.39396" lon="-0.44776">
        <ele>12.3787</ele>
        <time>2011-02-27T13:41:33Z</time>
      </trkpt>
      <trkpt lat="46.39396" lon="-0.44778">
        <ele>12.3623</ele>
        <time>2011-02-27T13:41:34Z</time>
      </trkpt>
      <trkpt lat="46.39396" lon="-0.4478">
        <ele>12.3481</ele>
        <time>2011-02-27T13:41:35Z</time>
      </trkpt>
      <trkpt lat="46.39396" lon="-0.44782">
        <ele>12.3285</ele>
        <time>2011-02-27T13:41:36Z</time>
      </trkpt>
      <trkpt lat="46.39396" lon="-0.44784">
        <ele>12.3124</ele>
        <time>2011-02-27T13:41:37Z</time>
      </trkpt>
      <trkpt lat="46.39396" lon="-0.44786">
        <ele>12.2864</ele>
        <time>2011-02-27T13:41:38Z</time>
      </trkpt>
      <trkpt lat="46.39397" lon="-0.44788">
        <ele>12.261</ele>
        <time>2011-02-27T13:41:39Z</time>
      </trkpt>
      <trkpt lat="46.39397" lon="-0.4479">
        <ele>12.2329</ele>
        <time>2011-02-27T13:41:40Z</time>
      </trkpt>
      <trkpt lat="46.39398" lon="-0.44792">
        <ele>12.2004</ele>
        <time>2011-02-27T13:41:41Z</time>
      </trkpt>
      <trkpt lat="46.39398" lon="-0.44794">
        <ele>12.1647</ele>
        <time>2011-02-27T13:41:42Z</time>
      </trkpt>
      <trkpt lat="46.39399" lon="-0.44796">
        <ele>12.1315</ele>
        <time>2011-02-27T13:41:43Z</time>
      </trkpt>
      <trkpt lat="46.39399" lon="-0.44797">
        <ele>12.0948</ele>
        <time>2011-02-27T13:41:44Z</time>
      </trkpt>
      <trkpt lat="46.394" lon="-0.44799">
        <ele>12.06</ele>
        <time>2011-02-27T13:41:45Z</time>
      </trkpt>
      <trkpt lat="46.394" lon="-0.448">
        <ele>12.0244</ele>
        <time>2011-02-27T13:41:46Z</time>
      </trkpt>
      <trkpt lat="46.39401" lon="-0.44801">
        <ele>11.9895</ele>
        <time>2011-02-27T13:41:47Z</time>
      </trkpt>
      <trkpt lat="46.39401" lon="-0.44803">
        <ele>11.9559</ele>
        <time>2011-02-27T13:41:48Z</time>
      </trkpt>
      <trkpt lat="46.39401" lon="-0.44805">
        <ele>11.9229</ele>
        <time>2011-02-27T13:41:49Z</time>
      </trkpt>
      <trkpt lat="46.39402" lon="-0.44806">
        <ele>11.8939</ele>
        <time>2011-02-27T13:41:50Z</time>
      </trkpt>
      <trkpt lat="46.39403" lon="-0.44808">
        <ele>11.8678</ele>
        <time>2011-02-27T13:41:51Z</time>
      </trkpt>
      <trkpt lat="46.39404" lon="-0.44809">
        <ele>11.843</ele>
        <time>2011-02-27T13:41:52Z</time>
      </trkpt>
      <trkpt lat="46.39405" lon="-0.4481">
        <ele>11.819</ele>
        <time>2011-02-27T13:41:53Z</time>
      </trkpt>
      <trkpt lat="46.39405" lon="-0.44811">
        <ele>11.792</ele>
        <time>2011-02-27T13:41:54Z</time>
      </trkpt>
      <trkpt lat="46.39405" lon="-0.44813">
        <ele>11.7635</ele>
        <time>2011-02-27T13:41:55Z</time>
      </trkpt>
      <trkpt lat="46.39405" lon="-0.44814">
        <ele>11.7356</ele>
        <time>2011-02-27T13:41:56Z</time>
      </trkpt>
      <trkpt lat="46.39407" lon="-0.44816">
        <ele>11.7086</ele>
        <time>2011-02-27T13:41:57Z</time>
      </trkpt>
      <trkpt lat="46.39407" lon="-0.44817">
        <ele>11.6831</ele>
        <time>2011-02-27T13:41:58Z</time>
      </trkpt>
      <trkpt lat="46.39408" lon="-0.44818">
        <ele>11.6606</ele>
        <time>2011-02-27T13:41:59Z</time>
      </trkpt>
      <trkpt lat="46.39409" lon="-0.4482">
        <ele>11.6434</ele>
        <time>2011-02-27T13:42:00Z</time>
      </trkpt>
      <trkpt lat="46.39409" lon="-0.44822">
        <ele>11.627</ele>
        <time>2011-02-27T13:42:01Z</time>
      </trkpt>
      <trkpt lat="46.3941" lon="-0.44823">
        <ele>11.611</ele>
        <time>2011-02-27T13:42:02Z</time>
      </trkpt>
      <trkpt lat="46.3941" lon="-0.44825">
        <ele>11.595</ele>
        <time>2011-02-27T13:42:03Z</time>
      </trkpt>
      <trkpt lat="46.39411" lon="-0.44826">
        <ele>11.5802</ele>
        <time>2011-02-27T13:42:04Z</time>
      </trkpt>
      <trkpt lat="46.39412" lon="-0.44827">
        <ele>11.5646</ele>
        <time>2011-02-27T13:42:05Z</time>
      </trkpt>
      <trkpt lat="46.39413" lon="-0.44828">
        <ele>11.5489</ele>
        <time>2011-02-27T13:42:06Z</time>
      </trkpt>
      <trkpt lat="46.39414" lon="-0.44829">
        <ele>11.5342</ele>
        <time>2011-02-27T13:42:07Z</time>
      </trkpt>
      <trkpt lat="46.39414" lon="-0.4483">
        <ele>11.5167</ele>
        <time>2011-02-27T13:42:08Z</time>
      </trkpt>
      <trkpt lat="46.39415" lon="-0.44831">
        <ele>11.4995</ele>
        <time>2011-02-27T13:42:09Z</time>
      </trkpt>
      <trkpt lat="46.39415" lon="-0.44832">
        <ele>11.4802</ele>
        <time>2011-02-27T13:42:10Z</time>
      </trkpt>
      <trkpt lat="46.39416" lon="-0.44833">
        <ele>11.4632</ele>
        <time>2011-02-27T13:42:11Z</time>
      </trkpt>
      <trkpt lat="46.39416" lon="-0.44835">
        <ele>11.4479</ele>
        <time>2011-02-27T13:42:12Z</time>
      </trkpt>
      <trkpt lat="46.39417" lon="-0.44836">
        <ele>11.4324</ele>
        <time>2011-02-27T13:42:13Z</time>
      </trkpt>
      <trkpt lat="46.39418" lon="-0.44837">
        <ele>11.4181</ele>
        <time>2011-02-27T13:42:14Z</time>
      </trkpt>
      <trkpt lat="46.39418" lon="-0.44838">
        <ele>11.4043</ele>
        <time>2011-02-27T13:42:15Z</time>
      </trkpt>
      <trkpt lat="46.39419" lon="-0.44839">
        <ele>11.3921</ele>
        <time>2011-02-27T13:42:16Z</time>
      </trkpt>
      <trkpt lat="46.3942" lon="-0.4484">
        <ele>11.3793</ele>
        <time>2011-02-27T13:42:17Z</time>
      </trkpt>
      <trkpt lat="46.39421" lon="-0.44841">
        <ele>11.3662</ele>
        <time>2011-02-27T13:42:18Z</time>
      </trkpt>
      <trkpt lat="46.39422" lon="-0.44842">
        <ele>11.3557</ele>
        <time>2011-02-27T13:42:19Z</time>
      </trkpt>
      <trkpt lat="46.39422" lon="-0.44843">
        <ele>11.3433</ele>
        <time>2011-02-27T13:42:20Z</time>
      </trkpt>
      <trkpt lat="46.39423" lon="-0.44844">
        <ele>11.3302</ele>
        <time>2011-02-27T13:42:21Z</time>
      </trkpt>
      <trkpt lat="46.39424" lon="-0.44845">
        <ele>11.3153</ele>
        <time>2011-02-27T13:42:22Z</time>
      </trkpt>
      <trkpt lat="46.39424" lon="-0.44846">
        <ele>11.2979</ele>
        <time>2011-02-27T13:42:23Z</time>
      </trkpt>
      <trkpt lat="46.39425" lon="-0.44847">
        <ele>11.2756</ele>
        <time>2011-02-27T13:42:24Z</time>
      </trkpt>
      <trkpt lat="46.39425" lon="-0.44849">
        <ele>11.2517</ele>
        <time>2011-02-27T13:42:25Z</time>
      </trkpt>
      <trkpt lat="46.39425" lon="-0.4485">
        <ele>11.225</ele>
        <time>2011-02-27T13:42:26Z</time>
      </trkpt>
      <trkpt lat="46.39425" lon="-0.44851">
        <ele>11.1902</ele>
        <time>2011-02-27T13:42:27Z</time>
      </trkpt>
      <trkpt lat="46.39426" lon="-0.44852">
        <ele>11.1546</ele>
        <time>2011-02-27T13:42:28Z</time>
      </trkpt>
      <trkpt lat="46.39426" lon="-0.44853">
        <ele>11.1121</ele>
        <time>2011-02-27T13:42:29Z</time>
      </trkpt>
      <trkpt lat="46.39426" lon="-0.44855">
        <ele>11.0582</ele>
        <time>2011-02-27T13:42:30Z</time>
      </trkpt>
      <trkpt lat="46.39427" lon="-0.44856">
        <ele>11.0067</ele>
        <time>2011-02-27T13:42:31Z</time>
      </trkpt>
      <trkpt lat="46.39428" lon="-0.44857">
        <ele>10.9553</ele>
        <time>2011-02-27T13:42:32Z</time>
      </trkpt>
      <trkpt lat="46.39428" lon="-0.44859">
        <ele>10.9068</ele>
        <time>2011-02-27T13:42:33Z</time>
      </trkpt>
      <trkpt lat="46.39429" lon="-0.4486">
        <ele>10.861</ele>
        <time>2011-02-27T13:42:34Z</time>
      </trkpt>
      <trkpt lat="46.39429" lon="-0.44862">
        <ele>10.8165</ele>
        <time>2011-02-27T13:42:35Z</time>
      </trkpt>
      <trkpt lat="46.3943" lon="-0.44863">
        <ele>10.772</ele>
        <time>2011-02-27T13:42:36Z</time>
      </trkpt>
      <trkpt lat="46.3943" lon="-0.44865">
        <ele>10.7301</ele>
        <time>2011-02-27T13:42:37Z</time>
      </trkpt>
      <trkpt lat="46.3943" lon="-0.44867">
        <ele>10.689</ele>
        <time>2011-02-27T13:42:38Z</time>
      </trkpt>
      <trkpt lat="46.39431" lon="-0.44868">
        <ele>10.6451</ele>
        <time>2011-02-27T13:42:39Z</time>
      </trkpt>
      <trkpt lat="46.39431" lon="-0.4487">
        <ele>10.5994</ele>
        <time>2011-02-27T13:42:40Z</time>
      </trkpt>
      <trkpt lat="46.39431" lon="-0.44872">
        <ele>10.5561</ele>
        <time>2011-02-27T13:42:41Z</time>
      </trkpt>
      <trkpt lat="46.39432" lon="-0.44873">
        <ele>10.508</ele>
        <time>2011-02-27T13:42:42Z</time>
      </trkpt>
      <trkpt lat="46.39433" lon="-0.44875">
        <ele>10.4754</ele>
        <time>2011-02-27T13:42:43Z</time>
      </trkpt>
      <trkpt lat="46.39434" lon="-0.44877">
        <ele>10.4722</ele>
        <time>2011-02-27T13:42:44Z</time>
      </trkpt>
      <trkpt lat="46.39436" lon="-0.4488">
        <ele>10.4725</ele>
        <time>2011-02-27T13:42:45Z</time>
      </trkpt>
      <trkpt lat="46.39438" lon="-0.44882">
        <ele>10.4782</ele>
        <time>2011-02-27T13:42:46Z</time>
      </trkpt>
      <trkpt lat="46.39439" lon="-0.44884">
        <ele>10.483</ele>
        <time>2011-02-27T13:42:47Z</time>
      </trkpt>
      <trkpt lat="46.39439" lon="-0.44885">
        <ele>10.4915</ele>
        <time>2011-02-27T13:42:48Z</time>
      </trkpt>
      <trkpt lat="46.3944" lon="-0.44887">
        <ele>10.5032</ele>
        <time>2011-02-27T13:42:49Z</time>
      </trkpt>
      <trkpt lat="46.39441" lon="-0.44889">
        <ele>10.5166</ele>
        <time>2011-02-27T13:42:50Z</time>
      </trkpt>
      <trkpt lat="46.39441" lon="-0.4489">
        <ele>10.5316</ele>
        <time>2011-02-27T13:42:51Z</time>
      </trkpt>
      <trkpt lat="46.39442" lon="-0.44892">
        <ele>10.5447</ele>
        <time>2011-02-27T13:42:52Z</time>
      </trkpt>
      <trkpt lat="46.39443" lon="-0.44897">
        <ele>10.4537</ele>
        <time>2011-02-27T13:42:57Z</time>
      </trkpt>
      <trkpt lat="46.39444" lon="-0.44898">
        <ele>10.4092</ele>
        <time>2011-02-27T13:42:58Z</time>
      </trkpt>
      <trkpt lat="46.39444" lon="-0.44899">
        <ele>10.3602</ele>
        <time>2011-02-27T13:42:59Z</time>
      </trkpt>
      <trkpt lat="46.39444" lon="-0.449">
        <ele>10.3086</ele>
        <time>2011-02-27T13:43:00Z</time>
      </trkpt>
      <trkpt lat="46.39444" lon="-0.44901">
        <ele>10.2564</ele>
        <time>2011-02-27T13:43:01Z</time>
      </trkpt>
      <trkpt lat="46.39444" lon="-0.44902">
        <ele>10.1925</ele>
        <time>2011-02-27T13:43:02Z</time>
      </trkpt>
      <trkpt lat="46.39444" lon="-0.44904">
        <ele>10.1281</ele>
        <time>2011-02-27T13:43:03Z</time>
      </trkpt>
      <trkpt lat="46.39445" lon="-0.44905">
        <ele>10.0645</ele>
        <time>2011-02-27T13:43:04Z</time>
      </trkpt>
      <trkpt lat="46.39445" lon="-0.44906">
        <ele>10.0016</ele>
        <time>2011-02-27T13:43:05Z</time>
      </trkpt>
      <trkpt lat="46.39445" lon="-0.44908">
        <ele>9.9432</ele>
        <time>2011-02-27T13:43:06Z</time>
      </trkpt>
      <trkpt lat="46.39445" lon="-0.44909">
        <ele>9.8917</ele>
        <time>2011-02-27T13:43:07Z</time>
      </trkpt>
      <trkpt lat="46.39445" lon="-0.44917">
        <ele>9.5575</ele>
        <time>2011-02-27T13:43:13Z</time>
      </trkpt>
      <trkpt lat="46.39446" lon="-0.44923">
        <ele>9.3051</ele>
        <time>2011-02-27T13:43:17Z</time>
      </trkpt>
      <trkpt lat="46.39445" lon="-0.44927">
        <ele>9.1651</ele>
        <time>2011-02-27T13:43:19Z</time>
      </trkpt>
      <trkpt lat="46.39444" lon="-0.44929">
        <ele>9.0922</ele>
        <time>2011-02-27T13:43:20Z</time>
      </trkpt>
      <trkpt lat="46.39444" lon="-0.44932">
        <ele>9.0133</ele>
        <time>2011-02-27T13:43:21Z</time>
      </trkpt>
      <trkpt lat="46.39443" lon="-0.44936">
        <ele>8.8515</ele>
        <time>2011-02-27T13:43:23Z</time>
      </trkpt>
      <trkpt lat="46.39443" lon="-0.44939">
        <ele>8.6889</ele>
        <time>2011-02-27T13:43:25Z</time>
      </trkpt>
      <trkpt lat="46.39443" lon="-0.44941">
        <ele>8.6028</ele>
        <time>2011-02-27T13:43:26Z</time>
      </trkpt>
      <trkpt lat="46.39443" lon="-0.44942">
        <ele>8.512</ele>
        <time>2011-02-27T13:43:27Z</time>
      </trkpt>
      <trkpt lat="46.39444" lon="-0.44944">
        <ele>8.4279</ele>
        <time>2011-02-27T13:43:28Z</time>
      </trkpt>
      <trkpt lat="46.39444" lon="-0.44946">
        <ele>8.2884</ele>
        <time>2011-02-27T13:43:30Z</time>
      </trkpt>
      <trkpt lat="46.39445" lon="-0.44948">
        <ele>8.2319</ele>
        <time>2011-02-27T13:43:31Z</time>
      </trkpt>
      <trkpt lat="46.39446" lon="-0.44949">
        <ele>8.1771</ele>
        <time>2011-02-27T13:43:32Z</time>
      </trkpt>
      <trkpt lat="46.39446" lon="-0.44951">
        <ele>8.1277</ele>
        <time>2011-02-27T13:43:33Z</time>
      </trkpt>
      <trkpt lat="46.39446" lon="-0.44953">
        <ele>8.0743</ele>
        <time>2011-02-27T13:43:34Z</time>
      </trkpt>
      <trkpt lat="46.39446" lon="-0.44955">
        <ele>8.0138</ele>
        <time>2011-02-27T13:43:35Z</time>
      </trkpt>
      <trkpt lat="46.39446" lon="-0.44958">
        <ele>7.9631</ele>
        <time>2011-02-27T13:43:36Z</time>
      </trkpt>
      <trkpt lat="46.39446" lon="-0.4496">
        <ele>7.9094</ele>
        <time>2011-02-27T13:43:37Z</time>
      </trkpt>
      <trkpt lat="46.39446" lon="-0.44962">
        <ele>7.8595</ele>
        <time>2011-02-27T13:43:38Z</time>
      </trkpt>
      <trkpt lat="46.39446" lon="-0.44964">
        <ele>7.8108</ele>
        <time>2011-02-27T13:43:39Z</time>
      </trkpt>
      <trkpt lat="46.39447" lon="-0.44965">
        <ele>7.7673</ele>
        <time>2011-02-27T13:43:40Z</time>
      </trkpt>
      <trkpt lat="46.39447" lon="-0.44967">
        <ele>7.7206</ele>
        <time>2011-02-27T13:43:41Z</time>
      </trkpt>
      <trkpt lat="46.39447" lon="-0.44968">
        <ele>7.6765</ele>
        <time>2011-02-27T13:43:42Z</time>
      </trkpt>
      <trkpt lat="46.39448" lon="-0.4497">
        <ele>7.6324</ele>
        <time>2011-02-27T13:43:43Z</time>
      </trkpt>
      <trkpt lat="46.39448" lon="-0.44972">
        <ele>7.591</ele>
        <time>2011-02-27T13:43:44Z</time>
      </trkpt>
      <trkpt lat="46.39449" lon="-0.44973">
        <ele>7.5528</ele>
        <time>2011-02-27T13:43:45Z</time>
      </trkpt>
      <trkpt lat="46.3945" lon="-0.44974">
        <ele>7.5154</ele>
        <time>2011-02-27T13:43:46Z</time>
      </trkpt>
      <trkpt lat="46.3945" lon="-0.44976">
        <ele>7.4726</ele>
        <time>2011-02-27T13:43:47Z</time>
      </trkpt>
      <trkpt lat="46.39451" lon="-0.44977">
        <ele>7.4292</ele>
        <time>2011-02-27T13:43:48Z</time>
      </trkpt>
      <trkpt lat="46.39451" lon="-0.44979">
        <ele>7.3886</ele>
        <time>2011-02-27T13:43:49Z</time>
      </trkpt>
      <trkpt lat="46.39453" lon="-0.44985">
        <ele>7.24</ele>
        <time>2011-02-27T13:43:54Z</time>
      </trkpt>
      <trkpt lat="46.39453" lon="-0.44988">
        <ele>7.1548</ele>
        <time>2011-02-27T13:43:56Z</time>
      </trkpt>
      <trkpt lat="46.39454" lon="-0.4499">
        <ele>7.1181</ele>
        <time>2011-02-27T13:43:57Z</time>
      </trkpt>
      <trkpt lat="46.39454" lon="-0.44992">
        <ele>7.0881</ele>
        <time>2011-02-27T13:43:58Z</time>
      </trkpt>
      <trkpt lat="46.39454" lon="-0.44994">
        <ele>7.0648</ele>
        <time>2011-02-27T13:43:59Z</time>
      </trkpt>
      <trkpt lat="46.39455" lon="-0.44996">
        <ele>7.056</ele>
        <time>2011-02-27T13:44:00Z</time>
      </trkpt>
      <trkpt lat="46.39455" lon="-0.44998">
        <ele>7.0628</ele>
        <time>2011-02-27T13:44:01Z</time>
      </trkpt>
      <trkpt lat="46.39457" lon="-0.44999">
        <ele>7.0788</ele>
        <time>2011-02-27T13:44:02Z</time>
      </trkpt>
      <trkpt lat="46.39458" lon="-0.45001">
        <ele>7.1045</ele>
        <time>2011-02-27T13:44:03Z</time>
      </trkpt>
      <trkpt lat="46.39459" lon="-0.45003">
        <ele>7.1318</ele>
        <time>2011-02-27T13:44:04Z</time>
      </trkpt>
      <trkpt lat="46.3946" lon="-0.45004">
        <ele>7.1633</ele>
        <time>2011-02-27T13:44:05Z</time>
      </trkpt>
      <trkpt lat="46.3946" lon="-0.45006">
        <ele>7.1953</ele>
        <time>2011-02-27T13:44:06Z</time>
      </trkpt>
      <trkpt lat="46.3946" lon="-0.45007">
        <ele>7.2243</ele>
        <time>2011-02-27T13:44:07Z</time>
      </trkpt>
      <trkpt lat="46.3946" lon="-0.45009">
        <ele>7.2539</ele>
        <time>2011-02-27T13:44:08Z</time>
      </trkpt>
      <trkpt lat="46.3946" lon="-0.4501">
        <ele>7.2842</ele>
        <time>2011-02-27T13:44:09Z</time>
      </trkpt>
      <trkpt lat="46.3946" lon="-0.45011">
        <ele>7.3188</ele>
        <time>2011-02-27T13:44:10Z</time>
      </trkpt>
      <trkpt lat="46.39459" lon="-0.45013">
        <ele>7.3643</ele>
        <time>2011-02-27T13:44:11Z</time>
      </trkpt>
      <trkpt lat="46.39459" lon="-0.45014">
        <ele>7.424</ele>
        <time>2011-02-27T13:44:12Z</time>
      </trkpt>
      <trkpt lat="46.39458" lon="-0.45015">
        <ele>7.4862</ele>
        <time>2011-02-27T13:44:13Z</time>
      </trkpt>
      <trkpt lat="46.39457" lon="-0.45016">
        <ele>7.5506</ele>
        <time>2011-02-27T13:44:14Z</time>
      </trkpt>
      <trkpt lat="46.39456" lon="-0.45016">
        <ele>7.6095</ele>
        <time>2011-02-27T13:44:15Z</time>
      </trkpt>
      <trkpt lat="46.39455" lon="-0.45017">
        <ele>7.6677</ele>
        <time>2011-02-27T13:44:16Z</time>
      </trkpt>
      <trkpt lat="46.39454" lon="-0.45018">
        <ele>7.7163</ele>
        <time>2011-02-27T13:44:17Z</time>
      </trkpt>
      <trkpt lat="46.39452" lon="-0.45018">
        <ele>7.7643</ele>
        <time>2011-02-27T13:44:18Z</time>
      </trkpt>
      <trkpt lat="46.39452" lon="-0.45019">
        <ele>7.8061</ele>
        <time>2011-02-27T13:44:19Z</time>
      </trkpt>
      <trkpt lat="46.39451" lon="-0.45019">
        <ele>7.8417</ele>
        <time>2011-02-27T13:44:20Z</time>
      </trkpt>
      <trkpt lat="46.39449" lon="-0.45019">
        <ele>7.8776</ele>
        <time>2011-02-27T13:44:21Z</time>
      </trkpt>
      <trkpt lat="46.39448" lon="-0.45019">
        <ele>7.9072</ele>
        <time>2011-02-27T13:44:22Z</time>
      </trkpt>
      <trkpt lat="46.39444" lon="-0.45018">
        <ele>7.9875</ele>
        <time>2011-02-27T13:44:34Z</time>
      </trkpt>
      <trkpt lat="46.39439" lon="-0.45018">
        <ele>7.9748</ele>
        <time>2011-02-27T13:44:40Z</time>
      </trkpt>
      <trkpt lat="46.39444" lon="-0.45021">
        <ele>7.9619</ele>
        <time>2011-02-27T13:44:55Z</time>
      </trkpt>
      <trkpt lat="46.39439" lon="-0.4502">
        <ele>7.6751</ele>
        <time>2011-02-27T13:45:17Z</time>
      </trkpt>
      <trkpt lat="46.39444" lon="-0.45017">
        <ele>7.4026</ele>
        <time>2011-02-27T13:45:37Z</time>
      </trkpt>
      <trkpt lat="46.39439" lon="-0.45014">
        <ele>6.9959</ele>
        <time>2011-02-27T13:46:13Z</time>
      </trkpt>
      <trkpt lat="46.39435" lon="-0.45017">
        <ele>6.7866</ele>
        <time>2011-02-27T13:46:23Z</time>
      </trkpt>
      <trkpt lat="46.39436" lon="-0.45022">
        <ele>6.4907</ele>
        <time>2011-02-27T13:46:38Z</time>
      </trkpt>
      <trkpt lat="46.39436" lon="-0.45022">
        <ele>6.4861</ele>
        <time>2011-02-27T13:46:39Z</time>
      </trkpt>
      <trkpt lat="46.39435" lon="-0.45023">
        <ele>6.499</ele>
        <time>2011-02-27T13:46:40Z</time>
      </trkpt>
      <trkpt lat="46.39434" lon="-0.45023">
        <ele>6.5214</ele>
        <time>2011-02-27T13:46:41Z</time>
      </trkpt>
      <trkpt lat="46.39434" lon="-0.45023">
        <ele>6.5523</ele>
        <time>2011-02-27T13:46:42Z</time>
      </trkpt>
      <trkpt lat="46.39433" lon="-0.45022">
        <ele>6.6108</ele>
        <time>2011-02-27T13:46:43Z</time>
      </trkpt>
      <trkpt lat="46.39432" lon="-0.45021">
        <ele>6.6985</ele>
        <time>2011-02-27T13:46:44Z</time>
      </trkpt>
      <trkpt lat="46.39431" lon="-0.4502">
        <ele>6.8145</ele>
        <time>2011-02-27T13:46:45Z</time>
      </trkpt>
      <trkpt lat="46.39431" lon="-0.45019">
        <ele>6.9544</ele>
        <time>2011-02-27T13:46:46Z</time>
      </trkpt>
      <trkpt lat="46.3943" lon="-0.45018">
        <ele>7.1222</ele>
        <time>2011-02-27T13:46:47Z</time>
      </trkpt>
      <trkpt lat="46.39429" lon="-0.45018">
        <ele>7.3038</ele>
        <time>2011-02-27T13:46:48Z</time>
      </trkpt>
      <trkpt lat="46.39428" lon="-0.45017">
        <ele>7.4902</ele>
        <time>2011-02-27T13:46:49Z</time>
      </trkpt>
      <trkpt lat="46.39427" lon="-0.45017">
        <ele>7.6802</ele>
        <time>2011-02-27T13:46:50Z</time>
      </trkpt>
      <trkpt lat="46.39426" lon="-0.45016">
        <ele>7.8711</ele>
        <time>2011-02-27T13:46:51Z</time>
      </trkpt>
      <trkpt lat="46.39425" lon="-0.45016">
        <ele>8.0593</ele>
        <time>2011-02-27T13:46:52Z</time>
      </trkpt>
      <trkpt lat="46.39425" lon="-0.45015">
        <ele>8.252</ele>
        <time>2011-02-27T13:46:53Z</time>
      </trkpt>
      <trkpt lat="46.39424" lon="-0.45015">
        <ele>8.4449</ele>
        <time>2011-02-27T13:46:54Z</time>
      </trkpt>
      <trkpt lat="46.39423" lon="-0.45015">
        <ele>8.6342</ele>
        <time>2011-02-27T13:46:55Z</time>
      </trkpt>
      <trkpt lat="46.39422" lon="-0.45015">
        <ele>8.8226</ele>
        <time>2011-02-27T13:46:56Z</time>
      </trkpt>
      <trkpt lat="46.39421" lon="-0.45015">
        <ele>9.0022</ele>
        <time>2011-02-27T13:46:57Z</time>
      </trkpt>
      <trkpt lat="46.3942" lon="-0.45015">
        <ele>9.1788</ele>
        <time>2011-02-27T13:46:58Z</time>
      </trkpt>
      <trkpt lat="46.39419" lon="-0.45015">
        <ele>9.3558</ele>
        <time>2011-02-27T13:46:59Z</time>
      </trkpt>
      <trkpt lat="46.39418" lon="-0.45016">
        <ele>9.5291</ele>
        <time>2011-02-27T13:47:00Z</time>
      </trkpt>
      <trkpt lat="46.39417" lon="-0.45016">
        <ele>9.6996</ele>
        <time>2011-02-27T13:47:01Z</time>
      </trkpt>
      <trkpt lat="46.39415" lon="-0.45016">
        <ele>9.867</ele>
        <time>2011-02-27T13:47:02Z</time>
      </trkpt>
      <trkpt lat="46.39412" lon="-0.45018">
        <ele>10.3503</ele>
        <time>2011-02-27T13:47:06Z</time>
      </trkpt>
      <trkpt lat="46.39411" lon="-0.45018">
        <ele>10.4861</ele>
        <time>2011-02-27T13:47:07Z</time>
      </trkpt>
      <trkpt lat="46.3941" lon="-0.45018">
        <ele>10.6211</ele>
        <time>2011-02-27T13:47:08Z</time>
      </trkpt>
      <trkpt lat="46.39409" lon="-0.45018">
        <ele>10.7512</ele>
        <time>2011-02-27T13:47:09Z</time>
      </trkpt>
      <trkpt lat="46.39407" lon="-0.45018">
        <ele>10.8767</ele>
        <time>2011-02-27T13:47:10Z</time>
      </trkpt>
      <trkpt lat="46.39406" lon="-0.45018">
        <ele>10.9975</ele>
        <time>2011-02-27T13:47:11Z</time>
      </trkpt>
      <trkpt lat="46.39405" lon="-0.45019">
        <ele>11.1146</ele>
        <time>2011-02-27T13:47:12Z</time>
      </trkpt>
      <trkpt lat="46.39403" lon="-0.45019">
        <ele>11.2258</ele>
        <time>2011-02-27T13:47:13Z</time>
      </trkpt>
      <trkpt lat="46.39402" lon="-0.45019">
        <ele>11.3325</ele>
        <time>2011-02-27T13:47:14Z</time>
      </trkpt>
      <trkpt lat="46.39401" lon="-0.4502">
        <ele>11.4363</ele>
        <time>2011-02-27T13:47:15Z</time>
      </trkpt>
      <trkpt lat="46.39399" lon="-0.4502">
        <ele>11.5407</ele>
        <time>2011-02-27T13:47:16Z</time>
      </trkpt>
      <trkpt lat="46.39398" lon="-0.4502">
        <ele>11.6428</ele>
        <time>2011-02-27T13:47:17Z</time>
      </trkpt>
      <trkpt lat="46.39397" lon="-0.45021">
        <ele>11.742</ele>
        <time>2011-02-27T13:47:18Z</time>
      </trkpt>
      <trkpt lat="46.39396" lon="-0.45021">
        <ele>11.8392</ele>
        <time>2011-02-27T13:47:19Z</time>
      </trkpt>
      <trkpt lat="46.39395" lon="-0.45022">
        <ele>11.9329</ele>
        <time>2011-02-27T13:47:20Z</time>
      </trkpt>
      <trkpt lat="46.39394" lon="-0.45023">
        <ele>12.0253</ele>
        <time>2011-02-27T13:47:21Z</time>
      </trkpt>
      <trkpt lat="46.39393" lon="-0.45024">
        <ele>12.1173</ele>
        <time>2011-02-27T13:47:22Z</time>
      </trkpt>
      <trkpt lat="46.39392" lon="-0.45024">
        <ele>12.2098</ele>
        <time>2011-02-27T13:47:23Z</time>
      </trkpt>
      <trkpt lat="46.39391" lon="-0.45025">
        <ele>12.3023</ele>
        <time>2011-02-27T13:47:24Z</time>
      </trkpt>
      <trkpt lat="46.3939" lon="-0.45026">
        <ele>12.3945</ele>
        <time>2011-02-27T13:47:25Z</time>
      </trkpt>
      <trkpt lat="46.39389" lon="-0.45027">
        <ele>12.4823</ele>
        <time>2011-02-27T13:47:26Z</time>
      </trkpt>
      <trkpt lat="46.39388" lon="-0.45027">
        <ele>12.5681</ele>
        <time>2011-02-27T13:47:27Z</time>
      </trkpt>
      <trkpt lat="46.39387" lon="-0.45028">
        <ele>12.6511</ele>
        <time>2011-02-27T13:47:28Z</time>
      </trkpt>
      <trkpt lat="46.39386" lon="-0.45028">
        <ele>12.7302</ele>
        <time>2011-02-27T13:47:29Z</time>
      </trkpt>
      <trkpt lat="46.39385" lon="-0.45029">
        <ele>12.7999</ele>
        <time>2011-02-27T13:47:30Z</time>
      </trkpt>
      <trkpt lat="46.39384" lon="-0.45029">
        <ele>12.862</ele>
        <time>2011-02-27T13:47:31Z</time>
      </trkpt>
      <trkpt lat="46.39383" lon="-0.45029">
        <ele>12.9153</ele>
        <time>2011-02-27T13:47:32Z</time>
      </trkpt>
      <trkpt lat="46.39383" lon="-0.4503">
        <ele>12.965</ele>
        <time>2011-02-27T13:47:33Z</time>
      </trkpt>
      <trkpt lat="46.39381" lon="-0.4503">
        <ele>13.0131</ele>
        <time>2011-02-27T13:47:34Z</time>
      </trkpt>
      <trkpt lat="46.39381" lon="-0.45031">
        <ele>13.0596</ele>
        <time>2011-02-27T13:47:35Z</time>
      </trkpt>
      <trkpt lat="46.3938" lon="-0.45031">
        <ele>13.1054</ele>
        <time>2011-02-27T13:47:36Z</time>
      </trkpt>
      <trkpt lat="46.39379" lon="-0.45032">
        <ele>13.1499</ele>
        <time>2011-02-27T13:47:37Z</time>
      </trkpt>
      <trkpt lat="46.39378" lon="-0.45033">
        <ele>13.1934</ele>
        <time>2011-02-27T13:47:38Z</time>
      </trkpt>
      <trkpt lat="46.39377" lon="-0.45033">
        <ele>13.239</ele>
        <time>2011-02-27T13:47:39Z</time>
      </trkpt>
      <trkpt lat="46.39376" lon="-0.45034">
        <ele>13.2833</ele>
        <time>2011-02-27T13:47:40Z</time>
      </trkpt>
      <trkpt lat="46.39375" lon="-0.45035">
        <ele>13.331</ele>
        <time>2011-02-27T13:47:41Z</time>
      </trkpt>
      <trkpt lat="46.39374" lon="-0.45036">
        <ele>13.3832</ele>
        <time>2011-02-27T13:47:42Z</time>
      </trkpt>
      <trkpt lat="46.39372" lon="-0.45038">
        <ele>13.4339</ele>
        <time>2011-02-27T13:47:43Z</time>
      </trkpt>
      <trkpt lat="46.39372" lon="-0.45039">
        <ele>13.4846</ele>
        <time>2011-02-27T13:47:44Z</time>
      </trkpt>
      <trkpt lat="46.39371" lon="-0.4504">
        <ele>13.5298</ele>
        <time>2011-02-27T13:47:45Z</time>
      </trkpt>
      <trkpt lat="46.3937" lon="-0.4504">
        <ele>13.5718</ele>
        <time>2011-02-27T13:47:46Z</time>
      </trkpt>
      <trkpt lat="46.39369" lon="-0.4504">
        <ele>13.6089</ele>
        <time>2011-02-27T13:47:47Z</time>
      </trkpt>
      <trkpt lat="46.39368" lon="-0.4504">
        <ele>13.642</ele>
        <time>2011-02-27T13:47:48Z</time>
      </trkpt>
      <trkpt lat="46.39367" lon="-0.45041">
        <ele>14.2707</ele>
        <time>2011-02-27T13:47:58Z</time>
      </trkpt>
      <trkpt lat="46.39366" lon="-0.45042">
        <ele>14.4381</ele>
        <time>2011-02-27T13:47:59Z</time>
      </trkpt>
      <trkpt lat="46.39365" lon="-0.45042">
        <ele>14.6026</ele>
        <time>2011-02-27T13:48:00Z</time>
      </trkpt>
      <trkpt lat="46.39365" lon="-0.45042">
        <ele>14.7695</ele>
        <time>2011-02-27T13:48:01Z</time>
      </trkpt>
      <trkpt lat="46.39365" lon="-0.45042">
        <ele>14.9205</ele>
        <time>2011-02-27T13:48:02Z</time>
      </trkpt>
      <trkpt lat="46.39363" lon="-0.45041">
        <ele>15.1695</ele>
        <time>2011-02-27T13:48:07Z</time>
      </trkpt>
      <trkpt lat="46.39362" lon="-0.45041">
        <ele>15.5382</ele>
        <time>2011-02-27T13:48:09Z</time>
      </trkpt>
      <trkpt lat="46.3936" lon="-0.45041">
        <ele>15.7218</ele>
        <time>2011-02-27T13:48:10Z</time>
      </trkpt>
      <trkpt lat="46.39356" lon="-0.45042">
        <ele>16.8655</ele>
        <time>2011-02-27T13:48:16Z</time>
      </trkpt>
      <trkpt lat="46.39355" lon="-0.45042">
        <ele>17.0542</ele>
        <time>2011-02-27T13:48:17Z</time>
      </trkpt>
      <trkpt lat="46.39354" lon="-0.45042">
        <ele>17.2366</ele>
        <time>2011-02-27T13:48:18Z</time>
      </trkpt>
      <trkpt lat="46.39353" lon="-0.45043">
        <ele>17.4145</ele>
        <time>2011-02-27T13:48:19Z</time>
      </trkpt>
      <trkpt lat="46.39352" lon="-0.45043">
        <ele>17.5911</ele>
        <time>2011-02-27T13:48:20Z</time>
      </trkpt>
      <trkpt lat="46.39351" lon="-0.45043">
        <ele>17.7731</ele>
        <time>2011-02-27T13:48:21Z</time>
      </trkpt>
      <trkpt lat="46.3935" lon="-0.45043">
        <ele>17.9604</ele>
        <time>2011-02-27T13:48:22Z</time>
      </trkpt>
      <trkpt lat="46.39348" lon="-0.45043">
        <ele>18.1521</ele>
        <time>2011-02-27T13:48:23Z</time>
      </trkpt>
      <trkpt lat="46.39347" lon="-0.45043">
        <ele>18.3481</ele>
        <time>2011-02-27T13:48:24Z</time>
      </trkpt>
      <trkpt lat="46.39346" lon="-0.45043">
        <ele>18.5383</ele>
        <time>2011-02-27T13:48:25Z</time>
      </trkpt>
      <trkpt lat="46.39345" lon="-0.45043">
        <ele>18.7201</ele>
        <time>2011-02-27T13:48:26Z</time>
      </trkpt>
      <trkpt lat="46.39344" lon="-0.45044">
        <ele>18.8975</ele>
        <time>2011-02-27T13:48:27Z</time>
      </trkpt>
      <trkpt lat="46.39343" lon="-0.45044">
        <ele>19.0673</ele>
        <time>2011-02-27T13:48:28Z</time>
      </trkpt>
      <trkpt lat="46.39342" lon="-0.45045">
        <ele>19.2362</ele>
        <time>2011-02-27T13:48:29Z</time>
      </trkpt>
      <trkpt lat="46.39341" lon="-0.45045">
        <ele>19.4009</ele>
        <time>2011-02-27T13:48:30Z</time>
      </trkpt>
      <trkpt lat="46.3934" lon="-0.45046">
        <ele>19.565</ele>
        <time>2011-02-27T13:48:31Z</time>
      </trkpt>
      <trkpt lat="46.39339" lon="-0.45047">
        <ele>19.7236</ele>
        <time>2011-02-27T13:48:32Z</time>
      </trkpt>
      <trkpt lat="46.39338" lon="-0.4505">
        <ele>20.3118</ele>
        <time>2011-02-27T13:48:39Z</time>
      </trkpt>
      <trkpt lat="46.39338" lon="-0.4505">
        <ele>20.429</ele>
        <time>2011-02-27T13:48:40Z</time>
      </trkpt>
      <trkpt lat="46.39336" lon="-0.4505">
        <ele>20.658</ele>
        <time>2011-02-27T13:48:42Z</time>
      </trkpt>
      <trkpt lat="46.39336" lon="-0.45051">
        <ele>20.7732</ele>
        <time>2011-02-27T13:48:43Z</time>
      </trkpt>
      <trkpt lat="46.39333" lon="-0.45054">
        <ele>21.2428</ele>
        <time>2011-02-27T13:48:48Z</time>
      </trkpt>
      <trkpt lat="46.39331" lon="-0.45054">
        <ele>21.348</ele>
        <time>2011-02-27T13:48:49Z</time>
      </trkpt>
      <trkpt lat="46.39331" lon="-0.45055">
        <ele>21.4587</ele>
        <time>2011-02-27T13:48:50Z</time>
      </trkpt>
      <trkpt lat="46.3933" lon="-0.45055">
        <ele>21.5706</ele>
        <time>2011-02-27T13:48:51Z</time>
      </trkpt>
      <trkpt lat="46.39325" lon="-0.45056">
        <ele>22.2831</ele>
        <time>2011-02-27T13:48:57Z</time>
      </trkpt>
      <trkpt lat="46.3932" lon="-0.45057">
        <ele>22.7598</ele>
        <time>2011-02-27T13:49:01Z</time>
      </trkpt>
      <trkpt lat="46.39319" lon="-0.45058">
        <ele>22.8643</ele>
        <time>2011-02-27T13:49:02Z</time>
      </trkpt>
      <trkpt lat="46.39315" lon="-0.45062">
        <ele>22.9711</ele>
        <time>2011-02-27T13:49:05Z</time>
      </trkpt>
      <trkpt lat="46.39313" lon="-0.45064">
        <ele>22.9539</ele>
        <time>2011-02-27T13:49:06Z</time>
      </trkpt>
      <trkpt lat="46.3931" lon="-0.45067">
        <ele>22.9208</ele>
        <time>2011-02-27T13:49:08Z</time>
      </trkpt>
      <trkpt lat="46.39308" lon="-0.45068">
        <ele>22.905</ele>
        <time>2011-02-27T13:49:09Z</time>
      </trkpt>
      <trkpt lat="46.39307" lon="-0.45069">
        <ele>22.8891</ele>
        <time>2011-02-27T13:49:10Z</time>
      </trkpt>
      <trkpt lat="46.39306" lon="-0.4507">
        <ele>22.8735</ele>
        <time>2011-02-27T13:49:11Z</time>
      </trkpt>
      <trkpt lat="46.39304" lon="-0.45072">
        <ele>22.8193</ele>
        <time>2011-02-27T13:49:15Z</time>
      </trkpt>
      <trkpt lat="46.39303" lon="-0.45073">
        <ele>22.7958</ele>
        <time>2011-02-27T13:49:16Z</time>
      </trkpt>
      <trkpt lat="46.39302" lon="-0.45073">
        <ele>22.7545</ele>
        <time>2011-02-27T13:49:17Z</time>
      </trkpt>
      <trkpt lat="46.39301" lon="-0.45074">
        <ele>22.7151</ele>
        <time>2011-02-27T13:49:18Z</time>
      </trkpt>
      <trkpt lat="46.39299" lon="-0.45075">
        <ele>22.6803</ele>
        <time>2011-02-27T13:49:19Z</time>
      </trkpt>
      <trkpt lat="46.39298" lon="-0.45075">
        <ele>22.6456</ele>
        <time>2011-02-27T13:49:20Z</time>
      </trkpt>
      <trkpt lat="46.39297" lon="-0.45076">
        <ele>22.616</ele>
        <time>2011-02-27T13:49:21Z</time>
      </trkpt>
      <trkpt lat="46.39296" lon="-0.45077">
        <ele>22.5912</ele>
        <time>2011-02-27T13:49:22Z</time>
      </trkpt>
      <trkpt lat="46.39294" lon="-0.45077">
        <ele>22.5644</ele>
        <time>2011-02-27T13:49:23Z</time>
      </trkpt>
      <trkpt lat="46.39293" lon="-0.45077">
        <ele>22.5328</ele>
        <time>2011-02-27T13:49:24Z</time>
      </trkpt>
      <trkpt lat="46.39291" lon="-0.45077">
        <ele>22.491</ele>
        <time>2011-02-27T13:49:25Z</time>
      </trkpt>
      <trkpt lat="46.3929" lon="-0.45078">
        <ele>22.4355</ele>
        <time>2011-02-27T13:49:26Z</time>
      </trkpt>
      <trkpt lat="46.39288" lon="-0.45078">
        <ele>22.3789</ele>
        <time>2011-02-27T13:49:27Z</time>
      </trkpt>
      <trkpt lat="46.39286" lon="-0.45078">
        <ele>22.3181</ele>
        <time>2011-02-27T13:49:28Z</time>
      </trkpt>
      <trkpt lat="46.39285" lon="-0.45079">
        <ele>22.2371</ele>
        <time>2011-02-27T13:49:29Z</time>
      </trkpt>
      <trkpt lat="46.39283" lon="-0.4508">
        <ele>22.1605</ele>
        <time>2011-02-27T13:49:30Z</time>
      </trkpt>
      <trkpt lat="46.39282" lon="-0.4508">
        <ele>22.0845</ele>
        <time>2011-02-27T13:49:31Z</time>
      </trkpt>
      <trkpt lat="46.3928" lon="-0.45081">
        <ele>22.0139</ele>
        <time>2011-02-27T13:49:32Z</time>
      </trkpt>
      <trkpt lat="46.39279" lon="-0.45082">
        <ele>21.9455</ele>
        <time>2011-02-27T13:49:33Z</time>
      </trkpt>
      <trkpt lat="46.39275" lon="-0.45085">
        <ele>21.683</ele>
        <time>2011-02-27T13:49:38Z</time>
      </trkpt>
      <trkpt lat="46.39274" lon="-0.45085">
        <ele>21.6256</ele>
        <time>2011-02-27T13:49:39Z</time>
      </trkpt>
      <trkpt lat="46.39273" lon="-0.45086">
        <ele>21.5721</ele>
        <time>2011-02-27T13:49:40Z</time>
      </trkpt>
      <trkpt lat="46.39272" lon="-0.45086">
        <ele>21.5224</ele>
        <time>2011-02-27T13:49:41Z</time>
      </trkpt>
      <trkpt lat="46.39271" lon="-0.45087">
        <ele>21.4752</ele>
        <time>2011-02-27T13:49:42Z</time>
      </trkpt>
      <trkpt lat="46.3927" lon="-0.45087">
        <ele>21.4254</ele>
        <time>2011-02-27T13:49:43Z</time>
      </trkpt>
      <trkpt lat="46.39269" lon="-0.45088">
        <ele>21.3744</ele>
        <time>2011-02-27T13:49:44Z</time>
      </trkpt>
      <trkpt lat="46.39268" lon="-0.45088">
        <ele>21.3246</ele>
        <time>2011-02-27T13:49:45Z</time>
      </trkpt>
      <trkpt lat="46.39267" lon="-0.45089">
        <ele>21.2768</ele>
        <time>2011-02-27T13:49:46Z</time>
      </trkpt>
      <trkpt lat="46.39266" lon="-0.45089">
        <ele>21.2313</ele>
        <time>2011-02-27T13:49:47Z</time>
      </trkpt>
      <trkpt lat="46.39265" lon="-0.45089">
        <ele>21.1892</ele>
        <time>2011-02-27T13:49:48Z</time>
      </trkpt>
      <trkpt lat="46.39264" lon="-0.45089">
        <ele>21.1513</ele>
        <time>2011-02-27T13:49:49Z</time>
      </trkpt>
      <trkpt lat="46.39263" lon="-0.45089">
        <ele>21.1138</ele>
        <time>2011-02-27T13:49:50Z</time>
      </trkpt>
      <trkpt lat="46.39259" lon="-0.45092">
        <ele>20.8079</ele>
        <time>2011-02-27T13:49:54Z</time>
      </trkpt>
      <trkpt lat="46.39257" lon="-0.45093">
        <ele>20.6846</ele>
        <time>2011-02-27T13:49:55Z</time>
      </trkpt>
      <trkpt lat="46.39256" lon="-0.45095">
        <ele>20.533</ele>
        <time>2011-02-27T13:49:56Z</time>
      </trkpt>
      <trkpt lat="46.39254" lon="-0.45096">
        <ele>20.384</ele>
        <time>2011-02-27T13:49:57Z</time>
      </trkpt>
      <trkpt lat="46.39253" lon="-0.45098">
        <ele>20.2111</ele>
        <time>2011-02-27T13:49:58Z</time>
      </trkpt>
      <trkpt lat="46.39249" lon="-0.45102">
        <ele>19.5695</ele>
        <time>2011-02-27T13:50:02Z</time>
      </trkpt>
      <trkpt lat="46.39248" lon="-0.45102">
        <ele>19.4162</ele>
        <time>2011-02-27T13:50:03Z</time>
      </trkpt>
      <trkpt lat="46.39247" lon="-0.45103">
        <ele>19.2672</ele>
        <time>2011-02-27T13:50:04Z</time>
      </trkpt>
      <trkpt lat="46.39246" lon="-0.45103">
        <ele>19.1273</ele>
        <time>2011-02-27T13:50:05Z</time>
      </trkpt>
      <trkpt lat="46.39245" lon="-0.45103">
        <ele>18.9921</ele>
        <time>2011-02-27T13:50:06Z</time>
      </trkpt>
      <trkpt lat="46.39242" lon="-0.45104">
        <ele>18.8635</ele>
        <time>2011-02-27T13:50:07Z</time>
      </trkpt>
      <trkpt lat="46.39241" lon="-0.45104">
        <ele>18.7432</ele>
        <time>2011-02-27T13:50:08Z</time>
      </trkpt>
      <trkpt lat="46.39241" lon="-0.45104">
        <ele>18.6208</ele>
        <time>2011-02-27T13:50:09Z</time>
      </trkpt>
      <trkpt lat="46.39239" lon="-0.45104">
        <ele>18.5149</ele>
        <time>2011-02-27T13:50:10Z</time>
      </trkpt>
      <trkpt lat="46.39238" lon="-0.45104">
        <ele>18.4226</ele>
        <time>2011-02-27T13:50:11Z</time>
      </trkpt>
      <trkpt lat="46.39237" lon="-0.45104">
        <ele>18.3036</ele>
        <time>2011-02-27T13:50:12Z</time>
      </trkpt>
      <trkpt lat="46.39235" lon="-0.45105">
        <ele>18.1729</ele>
        <time>2011-02-27T13:50:13Z</time>
      </trkpt>
      <trkpt lat="46.39233" lon="-0.45105">
        <ele>18.0315</ele>
        <time>2011-02-27T13:50:14Z</time>
      </trkpt>
      <trkpt lat="46.39231" lon="-0.45106">
        <ele>17.898</ele>
        <time>2011-02-27T13:50:15Z</time>
      </trkpt>
      <trkpt lat="46.3923" lon="-0.45107">
        <ele>17.7609</ele>
        <time>2011-02-27T13:50:16Z</time>
      </trkpt>
      <trkpt lat="46.39228" lon="-0.45108">
        <ele>17.6334</ele>
        <time>2011-02-27T13:50:17Z</time>
      </trkpt>
      <trkpt lat="46.39227" lon="-0.45108">
        <ele>17.4992</ele>
        <time>2011-02-27T13:50:18Z</time>
      </trkpt>
      <trkpt lat="46.39226" lon="-0.4511">
        <ele>17.3578</ele>
        <time>2011-02-27T13:50:19Z</time>
      </trkpt>
      <trkpt lat="46.39225" lon="-0.45111">
        <ele>17.2271</ele>
        <time>2011-02-27T13:50:20Z</time>
      </trkpt>
      <trkpt lat="46.39224" lon="-0.45111">
        <ele>17.1057</ele>
        <time>2011-02-27T13:50:21Z</time>
      </trkpt>
      <trkpt lat="46.39223" lon="-0.45112">
        <ele>16.9916</ele>
        <time>2011-02-27T13:50:22Z</time>
      </trkpt>
      <trkpt lat="46.39222" lon="-0.45112">
        <ele>16.8843</ele>
        <time>2011-02-27T13:50:23Z</time>
      </trkpt>
      <trkpt lat="46.39221" lon="-0.45112">
        <ele>16.7835</ele>
        <time>2011-02-27T13:50:24Z</time>
      </trkpt>
      <trkpt lat="46.3922" lon="-0.45113">
        <ele>16.6869</ele>
        <time>2011-02-27T13:50:25Z</time>
      </trkpt>
      <trkpt lat="46.39219" lon="-0.45113">
        <ele>16.5981</ele>
        <time>2011-02-27T13:50:26Z</time>
      </trkpt>
      <trkpt lat="46.39219" lon="-0.45114">
        <ele>16.5152</ele>
        <time>2011-02-27T13:50:27Z</time>
      </trkpt>
      <trkpt lat="46.39218" lon="-0.45114">
        <ele>16.4382</ele>
        <time>2011-02-27T13:50:28Z</time>
      </trkpt>
      <trkpt lat="46.39217" lon="-0.45114">
        <ele>16.3629</ele>
        <time>2011-02-27T13:50:29Z</time>
      </trkpt>
      <trkpt lat="46.39216" lon="-0.45114">
        <ele>16.2882</ele>
        <time>2011-02-27T13:50:30Z</time>
      </trkpt>
      <trkpt lat="46.39216" lon="-0.45115">
        <ele>16.2139</ele>
        <time>2011-02-27T13:50:31Z</time>
      </trkpt>
      <trkpt lat="46.39215" lon="-0.45115">
        <ele>16.1417</ele>
        <time>2011-02-27T13:50:32Z</time>
      </trkpt>
      <trkpt lat="46.39214" lon="-0.45115">
        <ele>16.0716</ele>
        <time>2011-02-27T13:50:33Z</time>
      </trkpt>
      <trkpt lat="46.39213" lon="-0.45116">
        <ele>16.0061</ele>
        <time>2011-02-27T13:50:34Z</time>
      </trkpt>
      <trkpt lat="46.39212" lon="-0.45117">
        <ele>15.9501</ele>
        <time>2011-02-27T13:50:35Z</time>
      </trkpt>
      <trkpt lat="46.39212" lon="-0.45117">
        <ele>15.9072</ele>
        <time>2011-02-27T13:50:36Z</time>
      </trkpt>
      <trkpt lat="46.39211" lon="-0.45118">
        <ele>15.8734</ele>
        <time>2011-02-27T13:50:37Z</time>
      </trkpt>
      <trkpt lat="46.3921" lon="-0.45118">
        <ele>15.8472</ele>
        <time>2011-02-27T13:50:38Z</time>
      </trkpt>
      <trkpt lat="46.39209" lon="-0.45118">
        <ele>15.8215</ele>
        <time>2011-02-27T13:50:39Z</time>
      </trkpt>
      <trkpt lat="46.39208" lon="-0.45118">
        <ele>15.7992</ele>
        <time>2011-02-27T13:50:40Z</time>
      </trkpt>
      <trkpt lat="46.39208" lon="-0.45118">
        <ele>15.7778</ele>
        <time>2011-02-27T13:50:41Z</time>
      </trkpt>
      <trkpt lat="46.39207" lon="-0.45118">
        <ele>15.7558</ele>
        <time>2011-02-27T13:50:42Z</time>
      </trkpt>
      <trkpt lat="46.39206" lon="-0.45119">
        <ele>15.7346</ele>
        <time>2011-02-27T13:50:43Z</time>
      </trkpt>
      <trkpt lat="46.39205" lon="-0.45119">
        <ele>15.714</ele>
        <time>2011-02-27T13:50:44Z</time>
      </trkpt>
      <trkpt lat="46.39204" lon="-0.4512">
        <ele>15.6943</ele>
        <time>2011-02-27T13:50:45Z</time>
      </trkpt>
      <trkpt lat="46.39203" lon="-0.4512">
        <ele>15.6786</ele>
        <time>2011-02-27T13:50:46Z</time>
      </trkpt>
      <trkpt lat="46.39202" lon="-0.45121">
        <ele>15.6674</ele>
        <time>2011-02-27T13:50:47Z</time>
      </trkpt>
      <trkpt lat="46.39201" lon="-0.45121">
        <ele>15.6577</ele>
        <time>2011-02-27T13:50:48Z</time>
      </trkpt>
      <trkpt lat="46.39201" lon="-0.45122">
        <ele>15.6476</ele>
        <time>2011-02-27T13:50:49Z</time>
      </trkpt>
      <trkpt lat="46.39199" lon="-0.45122">
        <ele>15.64</ele>
        <time>2011-02-27T13:50:50Z</time>
      </trkpt>
      <trkpt lat="46.39198" lon="-0.45123">
        <ele>15.6341</ele>
        <time>2011-02-27T13:50:51Z</time>
      </trkpt>
      <trkpt lat="46.39198" lon="-0.45123">
        <ele>15.63</ele>
        <time>2011-02-27T13:50:52Z</time>
      </trkpt>
      <trkpt lat="46.39196" lon="-0.45123">
        <ele>15.6312</ele>
        <time>2011-02-27T13:50:53Z</time>
      </trkpt>
      <trkpt lat="46.39195" lon="-0.45123">
        <ele>15.6344</ele>
        <time>2011-02-27T13:50:54Z</time>
      </trkpt>
      <trkpt lat="46.39194" lon="-0.45123">
        <ele>15.6359</ele>
        <time>2011-02-27T13:50:55Z</time>
      </trkpt>
      <trkpt lat="46.39193" lon="-0.45124">
        <ele>15.6347</ele>
        <time>2011-02-27T13:50:56Z</time>
      </trkpt>
      <trkpt lat="46.39192" lon="-0.45124">
        <ele>15.631</ele>
        <time>2011-02-27T13:50:57Z</time>
      </trkpt>
      <trkpt lat="46.39191" lon="-0.45125">
        <ele>15.6035</ele>
        <time>2011-02-27T13:50:58Z</time>
      </trkpt>
      <trkpt lat="46.3919" lon="-0.45126">
        <ele>15.5729</ele>
        <time>2011-02-27T13:50:59Z</time>
      </trkpt>
      <trkpt lat="46.39189" lon="-0.45127">
        <ele>15.5346</ele>
        <time>2011-02-27T13:51:00Z</time>
      </trkpt>
      <trkpt lat="46.39188" lon="-0.45128">
        <ele>15.4966</ele>
        <time>2011-02-27T13:51:01Z</time>
      </trkpt>
      <trkpt lat="46.39187" lon="-0.45129">
        <ele>15.4515</ele>
        <time>2011-02-27T13:51:02Z</time>
      </trkpt>
      <trkpt lat="46.39185" lon="-0.4513">
        <ele>15.3926</ele>
        <time>2011-02-27T13:51:03Z</time>
      </trkpt>
      <trkpt lat="46.39183" lon="-0.45131">
        <ele>15.3319</ele>
        <time>2011-02-27T13:51:04Z</time>
      </trkpt>
      <trkpt lat="46.39182" lon="-0.45131">
        <ele>15.2693</ele>
        <time>2011-02-27T13:51:05Z</time>
      </trkpt>
      <trkpt lat="46.39181" lon="-0.45132">
        <ele>15.2</ele>
        <time>2011-02-27T13:51:06Z</time>
      </trkpt>
      <trkpt lat="46.3918" lon="-0.45133">
        <ele>15.1325</ele>
        <time>2011-02-27T13:51:07Z</time>
      </trkpt>
      <trkpt lat="46.39179" lon="-0.45134">
        <ele>15.0756</ele>
        <time>2011-02-27T13:51:08Z</time>
      </trkpt>
      <trkpt lat="46.39177" lon="-0.45134">
        <ele>15.0322</ele>
        <time>2011-02-27T13:51:09Z</time>
      </trkpt>
      <trkpt lat="46.39176" lon="-0.45135">
        <ele>14.9964</ele>
        <time>2011-02-27T13:51:10Z</time>
      </trkpt>
      <trkpt lat="46.39175" lon="-0.45135">
        <ele>14.9724</ele>
        <time>2011-02-27T13:51:11Z</time>
      </trkpt>
      <trkpt lat="46.39174" lon="-0.45135">
        <ele>14.9548</ele>
        <time>2011-02-27T13:51:12Z</time>
      </trkpt>
      <trkpt lat="46.39172" lon="-0.45136">
        <ele>14.9387</ele>
        <time>2011-02-27T13:51:13Z</time>
      </trkpt>
      <trkpt lat="46.39172" lon="-0.45136">
        <ele>14.9274</ele>
        <time>2011-02-27T13:51:14Z</time>
      </trkpt>
      <trkpt lat="46.39171" lon="-0.45137">
        <ele>14.9205</ele>
        <time>2011-02-27T13:51:15Z</time>
      </trkpt>
      <trkpt lat="46.39169" lon="-0.45138">
        <ele>14.9164</ele>
        <time>2011-02-27T13:51:16Z</time>
      </trkpt>
      <trkpt lat="46.39168" lon="-0.45138">
        <ele>14.9126</ele>
        <time>2011-02-27T13:51:17Z</time>
      </trkpt>
      <trkpt lat="46.39167" lon="-0.45139">
        <ele>14.9133</ele>
        <time>2011-02-27T13:51:18Z</time>
      </trkpt>
      <trkpt lat="46.39166" lon="-0.4514">
        <ele>14.9188</ele>
        <time>2011-02-27T13:51:19Z</time>
      </trkpt>
      <trkpt lat="46.39166" lon="-0.45141">
        <ele>14.9248</ele>
        <time>2011-02-27T13:51:20Z</time>
      </trkpt>
      <trkpt lat="46.39164" lon="-0.45141">
        <ele>14.9318</ele>
        <time>2011-02-27T13:51:21Z</time>
      </trkpt>
      <trkpt lat="46.39162" lon="-0.45143">
        <ele>14.9513</ele>
        <time>2011-02-27T13:51:24Z</time>
      </trkpt>
      <trkpt lat="46.39158" lon="-0.45146">
        <ele>14.9488</ele>
        <time>2011-02-27T13:51:32Z</time>
      </trkpt>
      <trkpt lat="46.39155" lon="-0.4515">
        <ele>14.9183</ele>
        <time>2011-02-27T13:51:40Z</time>
      </trkpt>
      <trkpt lat="46.39152" lon="-0.45156">
        <ele>14.639</ele>
        <time>2011-02-27T13:51:47Z</time>
      </trkpt>
      <trkpt lat="46.39148" lon="-0.4516">
        <ele>14.441</ele>
        <time>2011-02-27T13:51:52Z</time>
      </trkpt>
      <trkpt lat="46.39147" lon="-0.45161">
        <ele>14.3899</ele>
        <time>2011-02-27T13:51:53Z</time>
      </trkpt>
      <trkpt lat="46.39146" lon="-0.45162">
        <ele>14.3426</ele>
        <time>2011-02-27T13:51:54Z</time>
      </trkpt>
      <trkpt lat="46.39145" lon="-0.45163">
        <ele>14.2999</ele>
        <time>2011-02-27T13:51:55Z</time>
      </trkpt>
      <trkpt lat="46.39143" lon="-0.45163">
        <ele>14.2655</ele>
        <time>2011-02-27T13:51:56Z</time>
      </trkpt>
      <trkpt lat="46.39143" lon="-0.45164">
        <ele>14.2382</ele>
        <time>2011-02-27T13:51:57Z</time>
      </trkpt>
      <trkpt lat="46.39138" lon="-0.45166">
        <ele>14.323</ele>
        <time>2011-02-27T13:52:10Z</time>
      </trkpt>
      <trkpt lat="46.39134" lon="-0.45168">
        <ele>14.3908</ele>
        <time>2011-02-27T13:52:15Z</time>
      </trkpt>
      <trkpt lat="46.39133" lon="-0.45169">
        <ele>14.3935</ele>
        <time>2011-02-27T13:52:16Z</time>
      </trkpt>
      <trkpt lat="46.39132" lon="-0.45169">
        <ele>14.3932</ele>
        <time>2011-02-27T13:52:17Z</time>
      </trkpt>
      <trkpt lat="46.39131" lon="-0.4517">
        <ele>14.3932</ele>
        <time>2011-02-27T13:52:18Z</time>
      </trkpt>
      <trkpt lat="46.3913" lon="-0.4517">
        <ele>14.3938</ele>
        <time>2011-02-27T13:52:19Z</time>
      </trkpt>
      <trkpt lat="46.39129" lon="-0.45171">
        <ele>14.3936</ele>
        <time>2011-02-27T13:52:20Z</time>
      </trkpt>
      <trkpt lat="46.39125" lon="-0.45174">
        <ele>14.3627</ele>
        <time>2011-02-27T13:52:27Z</time>
      </trkpt>
      <trkpt lat="46.39121" lon="-0.45176">
        <ele>14.3429</ele>
        <time>2011-02-27T13:52:32Z</time>
      </trkpt>
      <trkpt lat="46.3912" lon="-0.45177">
        <ele>14.3417</ele>
        <time>2011-02-27T13:52:33Z</time>
      </trkpt>
      <trkpt lat="46.39119" lon="-0.45177">
        <ele>14.3393</ele>
        <time>2011-02-27T13:52:34Z</time>
      </trkpt>
      <trkpt lat="46.39118" lon="-0.45177">
        <ele>14.3348</ele>
        <time>2011-02-27T13:52:35Z</time>
      </trkpt>
      <trkpt lat="46.39117" lon="-0.45177">
        <ele>14.3308</ele>
        <time>2011-02-27T13:52:36Z</time>
      </trkpt>
      <trkpt lat="46.39116" lon="-0.45177">
        <ele>14.3272</ele>
        <time>2011-02-27T13:52:37Z</time>
      </trkpt>
      <trkpt lat="46.39115" lon="-0.45178">
        <ele>14.3235</ele>
        <time>2011-02-27T13:52:38Z</time>
      </trkpt>
      <trkpt lat="46.39114" lon="-0.45178">
        <ele>14.3179</ele>
        <time>2011-02-27T13:52:39Z</time>
      </trkpt>
      <trkpt lat="46.39113" lon="-0.45178">
        <ele>14.3043</ele>
        <time>2011-02-27T13:52:40Z</time>
      </trkpt>
      <trkpt lat="46.39109" lon="-0.45179">
        <ele>14.2551</ele>
        <time>2011-02-27T13:52:42Z</time>
      </trkpt>
      <trkpt lat="46.39108" lon="-0.45179">
        <ele>14.227</ele>
        <time>2011-02-27T13:52:43Z</time>
      </trkpt>
      <trkpt lat="46.39107" lon="-0.45178">
        <ele>14.1984</ele>
        <time>2011-02-27T13:52:44Z</time>
      </trkpt>
      <trkpt lat="46.39105" lon="-0.45178">
        <ele>14.1743</ele>
        <time>2011-02-27T13:52:45Z</time>
      </trkpt>
      <trkpt lat="46.39103" lon="-0.45177">
        <ele>14.1325</ele>
        <time>2011-02-27T13:52:47Z</time>
      </trkpt>
      <trkpt lat="46.39101" lon="-0.45176">
        <ele>14.1126</ele>
        <time>2011-02-27T13:52:48Z</time>
      </trkpt>
      <trkpt lat="46.391" lon="-0.45175">
        <ele>14.0938</ele>
        <time>2011-02-27T13:52:49Z</time>
      </trkpt>
      <trkpt lat="46.39099" lon="-0.45175">
        <ele>14.0715</ele>
        <time>2011-02-27T13:52:50Z</time>
      </trkpt>
      <trkpt lat="46.39098" lon="-0.45174">
        <ele>14.0503</ele>
        <time>2011-02-27T13:52:51Z</time>
      </trkpt>
      <trkpt lat="46.39098" lon="-0.45173">
        <ele>14.0296</ele>
        <time>2011-02-27T13:52:52Z</time>
      </trkpt>
      <trkpt lat="46.39098" lon="-0.45167">
        <ele>13.9451</ele>
        <time>2011-02-27T13:53:09Z</time>
      </trkpt>
      <trkpt lat="46.39097" lon="-0.4516">
        <ele>13.8112</ele>
        <time>2011-02-27T13:53:15Z</time>
      </trkpt>
      <trkpt lat="46.39096" lon="-0.45154">
        <ele>13.7043</ele>
        <time>2011-02-27T13:53:20Z</time>
      </trkpt>
      <trkpt lat="46.39094" lon="-0.45147">
        <ele>13.5309</ele>
        <time>2011-02-27T13:53:27Z</time>
      </trkpt>
      <trkpt lat="46.39092" lon="-0.45141">
        <ele>13.298</ele>
        <time>2011-02-27T13:53:34Z</time>
      </trkpt>
      <trkpt lat="46.39093" lon="-0.45134">
        <ele>12.9102</ele>
        <time>2011-02-27T13:53:48Z</time>
      </trkpt>
      <trkpt lat="46.39093" lon="-0.45132">
        <ele>12.867</ele>
        <time>2011-02-27T13:53:49Z</time>
      </trkpt>
      <trkpt lat="46.39093" lon="-0.45131">
        <ele>12.8261</ele>
        <time>2011-02-27T13:53:50Z</time>
      </trkpt>
      <trkpt lat="46.39093" lon="-0.45129">
        <ele>12.7871</ele>
        <time>2011-02-27T13:53:51Z</time>
      </trkpt>
      <trkpt lat="46.39093" lon="-0.45128">
        <ele>12.7501</ele>
        <time>2011-02-27T13:53:52Z</time>
      </trkpt>
      <trkpt lat="46.39092" lon="-0.45126">
        <ele>12.7114</ele>
        <time>2011-02-27T13:53:53Z</time>
      </trkpt>
      <trkpt lat="46.39092" lon="-0.45124">
        <ele>12.6798</ele>
        <time>2011-02-27T13:53:54Z</time>
      </trkpt>
      <trkpt lat="46.39091" lon="-0.45123">
        <ele>12.6552</ele>
        <time>2011-02-27T13:53:55Z</time>
      </trkpt>
      <trkpt lat="46.39091" lon="-0.45121">
        <ele>12.6297</ele>
        <time>2011-02-27T13:53:56Z</time>
      </trkpt>
      <trkpt lat="46.3909" lon="-0.4512">
        <ele>12.6044</ele>
        <time>2011-02-27T13:53:57Z</time>
      </trkpt>
      <trkpt lat="46.3909" lon="-0.45118">
        <ele>12.5817</ele>
        <time>2011-02-27T13:53:58Z</time>
      </trkpt>
      <trkpt lat="46.3909" lon="-0.45117">
        <ele>12.5589</ele>
        <time>2011-02-27T13:53:59Z</time>
      </trkpt>
      <trkpt lat="46.39089" lon="-0.45116">
        <ele>12.531</ele>
        <time>2011-02-27T13:54:00Z</time>
      </trkpt>
      <trkpt lat="46.39089" lon="-0.45114">
        <ele>12.4991</ele>
        <time>2011-02-27T13:54:01Z</time>
      </trkpt>
      <trkpt lat="46.39088" lon="-0.45113">
        <ele>12.4697</ele>
        <time>2011-02-27T13:54:02Z</time>
      </trkpt>
      <trkpt lat="46.39088" lon="-0.45112">
        <ele>12.4384</ele>
        <time>2011-02-27T13:54:03Z</time>
      </trkpt>
      <trkpt lat="46.39088" lon="-0.4511">
        <ele>12.395</ele>
        <time>2011-02-27T13:54:04Z</time>
      </trkpt>
      <trkpt lat="46.39088" lon="-0.45109">
        <ele>12.3519</ele>
        <time>2011-02-27T13:54:05Z</time>
      </trkpt>
      <trkpt lat="46.39087" lon="-0.45107">
        <ele>12.3031</ele>
        <time>2011-02-27T13:54:06Z</time>
      </trkpt>
      <trkpt lat="46.39087" lon="-0.45106">
        <ele>12.2564</ele>
        <time>2011-02-27T13:54:07Z</time>
      </trkpt>
      <trkpt lat="46.39088" lon="-0.45104">
        <ele>12.2064</ele>
        <time>2011-02-27T13:54:08Z</time>
      </trkpt>
      <trkpt lat="46.39088" lon="-0.45103">
        <ele>12.1559</ele>
        <time>2011-02-27T13:54:09Z</time>
      </trkpt>
      <trkpt lat="46.39088" lon="-0.45102">
        <ele>12.1065</ele>
        <time>2011-02-27T13:54:10Z</time>
      </trkpt>
      <trkpt lat="46.39088" lon="-0.45101">
        <ele>12.054</ele>
        <time>2011-02-27T13:54:11Z</time>
      </trkpt>
      <trkpt lat="46.39088" lon="-0.45099">
        <ele>12.002</ele>
        <time>2011-02-27T13:54:12Z</time>
      </trkpt>
      <trkpt lat="46.39088" lon="-0.45098">
        <ele>11.9451</ele>
        <time>2011-02-27T13:54:13Z</time>
      </trkpt>
      <trkpt lat="46.39088" lon="-0.45097">
        <ele>11.8887</ele>
        <time>2011-02-27T13:54:14Z</time>
      </trkpt>
      <trkpt lat="46.39088" lon="-0.45096">
        <ele>11.8386</ele>
        <time>2011-02-27T13:54:15Z</time>
      </trkpt>
      <trkpt lat="46.39088" lon="-0.45094">
        <ele>11.791</ele>
        <time>2011-02-27T13:54:16Z</time>
      </trkpt>
      <trkpt lat="46.39088" lon="-0.45092">
        <ele>11.6893</ele>
        <time>2011-02-27T13:54:18Z</time>
      </trkpt>
      <trkpt lat="46.39087" lon="-0.45091">
        <ele>11.6389</ele>
        <time>2011-02-27T13:54:19Z</time>
      </trkpt>
      <trkpt lat="46.39087" lon="-0.45089">
        <ele>11.5885</ele>
        <time>2011-02-27T13:54:20Z</time>
      </trkpt>
      <trkpt lat="46.39087" lon="-0.45082">
        <ele>11.2302</ele>
        <time>2011-02-27T13:54:29Z</time>
      </trkpt>
      <trkpt lat="46.39088" lon="-0.45077">
        <ele>11.1016</ele>
        <time>2011-02-27T13:54:33Z</time>
      </trkpt>
      <trkpt lat="46.39088" lon="-0.45075">
        <ele>11.0748</ele>
        <time>2011-02-27T13:54:34Z</time>
      </trkpt>
      <trkpt lat="46.39088" lon="-0.45074">
        <ele>11.0501</ele>
        <time>2011-02-27T13:54:35Z</time>
      </trkpt>
      <trkpt lat="46.39088" lon="-0.45072">
        <ele>11.0256</ele>
        <time>2011-02-27T13:54:36Z</time>
      </trkpt>
      <trkpt lat="46.39088" lon="-0.4507">
        <ele>11.0063</ele>
        <time>2011-02-27T13:54:37Z</time>
      </trkpt>
      <trkpt lat="46.39088" lon="-0.45068">
        <ele>10.9877</ele>
        <time>2011-02-27T13:54:38Z</time>
      </trkpt>
      <trkpt lat="46.39088" lon="-0.45066">
        <ele>10.9752</ele>
        <time>2011-02-27T13:54:39Z</time>
      </trkpt>
      <trkpt lat="46.39088" lon="-0.45064">
        <ele>10.9667</ele>
        <time>2011-02-27T13:54:40Z</time>
      </trkpt>
      <trkpt lat="46.39088" lon="-0.45062">
        <ele>10.9598</ele>
        <time>2011-02-27T13:54:41Z</time>
      </trkpt>
      <trkpt lat="46.39088" lon="-0.4506">
        <ele>10.9564</ele>
        <time>2011-02-27T13:54:42Z</time>
      </trkpt>
      <trkpt lat="46.39088" lon="-0.45058">
        <ele>10.9516</ele>
        <time>2011-02-27T13:54:43Z</time>
      </trkpt>
      <trkpt lat="46.39088" lon="-0.45056">
        <ele>10.9514</ele>
        <time>2011-02-27T13:54:44Z</time>
      </trkpt>
      <trkpt lat="46.39088" lon="-0.45052">
        <ele>10.9685</ele>
        <time>2011-02-27T13:54:46Z</time>
      </trkpt>
      <trkpt lat="46.39088" lon="-0.45049">
        <ele>10.9772</ele>
        <time>2011-02-27T13:54:47Z</time>
      </trkpt>
      <trkpt lat="46.39087" lon="-0.45042">
        <ele>10.9216</ele>
        <time>2011-02-27T13:54:51Z</time>
      </trkpt>
      <trkpt lat="46.39087" lon="-0.45035">
        <ele>10.8375</ele>
        <time>2011-02-27T13:54:57Z</time>
      </trkpt>
      <trkpt lat="46.39087" lon="-0.45034">
        <ele>10.7835</ele>
        <time>2011-02-27T13:54:58Z</time>
      </trkpt>
      <trkpt lat="46.39087" lon="-0.45032">
        <ele>10.7248</ele>
        <time>2011-02-27T13:54:59Z</time>
      </trkpt>
      <trkpt lat="46.39087" lon="-0.45031">
        <ele>10.6678</ele>
        <time>2011-02-27T13:55:00Z</time>
      </trkpt>
      <trkpt lat="46.39087" lon="-0.45029">
        <ele>10.6127</ele>
        <time>2011-02-27T13:55:01Z</time>
      </trkpt>
      <trkpt lat="46.39086" lon="-0.45028">
        <ele>10.5597</ele>
        <time>2011-02-27T13:55:02Z</time>
      </trkpt>
      <trkpt lat="46.39086" lon="-0.45027">
        <ele>10.5117</ele>
        <time>2011-02-27T13:55:03Z</time>
      </trkpt>
      <trkpt lat="46.39086" lon="-0.45025">
        <ele>10.4707</ele>
        <time>2011-02-27T13:55:04Z</time>
      </trkpt>
      <trkpt lat="46.39086" lon="-0.45024">
        <ele>10.4322</ele>
        <time>2011-02-27T13:55:05Z</time>
      </trkpt>
      <trkpt lat="46.39086" lon="-0.45022">
        <ele>10.3688</ele>
        <time>2011-02-27T13:55:07Z</time>
      </trkpt>
      <trkpt lat="46.39086" lon="-0.45021">
        <ele>10.3403</ele>
        <time>2011-02-27T13:55:08Z</time>
      </trkpt>
      <trkpt lat="46.39086" lon="-0.4502">
        <ele>10.3145</ele>
        <time>2011-02-27T13:55:09Z</time>
      </trkpt>
      <trkpt lat="46.39085" lon="-0.45015">
        <ele>10.2795</ele>
        <time>2011-02-27T13:55:18Z</time>
      </trkpt>
      <trkpt lat="46.39085" lon="-0.45014">
        <ele>10.285</ele>
        <time>2011-02-27T13:55:19Z</time>
      </trkpt>
      <trkpt lat="46.39084" lon="-0.45012">
        <ele>10.2997</ele>
        <time>2011-02-27T13:55:20Z</time>
      </trkpt>
      <trkpt lat="46.39084" lon="-0.4501">
        <ele>10.3182</ele>
        <time>2011-02-27T13:55:21Z</time>
      </trkpt>
      <trkpt lat="46.39083" lon="-0.45008">
        <ele>10.341</ele>
        <time>2011-02-27T13:55:22Z</time>
      </trkpt>
      <trkpt lat="46.39082" lon="-0.45006">
        <ele>10.3703</ele>
        <time>2011-02-27T13:55:23Z</time>
      </trkpt>
      <trkpt lat="46.39082" lon="-0.45004">
        <ele>10.4061</ele>
        <time>2011-02-27T13:55:24Z</time>
      </trkpt>
      <trkpt lat="46.39081" lon="-0.45002">
        <ele>10.4469</ele>
        <time>2011-02-27T13:55:25Z</time>
      </trkpt>
      <trkpt lat="46.39081" lon="-0.45">
        <ele>10.4908</ele>
        <time>2011-02-27T13:55:26Z</time>
      </trkpt>
      <trkpt lat="46.39081" lon="-0.44998">
        <ele>10.5454</ele>
        <time>2011-02-27T13:55:27Z</time>
      </trkpt>
      <trkpt lat="46.39081" lon="-0.44995">
        <ele>10.6074</ele>
        <time>2011-02-27T13:55:28Z</time>
      </trkpt>
      <trkpt lat="46.39082" lon="-0.44993">
        <ele>10.6767</ele>
        <time>2011-02-27T13:55:29Z</time>
      </trkpt>
      <trkpt lat="46.39082" lon="-0.4499">
        <ele>10.7441</ele>
        <time>2011-02-27T13:55:30Z</time>
      </trkpt>
      <trkpt lat="46.39082" lon="-0.44988">
        <ele>10.8156</ele>
        <time>2011-02-27T13:55:31Z</time>
      </trkpt>
      <trkpt lat="46.39084" lon="-0.44981">
        <ele>10.962</ele>
        <time>2011-02-27T13:55:35Z</time>
      </trkpt>
      <trkpt lat="46.39085" lon="-0.44977">
        <ele>11.1544</ele>
        <time>2011-02-27T13:55:38Z</time>
      </trkpt>
      <trkpt lat="46.39085" lon="-0.44976">
        <ele>11.2198</ele>
        <time>2011-02-27T13:55:39Z</time>
      </trkpt>
      <trkpt lat="46.39085" lon="-0.44974">
        <ele>11.2877</ele>
        <time>2011-02-27T13:55:40Z</time>
      </trkpt>
      <trkpt lat="46.39086" lon="-0.44972">
        <ele>11.3548</ele>
        <time>2011-02-27T13:55:41Z</time>
      </trkpt>
      <trkpt lat="46.39086" lon="-0.4497">
        <ele>11.4238</ele>
        <time>2011-02-27T13:55:42Z</time>
      </trkpt>
      <trkpt lat="46.39086" lon="-0.44969">
        <ele>11.4934</ele>
        <time>2011-02-27T13:55:43Z</time>
      </trkpt>
      <trkpt lat="46.39087" lon="-0.44967">
        <ele>11.5655</ele>
        <time>2011-02-27T13:55:44Z</time>
      </trkpt>
      <trkpt lat="46.39087" lon="-0.44966">
        <ele>11.6326</ele>
        <time>2011-02-27T13:55:45Z</time>
      </trkpt>
      <trkpt lat="46.39087" lon="-0.44965">
        <ele>11.7078</ele>
        <time>2011-02-27T13:55:46Z</time>
      </trkpt>
      <trkpt lat="46.39087" lon="-0.44963">
        <ele>11.7844</ele>
        <time>2011-02-27T13:55:47Z</time>
      </trkpt>
      <trkpt lat="46.39087" lon="-0.44962">
        <ele>11.8671</ele>
        <time>2011-02-27T13:55:48Z</time>
      </trkpt>
      <trkpt lat="46.39088" lon="-0.44961">
        <ele>11.9507</ele>
        <time>2011-02-27T13:55:49Z</time>
      </trkpt>
      <trkpt lat="46.39088" lon="-0.44959">
        <ele>12.031</ele>
        <time>2011-02-27T13:55:50Z</time>
      </trkpt>
      <trkpt lat="46.39088" lon="-0.44957">
        <ele>12.1071</ele>
        <time>2011-02-27T13:55:51Z</time>
      </trkpt>
      <trkpt lat="46.39088" lon="-0.44955">
        <ele>12.1786</ele>
        <time>2011-02-27T13:55:52Z</time>
      </trkpt>
      <trkpt lat="46.39088" lon="-0.44953">
        <ele>12.2548</ele>
        <time>2011-02-27T13:55:53Z</time>
      </trkpt>
      <trkpt lat="46.39089" lon="-0.44952">
        <ele>12.3369</ele>
        <time>2011-02-27T13:55:54Z</time>
      </trkpt>
      <trkpt lat="46.39089" lon="-0.4495">
        <ele>12.4291</ele>
        <time>2011-02-27T13:55:55Z</time>
      </trkpt>
      <trkpt lat="46.3909" lon="-0.44948">
        <ele>12.5206</ele>
        <time>2011-02-27T13:55:56Z</time>
      </trkpt>
      <trkpt lat="46.3909" lon="-0.44946">
        <ele>12.6058</ele>
        <time>2011-02-27T13:55:57Z</time>
      </trkpt>
      <trkpt lat="46.3909" lon="-0.44945">
        <ele>12.6874</ele>
        <time>2011-02-27T13:55:58Z</time>
      </trkpt>
      <trkpt lat="46.3909" lon="-0.44944">
        <ele>12.7673</ele>
        <time>2011-02-27T13:55:59Z</time>
      </trkpt>
      <trkpt lat="46.3909" lon="-0.44942">
        <ele>12.8461</ele>
        <time>2011-02-27T13:56:00Z</time>
      </trkpt>
      <trkpt lat="46.39091" lon="-0.44941">
        <ele>12.9246</ele>
        <time>2011-02-27T13:56:01Z</time>
      </trkpt>
      <trkpt lat="46.39091" lon="-0.4494">
        <ele>12.9986</ele>
        <time>2011-02-27T13:56:02Z</time>
      </trkpt>
      <trkpt lat="46.39091" lon="-0.44938">
        <ele>13.0697</ele>
        <time>2011-02-27T13:56:03Z</time>
      </trkpt>
      <trkpt lat="46.39091" lon="-0.44937">
        <ele>13.1276</ele>
        <time>2011-02-27T13:56:04Z</time>
      </trkpt>
      <trkpt lat="46.39092" lon="-0.44936">
        <ele>13.1841</ele>
        <time>2011-02-27T13:56:05Z</time>
      </trkpt>
      <trkpt lat="46.39092" lon="-0.44934">
        <ele>13.2383</ele>
        <time>2011-02-27T13:56:06Z</time>
      </trkpt>
      <trkpt lat="46.39092" lon="-0.44933">
        <ele>13.292</ele>
        <time>2011-02-27T13:56:07Z</time>
      </trkpt>
      <trkpt lat="46.39091" lon="-0.44931">
        <ele>13.3475</ele>
        <time>2011-02-27T13:56:08Z</time>
      </trkpt>
      <trkpt lat="46.39091" lon="-0.4493">
        <ele>13.4233</ele>
        <time>2011-02-27T13:56:09Z</time>
      </trkpt>
      <trkpt lat="46.3909" lon="-0.44928">
        <ele>13.5123</ele>
        <time>2011-02-27T13:56:10Z</time>
      </trkpt>
      <trkpt lat="46.39088" lon="-0.44926">
        <ele>13.5981</ele>
        <time>2011-02-27T13:56:11Z</time>
      </trkpt>
      <trkpt lat="46.39088" lon="-0.44924">
        <ele>13.6819</ele>
        <time>2011-02-27T13:56:12Z</time>
      </trkpt>
      <trkpt lat="46.39087" lon="-0.44923">
        <ele>13.7618</ele>
        <time>2011-02-27T13:56:13Z</time>
      </trkpt>
      <trkpt lat="46.39087" lon="-0.44922">
        <ele>13.8389</ele>
        <time>2011-02-27T13:56:14Z</time>
      </trkpt>
      <trkpt lat="46.39086" lon="-0.4492">
        <ele>13.9145</ele>
        <time>2011-02-27T13:56:15Z</time>
      </trkpt>
      <trkpt lat="46.39086" lon="-0.44919">
        <ele>13.9882</ele>
        <time>2011-02-27T13:56:16Z</time>
      </trkpt>
      <trkpt lat="46.39086" lon="-0.44917">
        <ele>14.0605</ele>
        <time>2011-02-27T13:56:17Z</time>
      </trkpt>
      <trkpt lat="46.39083" lon="-0.44913">
        <ele>14.2665</ele>
        <time>2011-02-27T13:56:20Z</time>
      </trkpt>
      <trkpt lat="46.39083" lon="-0.44912">
        <ele>14.3614</ele>
        <time>2011-02-27T13:56:21Z</time>
      </trkpt>
      <trkpt lat="46.39082" lon="-0.4491">
        <ele>14.454</ele>
        <time>2011-02-27T13:56:22Z</time>
      </trkpt>
      <trkpt lat="46.39081" lon="-0.44908">
        <ele>14.5448</ele>
        <time>2011-02-27T13:56:23Z</time>
      </trkpt>
      <trkpt lat="46.3908" lon="-0.44907">
        <ele>14.6313</ele>
        <time>2011-02-27T13:56:24Z</time>
      </trkpt>
      <trkpt lat="46.39079" lon="-0.44905">
        <ele>14.7083</ele>
        <time>2011-02-27T13:56:25Z</time>
      </trkpt>
      <trkpt lat="46.39079" lon="-0.44903">
        <ele>14.7912</ele>
        <time>2011-02-27T13:56:26Z</time>
      </trkpt>
      <trkpt lat="46.39078" lon="-0.44901">
        <ele>14.8788</ele>
        <time>2011-02-27T13:56:27Z</time>
      </trkpt>
      <trkpt lat="46.39076" lon="-0.449">
        <ele>14.972</ele>
        <time>2011-02-27T13:56:28Z</time>
      </trkpt>
      <trkpt lat="46.39075" lon="-0.44897">
        <ele>15.0707</ele>
        <time>2011-02-27T13:56:29Z</time>
      </trkpt>
      <trkpt lat="46.39074" lon="-0.44895">
        <ele>15.1685</ele>
        <time>2011-02-27T13:56:30Z</time>
      </trkpt>
      <trkpt lat="46.39072" lon="-0.44894">
        <ele>15.2692</ele>
        <time>2011-02-27T13:56:31Z</time>
      </trkpt>
      <trkpt lat="46.39072" lon="-0.44892">
        <ele>15.377</ele>
        <time>2011-02-27T13:56:32Z</time>
      </trkpt>
      <trkpt lat="46.39071" lon="-0.4489">
        <ele>15.4853</ele>
        <time>2011-02-27T13:56:33Z</time>
      </trkpt>
      <trkpt lat="46.39071" lon="-0.44888">
        <ele>15.595</ele>
        <time>2011-02-27T13:56:34Z</time>
      </trkpt>
      <trkpt lat="46.3907" lon="-0.44887">
        <ele>15.7004</ele>
        <time>2011-02-27T13:56:35Z</time>
      </trkpt>
      <trkpt lat="46.3907" lon="-0.44885">
        <ele>15.8074</ele>
        <time>2011-02-27T13:56:36Z</time>
      </trkpt>
      <trkpt lat="46.3907" lon="-0.44884">
        <ele>15.9123</ele>
        <time>2011-02-27T13:56:37Z</time>
      </trkpt>
      <trkpt lat="46.3907" lon="-0.44883">
        <ele>16.0157</ele>
        <time>2011-02-27T13:56:38Z</time>
      </trkpt>
      <trkpt lat="46.39069" lon="-0.44881">
        <ele>16.1181</ele>
        <time>2011-02-27T13:56:39Z</time>
      </trkpt>
      <trkpt lat="46.39069" lon="-0.4488">
        <ele>16.2183</ele>
        <time>2011-02-27T13:56:40Z</time>
      </trkpt>
      <trkpt lat="46.39069" lon="-0.44879">
        <ele>16.3163</ele>
        <time>2011-02-27T13:56:41Z</time>
      </trkpt>
      <trkpt lat="46.39069" lon="-0.44877">
        <ele>16.4128</ele>
        <time>2011-02-27T13:56:42Z</time>
      </trkpt>
      <trkpt lat="46.39069" lon="-0.44876">
        <ele>16.5049</ele>
        <time>2011-02-27T13:56:43Z</time>
      </trkpt>
      <trkpt lat="46.39069" lon="-0.44875">
        <ele>16.5972</ele>
        <time>2011-02-27T13:56:44Z</time>
      </trkpt>
      <trkpt lat="46.39069" lon="-0.44873">
        <ele>16.6885</ele>
        <time>2011-02-27T13:56:45Z</time>
      </trkpt>
      <trkpt lat="46.39069" lon="-0.44872">
        <ele>16.7745</ele>
        <time>2011-02-27T13:56:46Z</time>
      </trkpt>
      <trkpt lat="46.39068" lon="-0.44871">
        <ele>16.8577</ele>
        <time>2011-02-27T13:56:47Z</time>
      </trkpt>
      <trkpt lat="46.39068" lon="-0.4487">
        <ele>16.9384</ele>
        <time>2011-02-27T13:56:48Z</time>
      </trkpt>
      <trkpt lat="46.39068" lon="-0.44868">
        <ele>17.0194</ele>
        <time>2011-02-27T13:56:49Z</time>
      </trkpt>
      <trkpt lat="46.39068" lon="-0.44867">
        <ele>17.0994</ele>
        <time>2011-02-27T13:56:50Z</time>
      </trkpt>
      <trkpt lat="46.39068" lon="-0.44865">
        <ele>17.174</ele>
        <time>2011-02-27T13:56:51Z</time>
      </trkpt>
      <trkpt lat="46.39067" lon="-0.44864">
        <ele>17.2487</ele>
        <time>2011-02-27T13:56:52Z</time>
      </trkpt>
      <trkpt lat="46.39067" lon="-0.44863">
        <ele>17.3217</ele>
        <time>2011-02-27T13:56:53Z</time>
      </trkpt>
      <trkpt lat="46.39067" lon="-0.44858">
        <ele>17.5512</ele>
        <time>2011-02-27T13:56:57Z</time>
      </trkpt>
      <trkpt lat="46.39067" lon="-0.44857">
        <ele>17.6188</ele>
        <time>2011-02-27T13:56:58Z</time>
      </trkpt>
      <trkpt lat="46.39067" lon="-0.44855">
        <ele>17.6858</ele>
        <time>2011-02-27T13:56:59Z</time>
      </trkpt>
      <trkpt lat="46.39066" lon="-0.44854">
        <ele>17.7494</ele>
        <time>2011-02-27T13:57:00Z</time>
      </trkpt>
      <trkpt lat="46.39066" lon="-0.44853">
        <ele>17.8167</ele>
        <time>2011-02-27T13:57:01Z</time>
      </trkpt>
      <trkpt lat="46.39066" lon="-0.44851">
        <ele>17.883</ele>
        <time>2011-02-27T13:57:02Z</time>
      </trkpt>
      <trkpt lat="46.39066" lon="-0.4485">
        <ele>17.9499</ele>
        <time>2011-02-27T13:57:03Z</time>
      </trkpt>
      <trkpt lat="46.39066" lon="-0.44848">
        <ele>18.0136</ele>
        <time>2011-02-27T13:57:04Z</time>
      </trkpt>
      <trkpt lat="46.39065" lon="-0.44847">
        <ele>18.0788</ele>
        <time>2011-02-27T13:57:05Z</time>
      </trkpt>
      <trkpt lat="46.39065" lon="-0.44846">
        <ele>18.1421</ele>
        <time>2011-02-27T13:57:06Z</time>
      </trkpt>
      <trkpt lat="46.39065" lon="-0.44844">
        <ele>18.1991</ele>
        <time>2011-02-27T13:57:07Z</time>
      </trkpt>
      <trkpt lat="46.39065" lon="-0.44843">
        <ele>18.2617</ele>
        <time>2011-02-27T13:57:08Z</time>
      </trkpt>
      <trkpt lat="46.39065" lon="-0.44841">
        <ele>18.3319</ele>
        <time>2011-02-27T13:57:09Z</time>
      </trkpt>
      <trkpt lat="46.39065" lon="-0.4484">
        <ele>18.4087</ele>
        <time>2011-02-27T13:57:10Z</time>
      </trkpt>
      <trkpt lat="46.39066" lon="-0.44838">
        <ele>18.4866</ele>
        <time>2011-02-27T13:57:11Z</time>
      </trkpt>
      <trkpt lat="46.39066" lon="-0.44837">
        <ele>18.5639</ele>
        <time>2011-02-27T13:57:12Z</time>
      </trkpt>
      <trkpt lat="46.39066" lon="-0.44835">
        <ele>18.6361</ele>
        <time>2011-02-27T13:57:13Z</time>
      </trkpt>
      <trkpt lat="46.39066" lon="-0.44834">
        <ele>18.7069</ele>
        <time>2011-02-27T13:57:14Z</time>
      </trkpt>
      <trkpt lat="46.39066" lon="-0.44833">
        <ele>18.7743</ele>
        <time>2011-02-27T13:57:15Z</time>
      </trkpt>
      <trkpt lat="46.39066" lon="-0.44832">
        <ele>18.8436</ele>
        <time>2011-02-27T13:57:16Z</time>
      </trkpt>
      <trkpt lat="46.39066" lon="-0.4483">
        <ele>18.9138</ele>
        <time>2011-02-27T13:57:17Z</time>
      </trkpt>
      <trkpt lat="46.39066" lon="-0.44829">
        <ele>18.9777</ele>
        <time>2011-02-27T13:57:18Z</time>
      </trkpt>
      <trkpt lat="46.39066" lon="-0.44828">
        <ele>19.0396</ele>
        <time>2011-02-27T13:57:19Z</time>
      </trkpt>
      <trkpt lat="46.39066" lon="-0.44827">
        <ele>19.0996</ele>
        <time>2011-02-27T13:57:20Z</time>
      </trkpt>
      <trkpt lat="46.39066" lon="-0.44826">
        <ele>19.1642</ele>
        <time>2011-02-27T13:57:21Z</time>
      </trkpt>
      <trkpt lat="46.39065" lon="-0.44825">
        <ele>19.2263</ele>
        <time>2011-02-27T13:57:22Z</time>
      </trkpt>
      <trkpt lat="46.39065" lon="-0.44823">
        <ele>19.2911</ele>
        <time>2011-02-27T13:57:23Z</time>
      </trkpt>
      <trkpt lat="46.39065" lon="-0.44822">
        <ele>19.3538</ele>
        <time>2011-02-27T13:57:24Z</time>
      </trkpt>
      <trkpt lat="46.39065" lon="-0.44821">
        <ele>19.4176</ele>
        <time>2011-02-27T13:57:25Z</time>
      </trkpt>
      <trkpt lat="46.39065" lon="-0.44819">
        <ele>19.4824</ele>
        <time>2011-02-27T13:57:26Z</time>
      </trkpt>
      <trkpt lat="46.39064" lon="-0.44818">
        <ele>19.5426</ele>
        <time>2011-02-27T13:57:27Z</time>
      </trkpt>
      <trkpt lat="46.39064" lon="-0.44816">
        <ele>19.6032</ele>
        <time>2011-02-27T13:57:28Z</time>
      </trkpt>
      <trkpt lat="46.39064" lon="-0.44814">
        <ele>19.655</ele>
        <time>2011-02-27T13:57:29Z</time>
      </trkpt>
      <trkpt lat="46.39064" lon="-0.44813">
        <ele>19.7118</ele>
        <time>2011-02-27T13:57:30Z</time>
      </trkpt>
      <trkpt lat="46.39064" lon="-0.4481">
        <ele>19.7645</ele>
        <time>2011-02-27T13:57:31Z</time>
      </trkpt>
      <trkpt lat="46.39065" lon="-0.44808">
        <ele>19.819</ele>
        <time>2011-02-27T13:57:32Z</time>
      </trkpt>
      <trkpt lat="46.39065" lon="-0.44806">
        <ele>19.8708</ele>
        <time>2011-02-27T13:57:33Z</time>
      </trkpt>
      <trkpt lat="46.39065" lon="-0.44804">
        <ele>19.9236</ele>
        <time>2011-02-27T13:57:34Z</time>
      </trkpt>
      <trkpt lat="46.39065" lon="-0.44802">
        <ele>19.9749</ele>
        <time>2011-02-27T13:57:35Z</time>
      </trkpt>
      <trkpt lat="46.39065" lon="-0.448">
        <ele>20.024</ele>
        <time>2011-02-27T13:57:36Z</time>
      </trkpt>
      <trkpt lat="46.39065" lon="-0.44798">
        <ele>20.0716</ele>
        <time>2011-02-27T13:57:37Z</time>
      </trkpt>
      <trkpt lat="46.39064" lon="-0.44795">
        <ele>20.1124</ele>
        <time>2011-02-27T13:57:38Z</time>
      </trkpt>
      <trkpt lat="46.39064" lon="-0.44793">
        <ele>20.15</ele>
        <time>2011-02-27T13:57:39Z</time>
      </trkpt>
      <trkpt lat="46.39065" lon="-0.44791">
        <ele>20.1781</ele>
        <time>2011-02-27T13:57:40Z</time>
      </trkpt>
      <trkpt lat="46.39065" lon="-0.44789">
        <ele>20.21</ele>
        <time>2011-02-27T13:57:41Z</time>
      </trkpt>
      <trkpt lat="46.39065" lon="-0.44787">
        <ele>20.2474</ele>
        <time>2011-02-27T13:57:42Z</time>
      </trkpt>
      <trkpt lat="46.39065" lon="-0.44786">
        <ele>20.2859</ele>
        <time>2011-02-27T13:57:43Z</time>
      </trkpt>
      <trkpt lat="46.39065" lon="-0.44784">
        <ele>20.3239</ele>
        <time>2011-02-27T13:57:44Z</time>
      </trkpt>
      <trkpt lat="46.39066" lon="-0.44783">
        <ele>20.3596</ele>
        <time>2011-02-27T13:57:45Z</time>
      </trkpt>
      <trkpt lat="46.39066" lon="-0.44781">
        <ele>20.3899</ele>
        <time>2011-02-27T13:57:46Z</time>
      </trkpt>
      <trkpt lat="46.39066" lon="-0.44779">
        <ele>20.4202</ele>
        <time>2011-02-27T13:57:47Z</time>
      </trkpt>
      <trkpt lat="46.39066" lon="-0.44778">
        <ele>20.4517</ele>
        <time>2011-02-27T13:57:48Z</time>
      </trkpt>
      <trkpt lat="46.39066" lon="-0.44776">
        <ele>20.481</ele>
        <time>2011-02-27T13:57:49Z</time>
      </trkpt>
      <trkpt lat="46.39066" lon="-0.44775">
        <ele>20.5123</ele>
        <time>2011-02-27T13:57:50Z</time>
      </trkpt>
      <trkpt lat="46.39066" lon="-0.44772">
        <ele>20.5449</ele>
        <time>2011-02-27T13:57:51Z</time>
      </trkpt>
      <trkpt lat="46.39066" lon="-0.4477">
        <ele>20.5774</ele>
        <time>2011-02-27T13:57:52Z</time>
      </trkpt>
      <trkpt lat="46.39066" lon="-0.44769">
        <ele>20.6112</ele>
        <time>2011-02-27T13:57:53Z</time>
      </trkpt>
      <trkpt lat="46.39066" lon="-0.44767">
        <ele>20.6436</ele>
        <time>2011-02-27T13:57:54Z</time>
      </trkpt>
      <trkpt lat="46.39066" lon="-0.44766">
        <ele>20.6776</ele>
        <time>2011-02-27T13:57:55Z</time>
      </trkpt>
      <trkpt lat="46.39066" lon="-0.44764">
        <ele>20.7116</ele>
        <time>2011-02-27T13:57:56Z</time>
      </trkpt>
      <trkpt lat="46.39066" lon="-0.44763">
        <ele>20.7468</ele>
        <time>2011-02-27T13:57:57Z</time>
      </trkpt>
      <trkpt lat="46.39066" lon="-0.44762">
        <ele>20.7817</ele>
        <time>2011-02-27T13:57:58Z</time>
      </trkpt>
      <trkpt lat="46.39066" lon="-0.44761">
        <ele>20.8194</ele>
        <time>2011-02-27T13:57:59Z</time>
      </trkpt>
      <trkpt lat="46.39066" lon="-0.4476">
        <ele>20.8565</ele>
        <time>2011-02-27T13:58:00Z</time>
      </trkpt>
      <trkpt lat="46.39066" lon="-0.44758">
        <ele>20.892</ele>
        <time>2011-02-27T13:58:01Z</time>
      </trkpt>
      <trkpt lat="46.39065" lon="-0.44757">
        <ele>20.9254</ele>
        <time>2011-02-27T13:58:02Z</time>
      </trkpt>
      <trkpt lat="46.39065" lon="-0.44756">
        <ele>20.9615</ele>
        <time>2011-02-27T13:58:03Z</time>
      </trkpt>
      <trkpt lat="46.39065" lon="-0.44754">
        <ele>20.9958</ele>
        <time>2011-02-27T13:58:04Z</time>
      </trkpt>
      <trkpt lat="46.39065" lon="-0.44753">
        <ele>21.0275</ele>
        <time>2011-02-27T13:58:05Z</time>
      </trkpt>
      <trkpt lat="46.39065" lon="-0.44751">
        <ele>21.0591</ele>
        <time>2011-02-27T13:58:06Z</time>
      </trkpt>
      <trkpt lat="46.39064" lon="-0.44749">
        <ele>21.0876</ele>
        <time>2011-02-27T13:58:07Z</time>
      </trkpt>
      <trkpt lat="46.39064" lon="-0.44748">
        <ele>21.1158</ele>
        <time>2011-02-27T13:58:08Z</time>
      </trkpt>
      <trkpt lat="46.39064" lon="-0.44746">
        <ele>21.1405</ele>
        <time>2011-02-27T13:58:09Z</time>
      </trkpt>
      <trkpt lat="46.39064" lon="-0.44745">
        <ele>21.1662</ele>
        <time>2011-02-27T13:58:10Z</time>
      </trkpt>
      <trkpt lat="46.39064" lon="-0.44743">
        <ele>21.192</ele>
        <time>2011-02-27T13:58:11Z</time>
      </trkpt>
      <trkpt lat="46.39064" lon="-0.44741">
        <ele>21.2195</ele>
        <time>2011-02-27T13:58:12Z</time>
      </trkpt>
      <trkpt lat="46.39065" lon="-0.4474">
        <ele>21.2472</ele>
        <time>2011-02-27T13:58:13Z</time>
      </trkpt>
      <trkpt lat="46.39065" lon="-0.44738">
        <ele>21.2747</ele>
        <time>2011-02-27T13:58:14Z</time>
      </trkpt>
      <trkpt lat="46.39065" lon="-0.44737">
        <ele>21.3012</ele>
        <time>2011-02-27T13:58:15Z</time>
      </trkpt>
      <trkpt lat="46.39066" lon="-0.44736">
        <ele>21.3275</ele>
        <time>2011-02-27T13:58:16Z</time>
      </trkpt>
      <trkpt lat="46.39066" lon="-0.44735">
        <ele>21.3514</ele>
        <time>2011-02-27T13:58:17Z</time>
      </trkpt>
      <trkpt lat="46.39066" lon="-0.44733">
        <ele>21.3741</ele>
        <time>2011-02-27T13:58:18Z</time>
      </trkpt>
      <trkpt lat="46.39066" lon="-0.44732">
        <ele>21.3968</ele>
        <time>2011-02-27T13:58:19Z</time>
      </trkpt>
      <trkpt lat="46.39066" lon="-0.44731">
        <ele>21.4165</ele>
        <time>2011-02-27T13:58:20Z</time>
      </trkpt>
      <trkpt lat="46.39066" lon="-0.44729">
        <ele>21.4358</ele>
        <time>2011-02-27T13:58:21Z</time>
      </trkpt>
      <trkpt lat="46.39066" lon="-0.44728">
        <ele>21.4548</ele>
        <time>2011-02-27T13:58:22Z</time>
      </trkpt>
      <trkpt lat="46.39065" lon="-0.44727">
        <ele>21.4737</ele>
        <time>2011-02-27T13:58:23Z</time>
      </trkpt>
      <trkpt lat="46.39065" lon="-0.44726">
        <ele>21.4739</ele>
        <time>2011-02-27T13:58:24Z</time>
      </trkpt>
      <trkpt lat="46.39065" lon="-0.44724">
        <ele>21.4788</ele>
        <time>2011-02-27T13:58:25Z</time>
      </trkpt>
      <trkpt lat="46.39065" lon="-0.44722">
        <ele>21.4739</ele>
        <time>2011-02-27T13:58:26Z</time>
      </trkpt>
      <trkpt lat="46.39065" lon="-0.44721">
        <ele>21.4682</ele>
        <time>2011-02-27T13:58:27Z</time>
      </trkpt>
      <trkpt lat="46.39064" lon="-0.44719">
        <ele>21.4709</ele>
        <time>2011-02-27T13:58:28Z</time>
      </trkpt>
      <trkpt lat="46.39064" lon="-0.44717">
        <ele>21.487</ele>
        <time>2011-02-27T13:58:29Z</time>
      </trkpt>
      <trkpt lat="46.39064" lon="-0.44715">
        <ele>21.4986</ele>
        <time>2011-02-27T13:58:30Z</time>
      </trkpt>
      <trkpt lat="46.39064" lon="-0.44712">
        <ele>21.5141</ele>
        <time>2011-02-27T13:58:31Z</time>
      </trkpt>
      <trkpt lat="46.39063" lon="-0.44711">
        <ele>21.5439</ele>
        <time>2011-02-27T13:58:32Z</time>
      </trkpt>
      <trkpt lat="46.39063" lon="-0.44708">
        <ele>21.5612</ele>
        <time>2011-02-27T13:58:33Z</time>
      </trkpt>
      <trkpt lat="46.39063" lon="-0.44707">
        <ele>21.5801</ele>
        <time>2011-02-27T13:58:34Z</time>
      </trkpt>
      <trkpt lat="46.39063" lon="-0.44705">
        <ele>21.5969</ele>
        <time>2011-02-27T13:58:35Z</time>
      </trkpt>
      <trkpt lat="46.39063" lon="-0.44704">
        <ele>21.6119</ele>
        <time>2011-02-27T13:58:36Z</time>
      </trkpt>
      <trkpt lat="46.39063" lon="-0.44702">
        <ele>21.6237</ele>
        <time>2011-02-27T13:58:37Z</time>
      </trkpt>
      <trkpt lat="46.39063" lon="-0.44701">
        <ele>21.6355</ele>
        <time>2011-02-27T13:58:38Z</time>
      </trkpt>
      <trkpt lat="46.39064" lon="-0.44698">
        <ele>21.5963</ele>
        <time>2011-02-27T13:58:43Z</time>
      </trkpt>
      <trkpt lat="46.39064" lon="-0.44697">
        <ele>21.5941</ele>
        <time>2011-02-27T13:58:44Z</time>
      </trkpt>
      <trkpt lat="46.39065" lon="-0.44696">
        <ele>21.5928</ele>
        <time>2011-02-27T13:58:45Z</time>
      </trkpt>
      <trkpt lat="46.39065" lon="-0.44695">
        <ele>21.5823</ele>
        <time>2011-02-27T13:58:46Z</time>
      </trkpt>
      <trkpt lat="46.39065" lon="-0.44694">
        <ele>21.5615</ele>
        <time>2011-02-27T13:58:47Z</time>
      </trkpt>
      <trkpt lat="46.39066" lon="-0.44692">
        <ele>21.5287</ele>
        <time>2011-02-27T13:58:48Z</time>
      </trkpt>
      <trkpt lat="46.39066" lon="-0.4469">
        <ele>21.5061</ele>
        <time>2011-02-27T13:58:49Z</time>
      </trkpt>
      <trkpt lat="46.39066" lon="-0.44688">
        <ele>21.5049</ele>
        <time>2011-02-27T13:58:50Z</time>
      </trkpt>
      <trkpt lat="46.39064" lon="-0.44684">
        <ele>21.601</ele>
        <time>2011-02-27T13:58:53Z</time>
      </trkpt>
      <trkpt lat="46.39062" lon="-0.44681">
        <ele>21.7952</ele>
        <time>2011-02-27T13:58:58Z</time>
      </trkpt>
      <trkpt lat="46.39062" lon="-0.4468">
        <ele>21.8218</ele>
        <time>2011-02-27T13:58:59Z</time>
      </trkpt>
      <trkpt lat="46.39061" lon="-0.44679">
        <ele>21.8601</ele>
        <time>2011-02-27T13:59:00Z</time>
      </trkpt>
      <trkpt lat="46.39061" lon="-0.44678">
        <ele>21.8948</ele>
        <time>2011-02-27T13:59:01Z</time>
      </trkpt>
      <trkpt lat="46.39061" lon="-0.44677">
        <ele>21.9248</ele>
        <time>2011-02-27T13:59:02Z</time>
      </trkpt>
      <trkpt lat="46.39061" lon="-0.44676">
        <ele>21.9538</ele>
        <time>2011-02-27T13:59:03Z</time>
      </trkpt>
      <trkpt lat="46.39061" lon="-0.44674">
        <ele>21.993</ele>
        <time>2011-02-27T13:59:04Z</time>
      </trkpt>
      <trkpt lat="46.39061" lon="-0.44673">
        <ele>22.0351</ele>
        <time>2011-02-27T13:59:05Z</time>
      </trkpt>
      <trkpt lat="46.3906" lon="-0.44671">
        <ele>22.0833</ele>
        <time>2011-02-27T13:59:06Z</time>
      </trkpt>
      <trkpt lat="46.39059" lon="-0.44669">
        <ele>22.1303</ele>
        <time>2011-02-27T13:59:07Z</time>
      </trkpt>
      <trkpt lat="46.39059" lon="-0.44667">
        <ele>22.1761</ele>
        <time>2011-02-27T13:59:08Z</time>
      </trkpt>
      <trkpt lat="46.39058" lon="-0.44665">
        <ele>22.2192</ele>
        <time>2011-02-27T13:59:09Z</time>
      </trkpt>
      <trkpt lat="46.39058" lon="-0.44664">
        <ele>22.2617</ele>
        <time>2011-02-27T13:59:10Z</time>
      </trkpt>
      <trkpt lat="46.39058" lon="-0.44662">
        <ele>22.2998</ele>
        <time>2011-02-27T13:59:11Z</time>
      </trkpt>
      <trkpt lat="46.39058" lon="-0.44661">
        <ele>22.3358</ele>
        <time>2011-02-27T13:59:12Z</time>
      </trkpt>
      <trkpt lat="46.39058" lon="-0.44659">
        <ele>22.3685</ele>
        <time>2011-02-27T13:59:13Z</time>
      </trkpt>
      <trkpt lat="46.39058" lon="-0.44657">
        <ele>22.3991</ele>
        <time>2011-02-27T13:59:14Z</time>
      </trkpt>
      <trkpt lat="46.39058" lon="-0.44656">
        <ele>22.4279</ele>
        <time>2011-02-27T13:59:15Z</time>
      </trkpt>
      <trkpt lat="46.39058" lon="-0.44654">
        <ele>22.4481</ele>
        <time>2011-02-27T13:59:16Z</time>
      </trkpt>
      <trkpt lat="46.39059" lon="-0.44653">
        <ele>22.4657</ele>
        <time>2011-02-27T13:59:17Z</time>
      </trkpt>
      <trkpt lat="46.39058" lon="-0.44652">
        <ele>22.4794</ele>
        <time>2011-02-27T13:59:18Z</time>
      </trkpt>
      <trkpt lat="46.39058" lon="-0.44651">
        <ele>22.4884</ele>
        <time>2011-02-27T13:59:19Z</time>
      </trkpt>
      <trkpt lat="46.39058" lon="-0.4465">
        <ele>22.486</ele>
        <time>2011-02-27T13:59:20Z</time>
      </trkpt>
      <trkpt lat="46.39058" lon="-0.44649">
        <ele>22.4854</ele>
        <time>2011-02-27T13:59:21Z</time>
      </trkpt>
      <trkpt lat="46.39059" lon="-0.44647">
        <ele>22.4789</ele>
        <time>2011-02-27T13:59:22Z</time>
      </trkpt>
      <trkpt lat="46.39059" lon="-0.44645">
        <ele>22.4767</ele>
        <time>2011-02-27T13:59:23Z</time>
      </trkpt>
      <trkpt lat="46.39059" lon="-0.44643">
        <ele>22.4774</ele>
        <time>2011-02-27T13:59:24Z</time>
      </trkpt>
      <trkpt lat="46.39059" lon="-0.44641">
        <ele>22.4877</ele>
        <time>2011-02-27T13:59:25Z</time>
      </trkpt>
      <trkpt lat="46.39059" lon="-0.44639">
        <ele>22.4958</ele>
        <time>2011-02-27T13:59:26Z</time>
      </trkpt>
      <trkpt lat="46.39059" lon="-0.44637">
        <ele>22.5036</ele>
        <time>2011-02-27T13:59:27Z</time>
      </trkpt>
      <trkpt lat="46.39059" lon="-0.44635">
        <ele>22.5049</ele>
        <time>2011-02-27T13:59:28Z</time>
      </trkpt>
      <trkpt lat="46.39059" lon="-0.44634">
        <ele>22.501</ele>
        <time>2011-02-27T13:59:29Z</time>
      </trkpt>
      <trkpt lat="46.39059" lon="-0.44632">
        <ele>22.494</ele>
        <time>2011-02-27T13:59:30Z</time>
      </trkpt>
      <trkpt lat="46.39059" lon="-0.44631">
        <ele>22.482</ele>
        <time>2011-02-27T13:59:31Z</time>
      </trkpt>
      <trkpt lat="46.39059" lon="-0.44629">
        <ele>22.4703</ele>
        <time>2011-02-27T13:59:32Z</time>
      </trkpt>
      <trkpt lat="46.39058" lon="-0.44627">
        <ele>22.4568</ele>
        <time>2011-02-27T13:59:33Z</time>
      </trkpt>
      <trkpt lat="46.39058" lon="-0.44626">
        <ele>22.4404</ele>
        <time>2011-02-27T13:59:34Z</time>
      </trkpt>
      <trkpt lat="46.39058" lon="-0.44624">
        <ele>22.4258</ele>
        <time>2011-02-27T13:59:35Z</time>
      </trkpt>
      <trkpt lat="46.39058" lon="-0.44622">
        <ele>22.4135</ele>
        <time>2011-02-27T13:59:36Z</time>
      </trkpt>
      <trkpt lat="46.39058" lon="-0.4462">
        <ele>22.3956</ele>
        <time>2011-02-27T13:59:37Z</time>
      </trkpt>
      <trkpt lat="46.39058" lon="-0.44619">
        <ele>22.3768</ele>
        <time>2011-02-27T13:59:38Z</time>
      </trkpt>
      <trkpt lat="46.39058" lon="-0.44617">
        <ele>22.3595</ele>
        <time>2011-02-27T13:59:39Z</time>
      </trkpt>
      <trkpt lat="46.39058" lon="-0.44616">
        <ele>22.3421</ele>
        <time>2011-02-27T13:59:40Z</time>
      </trkpt>
      <trkpt lat="46.39057" lon="-0.44615">
        <ele>22.3271</ele>
        <time>2011-02-27T13:59:41Z</time>
      </trkpt>
      <trkpt lat="46.39057" lon="-0.44613">
        <ele>22.3207</ele>
        <time>2011-02-27T13:59:42Z</time>
      </trkpt>
      <trkpt lat="46.39057" lon="-0.44612">
        <ele>22.3227</ele>
        <time>2011-02-27T13:59:43Z</time>
      </trkpt>
      <trkpt lat="46.39057" lon="-0.44609">
        <ele>22.3302</ele>
        <time>2011-02-27T13:59:44Z</time>
      </trkpt>
      <trkpt lat="46.39057" lon="-0.44607">
        <ele>22.3412</ele>
        <time>2011-02-27T13:59:45Z</time>
      </trkpt>
      <trkpt lat="46.39057" lon="-0.44605">
        <ele>22.3563</ele>
        <time>2011-02-27T13:59:46Z</time>
      </trkpt>
      <trkpt lat="46.39057" lon="-0.44602">
        <ele>22.3764</ele>
        <time>2011-02-27T13:59:47Z</time>
      </trkpt>
      <trkpt lat="46.39057" lon="-0.44601">
        <ele>22.3988</ele>
        <time>2011-02-27T13:59:48Z</time>
      </trkpt>
      <trkpt lat="46.39056" lon="-0.446">
        <ele>22.4205</ele>
        <time>2011-02-27T13:59:49Z</time>
      </trkpt>
      <trkpt lat="46.39056" lon="-0.44599">
        <ele>22.4422</ele>
        <time>2011-02-27T13:59:50Z</time>
      </trkpt>
      <trkpt lat="46.39056" lon="-0.44597">
        <ele>22.4644</ele>
        <time>2011-02-27T13:59:51Z</time>
      </trkpt>
      <trkpt lat="46.39058" lon="-0.44595">
        <ele>22.486</ele>
        <time>2011-02-27T13:59:52Z</time>
      </trkpt>
      <trkpt lat="46.39058" lon="-0.44593">
        <ele>22.512</ele>
        <time>2011-02-27T13:59:53Z</time>
      </trkpt>
      <trkpt lat="46.39058" lon="-0.44591">
        <ele>22.549</ele>
        <time>2011-02-27T13:59:54Z</time>
      </trkpt>
      <trkpt lat="46.39058" lon="-0.44589">
        <ele>22.5785</ele>
        <time>2011-02-27T13:59:55Z</time>
      </trkpt>
      <trkpt lat="46.39058" lon="-0.44588">
        <ele>22.611</ele>
        <time>2011-02-27T13:59:56Z</time>
      </trkpt>
      <trkpt lat="46.39059" lon="-0.44586">
        <ele>22.645</ele>
        <time>2011-02-27T13:59:57Z</time>
      </trkpt>
      <trkpt lat="46.39059" lon="-0.44585">
        <ele>22.708</ele>
        <time>2011-02-27T13:59:58Z</time>
      </trkpt>
      <trkpt lat="46.39059" lon="-0.44582">
        <ele>22.7919</ele>
        <time>2011-02-27T13:59:59Z</time>
      </trkpt>
      <trkpt lat="46.3906" lon="-0.4458">
        <ele>22.8911</ele>
        <time>2011-02-27T14:00:00Z</time>
      </trkpt>
      <trkpt lat="46.3906" lon="-0.44578">
        <ele>22.982</ele>
        <time>2011-02-27T14:00:01Z</time>
      </trkpt>
      <trkpt lat="46.39061" lon="-0.44576">
        <ele>23.0615</ele>
        <time>2011-02-27T14:00:02Z</time>
      </trkpt>
      <trkpt lat="46.39062" lon="-0.44574">
        <ele>23.1292</ele>
        <time>2011-02-27T14:00:03Z</time>
      </trkpt>
      <trkpt lat="46.39062" lon="-0.44571">
        <ele>23.1889</ele>
        <time>2011-02-27T14:00:04Z</time>
      </trkpt>
      <trkpt lat="46.39063" lon="-0.44569">
        <ele>23.24</ele>
        <time>2011-02-27T14:00:05Z</time>
      </trkpt>
      <trkpt lat="46.39063" lon="-0.44567">
        <ele>23.2816</ele>
        <time>2011-02-27T14:00:06Z</time>
      </trkpt>
      <trkpt lat="46.39063" lon="-0.44566">
        <ele>23.3208</ele>
        <time>2011-02-27T14:00:07Z</time>
      </trkpt>
      <trkpt lat="46.39063" lon="-0.44564">
        <ele>23.3566</ele>
        <time>2011-02-27T14:00:08Z</time>
      </trkpt>
      <trkpt lat="46.39063" lon="-0.44562">
        <ele>23.3909</ele>
        <time>2011-02-27T14:00:09Z</time>
      </trkpt>
      <trkpt lat="46.39063" lon="-0.4456">
        <ele>23.4212</ele>
        <time>2011-02-27T14:00:10Z</time>
      </trkpt>
      <trkpt lat="46.39063" lon="-0.44558">
        <ele>23.4542</ele>
        <time>2011-02-27T14:00:11Z</time>
      </trkpt>
      <trkpt lat="46.39063" lon="-0.44556">
        <ele>23.4886</ele>
        <time>2011-02-27T14:00:12Z</time>
      </trkpt>
      <trkpt lat="46.39064" lon="-0.44554">
        <ele>23.5215</ele>
        <time>2011-02-27T14:00:13Z</time>
      </trkpt>
      <trkpt lat="46.39064" lon="-0.44552">
        <ele>23.5568</ele>
        <time>2011-02-27T14:00:14Z</time>
      </trkpt>
      <trkpt lat="46.39064" lon="-0.44551">
        <ele>23.5893</ele>
        <time>2011-02-27T14:00:15Z</time>
      </trkpt>
      <trkpt lat="46.39065" lon="-0.44549">
        <ele>23.6293</ele>
        <time>2011-02-27T14:00:17Z</time>
      </trkpt>
      <trkpt lat="46.39065" lon="-0.44548">
        <ele>23.6644</ele>
        <time>2011-02-27T14:00:18Z</time>
      </trkpt>
      <trkpt lat="46.39065" lon="-0.44547">
        <ele>23.6979</ele>
        <time>2011-02-27T14:00:19Z</time>
      </trkpt>
      <trkpt lat="46.39065" lon="-0.44545">
        <ele>23.7302</ele>
        <time>2011-02-27T14:00:20Z</time>
      </trkpt>
      <trkpt lat="46.39065" lon="-0.44544">
        <ele>23.7627</ele>
        <time>2011-02-27T14:00:21Z</time>
      </trkpt>
      <trkpt lat="46.39065" lon="-0.44542">
        <ele>23.7976</ele>
        <time>2011-02-27T14:00:22Z</time>
      </trkpt>
      <trkpt lat="46.39065" lon="-0.44541">
        <ele>23.8313</ele>
        <time>2011-02-27T14:00:23Z</time>
      </trkpt>
      <trkpt lat="46.39065" lon="-0.4454">
        <ele>23.8614</ele>
        <time>2011-02-27T14:00:24Z</time>
      </trkpt>
      <trkpt lat="46.39065" lon="-0.44539">
        <ele>23.8862</ele>
        <time>2011-02-27T14:00:25Z</time>
      </trkpt>
      <trkpt lat="46.39065" lon="-0.44537">
        <ele>23.9095</ele>
        <time>2011-02-27T14:00:26Z</time>
      </trkpt>
      <trkpt lat="46.39066" lon="-0.44536">
        <ele>23.9317</ele>
        <time>2011-02-27T14:00:27Z</time>
      </trkpt>
      <trkpt lat="46.39065" lon="-0.44535">
        <ele>23.9477</ele>
        <time>2011-02-27T14:00:28Z</time>
      </trkpt>
      <trkpt lat="46.39065" lon="-0.44534">
        <ele>23.9664</ele>
        <time>2011-02-27T14:00:29Z</time>
      </trkpt>
      <trkpt lat="46.39065" lon="-0.44534">
        <ele>23.9816</ele>
        <time>2011-02-27T14:00:30Z</time>
      </trkpt>
      <trkpt lat="46.39065" lon="-0.44533">
        <ele>23.9965</ele>
        <time>2011-02-27T14:00:31Z</time>
      </trkpt>
      <trkpt lat="46.39065" lon="-0.44532">
        <ele>24.0099</ele>
        <time>2011-02-27T14:00:32Z</time>
      </trkpt>
      <trkpt lat="46.39065" lon="-0.44532">
        <ele>24.018</ele>
        <time>2011-02-27T14:00:33Z</time>
      </trkpt>
      <trkpt lat="46.39065" lon="-0.44531">
        <ele>24.0212</ele>
        <time>2011-02-27T14:00:34Z</time>
      </trkpt>
      <trkpt lat="46.39066" lon="-0.44529">
        <ele>24.0223</ele>
        <time>2011-02-27T14:00:35Z</time>
      </trkpt>
      <trkpt lat="46.39066" lon="-0.44528">
        <ele>24.0221</ele>
        <time>2011-02-27T14:00:36Z</time>
      </trkpt>
      <trkpt lat="46.39066" lon="-0.44526">
        <ele>24.0189</ele>
        <time>2011-02-27T14:00:37Z</time>
      </trkpt>
      <trkpt lat="46.39066" lon="-0.44525">
        <ele>24.0143</ele>
        <time>2011-02-27T14:00:38Z</time>
      </trkpt>
      <trkpt lat="46.39066" lon="-0.44523">
        <ele>24.0086</ele>
        <time>2011-02-27T14:00:39Z</time>
      </trkpt>
      <trkpt lat="46.39066" lon="-0.44521">
        <ele>24.0034</ele>
        <time>2011-02-27T14:00:40Z</time>
      </trkpt>
      <trkpt lat="46.39066" lon="-0.44519">
        <ele>23.9964</ele>
        <time>2011-02-27T14:00:41Z</time>
      </trkpt>
      <trkpt lat="46.39066" lon="-0.44517">
        <ele>23.99</ele>
        <time>2011-02-27T14:00:42Z</time>
      </trkpt>
      <trkpt lat="46.39065" lon="-0.44515">
        <ele>23.9836</ele>
        <time>2011-02-27T14:00:43Z</time>
      </trkpt>
      <trkpt lat="46.39065" lon="-0.44514">
        <ele>23.9771</ele>
        <time>2011-02-27T14:00:44Z</time>
      </trkpt>
      <trkpt lat="46.39064" lon="-0.44513">
        <ele>23.974</ele>
        <time>2011-02-27T14:00:45Z</time>
      </trkpt>
      <trkpt lat="46.39065" lon="-0.44511">
        <ele>23.976</ele>
        <time>2011-02-27T14:00:46Z</time>
      </trkpt>
      <trkpt lat="46.39065" lon="-0.4451">
        <ele>23.9851</ele>
        <time>2011-02-27T14:00:47Z</time>
      </trkpt>
      <trkpt lat="46.39066" lon="-0.44509">
        <ele>23.9979</ele>
        <time>2011-02-27T14:00:48Z</time>
      </trkpt>
      <trkpt lat="46.39066" lon="-0.44508">
        <ele>24.0092</ele>
        <time>2011-02-27T14:00:49Z</time>
      </trkpt>
      <trkpt lat="46.39066" lon="-0.44507">
        <ele>24.0247</ele>
        <time>2011-02-27T14:00:50Z</time>
      </trkpt>
      <trkpt lat="46.39067" lon="-0.44505">
        <ele>24.0475</ele>
        <time>2011-02-27T14:00:51Z</time>
      </trkpt>
      <trkpt lat="46.39068" lon="-0.44504">
        <ele>24.0744</ele>
        <time>2011-02-27T14:00:52Z</time>
      </trkpt>
      <trkpt lat="46.39068" lon="-0.44503">
        <ele>24.1091</ele>
        <time>2011-02-27T14:00:53Z</time>
      </trkpt>
      <trkpt lat="46.39068" lon="-0.44502">
        <ele>24.1486</ele>
        <time>2011-02-27T14:00:54Z</time>
      </trkpt>
      <trkpt lat="46.39069" lon="-0.44501">
        <ele>24.1866</ele>
        <time>2011-02-27T14:00:55Z</time>
      </trkpt>
      <trkpt lat="46.39069" lon="-0.445">
        <ele>24.2207</ele>
        <time>2011-02-27T14:00:56Z</time>
      </trkpt>
      <trkpt lat="46.39069" lon="-0.44499">
        <ele>24.2554</ele>
        <time>2011-02-27T14:00:57Z</time>
      </trkpt>
      <trkpt lat="46.39069" lon="-0.44498">
        <ele>24.2877</ele>
        <time>2011-02-27T14:00:58Z</time>
      </trkpt>
      <trkpt lat="46.39069" lon="-0.44497">
        <ele>24.314</ele>
        <time>2011-02-27T14:00:59Z</time>
      </trkpt>
      <trkpt lat="46.39069" lon="-0.44496">
        <ele>24.3312</ele>
        <time>2011-02-27T14:01:00Z</time>
      </trkpt>
      <trkpt lat="46.3907" lon="-0.44494">
        <ele>24.3449</ele>
        <time>2011-02-27T14:01:01Z</time>
      </trkpt>
      <trkpt lat="46.3907" lon="-0.44493">
        <ele>24.3538</ele>
        <time>2011-02-27T14:01:02Z</time>
      </trkpt>
      <trkpt lat="46.3907" lon="-0.44491">
        <ele>24.357</ele>
        <time>2011-02-27T14:01:03Z</time>
      </trkpt>
      <trkpt lat="46.39071" lon="-0.44489">
        <ele>24.3538</ele>
        <time>2011-02-27T14:01:04Z</time>
      </trkpt>
      <trkpt lat="46.39071" lon="-0.44487">
        <ele>24.3477</ele>
        <time>2011-02-27T14:01:05Z</time>
      </trkpt>
      <trkpt lat="46.39071" lon="-0.44485">
        <ele>24.3415</ele>
        <time>2011-02-27T14:01:06Z</time>
      </trkpt>
      <trkpt lat="46.39071" lon="-0.44484">
        <ele>24.3345</ele>
        <time>2011-02-27T14:01:07Z</time>
      </trkpt>
      <trkpt lat="46.39071" lon="-0.44482">
        <ele>24.33</ele>
        <time>2011-02-27T14:01:08Z</time>
      </trkpt>
      <trkpt lat="46.39071" lon="-0.4448">
        <ele>24.3263</ele>
        <time>2011-02-27T14:01:09Z</time>
      </trkpt>
      <trkpt lat="46.39071" lon="-0.44478">
        <ele>24.3232</ele>
        <time>2011-02-27T14:01:10Z</time>
      </trkpt>
      <trkpt lat="46.39071" lon="-0.44476">
        <ele>24.3189</ele>
        <time>2011-02-27T14:01:11Z</time>
      </trkpt>
      <trkpt lat="46.39071" lon="-0.44473">
        <ele>24.3167</ele>
        <time>2011-02-27T14:01:12Z</time>
      </trkpt>
      <trkpt lat="46.39072" lon="-0.44472">
        <ele>24.3155</ele>
        <time>2011-02-27T14:01:13Z</time>
      </trkpt>
      <trkpt lat="46.39072" lon="-0.4447">
        <ele>24.3193</ele>
        <time>2011-02-27T14:01:14Z</time>
      </trkpt>
      <trkpt lat="46.39072" lon="-0.44468">
        <ele>24.3263</ele>
        <time>2011-02-27T14:01:15Z</time>
      </trkpt>
      <trkpt lat="46.39072" lon="-0.44466">
        <ele>24.3366</ele>
        <time>2011-02-27T14:01:16Z</time>
      </trkpt>
      <trkpt lat="46.39073" lon="-0.44465">
        <ele>24.3504</ele>
        <time>2011-02-27T14:01:17Z</time>
      </trkpt>
      <trkpt lat="46.39073" lon="-0.44463">
        <ele>24.3662</ele>
        <time>2011-02-27T14:01:18Z</time>
      </trkpt>
      <trkpt lat="46.39073" lon="-0.44461">
        <ele>24.3817</ele>
        <time>2011-02-27T14:01:19Z</time>
      </trkpt>
      <trkpt lat="46.39073" lon="-0.4446">
        <ele>24.3977</ele>
        <time>2011-02-27T14:01:20Z</time>
      </trkpt>
      <trkpt lat="46.39074" lon="-0.44458">
        <ele>24.4131</ele>
        <time>2011-02-27T14:01:21Z</time>
      </trkpt>
      <trkpt lat="46.39074" lon="-0.44457">
        <ele>24.4287</ele>
        <time>2011-02-27T14:01:22Z</time>
      </trkpt>
      <trkpt lat="46.39074" lon="-0.44455">
        <ele>24.4489</ele>
        <time>2011-02-27T14:01:23Z</time>
      </trkpt>
      <trkpt lat="46.39075" lon="-0.44453">
        <ele>24.4767</ele>
        <time>2011-02-27T14:01:24Z</time>
      </trkpt>
      <trkpt lat="46.39075" lon="-0.44451">
        <ele>24.5039</ele>
        <time>2011-02-27T14:01:25Z</time>
      </trkpt>
      <trkpt lat="46.39076" lon="-0.4445">
        <ele>24.5289</ele>
        <time>2011-02-27T14:01:26Z</time>
      </trkpt>
      <trkpt lat="46.39076" lon="-0.44448">
        <ele>24.555</ele>
        <time>2011-02-27T14:01:27Z</time>
      </trkpt>
      <trkpt lat="46.39076" lon="-0.44447">
        <ele>24.5821</ele>
        <time>2011-02-27T14:01:28Z</time>
      </trkpt>
      <trkpt lat="46.39076" lon="-0.44445">
        <ele>24.6101</ele>
        <time>2011-02-27T14:01:29Z</time>
      </trkpt>
      <trkpt lat="46.39077" lon="-0.44444">
        <ele>24.6383</ele>
        <time>2011-02-27T14:01:30Z</time>
      </trkpt>
      <trkpt lat="46.39077" lon="-0.44443">
        <ele>24.6648</ele>
        <time>2011-02-27T14:01:31Z</time>
      </trkpt>
      <trkpt lat="46.39077" lon="-0.44441">
        <ele>24.696</ele>
        <time>2011-02-27T14:01:32Z</time>
      </trkpt>
      <trkpt lat="46.39078" lon="-0.4444">
        <ele>24.7282</ele>
        <time>2011-02-27T14:01:33Z</time>
      </trkpt>
      <trkpt lat="46.39079" lon="-0.44438">
        <ele>24.7641</ele>
        <time>2011-02-27T14:01:34Z</time>
      </trkpt>
      <trkpt lat="46.39079" lon="-0.44436">
        <ele>24.8035</ele>
        <time>2011-02-27T14:01:35Z</time>
      </trkpt>
      <trkpt lat="46.39079" lon="-0.44435">
        <ele>24.8436</ele>
        <time>2011-02-27T14:01:36Z</time>
      </trkpt>
      <trkpt lat="46.39079" lon="-0.44433">
        <ele>24.8786</ele>
        <time>2011-02-27T14:01:37Z</time>
      </trkpt>
      <trkpt lat="46.3908" lon="-0.44431">
        <ele>24.9288</ele>
        <time>2011-02-27T14:01:38Z</time>
      </trkpt>
      <trkpt lat="46.3908" lon="-0.44429">
        <ele>24.9867</ele>
        <time>2011-02-27T14:01:39Z</time>
      </trkpt>
      <trkpt lat="46.3908" lon="-0.44428">
        <ele>25.0448</ele>
        <time>2011-02-27T14:01:40Z</time>
      </trkpt>
      <trkpt lat="46.3908" lon="-0.44426">
        <ele>25.1</ele>
        <time>2011-02-27T14:01:41Z</time>
      </trkpt>
      <trkpt lat="46.3908" lon="-0.44424">
        <ele>25.1623</ele>
        <time>2011-02-27T14:01:42Z</time>
      </trkpt>
      <trkpt lat="46.3908" lon="-0.44422">
        <ele>25.2226</ele>
        <time>2011-02-27T14:01:43Z</time>
      </trkpt>
      <trkpt lat="46.3908" lon="-0.4442">
        <ele>25.2808</ele>
        <time>2011-02-27T14:01:44Z</time>
      </trkpt>
      <trkpt lat="46.39079" lon="-0.44419">
        <ele>25.3341</ele>
        <time>2011-02-27T14:01:45Z</time>
      </trkpt>
      <trkpt lat="46.39079" lon="-0.44418">
        <ele>25.3956</ele>
        <time>2011-02-27T14:01:46Z</time>
      </trkpt>
      <trkpt lat="46.39079" lon="-0.44416">
        <ele>25.4487</ele>
        <time>2011-02-27T14:01:47Z</time>
      </trkpt>
      <trkpt lat="46.39079" lon="-0.44415">
        <ele>25.4981</ele>
        <time>2011-02-27T14:01:48Z</time>
      </trkpt>
      <trkpt lat="46.3908" lon="-0.44413">
        <ele>25.5219</ele>
        <time>2011-02-27T14:01:49Z</time>
      </trkpt>
      <trkpt lat="46.39081" lon="-0.44412">
        <ele>25.5198</ele>
        <time>2011-02-27T14:01:50Z</time>
      </trkpt>
      <trkpt lat="46.39082" lon="-0.44411">
        <ele>25.486</ele>
        <time>2011-02-27T14:01:51Z</time>
      </trkpt>
      <trkpt lat="46.39082" lon="-0.4441">
        <ele>25.437</ele>
        <time>2011-02-27T14:01:52Z</time>
      </trkpt>
      <trkpt lat="46.39083" lon="-0.44408">
        <ele>25.371</ele>
        <time>2011-02-27T14:01:53Z</time>
      </trkpt>
      <trkpt lat="46.39083" lon="-0.44407">
        <ele>25.3017</ele>
        <time>2011-02-27T14:01:54Z</time>
      </trkpt>
      <trkpt lat="46.39084" lon="-0.44405">
        <ele>25.2304</ele>
        <time>2011-02-27T14:01:55Z</time>
      </trkpt>
      <trkpt lat="46.39084" lon="-0.44404">
        <ele>25.1573</ele>
        <time>2011-02-27T14:01:56Z</time>
      </trkpt>
      <trkpt lat="46.39084" lon="-0.44403">
        <ele>25.0853</ele>
        <time>2011-02-27T14:01:57Z</time>
      </trkpt>
      <trkpt lat="46.39084" lon="-0.44402">
        <ele>25.017</ele>
        <time>2011-02-27T14:01:58Z</time>
      </trkpt>
      <trkpt lat="46.39084" lon="-0.44401">
        <ele>24.8787</ele>
        <time>2011-02-27T14:02:01Z</time>
      </trkpt>
      <trkpt lat="46.39085" lon="-0.444">
        <ele>24.822</ele>
        <time>2011-02-27T14:02:02Z</time>
      </trkpt>
      <trkpt lat="46.39085" lon="-0.44399">
        <ele>24.7695</ele>
        <time>2011-02-27T14:02:03Z</time>
      </trkpt>
      <trkpt lat="46.39085" lon="-0.44398">
        <ele>24.7226</ele>
        <time>2011-02-27T14:02:04Z</time>
      </trkpt>
      <trkpt lat="46.39086" lon="-0.44396">
        <ele>24.6875</ele>
        <time>2011-02-27T14:02:05Z</time>
      </trkpt>
      <trkpt lat="46.39086" lon="-0.44395">
        <ele>24.6576</ele>
        <time>2011-02-27T14:02:06Z</time>
      </trkpt>
      <trkpt lat="46.39087" lon="-0.44389">
        <ele>24.6363</ele>
        <time>2011-02-27T14:02:18Z</time>
      </trkpt>
      <trkpt lat="46.39087" lon="-0.44388">
        <ele>24.6379</ele>
        <time>2011-02-27T14:02:19Z</time>
      </trkpt>
      <trkpt lat="46.39087" lon="-0.44387">
        <ele>24.6394</ele>
        <time>2011-02-27T14:02:20Z</time>
      </trkpt>
      <trkpt lat="46.39087" lon="-0.44387">
        <ele>24.6404</ele>
        <time>2011-02-27T14:02:21Z</time>
      </trkpt>
      <trkpt lat="46.39087" lon="-0.44386">
        <ele>24.6411</ele>
        <time>2011-02-27T14:02:22Z</time>
      </trkpt>
      <trkpt lat="46.39087" lon="-0.44386">
        <ele>24.6421</ele>
        <time>2011-02-27T14:02:23Z</time>
      </trkpt>
      <trkpt lat="46.39087" lon="-0.44385">
        <ele>24.6388</ele>
        <time>2011-02-27T14:02:24Z</time>
      </trkpt>
      <trkpt lat="46.39087" lon="-0.44384">
        <ele>24.642</ele>
        <time>2011-02-27T14:02:25Z</time>
      </trkpt>
      <trkpt lat="46.39087" lon="-0.44383">
        <ele>24.6457</ele>
        <time>2011-02-27T14:02:26Z</time>
      </trkpt>
      <trkpt lat="46.39087" lon="-0.44382">
        <ele>24.6501</ele>
        <time>2011-02-27T14:02:27Z</time>
      </trkpt>
      <trkpt lat="46.39086" lon="-0.44381">
        <ele>24.6556</ele>
        <time>2011-02-27T14:02:28Z</time>
      </trkpt>
      <trkpt lat="46.39086" lon="-0.4438">
        <ele>24.6582</ele>
        <time>2011-02-27T14:02:29Z</time>
      </trkpt>
      <trkpt lat="46.39086" lon="-0.44379">
        <ele>24.6609</ele>
        <time>2011-02-27T14:02:30Z</time>
      </trkpt>
      <trkpt lat="46.39086" lon="-0.44377">
        <ele>24.6625</ele>
        <time>2011-02-27T14:02:31Z</time>
      </trkpt>
      <trkpt lat="46.39085" lon="-0.44376">
        <ele>24.6646</ele>
        <time>2011-02-27T14:02:32Z</time>
      </trkpt>
      <trkpt lat="46.39085" lon="-0.44375">
        <ele>24.6667</ele>
        <time>2011-02-27T14:02:33Z</time>
      </trkpt>
      <trkpt lat="46.39085" lon="-0.44373">
        <ele>24.669</ele>
        <time>2011-02-27T14:02:34Z</time>
      </trkpt>
      <trkpt lat="46.39085" lon="-0.44372">
        <ele>24.6726</ele>
        <time>2011-02-27T14:02:35Z</time>
      </trkpt>
      <trkpt lat="46.39085" lon="-0.44371">
        <ele>24.679</ele>
        <time>2011-02-27T14:02:36Z</time>
      </trkpt>
      <trkpt lat="46.39086" lon="-0.44369">
        <ele>24.7312</ele>
        <time>2011-02-27T14:02:41Z</time>
      </trkpt>
      <trkpt lat="46.39086" lon="-0.44368">
        <ele>24.7565</ele>
        <time>2011-02-27T14:02:42Z</time>
      </trkpt>
      <trkpt lat="46.39086" lon="-0.44367">
        <ele>24.7814</ele>
        <time>2011-02-27T14:02:43Z</time>
      </trkpt>
      <trkpt lat="46.39086" lon="-0.44365">
        <ele>24.8056</ele>
        <time>2011-02-27T14:02:44Z</time>
      </trkpt>
      <trkpt lat="46.39086" lon="-0.44364">
        <ele>24.8364</ele>
        <time>2011-02-27T14:02:45Z</time>
      </trkpt>
      <trkpt lat="46.39086" lon="-0.44362">
        <ele>24.8838</ele>
        <time>2011-02-27T14:02:46Z</time>
      </trkpt>
      <trkpt lat="46.39087" lon="-0.44359">
        <ele>24.9488</ele>
        <time>2011-02-27T14:02:47Z</time>
      </trkpt>
      <trkpt lat="46.39088" lon="-0.44356">
        <ele>25.0121</ele>
        <time>2011-02-27T14:02:48Z</time>
      </trkpt>
      <trkpt lat="46.39088" lon="-0.44353">
        <ele>25.0801</ele>
        <time>2011-02-27T14:02:49Z</time>
      </trkpt>
      <trkpt lat="46.39088" lon="-0.44351">
        <ele>25.1478</ele>
        <time>2011-02-27T14:02:50Z</time>
      </trkpt>
      <trkpt lat="46.39088" lon="-0.44349">
        <ele>25.2158</ele>
        <time>2011-02-27T14:02:51Z</time>
      </trkpt>
      <trkpt lat="46.39089" lon="-0.44347">
        <ele>25.2834</ele>
        <time>2011-02-27T14:02:52Z</time>
      </trkpt>
      <trkpt lat="46.39089" lon="-0.44345">
        <ele>25.3452</ele>
        <time>2011-02-27T14:02:53Z</time>
      </trkpt>
      <trkpt lat="46.39089" lon="-0.44343">
        <ele>25.4032</ele>
        <time>2011-02-27T14:02:54Z</time>
      </trkpt>
      <trkpt lat="46.39089" lon="-0.44341">
        <ele>25.4582</ele>
        <time>2011-02-27T14:02:55Z</time>
      </trkpt>
      <trkpt lat="46.39089" lon="-0.44339">
        <ele>25.5126</ele>
        <time>2011-02-27T14:02:56Z</time>
      </trkpt>
      <trkpt lat="46.39088" lon="-0.44337">
        <ele>25.5651</ele>
        <time>2011-02-27T14:02:57Z</time>
      </trkpt>
      <trkpt lat="46.39088" lon="-0.44335">
        <ele>25.6172</ele>
        <time>2011-02-27T14:02:58Z</time>
      </trkpt>
      <trkpt lat="46.39088" lon="-0.44334">
        <ele>25.6673</ele>
        <time>2011-02-27T14:02:59Z</time>
      </trkpt>
      <trkpt lat="46.39088" lon="-0.44332">
        <ele>25.7162</ele>
        <time>2011-02-27T14:03:00Z</time>
      </trkpt>
      <trkpt lat="46.39087" lon="-0.44331">
        <ele>25.7638</ele>
        <time>2011-02-27T14:03:01Z</time>
      </trkpt>
      <trkpt lat="46.39087" lon="-0.4433">
        <ele>25.8097</ele>
        <time>2011-02-27T14:03:02Z</time>
      </trkpt>
      <trkpt lat="46.39087" lon="-0.44329">
        <ele>25.8549</ele>
        <time>2011-02-27T14:03:03Z</time>
      </trkpt>
      <trkpt lat="46.39087" lon="-0.44328">
        <ele>25.8992</ele>
        <time>2011-02-27T14:03:04Z</time>
      </trkpt>
      <trkpt lat="46.39086" lon="-0.44328">
        <ele>25.9437</ele>
        <time>2011-02-27T14:03:05Z</time>
      </trkpt>
      <trkpt lat="46.39087" lon="-0.44327">
        <ele>26.1316</ele>
        <time>2011-02-27T14:03:10Z</time>
      </trkpt>
      <trkpt lat="46.39089" lon="-0.44326">
        <ele>26.2249</ele>
        <time>2011-02-27T14:03:20Z</time>
      </trkpt>
      <trkpt lat="46.39089" lon="-0.44327">
        <ele>26.2491</ele>
        <time>2011-02-27T14:03:22Z</time>
      </trkpt>
      <trkpt lat="46.39088" lon="-0.44326">
        <ele>26.2729</ele>
        <time>2011-02-27T14:03:23Z</time>
      </trkpt>
      <trkpt lat="46.39088" lon="-0.44325">
        <ele>26.2971</ele>
        <time>2011-02-27T14:03:24Z</time>
      </trkpt>
      <trkpt lat="46.39088" lon="-0.44324">
        <ele>26.3218</ele>
        <time>2011-02-27T14:03:25Z</time>
      </trkpt>
      <trkpt lat="46.39087" lon="-0.44323">
        <ele>26.3455</ele>
        <time>2011-02-27T14:03:26Z</time>
      </trkpt>
      <trkpt lat="46.39087" lon="-0.44322">
        <ele>26.3687</ele>
        <time>2011-02-27T14:03:27Z</time>
      </trkpt>
      <trkpt lat="46.39087" lon="-0.44321">
        <ele>26.3876</ele>
        <time>2011-02-27T14:03:28Z</time>
      </trkpt>
      <trkpt lat="46.39086" lon="-0.4432">
        <ele>26.4008</ele>
        <time>2011-02-27T14:03:29Z</time>
      </trkpt>
      <trkpt lat="46.39085" lon="-0.4432">
        <ele>26.4096</ele>
        <time>2011-02-27T14:03:30Z</time>
      </trkpt>
      <trkpt lat="46.39085" lon="-0.4432">
        <ele>26.4132</ele>
        <time>2011-02-27T14:03:31Z</time>
      </trkpt>
      <trkpt lat="46.39083" lon="-0.4432">
        <ele>26.3852</ele>
        <time>2011-02-27T14:03:39Z</time>
      </trkpt>
      <trkpt lat="46.39083" lon="-0.4432">
        <ele>26.3719</ele>
        <time>2011-02-27T14:03:40Z</time>
      </trkpt>
      <trkpt lat="46.39083" lon="-0.44319">
        <ele>26.3572</ele>
        <time>2011-02-27T14:03:41Z</time>
      </trkpt>
      <trkpt lat="46.39083" lon="-0.44319">
        <ele>26.3486</ele>
        <time>2011-02-27T14:03:42Z</time>
      </trkpt>
      <trkpt lat="46.39083" lon="-0.44319">
        <ele>26.3397</ele>
        <time>2011-02-27T14:03:43Z</time>
      </trkpt>
      <trkpt lat="46.39084" lon="-0.44317">
        <ele>26.3215</ele>
        <time>2011-02-27T14:03:44Z</time>
      </trkpt>
      <trkpt lat="46.39085" lon="-0.44315">
        <ele>26.3136</ele>
        <time>2011-02-27T14:03:45Z</time>
      </trkpt>
      <trkpt lat="46.39086" lon="-0.44314">
        <ele>26.3148</ele>
        <time>2011-02-27T14:03:46Z</time>
      </trkpt>
      <trkpt lat="46.39088" lon="-0.44314">
        <ele>26.3084</ele>
        <time>2011-02-27T14:03:47Z</time>
      </trkpt>
      <trkpt lat="46.39088" lon="-0.44314">
        <ele>26.2941</ele>
        <time>2011-02-27T14:03:48Z</time>
      </trkpt>
      <trkpt lat="46.3909" lon="-0.44313">
        <ele>26.2941</ele>
        <time>2011-02-27T14:03:49Z</time>
      </trkpt>
      <trkpt lat="46.3909" lon="-0.44312">
        <ele>26.2799</ele>
        <time>2011-02-27T14:03:50Z</time>
      </trkpt>
      <trkpt lat="46.39091" lon="-0.44311">
        <ele>26.2557</ele>
        <time>2011-02-27T14:03:51Z</time>
      </trkpt>
      <trkpt lat="46.39092" lon="-0.4431">
        <ele>26.232</ele>
        <time>2011-02-27T14:03:52Z</time>
      </trkpt>
      <trkpt lat="46.39093" lon="-0.44308">
        <ele>26.2088</ele>
        <time>2011-02-27T14:03:53Z</time>
      </trkpt>
      <trkpt lat="46.39095" lon="-0.44306">
        <ele>26.1886</ele>
        <time>2011-02-27T14:03:54Z</time>
      </trkpt>
      <trkpt lat="46.39096" lon="-0.44305">
        <ele>26.1643</ele>
        <time>2011-02-27T14:03:55Z</time>
      </trkpt>
      <trkpt lat="46.39097" lon="-0.44304">
        <ele>26.1486</ele>
        <time>2011-02-27T14:03:56Z</time>
      </trkpt>
      <trkpt lat="46.39098" lon="-0.44303">
        <ele>26.1319</ele>
        <time>2011-02-27T14:03:57Z</time>
      </trkpt>
      <trkpt lat="46.39099" lon="-0.44302">
        <ele>26.1175</ele>
        <time>2011-02-27T14:03:58Z</time>
      </trkpt>
      <trkpt lat="46.391" lon="-0.443">
        <ele>26.0974</ele>
        <time>2011-02-27T14:03:59Z</time>
      </trkpt>
      <trkpt lat="46.391" lon="-0.44299">
        <ele>26.071</ele>
        <time>2011-02-27T14:04:00Z</time>
      </trkpt>
      <trkpt lat="46.39101" lon="-0.44298">
        <ele>26.0399</ele>
        <time>2011-02-27T14:04:01Z</time>
      </trkpt>
      <trkpt lat="46.39101" lon="-0.44296">
        <ele>26.0061</ele>
        <time>2011-02-27T14:04:02Z</time>
      </trkpt>
      <trkpt lat="46.39101" lon="-0.44295">
        <ele>25.9685</ele>
        <time>2011-02-27T14:04:03Z</time>
      </trkpt>
      <trkpt lat="46.39101" lon="-0.44293">
        <ele>25.9289</ele>
        <time>2011-02-27T14:04:04Z</time>
      </trkpt>
      <trkpt lat="46.39101" lon="-0.44291">
        <ele>25.8821</ele>
        <time>2011-02-27T14:04:05Z</time>
      </trkpt>
      <trkpt lat="46.39101" lon="-0.44289">
        <ele>25.8306</ele>
        <time>2011-02-27T14:04:06Z</time>
      </trkpt>
      <trkpt lat="46.39101" lon="-0.44287">
        <ele>25.776</ele>
        <time>2011-02-27T14:04:07Z</time>
      </trkpt>
      <trkpt lat="46.39101" lon="-0.44286">
        <ele>25.7223</ele>
        <time>2011-02-27T14:04:08Z</time>
      </trkpt>
      <trkpt lat="46.39102" lon="-0.44284">
        <ele>25.6689</ele>
        <time>2011-02-27T14:04:09Z</time>
      </trkpt>
      <trkpt lat="46.39102" lon="-0.44282">
        <ele>25.6165</ele>
        <time>2011-02-27T14:04:10Z</time>
      </trkpt>
      <trkpt lat="46.39102" lon="-0.44281">
        <ele>25.5681</ele>
        <time>2011-02-27T14:04:11Z</time>
      </trkpt>
      <trkpt lat="46.39103" lon="-0.44279">
        <ele>25.5185</ele>
        <time>2011-02-27T14:04:12Z</time>
      </trkpt>
      <trkpt lat="46.39103" lon="-0.44278">
        <ele>25.4703</ele>
        <time>2011-02-27T14:04:13Z</time>
      </trkpt>
      <trkpt lat="46.39103" lon="-0.44276">
        <ele>25.4219</ele>
        <time>2011-02-27T14:04:14Z</time>
      </trkpt>
      <trkpt lat="46.39103" lon="-0.44275">
        <ele>25.3737</ele>
        <time>2011-02-27T14:04:15Z</time>
      </trkpt>
      <trkpt lat="46.39103" lon="-0.44274">
        <ele>25.326</ele>
        <time>2011-02-27T14:04:16Z</time>
      </trkpt>
      <trkpt lat="46.39103" lon="-0.44273">
        <ele>25.2857</ele>
        <time>2011-02-27T14:04:17Z</time>
      </trkpt>
      <trkpt lat="46.39106" lon="-0.4427">
        <ele>25.1555</ele>
        <time>2011-02-27T14:04:30Z</time>
      </trkpt>
      <trkpt lat="46.39106" lon="-0.44269">
        <ele>25.1153</ele>
        <time>2011-02-27T14:04:31Z</time>
      </trkpt>
      <trkpt lat="46.39106" lon="-0.44268">
        <ele>25.0758</ele>
        <time>2011-02-27T14:04:32Z</time>
      </trkpt>
      <trkpt lat="46.39106" lon="-0.44267">
        <ele>25.0367</ele>
        <time>2011-02-27T14:04:33Z</time>
      </trkpt>
      <trkpt lat="46.39106" lon="-0.44266">
        <ele>24.9994</ele>
        <time>2011-02-27T14:04:34Z</time>
      </trkpt>
      <trkpt lat="46.39106" lon="-0.44265">
        <ele>24.9621</ele>
        <time>2011-02-27T14:04:35Z</time>
      </trkpt>
      <trkpt lat="46.39106" lon="-0.44263">
        <ele>24.9271</ele>
        <time>2011-02-27T14:04:36Z</time>
      </trkpt>
      <trkpt lat="46.39107" lon="-0.44261">
        <ele>24.8935</ele>
        <time>2011-02-27T14:04:37Z</time>
      </trkpt>
      <trkpt lat="46.39107" lon="-0.4426">
        <ele>24.8594</ele>
        <time>2011-02-27T14:04:38Z</time>
      </trkpt>
      <trkpt lat="46.39108" lon="-0.44259">
        <ele>24.8245</ele>
        <time>2011-02-27T14:04:39Z</time>
      </trkpt>
      <trkpt lat="46.39108" lon="-0.44257">
        <ele>24.7893</ele>
        <time>2011-02-27T14:04:40Z</time>
      </trkpt>
      <trkpt lat="46.39108" lon="-0.44256">
        <ele>24.7527</ele>
        <time>2011-02-27T14:04:41Z</time>
      </trkpt>
      <trkpt lat="46.39109" lon="-0.44255">
        <ele>24.7153</ele>
        <time>2011-02-27T14:04:42Z</time>
      </trkpt>
      <trkpt lat="46.39109" lon="-0.44253">
        <ele>24.6777</ele>
        <time>2011-02-27T14:04:43Z</time>
      </trkpt>
      <trkpt lat="46.3911" lon="-0.44252">
        <ele>24.6407</ele>
        <time>2011-02-27T14:04:44Z</time>
      </trkpt>
      <trkpt lat="46.39111" lon="-0.4425">
        <ele>24.6062</ele>
        <time>2011-02-27T14:04:45Z</time>
      </trkpt>
      <trkpt lat="46.39111" lon="-0.44249">
        <ele>24.5746</ele>
        <time>2011-02-27T14:04:46Z</time>
      </trkpt>
      <trkpt lat="46.39111" lon="-0.44247">
        <ele>24.5441</ele>
        <time>2011-02-27T14:04:47Z</time>
      </trkpt>
      <trkpt lat="46.39112" lon="-0.44246">
        <ele>24.5143</ele>
        <time>2011-02-27T14:04:48Z</time>
      </trkpt>
      <trkpt lat="46.39113" lon="-0.44244">
        <ele>24.4861</ele>
        <time>2011-02-27T14:04:49Z</time>
      </trkpt>
      <trkpt lat="46.39113" lon="-0.44243">
        <ele>24.4592</ele>
        <time>2011-02-27T14:04:50Z</time>
      </trkpt>
      <trkpt lat="46.39113" lon="-0.44242">
        <ele>24.4333</ele>
        <time>2011-02-27T14:04:51Z</time>
      </trkpt>
      <trkpt lat="46.39113" lon="-0.44241">
        <ele>24.4079</ele>
        <time>2011-02-27T14:04:52Z</time>
      </trkpt>
      <trkpt lat="46.39114" lon="-0.4424">
        <ele>24.3837</ele>
        <time>2011-02-27T14:04:53Z</time>
      </trkpt>
      <trkpt lat="46.39113" lon="-0.4424">
        <ele>24.3564</ele>
        <time>2011-02-27T14:04:55Z</time>
      </trkpt>
      <trkpt lat="46.39113" lon="-0.4424">
        <ele>24.331</ele>
        <time>2011-02-27T14:04:56Z</time>
      </trkpt>
      <trkpt lat="46.39113" lon="-0.4424">
        <ele>24.3038</ele>
        <time>2011-02-27T14:04:57Z</time>
      </trkpt>
      <trkpt lat="46.39113" lon="-0.44238">
        <ele>24.19</ele>
        <time>2011-02-27T14:05:09Z</time>
      </trkpt>
      <trkpt lat="46.39113" lon="-0.44236">
        <ele>24.1604</ele>
        <time>2011-02-27T14:05:10Z</time>
      </trkpt>
      <trkpt lat="46.39113" lon="-0.44234">
        <ele>24.1288</ele>
        <time>2011-02-27T14:05:11Z</time>
      </trkpt>
      <trkpt lat="46.39113" lon="-0.44232">
        <ele>24.0976</ele>
        <time>2011-02-27T14:05:12Z</time>
      </trkpt>
      <trkpt lat="46.39113" lon="-0.44231">
        <ele>24.0652</ele>
        <time>2011-02-27T14:05:13Z</time>
      </trkpt>
      <trkpt lat="46.39112" lon="-0.44232">
        <ele>24.0196</ele>
        <time>2011-02-27T14:05:17Z</time>
      </trkpt>
      <trkpt lat="46.39112" lon="-0.44231">
        <ele>23.9844</ele>
        <time>2011-02-27T14:05:18Z</time>
      </trkpt>
      <trkpt lat="46.39113" lon="-0.44229">
        <ele>23.9493</ele>
        <time>2011-02-27T14:05:19Z</time>
      </trkpt>
      <trkpt lat="46.39113" lon="-0.44228">
        <ele>23.9146</ele>
        <time>2011-02-27T14:05:20Z</time>
      </trkpt>
      <trkpt lat="46.39114" lon="-0.44227">
        <ele>23.8803</ele>
        <time>2011-02-27T14:05:21Z</time>
      </trkpt>
      <trkpt lat="46.39114" lon="-0.44225">
        <ele>23.8462</ele>
        <time>2011-02-27T14:05:22Z</time>
      </trkpt>
      <trkpt lat="46.39115" lon="-0.44224">
        <ele>23.8145</ele>
        <time>2011-02-27T14:05:23Z</time>
      </trkpt>
      <trkpt lat="46.39116" lon="-0.44223">
        <ele>23.7848</ele>
        <time>2011-02-27T14:05:24Z</time>
      </trkpt>
      <trkpt lat="46.39117" lon="-0.44221">
        <ele>23.7557</ele>
        <time>2011-02-27T14:05:25Z</time>
      </trkpt>
      <trkpt lat="46.39118" lon="-0.4422">
        <ele>23.7295</ele>
        <time>2011-02-27T14:05:26Z</time>
      </trkpt>
      <trkpt lat="46.39119" lon="-0.44218">
        <ele>23.7057</ele>
        <time>2011-02-27T14:05:27Z</time>
      </trkpt>
      <trkpt lat="46.3912" lon="-0.44216">
        <ele>23.6825</ele>
        <time>2011-02-27T14:05:28Z</time>
      </trkpt>
      <trkpt lat="46.39121" lon="-0.44214">
        <ele>23.6601</ele>
        <time>2011-02-27T14:05:29Z</time>
      </trkpt>
      <trkpt lat="46.39122" lon="-0.44213">
        <ele>23.6375</ele>
        <time>2011-02-27T14:05:30Z</time>
      </trkpt>
      <trkpt lat="46.39122" lon="-0.44212">
        <ele>23.6143</ele>
        <time>2011-02-27T14:05:31Z</time>
      </trkpt>
      <trkpt lat="46.39124" lon="-0.4421">
        <ele>23.5915</ele>
        <time>2011-02-27T14:05:32Z</time>
      </trkpt>
      <trkpt lat="46.39124" lon="-0.44209">
        <ele>23.5681</ele>
        <time>2011-02-27T14:05:33Z</time>
      </trkpt>
      <trkpt lat="46.39125" lon="-0.44208">
        <ele>23.5464</ele>
        <time>2011-02-27T14:05:34Z</time>
      </trkpt>
      <trkpt lat="46.39126" lon="-0.44207">
        <ele>23.5253</ele>
        <time>2011-02-27T14:05:35Z</time>
      </trkpt>
      <trkpt lat="46.39127" lon="-0.44206">
        <ele>23.5049</ele>
        <time>2011-02-27T14:05:36Z</time>
      </trkpt>
      <trkpt lat="46.39127" lon="-0.44205">
        <ele>23.4856</ele>
        <time>2011-02-27T14:05:37Z</time>
      </trkpt>
      <trkpt lat="46.39128" lon="-0.44203">
        <ele>23.4676</ele>
        <time>2011-02-27T14:05:38Z</time>
      </trkpt>
      <trkpt lat="46.39129" lon="-0.44202">
        <ele>23.4503</ele>
        <time>2011-02-27T14:05:39Z</time>
      </trkpt>
      <trkpt lat="46.39129" lon="-0.442">
        <ele>23.4338</ele>
        <time>2011-02-27T14:05:40Z</time>
      </trkpt>
      <trkpt lat="46.3913" lon="-0.44199">
        <ele>23.4179</ele>
        <time>2011-02-27T14:05:41Z</time>
      </trkpt>
      <trkpt lat="46.3913" lon="-0.44198">
        <ele>23.4023</ele>
        <time>2011-02-27T14:05:42Z</time>
      </trkpt>
      <trkpt lat="46.39131" lon="-0.44196">
        <ele>23.3872</ele>
        <time>2011-02-27T14:05:43Z</time>
      </trkpt>
      <trkpt lat="46.39132" lon="-0.44195">
        <ele>23.3724</ele>
        <time>2011-02-27T14:05:44Z</time>
      </trkpt>
      <trkpt lat="46.39133" lon="-0.44194">
        <ele>23.3579</ele>
        <time>2011-02-27T14:05:45Z</time>
      </trkpt>
      <trkpt lat="46.39134" lon="-0.44193">
        <ele>23.3449</ele>
        <time>2011-02-27T14:05:46Z</time>
      </trkpt>
      <trkpt lat="46.39134" lon="-0.44191">
        <ele>23.3323</ele>
        <time>2011-02-27T14:05:47Z</time>
      </trkpt>
      <trkpt lat="46.39135" lon="-0.4419">
        <ele>23.3208</ele>
        <time>2011-02-27T14:05:48Z</time>
      </trkpt>
      <trkpt lat="46.39135" lon="-0.44188">
        <ele>23.3102</ele>
        <time>2011-02-27T14:05:49Z</time>
      </trkpt>
      <trkpt lat="46.39136" lon="-0.44187">
        <ele>23.2995</ele>
        <time>2011-02-27T14:05:50Z</time>
      </trkpt>
      <trkpt lat="46.39137" lon="-0.44186">
        <ele>23.2892</ele>
        <time>2011-02-27T14:05:51Z</time>
      </trkpt>
      <trkpt lat="46.39138" lon="-0.44185">
        <ele>23.2792</ele>
        <time>2011-02-27T14:05:52Z</time>
      </trkpt>
      <trkpt lat="46.39138" lon="-0.44184">
        <ele>23.2691</ele>
        <time>2011-02-27T14:05:53Z</time>
      </trkpt>
      <trkpt lat="46.3914" lon="-0.44182">
        <ele>23.259</ele>
        <time>2011-02-27T14:05:54Z</time>
      </trkpt>
      <trkpt lat="46.3914" lon="-0.44181">
        <ele>23.2481</ele>
        <time>2011-02-27T14:05:55Z</time>
      </trkpt>
      <trkpt lat="46.39141" lon="-0.4418">
        <ele>23.2364</ele>
        <time>2011-02-27T14:05:56Z</time>
      </trkpt>
      <trkpt lat="46.39142" lon="-0.44179">
        <ele>23.2243</ele>
        <time>2011-02-27T14:05:57Z</time>
      </trkpt>
      <trkpt lat="46.39143" lon="-0.44178">
        <ele>23.2122</ele>
        <time>2011-02-27T14:05:58Z</time>
      </trkpt>
      <trkpt lat="46.39144" lon="-0.44176">
        <ele>23.1998</ele>
        <time>2011-02-27T14:05:59Z</time>
      </trkpt>
      <trkpt lat="46.39145" lon="-0.44175">
        <ele>23.1889</ele>
        <time>2011-02-27T14:06:00Z</time>
      </trkpt>
      <trkpt lat="46.39146" lon="-0.44173">
        <ele>23.18</ele>
        <time>2011-02-27T14:06:01Z</time>
      </trkpt>
      <trkpt lat="46.39147" lon="-0.44172">
        <ele>23.1742</ele>
        <time>2011-02-27T14:06:02Z</time>
      </trkpt>
      <trkpt lat="46.39148" lon="-0.44171">
        <ele>23.1688</ele>
        <time>2011-02-27T14:06:03Z</time>
      </trkpt>
      <trkpt lat="46.39148" lon="-0.4417">
        <ele>23.164</ele>
        <time>2011-02-27T14:06:04Z</time>
      </trkpt>
      <trkpt lat="46.3915" lon="-0.44169">
        <ele>23.1614</ele>
        <time>2011-02-27T14:06:05Z</time>
      </trkpt>
      <trkpt lat="46.3915" lon="-0.44168">
        <ele>23.1589</ele>
        <time>2011-02-27T14:06:06Z</time>
      </trkpt>
      <trkpt lat="46.39151" lon="-0.44168">
        <ele>23.1576</ele>
        <time>2011-02-27T14:06:07Z</time>
      </trkpt>
      <trkpt lat="46.39152" lon="-0.44167">
        <ele>23.1558</ele>
        <time>2011-02-27T14:06:08Z</time>
      </trkpt>
      <trkpt lat="46.39153" lon="-0.44167">
        <ele>23.153</ele>
        <time>2011-02-27T14:06:09Z</time>
      </trkpt>
      <trkpt lat="46.39154" lon="-0.44166">
        <ele>23.1505</ele>
        <time>2011-02-27T14:06:10Z</time>
      </trkpt>
      <trkpt lat="46.39155" lon="-0.44165">
        <ele>23.1484</ele>
        <time>2011-02-27T14:06:11Z</time>
      </trkpt>
      <trkpt lat="46.39156" lon="-0.44164">
        <ele>23.1457</ele>
        <time>2011-02-27T14:06:12Z</time>
      </trkpt>
      <trkpt lat="46.39156" lon="-0.44163">
        <ele>23.1425</ele>
        <time>2011-02-27T14:06:13Z</time>
      </trkpt>
      <trkpt lat="46.39158" lon="-0.44162">
        <ele>23.1396</ele>
        <time>2011-02-27T14:06:14Z</time>
      </trkpt>
      <trkpt lat="46.39158" lon="-0.44161">
        <ele>23.1359</ele>
        <time>2011-02-27T14:06:15Z</time>
      </trkpt>
      <trkpt lat="46.39159" lon="-0.44159">
        <ele>23.1332</ele>
        <time>2011-02-27T14:06:16Z</time>
      </trkpt>
      <trkpt lat="46.3916" lon="-0.44158">
        <ele>23.133</ele>
        <time>2011-02-27T14:06:17Z</time>
      </trkpt>
      <trkpt lat="46.39161" lon="-0.44157">
        <ele>23.1331</ele>
        <time>2011-02-27T14:06:18Z</time>
      </trkpt>
      <trkpt lat="46.39162" lon="-0.44156">
        <ele>23.1337</ele>
        <time>2011-02-27T14:06:19Z</time>
      </trkpt>
      <trkpt lat="46.39163" lon="-0.44155">
        <ele>23.1343</ele>
        <time>2011-02-27T14:06:20Z</time>
      </trkpt>
      <trkpt lat="46.39164" lon="-0.44154">
        <ele>23.1352</ele>
        <time>2011-02-27T14:06:21Z</time>
      </trkpt>
      <trkpt lat="46.39164" lon="-0.44153">
        <ele>23.1362</ele>
        <time>2011-02-27T14:06:22Z</time>
      </trkpt>
      <trkpt lat="46.39165" lon="-0.44152">
        <ele>23.137</ele>
        <time>2011-02-27T14:06:23Z</time>
      </trkpt>
      <trkpt lat="46.39166" lon="-0.44151">
        <ele>23.1379</ele>
        <time>2011-02-27T14:06:24Z</time>
      </trkpt>
      <trkpt lat="46.39166" lon="-0.44149">
        <ele>23.138</ele>
        <time>2011-02-27T14:06:25Z</time>
      </trkpt>
      <trkpt lat="46.39166" lon="-0.44148">
        <ele>23.139</ele>
        <time>2011-02-27T14:06:26Z</time>
      </trkpt>
      <trkpt lat="46.39166" lon="-0.44147">
        <ele>23.1418</ele>
        <time>2011-02-27T14:06:27Z</time>
      </trkpt>
      <trkpt lat="46.39166" lon="-0.44146">
        <ele>23.145</ele>
        <time>2011-02-27T14:06:28Z</time>
      </trkpt>
      <trkpt lat="46.39166" lon="-0.44145">
        <ele>23.1475</ele>
        <time>2011-02-27T14:06:29Z</time>
      </trkpt>
      <trkpt lat="46.39167" lon="-0.44144">
        <ele>23.1482</ele>
        <time>2011-02-27T14:06:30Z</time>
      </trkpt>
      <trkpt lat="46.39167" lon="-0.44143">
        <ele>23.1496</ele>
        <time>2011-02-27T14:06:31Z</time>
      </trkpt>
      <trkpt lat="46.39167" lon="-0.44142">
        <ele>23.1501</ele>
        <time>2011-02-27T14:06:32Z</time>
      </trkpt>
      <trkpt lat="46.39168" lon="-0.4414">
        <ele>23.1493</ele>
        <time>2011-02-27T14:06:33Z</time>
      </trkpt>
      <trkpt lat="46.39169" lon="-0.44139">
        <ele>23.1521</ele>
        <time>2011-02-27T14:06:34Z</time>
      </trkpt>
      <trkpt lat="46.3917" lon="-0.44137">
        <ele>23.1576</ele>
        <time>2011-02-27T14:06:35Z</time>
      </trkpt>
      <trkpt lat="46.39171" lon="-0.44135">
        <ele>23.1633</ele>
        <time>2011-02-27T14:06:36Z</time>
      </trkpt>
      <trkpt lat="46.39172" lon="-0.44134">
        <ele>23.1705</ele>
        <time>2011-02-27T14:06:37Z</time>
      </trkpt>
      <trkpt lat="46.39173" lon="-0.44132">
        <ele>23.1783</ele>
        <time>2011-02-27T14:06:38Z</time>
      </trkpt>
      <trkpt lat="46.39174" lon="-0.44131">
        <ele>23.187</ele>
        <time>2011-02-27T14:06:39Z</time>
      </trkpt>
      <trkpt lat="46.39175" lon="-0.4413">
        <ele>23.1965</ele>
        <time>2011-02-27T14:06:40Z</time>
      </trkpt>
      <trkpt lat="46.39175" lon="-0.4413">
        <ele>23.2049</ele>
        <time>2011-02-27T14:06:41Z</time>
      </trkpt>
      <trkpt lat="46.39175" lon="-0.44131">
        <ele>23.237</ele>
        <time>2011-02-27T14:06:46Z</time>
      </trkpt>
      <trkpt lat="46.39176" lon="-0.44131">
        <ele>23.2528</ele>
        <time>2011-02-27T14:06:47Z</time>
      </trkpt>
      <trkpt lat="46.39177" lon="-0.44131">
        <ele>23.2632</ele>
        <time>2011-02-27T14:06:48Z</time>
      </trkpt>
      <trkpt lat="46.39177" lon="-0.4413">
        <ele>23.2691</ele>
        <time>2011-02-27T14:06:49Z</time>
      </trkpt>
      <trkpt lat="46.39178" lon="-0.44128">
        <ele>23.273</ele>
        <time>2011-02-27T14:06:50Z</time>
      </trkpt>
      <trkpt lat="46.39179" lon="-0.44127">
        <ele>23.2766</ele>
        <time>2011-02-27T14:06:51Z</time>
      </trkpt>
      <trkpt lat="46.3918" lon="-0.44125">
        <ele>23.2884</ele>
        <time>2011-02-27T14:06:52Z</time>
      </trkpt>
      <trkpt lat="46.3918" lon="-0.44123">
        <ele>23.298</ele>
        <time>2011-02-27T14:06:53Z</time>
      </trkpt>
      <trkpt lat="46.39181" lon="-0.44122">
        <ele>23.3136</ele>
        <time>2011-02-27T14:06:54Z</time>
      </trkpt>
      <trkpt lat="46.39181" lon="-0.4412">
        <ele>23.3318</ele>
        <time>2011-02-27T14:06:55Z</time>
      </trkpt>
      <trkpt lat="46.39182" lon="-0.44119">
        <ele>23.3481</ele>
        <time>2011-02-27T14:06:56Z</time>
      </trkpt>
      <trkpt lat="46.39182" lon="-0.44118">
        <ele>23.3733</ele>
        <time>2011-02-27T14:06:57Z</time>
      </trkpt>
      <trkpt lat="46.39183" lon="-0.44116">
        <ele>23.397</ele>
        <time>2011-02-27T14:06:58Z</time>
      </trkpt>
      <trkpt lat="46.39183" lon="-0.44115">
        <ele>23.4166</ele>
        <time>2011-02-27T14:06:59Z</time>
      </trkpt>
      <trkpt lat="46.39183" lon="-0.44114">
        <ele>23.434</ele>
        <time>2011-02-27T14:07:00Z</time>
      </trkpt>
      <trkpt lat="46.39183" lon="-0.44112">
        <ele>23.4475</ele>
        <time>2011-02-27T14:07:01Z</time>
      </trkpt>
      <trkpt lat="46.39184" lon="-0.44111">
        <ele>23.4581</ele>
        <time>2011-02-27T14:07:02Z</time>
      </trkpt>
      <trkpt lat="46.39184" lon="-0.4411">
        <ele>23.468</ele>
        <time>2011-02-27T14:07:03Z</time>
      </trkpt>
      <trkpt lat="46.39185" lon="-0.44109">
        <ele>23.4759</ele>
        <time>2011-02-27T14:07:04Z</time>
      </trkpt>
      <trkpt lat="46.39185" lon="-0.44108">
        <ele>23.481</ele>
        <time>2011-02-27T14:07:05Z</time>
      </trkpt>
      <trkpt lat="46.39186" lon="-0.44106">
        <ele>23.4922</ele>
        <time>2011-02-27T14:07:06Z</time>
      </trkpt>
      <trkpt lat="46.39187" lon="-0.44104">
        <ele>23.5106</ele>
        <time>2011-02-27T14:07:07Z</time>
      </trkpt>
      <trkpt lat="46.39188" lon="-0.44103">
        <ele>23.5339</ele>
        <time>2011-02-27T14:07:08Z</time>
      </trkpt>
      <trkpt lat="46.39189" lon="-0.44101">
        <ele>23.5563</ele>
        <time>2011-02-27T14:07:09Z</time>
      </trkpt>
      <trkpt lat="46.3919" lon="-0.441">
        <ele>23.5786</ele>
        <time>2011-02-27T14:07:10Z</time>
      </trkpt>
      <trkpt lat="46.3919" lon="-0.44099">
        <ele>23.5999</ele>
        <time>2011-02-27T14:07:11Z</time>
      </trkpt>
      <trkpt lat="46.39191" lon="-0.44097">
        <ele>23.6186</ele>
        <time>2011-02-27T14:07:12Z</time>
      </trkpt>
      <trkpt lat="46.39191" lon="-0.44096">
        <ele>23.6363</ele>
        <time>2011-02-27T14:07:13Z</time>
      </trkpt>
      <trkpt lat="46.39192" lon="-0.44095">
        <ele>23.6492</ele>
        <time>2011-02-27T14:07:14Z</time>
      </trkpt>
      <trkpt lat="46.39193" lon="-0.44094">
        <ele>23.6593</ele>
        <time>2011-02-27T14:07:15Z</time>
      </trkpt>
      <trkpt lat="46.39193" lon="-0.44093">
        <ele>23.6683</ele>
        <time>2011-02-27T14:07:16Z</time>
      </trkpt>
      <trkpt lat="46.39194" lon="-0.44092">
        <ele>23.6758</ele>
        <time>2011-02-27T14:07:17Z</time>
      </trkpt>
      <trkpt lat="46.39195" lon="-0.44091">
        <ele>23.6772</ele>
        <time>2011-02-27T14:07:18Z</time>
      </trkpt>
      <trkpt lat="46.39196" lon="-0.44089">
        <ele>23.6735</ele>
        <time>2011-02-27T14:07:19Z</time>
      </trkpt>
      <trkpt lat="46.39196" lon="-0.44088">
        <ele>23.6662</ele>
        <time>2011-02-27T14:07:20Z</time>
      </trkpt>
      <trkpt lat="46.39196" lon="-0.44087">
        <ele>23.6558</ele>
        <time>2011-02-27T14:07:21Z</time>
      </trkpt>
      <trkpt lat="46.39197" lon="-0.44085">
        <ele>23.6414</ele>
        <time>2011-02-27T14:07:22Z</time>
      </trkpt>
      <trkpt lat="46.39198" lon="-0.44084">
        <ele>23.6287</ele>
        <time>2011-02-27T14:07:23Z</time>
      </trkpt>
      <trkpt lat="46.39198" lon="-0.44082">
        <ele>23.6147</ele>
        <time>2011-02-27T14:07:24Z</time>
      </trkpt>
      <trkpt lat="46.39198" lon="-0.44081">
        <ele>23.6041</ele>
        <time>2011-02-27T14:07:25Z</time>
      </trkpt>
      <trkpt lat="46.39199" lon="-0.4408">
        <ele>23.5903</ele>
        <time>2011-02-27T14:07:26Z</time>
      </trkpt>
      <trkpt lat="46.39199" lon="-0.44078">
        <ele>23.5802</ele>
        <time>2011-02-27T14:07:27Z</time>
      </trkpt>
      <trkpt lat="46.39199" lon="-0.44077">
        <ele>23.5527</ele>
        <time>2011-02-27T14:07:28Z</time>
      </trkpt>
      <trkpt lat="46.39199" lon="-0.44075">
        <ele>23.5108</ele>
        <time>2011-02-27T14:07:29Z</time>
      </trkpt>
      <trkpt lat="46.392" lon="-0.44075">
        <ele>23.4277</ele>
        <time>2011-02-27T14:07:33Z</time>
      </trkpt>
      <trkpt lat="46.39201" lon="-0.44073">
        <ele>23.38</ele>
        <time>2011-02-27T14:07:34Z</time>
      </trkpt>
      <trkpt lat="46.39201" lon="-0.44072">
        <ele>23.3522</ele>
        <time>2011-02-27T14:07:35Z</time>
      </trkpt>
      <trkpt lat="46.39202" lon="-0.4407">
        <ele>23.3116</ele>
        <time>2011-02-27T14:07:36Z</time>
      </trkpt>
      <trkpt lat="46.39203" lon="-0.44069">
        <ele>23.2882</ele>
        <time>2011-02-27T14:07:37Z</time>
      </trkpt>
      <trkpt lat="46.39204" lon="-0.44067">
        <ele>23.2689</ele>
        <time>2011-02-27T14:07:38Z</time>
      </trkpt>
      <trkpt lat="46.39204" lon="-0.44066">
        <ele>23.248</ele>
        <time>2011-02-27T14:07:39Z</time>
      </trkpt>
      <trkpt lat="46.39205" lon="-0.44065">
        <ele>23.2219</ele>
        <time>2011-02-27T14:07:40Z</time>
      </trkpt>
      <trkpt lat="46.39206" lon="-0.44063">
        <ele>23.1898</ele>
        <time>2011-02-27T14:07:41Z</time>
      </trkpt>
      <trkpt lat="46.39206" lon="-0.44062">
        <ele>23.1455</ele>
        <time>2011-02-27T14:07:42Z</time>
      </trkpt>
      <trkpt lat="46.39207" lon="-0.44061">
        <ele>23.0894</ele>
        <time>2011-02-27T14:07:43Z</time>
      </trkpt>
      <trkpt lat="46.39207" lon="-0.4406">
        <ele>23.0366</ele>
        <time>2011-02-27T14:07:44Z</time>
      </trkpt>
      <trkpt lat="46.39208" lon="-0.44059">
        <ele>22.9799</ele>
        <time>2011-02-27T14:07:45Z</time>
      </trkpt>
      <trkpt lat="46.39208" lon="-0.44058">
        <ele>22.9267</ele>
        <time>2011-02-27T14:07:46Z</time>
      </trkpt>
      <trkpt lat="46.39209" lon="-0.44056">
        <ele>22.8788</ele>
        <time>2011-02-27T14:07:47Z</time>
      </trkpt>
      <trkpt lat="46.3921" lon="-0.44055">
        <ele>22.8493</ele>
        <time>2011-02-27T14:07:48Z</time>
      </trkpt>
      <trkpt lat="46.39211" lon="-0.44054">
        <ele>22.8248</ele>
        <time>2011-02-27T14:07:49Z</time>
      </trkpt>
      <trkpt lat="46.39212" lon="-0.44054">
        <ele>22.7969</ele>
        <time>2011-02-27T14:07:50Z</time>
      </trkpt>
      <trkpt lat="46.39212" lon="-0.44053">
        <ele>22.7958</ele>
        <time>2011-02-27T14:07:51Z</time>
      </trkpt>
      <trkpt lat="46.39213" lon="-0.44052">
        <ele>22.7697</ele>
        <time>2011-02-27T14:07:52Z</time>
      </trkpt>
      <trkpt lat="46.39213" lon="-0.44051">
        <ele>22.7464</ele>
        <time>2011-02-27T14:07:53Z</time>
      </trkpt>
      <trkpt lat="46.39214" lon="-0.4405">
        <ele>22.6972</ele>
        <time>2011-02-27T14:07:54Z</time>
      </trkpt>
      <trkpt lat="46.39214" lon="-0.44049">
        <ele>22.6364</ele>
        <time>2011-02-27T14:07:55Z</time>
      </trkpt>
      <trkpt lat="46.39214" lon="-0.44048">
        <ele>22.5922</ele>
        <time>2011-02-27T14:07:56Z</time>
      </trkpt>
      <trkpt lat="46.39214" lon="-0.44047">
        <ele>22.5424</ele>
        <time>2011-02-27T14:07:57Z</time>
      </trkpt>
      <trkpt lat="46.39213" lon="-0.44047">
        <ele>22.5199</ele>
        <time>2011-02-27T14:07:58Z</time>
      </trkpt>
      <trkpt lat="46.39213" lon="-0.44047">
        <ele>22.4952</ele>
        <time>2011-02-27T14:07:59Z</time>
      </trkpt>
      <trkpt lat="46.39213" lon="-0.44047">
        <ele>22.4739</ele>
        <time>2011-02-27T14:08:00Z</time>
      </trkpt>
      <trkpt lat="46.39214" lon="-0.44046">
        <ele>22.445</ele>
        <time>2011-02-27T14:08:01Z</time>
      </trkpt>
      <trkpt lat="46.39214" lon="-0.44046">
        <ele>22.445</ele>
        <time>2011-02-27T14:08:02Z</time>
      </trkpt>
      <trkpt lat="46.39216" lon="-0.44038">
        <ele>22.5451</ele>
        <time>2011-02-27T14:08:08Z</time>
      </trkpt>
      <trkpt lat="46.39219" lon="-0.44039">
        <ele>22.7322</ele>
        <time>2011-02-27T14:08:53Z</time>
      </trkpt>
      <trkpt lat="46.39219" lon="-0.44039">
        <ele>22.6531</ele>
        <time>2011-02-27T14:08:54Z</time>
      </trkpt>
      <trkpt lat="46.39219" lon="-0.44039">
        <ele>22.5777</ele>
        <time>2011-02-27T14:08:55Z</time>
      </trkpt>
      <trkpt lat="46.39219" lon="-0.44039">
        <ele>22.5036</ele>
        <time>2011-02-27T14:08:56Z</time>
      </trkpt>
      <trkpt lat="46.3922" lon="-0.44038">
        <ele>22.4317</ele>
        <time>2011-02-27T14:08:57Z</time>
      </trkpt>
      <trkpt lat="46.3922" lon="-0.44037">
        <ele>22.3613</ele>
        <time>2011-02-27T14:08:58Z</time>
      </trkpt>
      <trkpt lat="46.3922" lon="-0.44036">
        <ele>22.2925</ele>
        <time>2011-02-27T14:08:59Z</time>
      </trkpt>
      <trkpt lat="46.39221" lon="-0.44035">
        <ele>22.2278</ele>
        <time>2011-02-27T14:09:00Z</time>
      </trkpt>
      <trkpt lat="46.39221" lon="-0.44034">
        <ele>22.1624</ele>
        <time>2011-02-27T14:09:01Z</time>
      </trkpt>
      <trkpt lat="46.39221" lon="-0.44034">
        <ele>22.1017</ele>
        <time>2011-02-27T14:09:02Z</time>
      </trkpt>
      <trkpt lat="46.39222" lon="-0.44032">
        <ele>22.0434</ele>
        <time>2011-02-27T14:09:03Z</time>
      </trkpt>
      <trkpt lat="46.39222" lon="-0.44031">
        <ele>21.9863</ele>
        <time>2011-02-27T14:09:04Z</time>
      </trkpt>
      <trkpt lat="46.39222" lon="-0.4403">
        <ele>21.9288</ele>
        <time>2011-02-27T14:09:05Z</time>
      </trkpt>
      <trkpt lat="46.39223" lon="-0.44029">
        <ele>21.8729</ele>
        <time>2011-02-27T14:09:06Z</time>
      </trkpt>
      <trkpt lat="46.39224" lon="-0.44028">
        <ele>21.8198</ele>
        <time>2011-02-27T14:09:07Z</time>
      </trkpt>
      <trkpt lat="46.39224" lon="-0.44027">
        <ele>21.7672</ele>
        <time>2011-02-27T14:09:08Z</time>
      </trkpt>
      <trkpt lat="46.39225" lon="-0.44026">
        <ele>21.712</ele>
        <time>2011-02-27T14:09:09Z</time>
      </trkpt>
      <trkpt lat="46.39226" lon="-0.44025">
        <ele>21.6559</ele>
        <time>2011-02-27T14:09:10Z</time>
      </trkpt>
      <trkpt lat="46.39227" lon="-0.44024">
        <ele>21.6056</ele>
        <time>2011-02-27T14:09:11Z</time>
      </trkpt>
      <trkpt lat="46.39227" lon="-0.44023">
        <ele>21.5564</ele>
        <time>2011-02-27T14:09:12Z</time>
      </trkpt>
      <trkpt lat="46.39228" lon="-0.44021">
        <ele>21.5058</ele>
        <time>2011-02-27T14:09:13Z</time>
      </trkpt>
      <trkpt lat="46.39229" lon="-0.4402">
        <ele>21.4585</ele>
        <time>2011-02-27T14:09:14Z</time>
      </trkpt>
      <trkpt lat="46.3923" lon="-0.44019">
        <ele>21.4025</ele>
        <time>2011-02-27T14:09:15Z</time>
      </trkpt>
      <trkpt lat="46.39231" lon="-0.44018">
        <ele>21.358</ele>
        <time>2011-02-27T14:09:16Z</time>
      </trkpt>
      <trkpt lat="46.39232" lon="-0.44018">
        <ele>21.3162</ele>
        <time>2011-02-27T14:09:17Z</time>
      </trkpt>
      <trkpt lat="46.39233" lon="-0.44016">
        <ele>21.2657</ele>
        <time>2011-02-27T14:09:18Z</time>
      </trkpt>
      <trkpt lat="46.39235" lon="-0.44016">
        <ele>21.2095</ele>
        <time>2011-02-27T14:09:19Z</time>
      </trkpt>
      <trkpt lat="46.39236" lon="-0.44015">
        <ele>21.1596</ele>
        <time>2011-02-27T14:09:20Z</time>
      </trkpt>
      <trkpt lat="46.39237" lon="-0.44014">
        <ele>21.1596</ele>
        <time>2011-02-27T14:09:21Z</time>
      </trkpt>
      <trkpt lat="46.39238" lon="-0.44011">
        <ele>21.1186</ele>
        <time>2011-02-27T14:09:22Z</time>
      </trkpt>
      <trkpt lat="46.39238" lon="-0.4401">
        <ele>21.1191</ele>
        <time>2011-02-27T14:09:23Z</time>
      </trkpt>
      <trkpt lat="46.39239" lon="-0.44009">
        <ele>21.1427</ele>
        <time>2011-02-27T14:09:24Z</time>
      </trkpt>
      <trkpt lat="46.39239" lon="-0.44008">
        <ele>21.163</ele>
        <time>2011-02-27T14:09:25Z</time>
      </trkpt>
      <trkpt lat="46.3924" lon="-0.44007">
        <ele>21.1804</ele>
        <time>2011-02-27T14:09:26Z</time>
      </trkpt>
      <trkpt lat="46.3924" lon="-0.44006">
        <ele>21.197</ele>
        <time>2011-02-27T14:09:27Z</time>
      </trkpt>
      <trkpt lat="46.3924" lon="-0.44005">
        <ele>21.2116</ele>
        <time>2011-02-27T14:09:28Z</time>
      </trkpt>
      <trkpt lat="46.39241" lon="-0.44004">
        <ele>21.2269</ele>
        <time>2011-02-27T14:09:29Z</time>
      </trkpt>
      <trkpt lat="46.39241" lon="-0.44002">
        <ele>21.2281</ele>
        <time>2011-02-27T14:09:30Z</time>
      </trkpt>
      <trkpt lat="46.39242" lon="-0.44001">
        <ele>21.2243</ele>
        <time>2011-02-27T14:09:31Z</time>
      </trkpt>
      <trkpt lat="46.39242" lon="-0.44">
        <ele>21.2192</ele>
        <time>2011-02-27T14:09:32Z</time>
      </trkpt>
      <trkpt lat="46.39243" lon="-0.43999">
        <ele>21.2081</ele>
        <time>2011-02-27T14:09:33Z</time>
      </trkpt>
      <trkpt lat="46.39243" lon="-0.43998">
        <ele>21.1891</ele>
        <time>2011-02-27T14:09:34Z</time>
      </trkpt>
      <trkpt lat="46.39244" lon="-0.43997">
        <ele>21.1661</ele>
        <time>2011-02-27T14:09:35Z</time>
      </trkpt>
      <trkpt lat="46.39245" lon="-0.43996">
        <ele>21.1418</ele>
        <time>2011-02-27T14:09:36Z</time>
      </trkpt>
      <trkpt lat="46.39246" lon="-0.43995">
        <ele>21.1165</ele>
        <time>2011-02-27T14:09:37Z</time>
      </trkpt>
      <trkpt lat="46.39246" lon="-0.43994">
        <ele>21.0923</ele>
        <time>2011-02-27T14:09:38Z</time>
      </trkpt>
      <trkpt lat="46.39247" lon="-0.43993">
        <ele>21.0703</ele>
        <time>2011-02-27T14:09:39Z</time>
      </trkpt>
      <trkpt lat="46.39248" lon="-0.43992">
        <ele>21.0493</ele>
        <time>2011-02-27T14:09:40Z</time>
      </trkpt>
      <trkpt lat="46.39249" lon="-0.43991">
        <ele>21.0302</ele>
        <time>2011-02-27T14:09:41Z</time>
      </trkpt>
      <trkpt lat="46.39249" lon="-0.4399">
        <ele>21.0123</ele>
        <time>2011-02-27T14:09:42Z</time>
      </trkpt>
      <trkpt lat="46.3925" lon="-0.43989">
        <ele>20.9969</ele>
        <time>2011-02-27T14:09:43Z</time>
      </trkpt>
      <trkpt lat="46.39251" lon="-0.43988">
        <ele>20.9823</ele>
        <time>2011-02-27T14:09:44Z</time>
      </trkpt>
      <trkpt lat="46.39251" lon="-0.43987">
        <ele>20.9687</ele>
        <time>2011-02-27T14:09:45Z</time>
      </trkpt>
      <trkpt lat="46.39251" lon="-0.43986">
        <ele>20.9558</ele>
        <time>2011-02-27T14:09:46Z</time>
      </trkpt>
      <trkpt lat="46.39252" lon="-0.43985">
        <ele>20.9432</ele>
        <time>2011-02-27T14:09:47Z</time>
      </trkpt>
      <trkpt lat="46.39252" lon="-0.43984">
        <ele>20.929</ele>
        <time>2011-02-27T14:09:48Z</time>
      </trkpt>
      <trkpt lat="46.39253" lon="-0.43983">
        <ele>20.9159</ele>
        <time>2011-02-27T14:09:49Z</time>
      </trkpt>
      <trkpt lat="46.39253" lon="-0.43981">
        <ele>20.9063</ele>
        <time>2011-02-27T14:09:50Z</time>
      </trkpt>
      <trkpt lat="46.39254" lon="-0.4398">
        <ele>20.9033</ele>
        <time>2011-02-27T14:09:51Z</time>
      </trkpt>
      <trkpt lat="46.39254" lon="-0.43979">
        <ele>20.9046</ele>
        <time>2011-02-27T14:09:52Z</time>
      </trkpt>
      <trkpt lat="46.39255" lon="-0.43977">
        <ele>20.9101</ele>
        <time>2011-02-27T14:09:53Z</time>
      </trkpt>
      <trkpt lat="46.39256" lon="-0.43976">
        <ele>20.9165</ele>
        <time>2011-02-27T14:09:54Z</time>
      </trkpt>
      <trkpt lat="46.39257" lon="-0.43975">
        <ele>20.9201</ele>
        <time>2011-02-27T14:09:55Z</time>
      </trkpt>
      <trkpt lat="46.39258" lon="-0.43974">
        <ele>20.9205</ele>
        <time>2011-02-27T14:09:56Z</time>
      </trkpt>
      <trkpt lat="46.39259" lon="-0.43973">
        <ele>20.9163</ele>
        <time>2011-02-27T14:09:57Z</time>
      </trkpt>
      <trkpt lat="46.3926" lon="-0.43972">
        <ele>20.9119</ele>
        <time>2011-02-27T14:09:58Z</time>
      </trkpt>
      <trkpt lat="46.3926" lon="-0.4397">
        <ele>20.9073</ele>
        <time>2011-02-27T14:09:59Z</time>
      </trkpt>
      <trkpt lat="46.39261" lon="-0.43969">
        <ele>20.9039</ele>
        <time>2011-02-27T14:10:00Z</time>
      </trkpt>
      <trkpt lat="46.39262" lon="-0.43968">
        <ele>20.9038</ele>
        <time>2011-02-27T14:10:01Z</time>
      </trkpt>
      <trkpt lat="46.39262" lon="-0.43967">
        <ele>20.9048</ele>
        <time>2011-02-27T14:10:02Z</time>
      </trkpt>
      <trkpt lat="46.39263" lon="-0.43966">
        <ele>20.903</ele>
        <time>2011-02-27T14:10:03Z</time>
      </trkpt>
      <trkpt lat="46.39264" lon="-0.43965">
        <ele>20.9025</ele>
        <time>2011-02-27T14:10:04Z</time>
      </trkpt>
      <trkpt lat="46.39264" lon="-0.43965">
        <ele>20.8429</ele>
        <time>2011-02-27T14:10:05Z</time>
      </trkpt>
      <trkpt lat="46.39265" lon="-0.43965">
        <ele>20.7852</ele>
        <time>2011-02-27T14:10:06Z</time>
      </trkpt>
      <trkpt lat="46.39265" lon="-0.43965">
        <ele>20.724</ele>
        <time>2011-02-27T14:10:07Z</time>
      </trkpt>
      <trkpt lat="46.39265" lon="-0.43965">
        <ele>20.6608</ele>
        <time>2011-02-27T14:10:08Z</time>
      </trkpt>
      <trkpt lat="46.39265" lon="-0.43964">
        <ele>20.6059</ele>
        <time>2011-02-27T14:10:09Z</time>
      </trkpt>
      <trkpt lat="46.39266" lon="-0.43963">
        <ele>20.5642</ele>
        <time>2011-02-27T14:10:10Z</time>
      </trkpt>
      <trkpt lat="46.39267" lon="-0.43962">
        <ele>20.5286</ele>
        <time>2011-02-27T14:10:11Z</time>
      </trkpt>
      <trkpt lat="46.39269" lon="-0.43961">
        <ele>20.5317</ele>
        <time>2011-02-27T14:10:12Z</time>
      </trkpt>
      <trkpt lat="46.39269" lon="-0.4396">
        <ele>20.5544</ele>
        <time>2011-02-27T14:10:13Z</time>
      </trkpt>
      <trkpt lat="46.3927" lon="-0.43958">
        <ele>20.5997</ele>
        <time>2011-02-27T14:10:14Z</time>
      </trkpt>
      <trkpt lat="46.3927" lon="-0.43957">
        <ele>20.6269</ele>
        <time>2011-02-27T14:10:15Z</time>
      </trkpt>
      <trkpt lat="46.39271" lon="-0.43955">
        <ele>20.647</ele>
        <time>2011-02-27T14:10:16Z</time>
      </trkpt>
      <trkpt lat="46.39272" lon="-0.43953">
        <ele>20.6641</ele>
        <time>2011-02-27T14:10:17Z</time>
      </trkpt>
      <trkpt lat="46.39272" lon="-0.43951">
        <ele>20.6755</ele>
        <time>2011-02-27T14:10:18Z</time>
      </trkpt>
      <trkpt lat="46.39273" lon="-0.4395">
        <ele>20.6977</ele>
        <time>2011-02-27T14:10:19Z</time>
      </trkpt>
      <trkpt lat="46.39274" lon="-0.43948">
        <ele>20.7171</ele>
        <time>2011-02-27T14:10:20Z</time>
      </trkpt>
      <trkpt lat="46.39274" lon="-0.43947">
        <ele>20.7446</ele>
        <time>2011-02-27T14:10:21Z</time>
      </trkpt>
      <trkpt lat="46.39275" lon="-0.43945">
        <ele>20.7672</ele>
        <time>2011-02-27T14:10:22Z</time>
      </trkpt>
      <trkpt lat="46.39276" lon="-0.43943">
        <ele>20.7786</ele>
        <time>2011-02-27T14:10:23Z</time>
      </trkpt>
      <trkpt lat="46.39277" lon="-0.43942">
        <ele>20.7836</ele>
        <time>2011-02-27T14:10:24Z</time>
      </trkpt>
      <trkpt lat="46.39278" lon="-0.4394">
        <ele>20.799</ele>
        <time>2011-02-27T14:10:25Z</time>
      </trkpt>
      <trkpt lat="46.39278" lon="-0.43938">
        <ele>20.8346</ele>
        <time>2011-02-27T14:10:26Z</time>
      </trkpt>
      <trkpt lat="46.39278" lon="-0.43936">
        <ele>20.857</ele>
        <time>2011-02-27T14:10:27Z</time>
      </trkpt>
      <trkpt lat="46.39279" lon="-0.43934">
        <ele>20.8804</ele>
        <time>2011-02-27T14:10:28Z</time>
      </trkpt>
      <trkpt lat="46.3928" lon="-0.43933">
        <ele>20.9133</ele>
        <time>2011-02-27T14:10:29Z</time>
      </trkpt>
      <trkpt lat="46.3928" lon="-0.43931">
        <ele>20.9487</ele>
        <time>2011-02-27T14:10:30Z</time>
      </trkpt>
      <trkpt lat="46.39281" lon="-0.4393">
        <ele>20.9701</ele>
        <time>2011-02-27T14:10:31Z</time>
      </trkpt>
      <trkpt lat="46.39282" lon="-0.4393">
        <ele>20.9634</ele>
        <time>2011-02-27T14:10:32Z</time>
      </trkpt>
      <trkpt lat="46.39282" lon="-0.43929">
        <ele>21.0087</ele>
        <time>2011-02-27T14:10:33Z</time>
      </trkpt>
      <trkpt lat="46.39283" lon="-0.43927">
        <ele>21.0375</ele>
        <time>2011-02-27T14:10:34Z</time>
      </trkpt>
      <trkpt lat="46.39283" lon="-0.43925">
        <ele>21.0588</ele>
        <time>2011-02-27T14:10:35Z</time>
      </trkpt>
      <trkpt lat="46.39283" lon="-0.43923">
        <ele>21.0881</ele>
        <time>2011-02-27T14:10:36Z</time>
      </trkpt>
      <trkpt lat="46.39283" lon="-0.43922">
        <ele>21.1107</ele>
        <time>2011-02-27T14:10:37Z</time>
      </trkpt>
      <trkpt lat="46.39284" lon="-0.43921">
        <ele>21.1427</ele>
        <time>2011-02-27T14:10:38Z</time>
      </trkpt>
      <trkpt lat="46.39285" lon="-0.4392">
        <ele>21.1442</ele>
        <time>2011-02-27T14:10:39Z</time>
      </trkpt>
      <trkpt lat="46.39285" lon="-0.43919">
        <ele>21.1356</ele>
        <time>2011-02-27T14:10:40Z</time>
      </trkpt>
      <trkpt lat="46.39285" lon="-0.43918">
        <ele>21.1297</ele>
        <time>2011-02-27T14:10:41Z</time>
      </trkpt>
      <trkpt lat="46.39286" lon="-0.43917">
        <ele>21.1419</ele>
        <time>2011-02-27T14:10:42Z</time>
      </trkpt>
      <trkpt lat="46.39287" lon="-0.43916">
        <ele>21.1337</ele>
        <time>2011-02-27T14:10:43Z</time>
      </trkpt>
      <trkpt lat="46.39288" lon="-0.43915">
        <ele>21.1532</ele>
        <time>2011-02-27T14:10:44Z</time>
      </trkpt>
      <trkpt lat="46.39288" lon="-0.43914">
        <ele>21.1784</ele>
        <time>2011-02-27T14:10:45Z</time>
      </trkpt>
      <trkpt lat="46.39289" lon="-0.43913">
        <ele>21.1898</ele>
        <time>2011-02-27T14:10:46Z</time>
      </trkpt>
      <trkpt lat="46.39289" lon="-0.43912">
        <ele>21.1893</ele>
        <time>2011-02-27T14:10:47Z</time>
      </trkpt>
      <trkpt lat="46.3929" lon="-0.43912">
        <ele>21.1768</ele>
        <time>2011-02-27T14:10:48Z</time>
      </trkpt>
      <trkpt lat="46.3929" lon="-0.43911">
        <ele>21.1464</ele>
        <time>2011-02-27T14:10:49Z</time>
      </trkpt>
      <trkpt lat="46.39291" lon="-0.43911">
        <ele>21.1212</ele>
        <time>2011-02-27T14:10:50Z</time>
      </trkpt>
      <trkpt lat="46.39291" lon="-0.4391">
        <ele>21.1725</ele>
        <time>2011-02-27T14:10:51Z</time>
      </trkpt>
      <trkpt lat="46.39291" lon="-0.43909">
        <ele>21.2222</ele>
        <time>2011-02-27T14:10:52Z</time>
      </trkpt>
      <trkpt lat="46.39291" lon="-0.43908">
        <ele>21.2795</ele>
        <time>2011-02-27T14:10:53Z</time>
      </trkpt>
      <trkpt lat="46.39293" lon="-0.43907">
        <ele>21.3638</ele>
        <time>2011-02-27T14:10:54Z</time>
      </trkpt>
      <trkpt lat="46.39294" lon="-0.43905">
        <ele>21.4467</ele>
        <time>2011-02-27T14:10:55Z</time>
      </trkpt>
      <trkpt lat="46.39295" lon="-0.43904">
        <ele>21.5226</ele>
        <time>2011-02-27T14:10:56Z</time>
      </trkpt>
      <trkpt lat="46.39296" lon="-0.43903">
        <ele>21.5893</ele>
        <time>2011-02-27T14:10:57Z</time>
      </trkpt>
      <trkpt lat="46.39297" lon="-0.43902">
        <ele>21.6469</ele>
        <time>2011-02-27T14:10:58Z</time>
      </trkpt>
      <trkpt lat="46.39298" lon="-0.43901">
        <ele>21.6469</ele>
        <time>2011-02-27T14:10:59Z</time>
      </trkpt>
      <trkpt lat="46.39299" lon="-0.43899">
        <ele>21.7055</ele>
        <time>2011-02-27T14:11:00Z</time>
      </trkpt>
      <trkpt lat="46.39299" lon="-0.43898">
        <ele>21.7374</ele>
        <time>2011-02-27T14:11:01Z</time>
      </trkpt>
      <trkpt lat="46.39301" lon="-0.43897">
        <ele>21.7532</ele>
        <time>2011-02-27T14:11:02Z</time>
      </trkpt>
      <trkpt lat="46.39301" lon="-0.43896">
        <ele>21.7684</ele>
        <time>2011-02-27T14:11:03Z</time>
      </trkpt>
      <trkpt lat="46.39302" lon="-0.43895">
        <ele>21.7643</ele>
        <time>2011-02-27T14:11:04Z</time>
      </trkpt>
      <trkpt lat="46.39303" lon="-0.43894">
        <ele>21.756</ele>
        <time>2011-02-27T14:11:05Z</time>
      </trkpt>
      <trkpt lat="46.39303" lon="-0.43892">
        <ele>21.7406</ele>
        <time>2011-02-27T14:11:06Z</time>
      </trkpt>
      <trkpt lat="46.39305" lon="-0.43891">
        <ele>21.7224</ele>
        <time>2011-02-27T14:11:07Z</time>
      </trkpt>
      <trkpt lat="46.39306" lon="-0.4389">
        <ele>21.7058</ele>
        <time>2011-02-27T14:11:08Z</time>
      </trkpt>
      <trkpt lat="46.39308" lon="-0.43889">
        <ele>21.6886</ele>
        <time>2011-02-27T14:11:09Z</time>
      </trkpt>
      <trkpt lat="46.39309" lon="-0.43888">
        <ele>21.671</ele>
        <time>2011-02-27T14:11:10Z</time>
      </trkpt>
      <trkpt lat="46.39311" lon="-0.43887">
        <ele>21.656</ele>
        <time>2011-02-27T14:11:11Z</time>
      </trkpt>
      <trkpt lat="46.39311" lon="-0.43886">
        <ele>21.6406</ele>
        <time>2011-02-27T14:11:12Z</time>
      </trkpt>
      <trkpt lat="46.39312" lon="-0.43885">
        <ele>21.6301</ele>
        <time>2011-02-27T14:11:13Z</time>
      </trkpt>
      <trkpt lat="46.39313" lon="-0.43884">
        <ele>21.6199</ele>
        <time>2011-02-27T14:11:14Z</time>
      </trkpt>
      <trkpt lat="46.39314" lon="-0.43883">
        <ele>21.6114</ele>
        <time>2011-02-27T14:11:15Z</time>
      </trkpt>
      <trkpt lat="46.39314" lon="-0.43882">
        <ele>21.6035</ele>
        <time>2011-02-27T14:11:16Z</time>
      </trkpt>
      <trkpt lat="46.39315" lon="-0.43881">
        <ele>21.5975</ele>
        <time>2011-02-27T14:11:17Z</time>
      </trkpt>
      <trkpt lat="46.39315" lon="-0.4388">
        <ele>21.5918</ele>
        <time>2011-02-27T14:11:18Z</time>
      </trkpt>
      <trkpt lat="46.39316" lon="-0.43879">
        <ele>21.5886</ele>
        <time>2011-02-27T14:11:19Z</time>
      </trkpt>
      <trkpt lat="46.39317" lon="-0.43878">
        <ele>21.5855</ele>
        <time>2011-02-27T14:11:20Z</time>
      </trkpt>
      <trkpt lat="46.39318" lon="-0.43876">
        <ele>21.5852</ele>
        <time>2011-02-27T14:11:21Z</time>
      </trkpt>
      <trkpt lat="46.39319" lon="-0.43875">
        <ele>21.5884</ele>
        <time>2011-02-27T14:11:22Z</time>
      </trkpt>
      <trkpt lat="46.3932" lon="-0.43874">
        <ele>21.5922</ele>
        <time>2011-02-27T14:11:23Z</time>
      </trkpt>
      <trkpt lat="46.3932" lon="-0.43872">
        <ele>21.5983</ele>
        <time>2011-02-27T14:11:24Z</time>
      </trkpt>
      <trkpt lat="46.39321" lon="-0.43871">
        <ele>21.6069</ele>
        <time>2011-02-27T14:11:25Z</time>
      </trkpt>
      <trkpt lat="46.39321" lon="-0.4387">
        <ele>21.6152</ele>
        <time>2011-02-27T14:11:26Z</time>
      </trkpt>
      <trkpt lat="46.39322" lon="-0.43868">
        <ele>21.6232</ele>
        <time>2011-02-27T14:11:27Z</time>
      </trkpt>
      <trkpt lat="46.39322" lon="-0.43866">
        <ele>21.6387</ele>
        <time>2011-02-27T14:11:28Z</time>
      </trkpt>
      <trkpt lat="46.39322" lon="-0.43864">
        <ele>21.6518</ele>
        <time>2011-02-27T14:11:29Z</time>
      </trkpt>
      <trkpt lat="46.39323" lon="-0.43863">
        <ele>21.6642</ele>
        <time>2011-02-27T14:11:30Z</time>
      </trkpt>
      <trkpt lat="46.39323" lon="-0.43861">
        <ele>21.6775</ele>
        <time>2011-02-27T14:11:31Z</time>
      </trkpt>
      <trkpt lat="46.39323" lon="-0.4386">
        <ele>21.6896</ele>
        <time>2011-02-27T14:11:32Z</time>
      </trkpt>
      <trkpt lat="46.39323" lon="-0.43858">
        <ele>21.7</ele>
        <time>2011-02-27T14:11:33Z</time>
      </trkpt>
      <trkpt lat="46.39324" lon="-0.43857">
        <ele>21.7074</ele>
        <time>2011-02-27T14:11:34Z</time>
      </trkpt>
      <trkpt lat="46.39324" lon="-0.43856">
        <ele>21.7127</ele>
        <time>2011-02-27T14:11:35Z</time>
      </trkpt>
      <trkpt lat="46.39325" lon="-0.43854">
        <ele>21.7187</ele>
        <time>2011-02-27T14:11:36Z</time>
      </trkpt>
      <trkpt lat="46.39325" lon="-0.43853">
        <ele>21.7229</ele>
        <time>2011-02-27T14:11:37Z</time>
      </trkpt>
      <trkpt lat="46.39325" lon="-0.43852">
        <ele>21.7276</ele>
        <time>2011-02-27T14:11:38Z</time>
      </trkpt>
      <trkpt lat="46.39325" lon="-0.43851">
        <ele>21.7274</ele>
        <time>2011-02-27T14:11:39Z</time>
      </trkpt>
      <trkpt lat="46.39325" lon="-0.4385">
        <ele>21.7258</ele>
        <time>2011-02-27T14:11:40Z</time>
      </trkpt>
      <trkpt lat="46.39326" lon="-0.43849">
        <ele>21.7266</ele>
        <time>2011-02-27T14:11:41Z</time>
      </trkpt>
      <trkpt lat="46.39326" lon="-0.43848">
        <ele>21.7233</ele>
        <time>2011-02-27T14:11:42Z</time>
      </trkpt>
      <trkpt lat="46.39327" lon="-0.43846">
        <ele>21.7238</ele>
        <time>2011-02-27T14:11:43Z</time>
      </trkpt>
      <trkpt lat="46.39327" lon="-0.43845">
        <ele>21.733</ele>
        <time>2011-02-27T14:11:44Z</time>
      </trkpt>
      <trkpt lat="46.39328" lon="-0.43844">
        <ele>21.7403</ele>
        <time>2011-02-27T14:11:45Z</time>
      </trkpt>
      <trkpt lat="46.39329" lon="-0.43843">
        <ele>21.7503</ele>
        <time>2011-02-27T14:11:46Z</time>
      </trkpt>
      <trkpt lat="46.3933" lon="-0.43842">
        <ele>21.7615</ele>
        <time>2011-02-27T14:11:47Z</time>
      </trkpt>
      <trkpt lat="46.3933" lon="-0.4384">
        <ele>21.7734</ele>
        <time>2011-02-27T14:11:48Z</time>
      </trkpt>
      <trkpt lat="46.39331" lon="-0.43839">
        <ele>21.7847</ele>
        <time>2011-02-27T14:11:49Z</time>
      </trkpt>
      <trkpt lat="46.39331" lon="-0.43837">
        <ele>21.7919</ele>
        <time>2011-02-27T14:11:50Z</time>
      </trkpt>
      <trkpt lat="46.39331" lon="-0.43835">
        <ele>21.7903</ele>
        <time>2011-02-27T14:11:51Z</time>
      </trkpt>
      <trkpt lat="46.39332" lon="-0.43834">
        <ele>21.7924</ele>
        <time>2011-02-27T14:11:52Z</time>
      </trkpt>
      <trkpt lat="46.39333" lon="-0.43832">
        <ele>21.7971</ele>
        <time>2011-02-27T14:11:53Z</time>
      </trkpt>
      <trkpt lat="46.39333" lon="-0.4383">
        <ele>21.8031</ele>
        <time>2011-02-27T14:11:54Z</time>
      </trkpt>
      <trkpt lat="46.39333" lon="-0.43828">
        <ele>21.8012</ele>
        <time>2011-02-27T14:11:55Z</time>
      </trkpt>
      <trkpt lat="46.39333" lon="-0.43827">
        <ele>21.7998</ele>
        <time>2011-02-27T14:11:56Z</time>
      </trkpt>
      <trkpt lat="46.39333" lon="-0.43825">
        <ele>21.7976</ele>
        <time>2011-02-27T14:11:57Z</time>
      </trkpt>
      <trkpt lat="46.39333" lon="-0.43823">
        <ele>21.7952</ele>
        <time>2011-02-27T14:11:58Z</time>
      </trkpt>
      <trkpt lat="46.39333" lon="-0.43821">
        <ele>21.7936</ele>
        <time>2011-02-27T14:11:59Z</time>
      </trkpt>
      <trkpt lat="46.39333" lon="-0.4382">
        <ele>21.7915</ele>
        <time>2011-02-27T14:12:00Z</time>
      </trkpt>
      <trkpt lat="46.39333" lon="-0.43818">
        <ele>21.7885</ele>
        <time>2011-02-27T14:12:01Z</time>
      </trkpt>
      <trkpt lat="46.39333" lon="-0.43816">
        <ele>21.7846</ele>
        <time>2011-02-27T14:12:02Z</time>
      </trkpt>
      <trkpt lat="46.39334" lon="-0.43815">
        <ele>21.78</ele>
        <time>2011-02-27T14:12:03Z</time>
      </trkpt>
      <trkpt lat="46.39335" lon="-0.43813">
        <ele>21.7756</ele>
        <time>2011-02-27T14:12:04Z</time>
      </trkpt>
      <trkpt lat="46.39335" lon="-0.43812">
        <ele>21.7723</ele>
        <time>2011-02-27T14:12:05Z</time>
      </trkpt>
      <trkpt lat="46.39336" lon="-0.43811">
        <ele>21.7685</ele>
        <time>2011-02-27T14:12:06Z</time>
      </trkpt>
      <trkpt lat="46.39336" lon="-0.4381">
        <ele>21.7599</ele>
        <time>2011-02-27T14:12:07Z</time>
      </trkpt>
      <trkpt lat="46.39337" lon="-0.43809">
        <ele>21.753</ele>
        <time>2011-02-27T14:12:08Z</time>
      </trkpt>
      <trkpt lat="46.39338" lon="-0.43808">
        <ele>21.7499</ele>
        <time>2011-02-27T14:12:09Z</time>
      </trkpt>
      <trkpt lat="46.39338" lon="-0.43807">
        <ele>21.7473</ele>
        <time>2011-02-27T14:12:10Z</time>
      </trkpt>
      <trkpt lat="46.39339" lon="-0.43805">
        <ele>21.7435</ele>
        <time>2011-02-27T14:12:11Z</time>
      </trkpt>
      <trkpt lat="46.39339" lon="-0.43804">
        <ele>21.7472</ele>
        <time>2011-02-27T14:12:12Z</time>
      </trkpt>
      <trkpt lat="46.39341" lon="-0.43802">
        <ele>21.7496</ele>
        <time>2011-02-27T14:12:13Z</time>
      </trkpt>
      <trkpt lat="46.39341" lon="-0.438">
        <ele>21.7605</ele>
        <time>2011-02-27T14:12:14Z</time>
      </trkpt>
      <trkpt lat="46.39342" lon="-0.43798">
        <ele>21.7784</ele>
        <time>2011-02-27T14:12:15Z</time>
      </trkpt>
      <trkpt lat="46.39343" lon="-0.43797">
        <ele>21.8088</ele>
        <time>2011-02-27T14:12:16Z</time>
      </trkpt>
      <trkpt lat="46.39344" lon="-0.43795">
        <ele>21.8454</ele>
        <time>2011-02-27T14:12:17Z</time>
      </trkpt>
      <trkpt lat="46.39344" lon="-0.43793">
        <ele>21.8855</ele>
        <time>2011-02-27T14:12:18Z</time>
      </trkpt>
      <trkpt lat="46.39346" lon="-0.43791">
        <ele>21.9276</ele>
        <time>2011-02-27T14:12:19Z</time>
      </trkpt>
      <trkpt lat="46.39346" lon="-0.4379">
        <ele>21.9697</ele>
        <time>2011-02-27T14:12:20Z</time>
      </trkpt>
      <trkpt lat="46.39347" lon="-0.43789">
        <ele>22.0095</ele>
        <time>2011-02-27T14:12:21Z</time>
      </trkpt>
      <trkpt lat="46.39348" lon="-0.43788">
        <ele>22.0472</ele>
        <time>2011-02-27T14:12:22Z</time>
      </trkpt>
      <trkpt lat="46.39349" lon="-0.43787">
        <ele>22.0832</ele>
        <time>2011-02-27T14:12:23Z</time>
      </trkpt>
      <trkpt lat="46.3935" lon="-0.43786">
        <ele>22.1187</ele>
        <time>2011-02-27T14:12:24Z</time>
      </trkpt>
      <trkpt lat="46.39351" lon="-0.43785">
        <ele>22.1528</ele>
        <time>2011-02-27T14:12:25Z</time>
      </trkpt>
      <trkpt lat="46.39351" lon="-0.43784">
        <ele>22.1803</ele>
        <time>2011-02-27T14:12:26Z</time>
      </trkpt>
      <trkpt lat="46.39354" lon="-0.43785">
        <ele>22.1603</ele>
        <time>2011-02-27T14:12:30Z</time>
      </trkpt>
      <trkpt lat="46.39354" lon="-0.43784">
        <ele>22.1395</ele>
        <time>2011-02-27T14:12:31Z</time>
      </trkpt>
      <trkpt lat="46.39356" lon="-0.43782">
        <ele>22.1147</ele>
        <time>2011-02-27T14:12:32Z</time>
      </trkpt>
      <trkpt lat="46.39356" lon="-0.43781">
        <ele>22.0881</ele>
        <time>2011-02-27T14:12:33Z</time>
      </trkpt>
      <trkpt lat="46.39357" lon="-0.43779">
        <ele>22.0595</ele>
        <time>2011-02-27T14:12:34Z</time>
      </trkpt>
      <trkpt lat="46.39357" lon="-0.43777">
        <ele>22.0311</ele>
        <time>2011-02-27T14:12:35Z</time>
      </trkpt>
      <trkpt lat="46.39358" lon="-0.43775">
        <ele>22.0007</ele>
        <time>2011-02-27T14:12:36Z</time>
      </trkpt>
      <trkpt lat="46.39359" lon="-0.43774">
        <ele>21.9671</ele>
        <time>2011-02-27T14:12:37Z</time>
      </trkpt>
      <trkpt lat="46.39359" lon="-0.43772">
        <ele>21.9322</ele>
        <time>2011-02-27T14:12:38Z</time>
      </trkpt>
      <trkpt lat="46.39359" lon="-0.4377">
        <ele>21.8969</ele>
        <time>2011-02-27T14:12:39Z</time>
      </trkpt>
      <trkpt lat="46.3936" lon="-0.43768">
        <ele>21.8609</ele>
        <time>2011-02-27T14:12:40Z</time>
      </trkpt>
      <trkpt lat="46.3936" lon="-0.43766">
        <ele>21.8252</ele>
        <time>2011-02-27T14:12:41Z</time>
      </trkpt>
      <trkpt lat="46.3936" lon="-0.43765">
        <ele>21.7924</ele>
        <time>2011-02-27T14:12:42Z</time>
      </trkpt>
      <trkpt lat="46.3936" lon="-0.43763">
        <ele>21.7594</ele>
        <time>2011-02-27T14:12:43Z</time>
      </trkpt>
      <trkpt lat="46.39361" lon="-0.43762">
        <ele>21.7268</ele>
        <time>2011-02-27T14:12:44Z</time>
      </trkpt>
      <trkpt lat="46.39361" lon="-0.43761">
        <ele>21.6937</ele>
        <time>2011-02-27T14:12:45Z</time>
      </trkpt>
      <trkpt lat="46.39362" lon="-0.4376">
        <ele>21.6615</ele>
        <time>2011-02-27T14:12:46Z</time>
      </trkpt>
      <trkpt lat="46.39362" lon="-0.43759">
        <ele>21.6306</ele>
        <time>2011-02-27T14:12:47Z</time>
      </trkpt>
      <trkpt lat="46.39363" lon="-0.43758">
        <ele>21.6012</ele>
        <time>2011-02-27T14:12:48Z</time>
      </trkpt>
      <trkpt lat="46.39364" lon="-0.43757">
        <ele>21.5734</ele>
        <time>2011-02-27T14:12:49Z</time>
      </trkpt>
      <trkpt lat="46.39364" lon="-0.43756">
        <ele>21.5471</ele>
        <time>2011-02-27T14:12:50Z</time>
      </trkpt>
      <trkpt lat="46.39365" lon="-0.43755">
        <ele>21.5227</ele>
        <time>2011-02-27T14:12:51Z</time>
      </trkpt>
      <trkpt lat="46.39365" lon="-0.43754">
        <ele>21.5032</ele>
        <time>2011-02-27T14:12:52Z</time>
      </trkpt>
      <trkpt lat="46.39366" lon="-0.43752">
        <ele>21.477</ele>
        <time>2011-02-27T14:12:53Z</time>
      </trkpt>
      <trkpt lat="46.39366" lon="-0.4375">
        <ele>21.445</ele>
        <time>2011-02-27T14:12:54Z</time>
      </trkpt>
      <trkpt lat="46.39366" lon="-0.43749">
        <ele>21.4143</ele>
        <time>2011-02-27T14:12:55Z</time>
      </trkpt>
      <trkpt lat="46.39367" lon="-0.43748">
        <ele>21.3852</ele>
        <time>2011-02-27T14:12:56Z</time>
      </trkpt>
      <trkpt lat="46.39367" lon="-0.43747">
        <ele>21.3567</ele>
        <time>2011-02-27T14:12:57Z</time>
      </trkpt>
      <trkpt lat="46.39367" lon="-0.43746">
        <ele>21.3294</ele>
        <time>2011-02-27T14:12:58Z</time>
      </trkpt>
      <trkpt lat="46.39367" lon="-0.43746">
        <ele>21.3019</ele>
        <time>2011-02-27T14:12:59Z</time>
      </trkpt>
      <trkpt lat="46.39367" lon="-0.43746">
        <ele>21.2739</ele>
        <time>2011-02-27T14:13:00Z</time>
      </trkpt>
      <trkpt lat="46.39368" lon="-0.43746">
        <ele>21.2482</ele>
        <time>2011-02-27T14:13:01Z</time>
      </trkpt>
      <trkpt lat="46.39368" lon="-0.43746">
        <ele>21.2162</ele>
        <time>2011-02-27T14:13:03Z</time>
      </trkpt>
      <trkpt lat="46.39368" lon="-0.43746">
        <ele>21.1789</ele>
        <time>2011-02-27T14:13:04Z</time>
      </trkpt>
      <trkpt lat="46.39369" lon="-0.43745">
        <ele>21.1441</ele>
        <time>2011-02-27T14:13:05Z</time>
      </trkpt>
      <trkpt lat="46.39369" lon="-0.43744">
        <ele>21.1147</ele>
        <time>2011-02-27T14:13:06Z</time>
      </trkpt>
      <trkpt lat="46.39369" lon="-0.43743">
        <ele>21.0957</ele>
        <time>2011-02-27T14:13:07Z</time>
      </trkpt>
      <trkpt lat="46.3937" lon="-0.43742">
        <ele>21.0726</ele>
        <time>2011-02-27T14:13:08Z</time>
      </trkpt>
      <trkpt lat="46.3937" lon="-0.43741">
        <ele>21.0443</ele>
        <time>2011-02-27T14:13:09Z</time>
      </trkpt>
      <trkpt lat="46.39371" lon="-0.4374">
        <ele>21.0165</ele>
        <time>2011-02-27T14:13:10Z</time>
      </trkpt>
      <trkpt lat="46.39372" lon="-0.43739">
        <ele>20.9827</ele>
        <time>2011-02-27T14:13:11Z</time>
      </trkpt>
      <trkpt lat="46.39373" lon="-0.43737">
        <ele>20.9511</ele>
        <time>2011-02-27T14:13:12Z</time>
      </trkpt>
      <trkpt lat="46.39374" lon="-0.43736">
        <ele>20.9125</ele>
        <time>2011-02-27T14:13:13Z</time>
      </trkpt>
      <trkpt lat="46.39376" lon="-0.43735">
        <ele>20.8623</ele>
        <time>2011-02-27T14:13:14Z</time>
      </trkpt>
      <trkpt lat="46.39377" lon="-0.43734">
        <ele>20.8142</ele>
        <time>2011-02-27T14:13:15Z</time>
      </trkpt>
      <trkpt lat="46.39379" lon="-0.43732">
        <ele>20.7738</ele>
        <time>2011-02-27T14:13:16Z</time>
      </trkpt>
      <trkpt lat="46.3938" lon="-0.43731">
        <ele>20.7291</ele>
        <time>2011-02-27T14:13:17Z</time>
      </trkpt>
      <trkpt lat="46.39381" lon="-0.43729">
        <ele>20.681</ele>
        <time>2011-02-27T14:13:18Z</time>
      </trkpt>
      <trkpt lat="46.39382" lon="-0.43728">
        <ele>20.6398</ele>
        <time>2011-02-27T14:13:19Z</time>
      </trkpt>
      <trkpt lat="46.39383" lon="-0.43726">
        <ele>20.5987</ele>
        <time>2011-02-27T14:13:20Z</time>
      </trkpt>
      <trkpt lat="46.39384" lon="-0.43725">
        <ele>20.5632</ele>
        <time>2011-02-27T14:13:21Z</time>
      </trkpt>
      <trkpt lat="46.39385" lon="-0.43724">
        <ele>20.5331</ele>
        <time>2011-02-27T14:13:22Z</time>
      </trkpt>
      <trkpt lat="46.39386" lon="-0.43722">
        <ele>20.5011</ele>
        <time>2011-02-27T14:13:23Z</time>
      </trkpt>
      <trkpt lat="46.39387" lon="-0.43721">
        <ele>20.486</ele>
        <time>2011-02-27T14:13:24Z</time>
      </trkpt>
      <trkpt lat="46.39388" lon="-0.4372">
        <ele>20.4727</ele>
        <time>2011-02-27T14:13:25Z</time>
      </trkpt>
      <trkpt lat="46.39389" lon="-0.43719">
        <ele>20.4632</ele>
        <time>2011-02-27T14:13:26Z</time>
      </trkpt>
      <trkpt lat="46.3939" lon="-0.43718">
        <ele>20.4518</ele>
        <time>2011-02-27T14:13:27Z</time>
      </trkpt>
      <trkpt lat="46.39391" lon="-0.43717">
        <ele>20.441</ele>
        <time>2011-02-27T14:13:28Z</time>
      </trkpt>
      <trkpt lat="46.39392" lon="-0.43716">
        <ele>20.4302</ele>
        <time>2011-02-27T14:13:29Z</time>
      </trkpt>
      <trkpt lat="46.39393" lon="-0.43715">
        <ele>20.4242</ele>
        <time>2011-02-27T14:13:30Z</time>
      </trkpt>
      <trkpt lat="46.39394" lon="-0.43713">
        <ele>20.4165</ele>
        <time>2011-02-27T14:13:31Z</time>
      </trkpt>
      <trkpt lat="46.39395" lon="-0.43712">
        <ele>20.4055</ele>
        <time>2011-02-27T14:13:32Z</time>
      </trkpt>
      <trkpt lat="46.39396" lon="-0.43711">
        <ele>20.3902</ele>
        <time>2011-02-27T14:13:33Z</time>
      </trkpt>
      <trkpt lat="46.39397" lon="-0.4371">
        <ele>20.3737</ele>
        <time>2011-02-27T14:13:34Z</time>
      </trkpt>
      <trkpt lat="46.39397" lon="-0.43709">
        <ele>20.3563</ele>
        <time>2011-02-27T14:13:35Z</time>
      </trkpt>
      <trkpt lat="46.39398" lon="-0.43708">
        <ele>20.3464</ele>
        <time>2011-02-27T14:13:36Z</time>
      </trkpt>
      <trkpt lat="46.39399" lon="-0.43707">
        <ele>20.3378</ele>
        <time>2011-02-27T14:13:37Z</time>
      </trkpt>
      <trkpt lat="46.39399" lon="-0.43706">
        <ele>20.3317</ele>
        <time>2011-02-27T14:13:38Z</time>
      </trkpt>
      <trkpt lat="46.394" lon="-0.43705">
        <ele>20.3285</ele>
        <time>2011-02-27T14:13:39Z</time>
      </trkpt>
      <trkpt lat="46.39401" lon="-0.43704">
        <ele>20.3255</ele>
        <time>2011-02-27T14:13:40Z</time>
      </trkpt>
      <trkpt lat="46.39401" lon="-0.43703">
        <ele>20.3247</ele>
        <time>2011-02-27T14:13:41Z</time>
      </trkpt>
      <trkpt lat="46.39402" lon="-0.43702">
        <ele>20.3224</ele>
        <time>2011-02-27T14:13:42Z</time>
      </trkpt>
      <trkpt lat="46.39402" lon="-0.43702">
        <ele>20.3211</ele>
        <time>2011-02-27T14:13:43Z</time>
      </trkpt>
      <trkpt lat="46.39403" lon="-0.43701">
        <ele>20.3184</ele>
        <time>2011-02-27T14:13:44Z</time>
      </trkpt>
      <trkpt lat="46.39403" lon="-0.437">
        <ele>20.316</ele>
        <time>2011-02-27T14:13:45Z</time>
      </trkpt>
      <trkpt lat="46.39403" lon="-0.43699">
        <ele>20.3221</ele>
        <time>2011-02-27T14:13:46Z</time>
      </trkpt>
      <trkpt lat="46.39403" lon="-0.43698">
        <ele>20.333</ele>
        <time>2011-02-27T14:13:47Z</time>
      </trkpt>
      <trkpt lat="46.39404" lon="-0.43697">
        <ele>20.3455</ele>
        <time>2011-02-27T14:13:48Z</time>
      </trkpt>
      <trkpt lat="46.39405" lon="-0.43696">
        <ele>20.3595</ele>
        <time>2011-02-27T14:13:49Z</time>
      </trkpt>
      <trkpt lat="46.39405" lon="-0.43695">
        <ele>20.3707</ele>
        <time>2011-02-27T14:13:50Z</time>
      </trkpt>
      <trkpt lat="46.39406" lon="-0.43694">
        <ele>20.3873</ele>
        <time>2011-02-27T14:13:51Z</time>
      </trkpt>
      <trkpt lat="46.39407" lon="-0.43693">
        <ele>20.4122</ele>
        <time>2011-02-27T14:13:52Z</time>
      </trkpt>
      <trkpt lat="46.39409" lon="-0.43692">
        <ele>20.4424</ele>
        <time>2011-02-27T14:13:53Z</time>
      </trkpt>
      <trkpt lat="46.3941" lon="-0.43691">
        <ele>20.4739</ele>
        <time>2011-02-27T14:13:54Z</time>
      </trkpt>
      <trkpt lat="46.39412" lon="-0.4369">
        <ele>20.5054</ele>
        <time>2011-02-27T14:13:55Z</time>
      </trkpt>
      <trkpt lat="46.39413" lon="-0.43689">
        <ele>20.5367</ele>
        <time>2011-02-27T14:13:56Z</time>
      </trkpt>
      <trkpt lat="46.39414" lon="-0.43688">
        <ele>20.5679</ele>
        <time>2011-02-27T14:13:57Z</time>
      </trkpt>
      <trkpt lat="46.39415" lon="-0.43687">
        <ele>20.5982</ele>
        <time>2011-02-27T14:13:58Z</time>
      </trkpt>
      <trkpt lat="46.39416" lon="-0.43686">
        <ele>20.6293</ele>
        <time>2011-02-27T14:13:59Z</time>
      </trkpt>
      <trkpt lat="46.39417" lon="-0.43685">
        <ele>20.657</ele>
        <time>2011-02-27T14:14:00Z</time>
      </trkpt>
      <trkpt lat="46.39417" lon="-0.43684">
        <ele>20.6823</ele>
        <time>2011-02-27T14:14:01Z</time>
      </trkpt>
      <trkpt lat="46.39418" lon="-0.43683">
        <ele>20.7051</ele>
        <time>2011-02-27T14:14:02Z</time>
      </trkpt>
      <trkpt lat="46.39418" lon="-0.43682">
        <ele>20.7287</ele>
        <time>2011-02-27T14:14:03Z</time>
      </trkpt>
      <trkpt lat="46.39419" lon="-0.43682">
        <ele>20.7525</ele>
        <time>2011-02-27T14:14:04Z</time>
      </trkpt>
      <trkpt lat="46.3942" lon="-0.43681">
        <ele>20.775</ele>
        <time>2011-02-27T14:14:05Z</time>
      </trkpt>
      <trkpt lat="46.39421" lon="-0.4368">
        <ele>20.7908</ele>
        <time>2011-02-27T14:14:06Z</time>
      </trkpt>
      <trkpt lat="46.39421" lon="-0.43679">
        <ele>20.8069</ele>
        <time>2011-02-27T14:14:07Z</time>
      </trkpt>
      <trkpt lat="46.39422" lon="-0.43678">
        <ele>20.8225</ele>
        <time>2011-02-27T14:14:08Z</time>
      </trkpt>
      <trkpt lat="46.39422" lon="-0.43677">
        <ele>20.8362</ele>
        <time>2011-02-27T14:14:09Z</time>
      </trkpt>
      <trkpt lat="46.39423" lon="-0.43677">
        <ele>20.8484</ele>
        <time>2011-02-27T14:14:10Z</time>
      </trkpt>
      <trkpt lat="46.39423" lon="-0.43676">
        <ele>20.8624</ele>
        <time>2011-02-27T14:14:11Z</time>
      </trkpt>
      <trkpt lat="46.39425" lon="-0.43675">
        <ele>20.876</ele>
        <time>2011-02-27T14:14:12Z</time>
      </trkpt>
      <trkpt lat="46.39426" lon="-0.43674">
        <ele>20.8896</ele>
        <time>2011-02-27T14:14:13Z</time>
      </trkpt>
      <trkpt lat="46.39426" lon="-0.43674">
        <ele>20.9005</ele>
        <time>2011-02-27T14:14:14Z</time>
      </trkpt>
      <trkpt lat="46.39428" lon="-0.43673">
        <ele>20.9107</ele>
        <time>2011-02-27T14:14:15Z</time>
      </trkpt>
      <trkpt lat="46.39428" lon="-0.43672">
        <ele>20.9164</ele>
        <time>2011-02-27T14:14:16Z</time>
      </trkpt>
      <trkpt lat="46.39429" lon="-0.43671">
        <ele>20.916</ele>
        <time>2011-02-27T14:14:17Z</time>
      </trkpt>
      <trkpt lat="46.3943" lon="-0.4367">
        <ele>20.9144</ele>
        <time>2011-02-27T14:14:18Z</time>
      </trkpt>
      <trkpt lat="46.39431" lon="-0.43669">
        <ele>20.9128</ele>
        <time>2011-02-27T14:14:19Z</time>
      </trkpt>
      <trkpt lat="46.39433" lon="-0.43669">
        <ele>20.9115</ele>
        <time>2011-02-27T14:14:20Z</time>
      </trkpt>
      <trkpt lat="46.39434" lon="-0.43668">
        <ele>20.9092</ele>
        <time>2011-02-27T14:14:21Z</time>
      </trkpt>
      <trkpt lat="46.39435" lon="-0.43667">
        <ele>20.9041</ele>
        <time>2011-02-27T14:14:22Z</time>
      </trkpt>
      <trkpt lat="46.39437" lon="-0.43666">
        <ele>20.8951</ele>
        <time>2011-02-27T14:14:23Z</time>
      </trkpt>
      <trkpt lat="46.39438" lon="-0.43665">
        <ele>20.8848</ele>
        <time>2011-02-27T14:14:24Z</time>
      </trkpt>
      <trkpt lat="46.39439" lon="-0.43664">
        <ele>20.8735</ele>
        <time>2011-02-27T14:14:25Z</time>
      </trkpt>
      <trkpt lat="46.3944" lon="-0.43663">
        <ele>20.8599</ele>
        <time>2011-02-27T14:14:26Z</time>
      </trkpt>
      <trkpt lat="46.39441" lon="-0.43662">
        <ele>20.8442</ele>
        <time>2011-02-27T14:14:27Z</time>
      </trkpt>
      <trkpt lat="46.39442" lon="-0.4366">
        <ele>20.8274</ele>
        <time>2011-02-27T14:14:28Z</time>
      </trkpt>
      <trkpt lat="46.39443" lon="-0.43659">
        <ele>20.8092</ele>
        <time>2011-02-27T14:14:29Z</time>
      </trkpt>
      <trkpt lat="46.39444" lon="-0.43658">
        <ele>20.7904</ele>
        <time>2011-02-27T14:14:30Z</time>
      </trkpt>
      <trkpt lat="46.39444" lon="-0.43657">
        <ele>20.777</ele>
        <time>2011-02-27T14:14:31Z</time>
      </trkpt>
      <trkpt lat="46.39445" lon="-0.43656">
        <ele>20.7639</ele>
        <time>2011-02-27T14:14:32Z</time>
      </trkpt>
      <trkpt lat="46.39446" lon="-0.43655">
        <ele>20.7495</ele>
        <time>2011-02-27T14:14:33Z</time>
      </trkpt>
      <trkpt lat="46.39447" lon="-0.43654">
        <ele>20.7319</ele>
        <time>2011-02-27T14:14:34Z</time>
      </trkpt>
      <trkpt lat="46.39448" lon="-0.43653">
        <ele>20.7127</ele>
        <time>2011-02-27T14:14:35Z</time>
      </trkpt>
      <trkpt lat="46.39449" lon="-0.43652">
        <ele>20.693</ele>
        <time>2011-02-27T14:14:36Z</time>
      </trkpt>
      <trkpt lat="46.3945" lon="-0.43651">
        <ele>20.6734</ele>
        <time>2011-02-27T14:14:37Z</time>
      </trkpt>
      <trkpt lat="46.39451" lon="-0.4365">
        <ele>20.6545</ele>
        <time>2011-02-27T14:14:38Z</time>
      </trkpt>
      <trkpt lat="46.39452" lon="-0.43648">
        <ele>20.6343</ele>
        <time>2011-02-27T14:14:39Z</time>
      </trkpt>
      <trkpt lat="46.39452" lon="-0.43647">
        <ele>20.6132</ele>
        <time>2011-02-27T14:14:40Z</time>
      </trkpt>
      <trkpt lat="46.39453" lon="-0.43646">
        <ele>20.5896</ele>
        <time>2011-02-27T14:14:41Z</time>
      </trkpt>
      <trkpt lat="46.39454" lon="-0.43645">
        <ele>20.563</ele>
        <time>2011-02-27T14:14:42Z</time>
      </trkpt>
      <trkpt lat="46.39455" lon="-0.43645">
        <ele>20.5344</ele>
        <time>2011-02-27T14:14:43Z</time>
      </trkpt>
      <trkpt lat="46.39456" lon="-0.43643">
        <ele>20.5071</ele>
        <time>2011-02-27T14:14:44Z</time>
      </trkpt>
      <trkpt lat="46.39457" lon="-0.43642">
        <ele>20.4772</ele>
        <time>2011-02-27T14:14:45Z</time>
      </trkpt>
      <trkpt lat="46.39458" lon="-0.43641">
        <ele>20.4482</ele>
        <time>2011-02-27T14:14:46Z</time>
      </trkpt>
      <trkpt lat="46.39459" lon="-0.4364">
        <ele>20.4234</ele>
        <time>2011-02-27T14:14:47Z</time>
      </trkpt>
      <trkpt lat="46.39459" lon="-0.43639">
        <ele>20.3989</ele>
        <time>2011-02-27T14:14:48Z</time>
      </trkpt>
      <trkpt lat="46.3946" lon="-0.43639">
        <ele>20.3754</ele>
        <time>2011-02-27T14:14:49Z</time>
      </trkpt>
      <trkpt lat="46.3946" lon="-0.43638">
        <ele>20.3549</ele>
        <time>2011-02-27T14:14:50Z</time>
      </trkpt>
      <trkpt lat="46.39461" lon="-0.43637">
        <ele>20.3364</ele>
        <time>2011-02-27T14:14:51Z</time>
      </trkpt>
      <trkpt lat="46.39462" lon="-0.43636">
        <ele>20.3159</ele>
        <time>2011-02-27T14:14:52Z</time>
      </trkpt>
      <trkpt lat="46.39463" lon="-0.43636">
        <ele>20.2958</ele>
        <time>2011-02-27T14:14:53Z</time>
      </trkpt>
      <trkpt lat="46.39464" lon="-0.43635">
        <ele>20.2782</ele>
        <time>2011-02-27T14:14:54Z</time>
      </trkpt>
      <trkpt lat="46.39465" lon="-0.43634">
        <ele>20.2627</ele>
        <time>2011-02-27T14:14:55Z</time>
      </trkpt>
      <trkpt lat="46.39466" lon="-0.43633">
        <ele>20.2482</ele>
        <time>2011-02-27T14:14:56Z</time>
      </trkpt>
      <trkpt lat="46.39467" lon="-0.43632">
        <ele>20.2346</ele>
        <time>2011-02-27T14:14:57Z</time>
      </trkpt>
      <trkpt lat="46.39467" lon="-0.43631">
        <ele>20.2206</ele>
        <time>2011-02-27T14:14:58Z</time>
      </trkpt>
      <trkpt lat="46.39468" lon="-0.4363">
        <ele>20.2067</ele>
        <time>2011-02-27T14:14:59Z</time>
      </trkpt>
      <trkpt lat="46.39469" lon="-0.43629">
        <ele>20.1919</ele>
        <time>2011-02-27T14:15:00Z</time>
      </trkpt>
      <trkpt lat="46.3947" lon="-0.43628">
        <ele>20.1741</ele>
        <time>2011-02-27T14:15:01Z</time>
      </trkpt>
      <trkpt lat="46.39471" lon="-0.43627">
        <ele>20.155</ele>
        <time>2011-02-27T14:15:02Z</time>
      </trkpt>
      <trkpt lat="46.39471" lon="-0.43625">
        <ele>20.1344</ele>
        <time>2011-02-27T14:15:03Z</time>
      </trkpt>
      <trkpt lat="46.39472" lon="-0.43624">
        <ele>20.1143</ele>
        <time>2011-02-27T14:15:04Z</time>
      </trkpt>
      <trkpt lat="46.39474" lon="-0.43622">
        <ele>20.0938</ele>
        <time>2011-02-27T14:15:05Z</time>
      </trkpt>
      <trkpt lat="46.39475" lon="-0.43621">
        <ele>20.0729</ele>
        <time>2011-02-27T14:15:06Z</time>
      </trkpt>
      <trkpt lat="46.39475" lon="-0.43619">
        <ele>20.0509</ele>
        <time>2011-02-27T14:15:07Z</time>
      </trkpt>
      <trkpt lat="46.39476" lon="-0.43618">
        <ele>20.0275</ele>
        <time>2011-02-27T14:15:08Z</time>
      </trkpt>
      <trkpt lat="46.39477" lon="-0.43617">
        <ele>20.007</ele>
        <time>2011-02-27T14:15:09Z</time>
      </trkpt>
      <trkpt lat="46.39477" lon="-0.43616">
        <ele>19.9854</ele>
        <time>2011-02-27T14:15:10Z</time>
      </trkpt>
      <trkpt lat="46.39478" lon="-0.43615">
        <ele>19.9609</ele>
        <time>2011-02-27T14:15:11Z</time>
      </trkpt>
      <trkpt lat="46.39478" lon="-0.43614">
        <ele>19.9348</ele>
        <time>2011-02-27T14:15:12Z</time>
      </trkpt>
      <trkpt lat="46.39479" lon="-0.43613">
        <ele>19.9114</ele>
        <time>2011-02-27T14:15:13Z</time>
      </trkpt>
      <trkpt lat="46.3948" lon="-0.43611">
        <ele>19.883</ele>
        <time>2011-02-27T14:15:14Z</time>
      </trkpt>
      <trkpt lat="46.3948" lon="-0.4361">
        <ele>19.8503</ele>
        <time>2011-02-27T14:15:15Z</time>
      </trkpt>
      <trkpt lat="46.39481" lon="-0.43609">
        <ele>19.8165</ele>
        <time>2011-02-27T14:15:16Z</time>
      </trkpt>
      <trkpt lat="46.39482" lon="-0.43608">
        <ele>19.7817</ele>
        <time>2011-02-27T14:15:17Z</time>
      </trkpt>
      <trkpt lat="46.39483" lon="-0.43607">
        <ele>19.7446</ele>
        <time>2011-02-27T14:15:18Z</time>
      </trkpt>
      <trkpt lat="46.39483" lon="-0.43606">
        <ele>19.7074</ele>
        <time>2011-02-27T14:15:19Z</time>
      </trkpt>
      <trkpt lat="46.39484" lon="-0.43604">
        <ele>19.6735</ele>
        <time>2011-02-27T14:15:20Z</time>
      </trkpt>
      <trkpt lat="46.39485" lon="-0.43603">
        <ele>19.6439</ele>
        <time>2011-02-27T14:15:21Z</time>
      </trkpt>
      <trkpt lat="46.39486" lon="-0.43602">
        <ele>19.6194</ele>
        <time>2011-02-27T14:15:22Z</time>
      </trkpt>
      <trkpt lat="46.39487" lon="-0.436">
        <ele>19.5989</ele>
        <time>2011-02-27T14:15:23Z</time>
      </trkpt>
      <trkpt lat="46.39488" lon="-0.43599">
        <ele>19.5809</ele>
        <time>2011-02-27T14:15:24Z</time>
      </trkpt>
      <trkpt lat="46.39489" lon="-0.43598">
        <ele>19.5658</ele>
        <time>2011-02-27T14:15:25Z</time>
      </trkpt>
      <trkpt lat="46.3949" lon="-0.43598">
        <ele>19.5516</ele>
        <time>2011-02-27T14:15:26Z</time>
      </trkpt>
      <trkpt lat="46.39491" lon="-0.43597">
        <ele>19.5364</ele>
        <time>2011-02-27T14:15:27Z</time>
      </trkpt>
      <trkpt lat="46.39492" lon="-0.43596">
        <ele>19.5217</ele>
        <time>2011-02-27T14:15:28Z</time>
      </trkpt>
      <trkpt lat="46.39493" lon="-0.43595">
        <ele>19.5067</ele>
        <time>2011-02-27T14:15:29Z</time>
      </trkpt>
      <trkpt lat="46.39494" lon="-0.43594">
        <ele>19.4931</ele>
        <time>2011-02-27T14:15:30Z</time>
      </trkpt>
      <trkpt lat="46.39494" lon="-0.43593">
        <ele>19.4806</ele>
        <time>2011-02-27T14:15:31Z</time>
      </trkpt>
      <trkpt lat="46.39495" lon="-0.43592">
        <ele>19.4695</ele>
        <time>2011-02-27T14:15:32Z</time>
      </trkpt>
      <trkpt lat="46.39496" lon="-0.43592">
        <ele>19.4588</ele>
        <time>2011-02-27T14:15:33Z</time>
      </trkpt>
      <trkpt lat="46.39497" lon="-0.43591">
        <ele>19.4497</ele>
        <time>2011-02-27T14:15:34Z</time>
      </trkpt>
      <trkpt lat="46.39497" lon="-0.4359">
        <ele>19.4422</ele>
        <time>2011-02-27T14:15:35Z</time>
      </trkpt>
      <trkpt lat="46.39498" lon="-0.43589">
        <ele>19.434</ele>
        <time>2011-02-27T14:15:36Z</time>
      </trkpt>
      <trkpt lat="46.39499" lon="-0.43587">
        <ele>19.4255</ele>
        <time>2011-02-27T14:15:37Z</time>
      </trkpt>
      <trkpt lat="46.395" lon="-0.43586">
        <ele>19.4195</ele>
        <time>2011-02-27T14:15:38Z</time>
      </trkpt>
      <trkpt lat="46.39501" lon="-0.43585">
        <ele>19.414</ele>
        <time>2011-02-27T14:15:39Z</time>
      </trkpt>
      <trkpt lat="46.39502" lon="-0.43584">
        <ele>19.4095</ele>
        <time>2011-02-27T14:15:40Z</time>
      </trkpt>
      <trkpt lat="46.39503" lon="-0.43583">
        <ele>19.4057</ele>
        <time>2011-02-27T14:15:41Z</time>
      </trkpt>
      <trkpt lat="46.39503" lon="-0.43582">
        <ele>19.4017</ele>
        <time>2011-02-27T14:15:43Z</time>
      </trkpt>
      <trkpt lat="46.39503" lon="-0.43581">
        <ele>19.3996</ele>
        <time>2011-02-27T14:15:44Z</time>
      </trkpt>
      <trkpt lat="46.39504" lon="-0.43579">
        <ele>19.397</ele>
        <time>2011-02-27T14:15:45Z</time>
      </trkpt>
      <trkpt lat="46.39504" lon="-0.43578">
        <ele>19.3953</ele>
        <time>2011-02-27T14:15:46Z</time>
      </trkpt>
      <trkpt lat="46.39505" lon="-0.43577">
        <ele>19.3973</ele>
        <time>2011-02-27T14:15:47Z</time>
      </trkpt>
      <trkpt lat="46.39507" lon="-0.43576">
        <ele>19.4015</ele>
        <time>2011-02-27T14:15:48Z</time>
      </trkpt>
      <trkpt lat="46.39507" lon="-0.43575">
        <ele>19.4078</ele>
        <time>2011-02-27T14:15:49Z</time>
      </trkpt>
      <trkpt lat="46.39508" lon="-0.43575">
        <ele>19.4152</ele>
        <time>2011-02-27T14:15:50Z</time>
      </trkpt>
      <trkpt lat="46.39509" lon="-0.43574">
        <ele>19.423</ele>
        <time>2011-02-27T14:15:51Z</time>
      </trkpt>
      <trkpt lat="46.3951" lon="-0.43573">
        <ele>19.4312</ele>
        <time>2011-02-27T14:15:52Z</time>
      </trkpt>
      <trkpt lat="46.39511" lon="-0.43572">
        <ele>19.4401</ele>
        <time>2011-02-27T14:15:53Z</time>
      </trkpt>
      <trkpt lat="46.39511" lon="-0.43571">
        <ele>19.4487</ele>
        <time>2011-02-27T14:15:54Z</time>
      </trkpt>
      <trkpt lat="46.39512" lon="-0.4357">
        <ele>19.4557</ele>
        <time>2011-02-27T14:15:55Z</time>
      </trkpt>
      <trkpt lat="46.39513" lon="-0.43569">
        <ele>19.4614</ele>
        <time>2011-02-27T14:15:56Z</time>
      </trkpt>
      <trkpt lat="46.39513" lon="-0.43567">
        <ele>19.4658</ele>
        <time>2011-02-27T14:15:57Z</time>
      </trkpt>
      <trkpt lat="46.39514" lon="-0.43566">
        <ele>19.4684</ele>
        <time>2011-02-27T14:15:58Z</time>
      </trkpt>
      <trkpt lat="46.39515" lon="-0.43565">
        <ele>19.4694</ele>
        <time>2011-02-27T14:15:59Z</time>
      </trkpt>
      <trkpt lat="46.39516" lon="-0.43564">
        <ele>19.4687</ele>
        <time>2011-02-27T14:16:00Z</time>
      </trkpt>
      <trkpt lat="46.39517" lon="-0.43562">
        <ele>19.4668</ele>
        <time>2011-02-27T14:16:01Z</time>
      </trkpt>
      <trkpt lat="46.39518" lon="-0.43561">
        <ele>19.4644</ele>
        <time>2011-02-27T14:16:02Z</time>
      </trkpt>
      <trkpt lat="46.39518" lon="-0.4356">
        <ele>19.4625</ele>
        <time>2011-02-27T14:16:03Z</time>
      </trkpt>
      <trkpt lat="46.39519" lon="-0.43559">
        <ele>19.4631</ele>
        <time>2011-02-27T14:16:04Z</time>
      </trkpt>
      <trkpt lat="46.3952" lon="-0.43558">
        <ele>19.4648</ele>
        <time>2011-02-27T14:16:05Z</time>
      </trkpt>
      <trkpt lat="46.39521" lon="-0.43557">
        <ele>19.4683</ele>
        <time>2011-02-27T14:16:06Z</time>
      </trkpt>
      <trkpt lat="46.39522" lon="-0.43555">
        <ele>19.4719</ele>
        <time>2011-02-27T14:16:07Z</time>
      </trkpt>
      <trkpt lat="46.39523" lon="-0.43554">
        <ele>19.4742</ele>
        <time>2011-02-27T14:16:08Z</time>
      </trkpt>
      <trkpt lat="46.39523" lon="-0.43553">
        <ele>19.4749</ele>
        <time>2011-02-27T14:16:09Z</time>
      </trkpt>
      <trkpt lat="46.39525" lon="-0.43551">
        <ele>19.4732</ele>
        <time>2011-02-27T14:16:10Z</time>
      </trkpt>
      <trkpt lat="46.39525" lon="-0.4355">
        <ele>19.4709</ele>
        <time>2011-02-27T14:16:11Z</time>
      </trkpt>
      <trkpt lat="46.39526" lon="-0.43549">
        <ele>19.4689</ele>
        <time>2011-02-27T14:16:12Z</time>
      </trkpt>
      <trkpt lat="46.39527" lon="-0.43548">
        <ele>19.4669</ele>
        <time>2011-02-27T14:16:13Z</time>
      </trkpt>
      <trkpt lat="46.39528" lon="-0.43547">
        <ele>19.4659</ele>
        <time>2011-02-27T14:16:14Z</time>
      </trkpt>
      <trkpt lat="46.39528" lon="-0.43546">
        <ele>19.4657</ele>
        <time>2011-02-27T14:16:15Z</time>
      </trkpt>
      <trkpt lat="46.39529" lon="-0.43545">
        <ele>19.4657</ele>
        <time>2011-02-27T14:16:16Z</time>
      </trkpt>
      <trkpt lat="46.3953" lon="-0.43544">
        <ele>19.4677</ele>
        <time>2011-02-27T14:16:17Z</time>
      </trkpt>
      <trkpt lat="46.39531" lon="-0.43542">
        <ele>19.4694</ele>
        <time>2011-02-27T14:16:18Z</time>
      </trkpt>
      <trkpt lat="46.39532" lon="-0.43541">
        <ele>19.4712</ele>
        <time>2011-02-27T14:16:19Z</time>
      </trkpt>
      <trkpt lat="46.39533" lon="-0.43539">
        <ele>19.4729</ele>
        <time>2011-02-27T14:16:20Z</time>
      </trkpt>
      <trkpt lat="46.39534" lon="-0.43538">
        <ele>19.4754</ele>
        <time>2011-02-27T14:16:21Z</time>
      </trkpt>
      <trkpt lat="46.39534" lon="-0.43537">
        <ele>19.4771</ele>
        <time>2011-02-27T14:16:22Z</time>
      </trkpt>
      <trkpt lat="46.39535" lon="-0.43537">
        <ele>19.4789</ele>
        <time>2011-02-27T14:16:23Z</time>
      </trkpt>
      <trkpt lat="46.39536" lon="-0.43536">
        <ele>19.4802</ele>
        <time>2011-02-27T14:16:24Z</time>
      </trkpt>
      <trkpt lat="46.39536" lon="-0.43535">
        <ele>19.4798</ele>
        <time>2011-02-27T14:16:25Z</time>
      </trkpt>
      <trkpt lat="46.39537" lon="-0.43534">
        <ele>19.4804</ele>
        <time>2011-02-27T14:16:26Z</time>
      </trkpt>
      <trkpt lat="46.39538" lon="-0.43533">
        <ele>19.4826</ele>
        <time>2011-02-27T14:16:27Z</time>
      </trkpt>
      <trkpt lat="46.39539" lon="-0.43531">
        <ele>19.4839</ele>
        <time>2011-02-27T14:16:28Z</time>
      </trkpt>
      <trkpt lat="46.3954" lon="-0.4353">
        <ele>19.4854</ele>
        <time>2011-02-27T14:16:29Z</time>
      </trkpt>
      <trkpt lat="46.39541" lon="-0.43529">
        <ele>19.4866</ele>
        <time>2011-02-27T14:16:30Z</time>
      </trkpt>
      <trkpt lat="46.39541" lon="-0.43528">
        <ele>19.4872</ele>
        <time>2011-02-27T14:16:31Z</time>
      </trkpt>
      <trkpt lat="46.39542" lon="-0.43527">
        <ele>19.4875</ele>
        <time>2011-02-27T14:16:32Z</time>
      </trkpt>
      <trkpt lat="46.39543" lon="-0.43526">
        <ele>19.4877</ele>
        <time>2011-02-27T14:16:33Z</time>
      </trkpt>
      <trkpt lat="46.39544" lon="-0.43525">
        <ele>19.4884</ele>
        <time>2011-02-27T14:16:34Z</time>
      </trkpt>
      <trkpt lat="46.39545" lon="-0.43524">
        <ele>19.4876</ele>
        <time>2011-02-27T14:16:35Z</time>
      </trkpt>
      <trkpt lat="46.39545" lon="-0.43522">
        <ele>19.4866</ele>
        <time>2011-02-27T14:16:36Z</time>
      </trkpt>
      <trkpt lat="46.39546" lon="-0.43521">
        <ele>19.4853</ele>
        <time>2011-02-27T14:16:37Z</time>
      </trkpt>
      <trkpt lat="46.39547" lon="-0.4352">
        <ele>19.4838</ele>
        <time>2011-02-27T14:16:38Z</time>
      </trkpt>
      <trkpt lat="46.39548" lon="-0.43519">
        <ele>19.4833</ele>
        <time>2011-02-27T14:16:39Z</time>
      </trkpt>
      <trkpt lat="46.39549" lon="-0.43517">
        <ele>19.4829</ele>
        <time>2011-02-27T14:16:40Z</time>
      </trkpt>
      <trkpt lat="46.3955" lon="-0.43516">
        <ele>19.4815</ele>
        <time>2011-02-27T14:16:41Z</time>
      </trkpt>
      <trkpt lat="46.3955" lon="-0.43516">
        <ele>19.4813</ele>
        <time>2011-02-27T14:16:42Z</time>
      </trkpt>
      <trkpt lat="46.39551" lon="-0.43515">
        <ele>19.4821</ele>
        <time>2011-02-27T14:16:43Z</time>
      </trkpt>
      <trkpt lat="46.39552" lon="-0.43514">
        <ele>19.4855</ele>
        <time>2011-02-27T14:16:44Z</time>
      </trkpt>
      <trkpt lat="46.39553" lon="-0.43513">
        <ele>19.4881</ele>
        <time>2011-02-27T14:16:45Z</time>
      </trkpt>
      <trkpt lat="46.39554" lon="-0.43512">
        <ele>19.492</ele>
        <time>2011-02-27T14:16:46Z</time>
      </trkpt>
      <trkpt lat="46.39555" lon="-0.43512">
        <ele>19.4974</ele>
        <time>2011-02-27T14:16:47Z</time>
      </trkpt>
      <trkpt lat="46.39556" lon="-0.4351">
        <ele>19.5164</ele>
        <time>2011-02-27T14:16:49Z</time>
      </trkpt>
      <trkpt lat="46.39557" lon="-0.43509">
        <ele>19.5312</ele>
        <time>2011-02-27T14:16:50Z</time>
      </trkpt>
      <trkpt lat="46.39558" lon="-0.43508">
        <ele>19.5499</ele>
        <time>2011-02-27T14:16:51Z</time>
      </trkpt>
      <trkpt lat="46.39558" lon="-0.43507">
        <ele>19.5703</ele>
        <time>2011-02-27T14:16:52Z</time>
      </trkpt>
      <trkpt lat="46.3956" lon="-0.43505">
        <ele>19.6199</ele>
        <time>2011-02-27T14:16:54Z</time>
      </trkpt>
      <trkpt lat="46.39561" lon="-0.43504">
        <ele>19.6494</ele>
        <time>2011-02-27T14:16:55Z</time>
      </trkpt>
      <trkpt lat="46.39562" lon="-0.43502">
        <ele>19.6796</ele>
        <time>2011-02-27T14:16:56Z</time>
      </trkpt>
      <trkpt lat="46.39562" lon="-0.43501">
        <ele>19.7113</ele>
        <time>2011-02-27T14:16:57Z</time>
      </trkpt>
      <trkpt lat="46.39563" lon="-0.435">
        <ele>19.7436</ele>
        <time>2011-02-27T14:16:58Z</time>
      </trkpt>
      <trkpt lat="46.39567" lon="-0.43495">
        <ele>19.909</ele>
        <time>2011-02-27T14:17:04Z</time>
      </trkpt>
      <trkpt lat="46.3957" lon="-0.43489">
        <ele>20.0706</ele>
        <time>2011-02-27T14:17:09Z</time>
      </trkpt>
      <trkpt lat="46.39571" lon="-0.43487">
        <ele>20.1304</ele>
        <time>2011-02-27T14:17:11Z</time>
      </trkpt>
      <trkpt lat="46.39572" lon="-0.43486">
        <ele>20.1592</ele>
        <time>2011-02-27T14:17:12Z</time>
      </trkpt>
      <trkpt lat="46.39573" lon="-0.43484">
        <ele>20.1896</ele>
        <time>2011-02-27T14:17:13Z</time>
      </trkpt>
      <trkpt lat="46.39576" lon="-0.43479">
        <ele>20.3214</ele>
        <time>2011-02-27T14:17:18Z</time>
      </trkpt>
      <trkpt lat="46.3958" lon="-0.43476">
        <ele>20.4069</ele>
        <time>2011-02-27T14:17:23Z</time>
      </trkpt>
      <trkpt lat="46.39581" lon="-0.43475">
        <ele>20.4268</ele>
        <time>2011-02-27T14:17:24Z</time>
      </trkpt>
      <trkpt lat="46.39584" lon="-0.4347">
        <ele>20.5436</ele>
        <time>2011-02-27T14:17:29Z</time>
      </trkpt>
      <trkpt lat="46.39588" lon="-0.43464">
        <ele>20.6556</ele>
        <time>2011-02-27T14:17:33Z</time>
      </trkpt>
      <trkpt lat="46.39592" lon="-0.43459">
        <ele>20.7524</ele>
        <time>2011-02-27T14:17:36Z</time>
      </trkpt>
      <trkpt lat="46.39594" lon="-0.43458">
        <ele>20.7874</ele>
        <time>2011-02-27T14:17:37Z</time>
      </trkpt>
      <trkpt lat="46.39595" lon="-0.43456">
        <ele>20.8234</ele>
        <time>2011-02-27T14:17:38Z</time>
      </trkpt>
      <trkpt lat="46.39596" lon="-0.43455">
        <ele>20.8601</ele>
        <time>2011-02-27T14:17:39Z</time>
      </trkpt>
      <trkpt lat="46.39597" lon="-0.43453">
        <ele>20.8985</ele>
        <time>2011-02-27T14:17:40Z</time>
      </trkpt>
      <trkpt lat="46.39598" lon="-0.43452">
        <ele>20.9355</ele>
        <time>2011-02-27T14:17:41Z</time>
      </trkpt>
      <trkpt lat="46.39599" lon="-0.4345">
        <ele>20.9674</ele>
        <time>2011-02-27T14:17:42Z</time>
      </trkpt>
      <trkpt lat="46.396" lon="-0.43449">
        <ele>20.9949</ele>
        <time>2011-02-27T14:17:43Z</time>
      </trkpt>
      <trkpt lat="46.396" lon="-0.43448">
        <ele>21.0173</ele>
        <time>2011-02-27T14:17:44Z</time>
      </trkpt>
      <trkpt lat="46.39602" lon="-0.43445">
        <ele>21.0615</ele>
        <time>2011-02-27T14:17:46Z</time>
      </trkpt>
      <trkpt lat="46.39603" lon="-0.43445">
        <ele>21.0826</ele>
        <time>2011-02-27T14:17:47Z</time>
      </trkpt>
      <trkpt lat="46.39604" lon="-0.43444">
        <ele>21.0994</ele>
        <time>2011-02-27T14:17:48Z</time>
      </trkpt>
      <trkpt lat="46.39605" lon="-0.43442">
        <ele>21.1146</ele>
        <time>2011-02-27T14:17:49Z</time>
      </trkpt>
      <trkpt lat="46.39605" lon="-0.43441">
        <ele>21.1285</ele>
        <time>2011-02-27T14:17:50Z</time>
      </trkpt>
      <trkpt lat="46.39606" lon="-0.4344">
        <ele>21.1431</ele>
        <time>2011-02-27T14:17:51Z</time>
      </trkpt>
      <trkpt lat="46.39607" lon="-0.43439">
        <ele>21.1593</ele>
        <time>2011-02-27T14:17:52Z</time>
      </trkpt>
      <trkpt lat="46.39607" lon="-0.43437">
        <ele>21.1759</ele>
        <time>2011-02-27T14:17:53Z</time>
      </trkpt>
      <trkpt lat="46.39608" lon="-0.43436">
        <ele>21.1937</ele>
        <time>2011-02-27T14:17:54Z</time>
      </trkpt>
      <trkpt lat="46.39608" lon="-0.43436">
        <ele>21.2106</ele>
        <time>2011-02-27T14:17:55Z</time>
      </trkpt>
      <trkpt lat="46.39609" lon="-0.43435">
        <ele>21.2267</ele>
        <time>2011-02-27T14:17:56Z</time>
      </trkpt>
      <trkpt lat="46.3961" lon="-0.43434">
        <ele>21.2393</ele>
        <time>2011-02-27T14:17:57Z</time>
      </trkpt>
      <trkpt lat="46.3961" lon="-0.43434">
        <ele>21.2535</ele>
        <time>2011-02-27T14:17:58Z</time>
      </trkpt>
      <trkpt lat="46.39611" lon="-0.43433">
        <ele>21.2726</ele>
        <time>2011-02-27T14:17:59Z</time>
      </trkpt>
      <trkpt lat="46.39612" lon="-0.43432">
        <ele>21.2933</ele>
        <time>2011-02-27T14:18:00Z</time>
      </trkpt>
      <trkpt lat="46.39613" lon="-0.43431">
        <ele>21.3135</ele>
        <time>2011-02-27T14:18:01Z</time>
      </trkpt>
      <trkpt lat="46.39614" lon="-0.4343">
        <ele>21.3321</ele>
        <time>2011-02-27T14:18:02Z</time>
      </trkpt>
      <trkpt lat="46.39615" lon="-0.43429">
        <ele>21.3483</ele>
        <time>2011-02-27T14:18:03Z</time>
      </trkpt>
      <trkpt lat="46.39615" lon="-0.43428">
        <ele>21.3622</ele>
        <time>2011-02-27T14:18:04Z</time>
      </trkpt>
      <trkpt lat="46.39616" lon="-0.43427">
        <ele>21.3759</ele>
        <time>2011-02-27T14:18:05Z</time>
      </trkpt>
      <trkpt lat="46.39617" lon="-0.43426">
        <ele>21.3873</ele>
        <time>2011-02-27T14:18:06Z</time>
      </trkpt>
      <trkpt lat="46.39617" lon="-0.43425">
        <ele>21.3961</ele>
        <time>2011-02-27T14:18:07Z</time>
      </trkpt>
      <trkpt lat="46.39618" lon="-0.43424">
        <ele>21.4055</ele>
        <time>2011-02-27T14:18:08Z</time>
      </trkpt>
      <trkpt lat="46.39618" lon="-0.43423">
        <ele>21.4141</ele>
        <time>2011-02-27T14:18:09Z</time>
      </trkpt>
      <trkpt lat="46.39619" lon="-0.43422">
        <ele>21.4227</ele>
        <time>2011-02-27T14:18:10Z</time>
      </trkpt>
      <trkpt lat="46.3962" lon="-0.43421">
        <ele>21.4175</ele>
        <time>2011-02-27T14:18:11Z</time>
      </trkpt>
      <trkpt lat="46.39621" lon="-0.4342">
        <ele>21.4042</ele>
        <time>2011-02-27T14:18:12Z</time>
      </trkpt>
      <trkpt lat="46.39622" lon="-0.43419">
        <ele>21.3931</ele>
        <time>2011-02-27T14:18:13Z</time>
      </trkpt>
      <trkpt lat="46.39623" lon="-0.43418">
        <ele>21.3869</ele>
        <time>2011-02-27T14:18:14Z</time>
      </trkpt>
      <trkpt lat="46.39624" lon="-0.43418">
        <ele>21.3801</ele>
        <time>2011-02-27T14:18:15Z</time>
      </trkpt>
      <trkpt lat="46.39625" lon="-0.43417">
        <ele>21.374</ele>
        <time>2011-02-27T14:18:16Z</time>
      </trkpt>
      <trkpt lat="46.39626" lon="-0.43416">
        <ele>21.3701</ele>
        <time>2011-02-27T14:18:17Z</time>
      </trkpt>
      <trkpt lat="46.39626" lon="-0.43415">
        <ele>21.3739</ele>
        <time>2011-02-27T14:18:18Z</time>
      </trkpt>
      <trkpt lat="46.39628" lon="-0.43414">
        <ele>21.3909</ele>
        <time>2011-02-27T14:18:20Z</time>
      </trkpt>
      <trkpt lat="46.39628" lon="-0.43413">
        <ele>21.3991</ele>
        <time>2011-02-27T14:18:21Z</time>
      </trkpt>
      <trkpt lat="46.39629" lon="-0.43411">
        <ele>21.4048</ele>
        <time>2011-02-27T14:18:22Z</time>
      </trkpt>
      <trkpt lat="46.39631" lon="-0.4341">
        <ele>21.4124</ele>
        <time>2011-02-27T14:18:23Z</time>
      </trkpt>
      <trkpt lat="46.39632" lon="-0.43409">
        <ele>21.4221</ele>
        <time>2011-02-27T14:18:24Z</time>
      </trkpt>
      <trkpt lat="46.39633" lon="-0.43408">
        <ele>21.4317</ele>
        <time>2011-02-27T14:18:25Z</time>
      </trkpt>
      <trkpt lat="46.39634" lon="-0.43407">
        <ele>21.4454</ele>
        <time>2011-02-27T14:18:26Z</time>
      </trkpt>
      <trkpt lat="46.39635" lon="-0.43406">
        <ele>21.4591</ele>
        <time>2011-02-27T14:18:27Z</time>
      </trkpt>
      <trkpt lat="46.39636" lon="-0.43405">
        <ele>21.4756</ele>
        <time>2011-02-27T14:18:28Z</time>
      </trkpt>
      <trkpt lat="46.39637" lon="-0.43403">
        <ele>21.521</ele>
        <time>2011-02-27T14:18:30Z</time>
      </trkpt>
      <trkpt lat="46.39639" lon="-0.43402">
        <ele>21.5465</ele>
        <time>2011-02-27T14:18:31Z</time>
      </trkpt>
      <trkpt lat="46.3964" lon="-0.43401">
        <ele>21.5704</ele>
        <time>2011-02-27T14:18:32Z</time>
      </trkpt>
      <trkpt lat="46.3964" lon="-0.434">
        <ele>21.5935</ele>
        <time>2011-02-27T14:18:33Z</time>
      </trkpt>
      <trkpt lat="46.39641" lon="-0.43399">
        <ele>21.6191</ele>
        <time>2011-02-27T14:18:34Z</time>
      </trkpt>
      <trkpt lat="46.39642" lon="-0.43398">
        <ele>21.6483</ele>
        <time>2011-02-27T14:18:35Z</time>
      </trkpt>
      <trkpt lat="46.39642" lon="-0.43397">
        <ele>21.6814</ele>
        <time>2011-02-27T14:18:36Z</time>
      </trkpt>
      <trkpt lat="46.39643" lon="-0.43396">
        <ele>21.7117</ele>
        <time>2011-02-27T14:18:37Z</time>
      </trkpt>
      <trkpt lat="46.39644" lon="-0.43395">
        <ele>21.7422</ele>
        <time>2011-02-27T14:18:38Z</time>
      </trkpt>
      <trkpt lat="46.39644" lon="-0.43394">
        <ele>21.7602</ele>
        <time>2011-02-27T14:18:39Z</time>
      </trkpt>
      <trkpt lat="46.39645" lon="-0.43393">
        <ele>21.7751</ele>
        <time>2011-02-27T14:18:40Z</time>
      </trkpt>
      <trkpt lat="46.39646" lon="-0.43393">
        <ele>21.7849</ele>
        <time>2011-02-27T14:18:41Z</time>
      </trkpt>
      <trkpt lat="46.39647" lon="-0.43393">
        <ele>21.7922</ele>
        <time>2011-02-27T14:18:42Z</time>
      </trkpt>
      <trkpt lat="46.39648" lon="-0.43392">
        <ele>21.7959</ele>
        <time>2011-02-27T14:18:43Z</time>
      </trkpt>
      <trkpt lat="46.39648" lon="-0.43391">
        <ele>21.7863</ele>
        <time>2011-02-27T14:18:44Z</time>
      </trkpt>
      <trkpt lat="46.39649" lon="-0.4339">
        <ele>21.7679</ele>
        <time>2011-02-27T14:18:45Z</time>
      </trkpt>
      <trkpt lat="46.3965" lon="-0.43389">
        <ele>21.7521</ele>
        <time>2011-02-27T14:18:46Z</time>
      </trkpt>
      <trkpt lat="46.39651" lon="-0.43388">
        <ele>21.7381</ele>
        <time>2011-02-27T14:18:47Z</time>
      </trkpt>
      <trkpt lat="46.39652" lon="-0.43387">
        <ele>21.7251</ele>
        <time>2011-02-27T14:18:48Z</time>
      </trkpt>
      <trkpt lat="46.39653" lon="-0.43387">
        <ele>21.7106</ele>
        <time>2011-02-27T14:18:49Z</time>
      </trkpt>
      <trkpt lat="46.39654" lon="-0.43386">
        <ele>21.6902</ele>
        <time>2011-02-27T14:18:50Z</time>
      </trkpt>
      <trkpt lat="46.39655" lon="-0.43385">
        <ele>21.6694</ele>
        <time>2011-02-27T14:18:51Z</time>
      </trkpt>
      <trkpt lat="46.39656" lon="-0.43384">
        <ele>21.6487</ele>
        <time>2011-02-27T14:18:52Z</time>
      </trkpt>
      <trkpt lat="46.39657" lon="-0.43383">
        <ele>21.6327</ele>
        <time>2011-02-27T14:18:53Z</time>
      </trkpt>
      <trkpt lat="46.39658" lon="-0.43382">
        <ele>21.6182</ele>
        <time>2011-02-27T14:18:54Z</time>
      </trkpt>
      <trkpt lat="46.39659" lon="-0.43381">
        <ele>21.6059</ele>
        <time>2011-02-27T14:18:55Z</time>
      </trkpt>
      <trkpt lat="46.3966" lon="-0.4338">
        <ele>21.5948</ele>
        <time>2011-02-27T14:18:56Z</time>
      </trkpt>
      <trkpt lat="46.39661" lon="-0.4338">
        <ele>21.5824</ele>
        <time>2011-02-27T14:18:57Z</time>
      </trkpt>
      <trkpt lat="46.39663" lon="-0.43379">
        <ele>21.5723</ele>
        <time>2011-02-27T14:18:58Z</time>
      </trkpt>
      <trkpt lat="46.39664" lon="-0.43378">
        <ele>21.5639</ele>
        <time>2011-02-27T14:18:59Z</time>
      </trkpt>
      <trkpt lat="46.39665" lon="-0.43377">
        <ele>21.5592</ele>
        <time>2011-02-27T14:19:00Z</time>
      </trkpt>
      <trkpt lat="46.39665" lon="-0.43376">
        <ele>21.5582</ele>
        <time>2011-02-27T14:19:01Z</time>
      </trkpt>
      <trkpt lat="46.39666" lon="-0.43376">
        <ele>21.5582</ele>
        <time>2011-02-27T14:19:02Z</time>
      </trkpt>
      <trkpt lat="46.39667" lon="-0.43375">
        <ele>21.5598</ele>
        <time>2011-02-27T14:19:03Z</time>
      </trkpt>
      <trkpt lat="46.39668" lon="-0.43374">
        <ele>21.5605</ele>
        <time>2011-02-27T14:19:04Z</time>
      </trkpt>
      <trkpt lat="46.39669" lon="-0.43374">
        <ele>21.5611</ele>
        <time>2011-02-27T14:19:05Z</time>
      </trkpt>
      <trkpt lat="46.3967" lon="-0.43373">
        <ele>21.5584</ele>
        <time>2011-02-27T14:19:06Z</time>
      </trkpt>
      <trkpt lat="46.39671" lon="-0.43373">
        <ele>21.5514</ele>
        <time>2011-02-27T14:19:07Z</time>
      </trkpt>
      <trkpt lat="46.39672" lon="-0.43372">
        <ele>21.5453</ele>
        <time>2011-02-27T14:19:08Z</time>
      </trkpt>
      <trkpt lat="46.39673" lon="-0.43373">
        <ele>21.5325</ele>
        <time>2011-02-27T14:19:09Z</time>
      </trkpt>
      <trkpt lat="46.39674" lon="-0.43372">
        <ele>21.5249</ele>
        <time>2011-02-27T14:19:10Z</time>
      </trkpt>
      <trkpt lat="46.39674" lon="-0.43372">
        <ele>21.5157</ele>
        <time>2011-02-27T14:19:11Z</time>
      </trkpt>
      <trkpt lat="46.39675" lon="-0.43371">
        <ele>21.5136</ele>
        <time>2011-02-27T14:19:12Z</time>
      </trkpt>
      <trkpt lat="46.39676" lon="-0.4337">
        <ele>21.5195</ele>
        <time>2011-02-27T14:19:13Z</time>
      </trkpt>
      <trkpt lat="46.39677" lon="-0.4337">
        <ele>21.5155</ele>
        <time>2011-02-27T14:19:14Z</time>
      </trkpt>
      <trkpt lat="46.39677" lon="-0.4337">
        <ele>21.5155</ele>
        <time>2011-02-27T14:19:15Z</time>
      </trkpt>
      <trkpt lat="46.39678" lon="-0.43369">
        <ele>21.5065</ele>
        <time>2011-02-27T14:19:16Z</time>
      </trkpt>
      <trkpt lat="46.39679" lon="-0.43367">
        <ele>21.5</ele>
        <time>2011-02-27T14:19:17Z</time>
      </trkpt>
      <trkpt lat="46.3968" lon="-0.43366">
        <ele>21.4846</ele>
        <time>2011-02-27T14:19:18Z</time>
      </trkpt>
      <trkpt lat="46.39682" lon="-0.43364">
        <ele>21.4772</ele>
        <time>2011-02-27T14:19:19Z</time>
      </trkpt>
      <trkpt lat="46.39683" lon="-0.43364">
        <ele>21.4793</ele>
        <time>2011-02-27T14:19:20Z</time>
      </trkpt>
      <trkpt lat="46.39684" lon="-0.43363">
        <ele>21.4821</ele>
        <time>2011-02-27T14:19:21Z</time>
      </trkpt>
      <trkpt lat="46.39685" lon="-0.43362">
        <ele>21.4874</ele>
        <time>2011-02-27T14:19:22Z</time>
      </trkpt>
      <trkpt lat="46.39686" lon="-0.43361">
        <ele>21.4895</ele>
        <time>2011-02-27T14:19:23Z</time>
      </trkpt>
      <trkpt lat="46.39687" lon="-0.43361">
        <ele>21.4907</ele>
        <time>2011-02-27T14:19:24Z</time>
      </trkpt>
      <trkpt lat="46.39688" lon="-0.4336">
        <ele>21.4914</ele>
        <time>2011-02-27T14:19:25Z</time>
      </trkpt>
      <trkpt lat="46.39689" lon="-0.43359">
        <ele>21.4959</ele>
        <time>2011-02-27T14:19:26Z</time>
      </trkpt>
      <trkpt lat="46.39691" lon="-0.43357">
        <ele>21.4911</ele>
        <time>2011-02-27T14:19:30Z</time>
      </trkpt>
      <trkpt lat="46.39691" lon="-0.43357">
        <ele>21.4881</ele>
        <time>2011-02-27T14:19:31Z</time>
      </trkpt>
      <trkpt lat="46.39692" lon="-0.43356">
        <ele>21.4888</ele>
        <time>2011-02-27T14:19:32Z</time>
      </trkpt>
      <trkpt lat="46.39692" lon="-0.43355">
        <ele>21.4804</ele>
        <time>2011-02-27T14:19:33Z</time>
      </trkpt>
      <trkpt lat="46.39693" lon="-0.43354">
        <ele>21.479</ele>
        <time>2011-02-27T14:19:34Z</time>
      </trkpt>
      <trkpt lat="46.39694" lon="-0.43354">
        <ele>21.4895</ele>
        <time>2011-02-27T14:19:35Z</time>
      </trkpt>
      <trkpt lat="46.39695" lon="-0.43353">
        <ele>21.499</ele>
        <time>2011-02-27T14:19:36Z</time>
      </trkpt>
      <trkpt lat="46.39695" lon="-0.43353">
        <ele>21.4923</ele>
        <time>2011-02-27T14:19:37Z</time>
      </trkpt>
      <trkpt lat="46.39696" lon="-0.43352">
        <ele>21.5019</ele>
        <time>2011-02-27T14:19:38Z</time>
      </trkpt>
      <trkpt lat="46.39697" lon="-0.43352">
        <ele>21.5085</ele>
        <time>2011-02-27T14:19:39Z</time>
      </trkpt>
      <trkpt lat="46.39697" lon="-0.43352">
        <ele>21.5272</ele>
        <time>2011-02-27T14:19:40Z</time>
      </trkpt>
      <trkpt lat="46.39698" lon="-0.43351">
        <ele>21.5607</ele>
        <time>2011-02-27T14:19:41Z</time>
      </trkpt>
      <trkpt lat="46.397" lon="-0.43351">
        <ele>21.5891</ele>
        <time>2011-02-27T14:19:42Z</time>
      </trkpt>
      <trkpt lat="46.39701" lon="-0.4335">
        <ele>21.6168</ele>
        <time>2011-02-27T14:19:43Z</time>
      </trkpt>
      <trkpt lat="46.39702" lon="-0.43349">
        <ele>21.6459</ele>
        <time>2011-02-27T14:19:44Z</time>
      </trkpt>
      <trkpt lat="46.39703" lon="-0.43348">
        <ele>21.649</ele>
        <time>2011-02-27T14:19:45Z</time>
      </trkpt>
      <trkpt lat="46.39704" lon="-0.43347">
        <ele>21.6355</ele>
        <time>2011-02-27T14:19:46Z</time>
      </trkpt>
      <trkpt lat="46.39705" lon="-0.43347">
        <ele>21.6035</ele>
        <time>2011-02-27T14:19:47Z</time>
      </trkpt>
      <trkpt lat="46.39706" lon="-0.43346">
        <ele>21.5621</ele>
        <time>2011-02-27T14:19:48Z</time>
      </trkpt>
      <trkpt lat="46.39708" lon="-0.43345">
        <ele>21.529</ele>
        <time>2011-02-27T14:19:49Z</time>
      </trkpt>
      <trkpt lat="46.39709" lon="-0.43345">
        <ele>21.5043</ele>
        <time>2011-02-27T14:19:50Z</time>
      </trkpt>
      <trkpt lat="46.3971" lon="-0.43343">
        <ele>21.4545</ele>
        <time>2011-02-27T14:19:51Z</time>
      </trkpt>
      <trkpt lat="46.39712" lon="-0.43342">
        <ele>21.3973</ele>
        <time>2011-02-27T14:19:52Z</time>
      </trkpt>
      <trkpt lat="46.39714" lon="-0.43341">
        <ele>21.3381</ele>
        <time>2011-02-27T14:19:53Z</time>
      </trkpt>
      <trkpt lat="46.39716" lon="-0.4334">
        <ele>21.2729</ele>
        <time>2011-02-27T14:19:54Z</time>
      </trkpt>
      <trkpt lat="46.39718" lon="-0.4334">
        <ele>21.2072</ele>
        <time>2011-02-27T14:19:55Z</time>
      </trkpt>
      <trkpt lat="46.39719" lon="-0.43339">
        <ele>21.151</ele>
        <time>2011-02-27T14:19:56Z</time>
      </trkpt>
      <trkpt lat="46.39721" lon="-0.43339">
        <ele>21.1045</ele>
        <time>2011-02-27T14:19:57Z</time>
      </trkpt>
      <trkpt lat="46.39722" lon="-0.43339">
        <ele>21.0731</ele>
        <time>2011-02-27T14:19:58Z</time>
      </trkpt>
      <trkpt lat="46.39724" lon="-0.43339">
        <ele>21.0442</ele>
        <time>2011-02-27T14:19:59Z</time>
      </trkpt>
      <trkpt lat="46.39725" lon="-0.43338">
        <ele>21.0256</ele>
        <time>2011-02-27T14:20:00Z</time>
      </trkpt>
      <trkpt lat="46.39726" lon="-0.43339">
        <ele>21.0163</ele>
        <time>2011-02-27T14:20:01Z</time>
      </trkpt>
      <trkpt lat="46.39727" lon="-0.43338">
        <ele>21.0081</ele>
        <time>2011-02-27T14:20:02Z</time>
      </trkpt>
      <trkpt lat="46.39728" lon="-0.43338">
        <ele>21.0004</ele>
        <time>2011-02-27T14:20:03Z</time>
      </trkpt>
      <trkpt lat="46.39729" lon="-0.43338">
        <ele>20.9881</ele>
        <time>2011-02-27T14:20:04Z</time>
      </trkpt>
      <trkpt lat="46.3973" lon="-0.43338">
        <ele>20.9774</ele>
        <time>2011-02-27T14:20:05Z</time>
      </trkpt>
      <trkpt lat="46.39731" lon="-0.43337">
        <ele>20.9682</ele>
        <time>2011-02-27T14:20:06Z</time>
      </trkpt>
      <trkpt lat="46.39731" lon="-0.43336">
        <ele>20.9628</ele>
        <time>2011-02-27T14:20:07Z</time>
      </trkpt>
      <trkpt lat="46.39732" lon="-0.43335">
        <ele>20.961</ele>
        <time>2011-02-27T14:20:08Z</time>
      </trkpt>
      <trkpt lat="46.39733" lon="-0.43334">
        <ele>20.9578</ele>
        <time>2011-02-27T14:20:09Z</time>
      </trkpt>
      <trkpt lat="46.39734" lon="-0.43333">
        <ele>20.9547</ele>
        <time>2011-02-27T14:20:10Z</time>
      </trkpt>
      <trkpt lat="46.39735" lon="-0.43332">
        <ele>20.9501</ele>
        <time>2011-02-27T14:20:11Z</time>
      </trkpt>
      <trkpt lat="46.39736" lon="-0.43331">
        <ele>20.9434</ele>
        <time>2011-02-27T14:20:12Z</time>
      </trkpt>
      <trkpt lat="46.39737" lon="-0.43331">
        <ele>20.9392</ele>
        <time>2011-02-27T14:20:13Z</time>
      </trkpt>
      <trkpt lat="46.39738" lon="-0.4333">
        <ele>20.9319</ele>
        <time>2011-02-27T14:20:14Z</time>
      </trkpt>
      <trkpt lat="46.39739" lon="-0.4333">
        <ele>20.9249</ele>
        <time>2011-02-27T14:20:15Z</time>
      </trkpt>
      <trkpt lat="46.3974" lon="-0.43329">
        <ele>20.9118</ele>
        <time>2011-02-27T14:20:16Z</time>
      </trkpt>
      <trkpt lat="46.39741" lon="-0.43328">
        <ele>20.9039</ele>
        <time>2011-02-27T14:20:17Z</time>
      </trkpt>
      <trkpt lat="46.39742" lon="-0.43328">
        <ele>20.8965</ele>
        <time>2011-02-27T14:20:18Z</time>
      </trkpt>
      <trkpt lat="46.39743" lon="-0.43327">
        <ele>20.9</ele>
        <time>2011-02-27T14:20:19Z</time>
      </trkpt>
      <trkpt lat="46.39743" lon="-0.43327">
        <ele>20.9125</ele>
        <time>2011-02-27T14:20:20Z</time>
      </trkpt>
      <trkpt lat="46.39744" lon="-0.43327">
        <ele>20.9202</ele>
        <time>2011-02-27T14:20:21Z</time>
      </trkpt>
      <trkpt lat="46.39745" lon="-0.43327">
        <ele>20.9287</ele>
        <time>2011-02-27T14:20:22Z</time>
      </trkpt>
      <trkpt lat="46.39746" lon="-0.43326">
        <ele>20.9268</ele>
        <time>2011-02-27T14:20:23Z</time>
      </trkpt>
      <trkpt lat="46.39747" lon="-0.43326">
        <ele>20.9384</ele>
        <time>2011-02-27T14:20:24Z</time>
      </trkpt>
      <trkpt lat="46.39748" lon="-0.43325">
        <ele>20.9606</ele>
        <time>2011-02-27T14:20:25Z</time>
      </trkpt>
      <trkpt lat="46.39749" lon="-0.43325">
        <ele>20.9713</ele>
        <time>2011-02-27T14:20:26Z</time>
      </trkpt>
      <trkpt lat="46.3975" lon="-0.43324">
        <ele>20.9816</ele>
        <time>2011-02-27T14:20:27Z</time>
      </trkpt>
      <trkpt lat="46.39751" lon="-0.43324">
        <ele>20.9912</ele>
        <time>2011-02-27T14:20:28Z</time>
      </trkpt>
      <trkpt lat="46.39751" lon="-0.43323">
        <ele>20.9762</ele>
        <time>2011-02-27T14:20:29Z</time>
      </trkpt>
      <trkpt lat="46.39752" lon="-0.43323">
        <ele>20.971</ele>
        <time>2011-02-27T14:20:30Z</time>
      </trkpt>
      <trkpt lat="46.39753" lon="-0.43322">
        <ele>20.9724</ele>
        <time>2011-02-27T14:20:31Z</time>
      </trkpt>
      <trkpt lat="46.39754" lon="-0.43321">
        <ele>20.9771</ele>
        <time>2011-02-27T14:20:32Z</time>
      </trkpt>
      <trkpt lat="46.39755" lon="-0.4332">
        <ele>20.9799</ele>
        <time>2011-02-27T14:20:33Z</time>
      </trkpt>
      <trkpt lat="46.39756" lon="-0.43319">
        <ele>20.9864</ele>
        <time>2011-02-27T14:20:34Z</time>
      </trkpt>
      <trkpt lat="46.39757" lon="-0.43318">
        <ele>20.9945</ele>
        <time>2011-02-27T14:20:35Z</time>
      </trkpt>
      <trkpt lat="46.39758" lon="-0.43317">
        <ele>21.0053</ele>
        <time>2011-02-27T14:20:36Z</time>
      </trkpt>
      <trkpt lat="46.39759" lon="-0.43317">
        <ele>21.0188</ele>
        <time>2011-02-27T14:20:37Z</time>
      </trkpt>
      <trkpt lat="46.3976" lon="-0.43316">
        <ele>21.0331</ele>
        <time>2011-02-27T14:20:38Z</time>
      </trkpt>
      <trkpt lat="46.39761" lon="-0.43316">
        <ele>21.0492</ele>
        <time>2011-02-27T14:20:39Z</time>
      </trkpt>
      <trkpt lat="46.39762" lon="-0.43315">
        <ele>21.0647</ele>
        <time>2011-02-27T14:20:40Z</time>
      </trkpt>
      <trkpt lat="46.39763" lon="-0.43314">
        <ele>21.0759</ele>
        <time>2011-02-27T14:20:41Z</time>
      </trkpt>
      <trkpt lat="46.39764" lon="-0.43313">
        <ele>21.0877</ele>
        <time>2011-02-27T14:20:42Z</time>
      </trkpt>
      <trkpt lat="46.39765" lon="-0.43312">
        <ele>21.0975</ele>
        <time>2011-02-27T14:20:43Z</time>
      </trkpt>
      <trkpt lat="46.39766" lon="-0.43311">
        <ele>21.1053</ele>
        <time>2011-02-27T14:20:44Z</time>
      </trkpt>
      <trkpt lat="46.39768" lon="-0.43311">
        <ele>21.114</ele>
        <time>2011-02-27T14:20:45Z</time>
      </trkpt>
      <trkpt lat="46.39769" lon="-0.4331">
        <ele>21.1206</ele>
        <time>2011-02-27T14:20:46Z</time>
      </trkpt>
      <trkpt lat="46.3977" lon="-0.43309">
        <ele>21.1256</ele>
        <time>2011-02-27T14:20:47Z</time>
      </trkpt>
      <trkpt lat="46.39771" lon="-0.43309">
        <ele>21.1285</ele>
        <time>2011-02-27T14:20:48Z</time>
      </trkpt>
      <trkpt lat="46.39772" lon="-0.43308">
        <ele>21.1306</ele>
        <time>2011-02-27T14:20:49Z</time>
      </trkpt>
      <trkpt lat="46.39773" lon="-0.43308">
        <ele>21.1316</ele>
        <time>2011-02-27T14:20:50Z</time>
      </trkpt>
      <trkpt lat="46.39774" lon="-0.43307">
        <ele>21.1318</ele>
        <time>2011-02-27T14:20:51Z</time>
      </trkpt>
      <trkpt lat="46.39775" lon="-0.43307">
        <ele>21.1312</ele>
        <time>2011-02-27T14:20:52Z</time>
      </trkpt>
      <trkpt lat="46.39776" lon="-0.43308">
        <ele>21.1299</ele>
        <time>2011-02-27T14:20:53Z</time>
      </trkpt>
      <trkpt lat="46.39777" lon="-0.43308">
        <ele>21.1282</ele>
        <time>2011-02-27T14:20:54Z</time>
      </trkpt>
      <trkpt lat="46.39778" lon="-0.43308">
        <ele>21.1265</ele>
        <time>2011-02-27T14:20:55Z</time>
      </trkpt>
      <trkpt lat="46.39779" lon="-0.43308">
        <ele>21.1261</ele>
        <time>2011-02-27T14:20:56Z</time>
      </trkpt>
      <trkpt lat="46.3978" lon="-0.43307">
        <ele>21.1257</ele>
        <time>2011-02-27T14:20:57Z</time>
      </trkpt>
      <trkpt lat="46.3978" lon="-0.43306">
        <ele>21.1253</ele>
        <time>2011-02-27T14:20:58Z</time>
      </trkpt>
      <trkpt lat="46.39781" lon="-0.43306">
        <ele>21.1247</ele>
        <time>2011-02-27T14:20:59Z</time>
      </trkpt>
      <trkpt lat="46.39782" lon="-0.43305">
        <ele>21.1227</ele>
        <time>2011-02-27T14:21:00Z</time>
      </trkpt>
      <trkpt lat="46.39783" lon="-0.43305">
        <ele>21.1193</ele>
        <time>2011-02-27T14:21:01Z</time>
      </trkpt>
      <trkpt lat="46.39784" lon="-0.43304">
        <ele>21.1126</ele>
        <time>2011-02-27T14:21:02Z</time>
      </trkpt>
      <trkpt lat="46.39785" lon="-0.43303">
        <ele>21.1023</ele>
        <time>2011-02-27T14:21:03Z</time>
      </trkpt>
      <trkpt lat="46.39785" lon="-0.43302">
        <ele>21.0897</ele>
        <time>2011-02-27T14:21:04Z</time>
      </trkpt>
      <trkpt lat="46.39786" lon="-0.43301">
        <ele>21.0756</ele>
        <time>2011-02-27T14:21:05Z</time>
      </trkpt>
      <trkpt lat="46.39787" lon="-0.43301">
        <ele>21.0614</ele>
        <time>2011-02-27T14:21:06Z</time>
      </trkpt>
      <trkpt lat="46.39788" lon="-0.433">
        <ele>21.0467</ele>
        <time>2011-02-27T14:21:07Z</time>
      </trkpt>
      <trkpt lat="46.39789" lon="-0.433">
        <ele>21.0318</ele>
        <time>2011-02-27T14:21:08Z</time>
      </trkpt>
      <trkpt lat="46.3979" lon="-0.433">
        <ele>21.0161</ele>
        <time>2011-02-27T14:21:09Z</time>
      </trkpt>
      <trkpt lat="46.3979" lon="-0.433">
        <ele>20.9996</ele>
        <time>2011-02-27T14:21:10Z</time>
      </trkpt>
      <trkpt lat="46.39791" lon="-0.433">
        <ele>20.9817</ele>
        <time>2011-02-27T14:21:11Z</time>
      </trkpt>
      <trkpt lat="46.39792" lon="-0.43299">
        <ele>20.9643</ele>
        <time>2011-02-27T14:21:12Z</time>
      </trkpt>
      <trkpt lat="46.39793" lon="-0.43299">
        <ele>20.9463</ele>
        <time>2011-02-27T14:21:13Z</time>
      </trkpt>
      <trkpt lat="46.39794" lon="-0.43298">
        <ele>20.9276</ele>
        <time>2011-02-27T14:21:14Z</time>
      </trkpt>
      <trkpt lat="46.39795" lon="-0.43298">
        <ele>20.9092</ele>
        <time>2011-02-27T14:21:15Z</time>
      </trkpt>
      <trkpt lat="46.39796" lon="-0.43297">
        <ele>20.892</ele>
        <time>2011-02-27T14:21:16Z</time>
      </trkpt>
      <trkpt lat="46.39797" lon="-0.43296">
        <ele>20.8777</ele>
        <time>2011-02-27T14:21:17Z</time>
      </trkpt>
      <trkpt lat="46.39799" lon="-0.43295">
        <ele>20.8571</ele>
        <time>2011-02-27T14:21:18Z</time>
      </trkpt>
      <trkpt lat="46.398" lon="-0.43294">
        <ele>20.8354</ele>
        <time>2011-02-27T14:21:19Z</time>
      </trkpt>
      <trkpt lat="46.39801" lon="-0.43294">
        <ele>20.8251</ele>
        <time>2011-02-27T14:21:20Z</time>
      </trkpt>
      <trkpt lat="46.39803" lon="-0.43293">
        <ele>20.8158</ele>
        <time>2011-02-27T14:21:21Z</time>
      </trkpt>
      <trkpt lat="46.39803" lon="-0.43293">
        <ele>20.8089</ele>
        <time>2011-02-27T14:21:22Z</time>
      </trkpt>
      <trkpt lat="46.39804" lon="-0.43293">
        <ele>20.8004</ele>
        <time>2011-02-27T14:21:23Z</time>
      </trkpt>
      <trkpt lat="46.39806" lon="-0.43292">
        <ele>20.7797</ele>
        <time>2011-02-27T14:21:24Z</time>
      </trkpt>
      <trkpt lat="46.39808" lon="-0.43291">
        <ele>20.7533</ele>
        <time>2011-02-27T14:21:25Z</time>
      </trkpt>
      <trkpt lat="46.39809" lon="-0.43289">
        <ele>20.7179</ele>
        <time>2011-02-27T14:21:26Z</time>
      </trkpt>
      <trkpt lat="46.39811" lon="-0.43288">
        <ele>20.678</ele>
        <time>2011-02-27T14:21:27Z</time>
      </trkpt>
      <trkpt lat="46.39813" lon="-0.43287">
        <ele>20.6357</ele>
        <time>2011-02-27T14:21:28Z</time>
      </trkpt>
      <trkpt lat="46.39814" lon="-0.43287">
        <ele>20.5898</ele>
        <time>2011-02-27T14:21:29Z</time>
      </trkpt>
      <trkpt lat="46.39815" lon="-0.43286">
        <ele>20.5409</ele>
        <time>2011-02-27T14:21:30Z</time>
      </trkpt>
      <trkpt lat="46.39816" lon="-0.43285">
        <ele>20.491</ele>
        <time>2011-02-27T14:21:31Z</time>
      </trkpt>
      <trkpt lat="46.39817" lon="-0.43284">
        <ele>20.4415</ele>
        <time>2011-02-27T14:21:32Z</time>
      </trkpt>
      <trkpt lat="46.39819" lon="-0.43283">
        <ele>20.3959</ele>
        <time>2011-02-27T14:21:33Z</time>
      </trkpt>
      <trkpt lat="46.39821" lon="-0.43282">
        <ele>20.3522</ele>
        <time>2011-02-27T14:21:34Z</time>
      </trkpt>
      <trkpt lat="46.39822" lon="-0.4328">
        <ele>20.3082</ele>
        <time>2011-02-27T14:21:35Z</time>
      </trkpt>
      <trkpt lat="46.39823" lon="-0.43279">
        <ele>20.2638</ele>
        <time>2011-02-27T14:21:36Z</time>
      </trkpt>
      <trkpt lat="46.39825" lon="-0.43279">
        <ele>20.2176</ele>
        <time>2011-02-27T14:21:37Z</time>
      </trkpt>
      <trkpt lat="46.39826" lon="-0.43278">
        <ele>20.1728</ele>
        <time>2011-02-27T14:21:38Z</time>
      </trkpt>
      <trkpt lat="46.39827" lon="-0.43277">
        <ele>20.1313</ele>
        <time>2011-02-27T14:21:39Z</time>
      </trkpt>
      <trkpt lat="46.39828" lon="-0.43276">
        <ele>20.0893</ele>
        <time>2011-02-27T14:21:40Z</time>
      </trkpt>
      <trkpt lat="46.39829" lon="-0.43276">
        <ele>20.0443</ele>
        <time>2011-02-27T14:21:41Z</time>
      </trkpt>
      <trkpt lat="46.3983" lon="-0.43275">
        <ele>19.9999</ele>
        <time>2011-02-27T14:21:42Z</time>
      </trkpt>
      <trkpt lat="46.39831" lon="-0.43275">
        <ele>19.9556</ele>
        <time>2011-02-27T14:21:43Z</time>
      </trkpt>
      <trkpt lat="46.39832" lon="-0.43274">
        <ele>19.9121</ele>
        <time>2011-02-27T14:21:44Z</time>
      </trkpt>
      <trkpt lat="46.39834" lon="-0.43273">
        <ele>19.868</ele>
        <time>2011-02-27T14:21:45Z</time>
      </trkpt>
      <trkpt lat="46.39835" lon="-0.43273">
        <ele>19.8222</ele>
        <time>2011-02-27T14:21:46Z</time>
      </trkpt>
      <trkpt lat="46.39836" lon="-0.43272">
        <ele>19.7773</ele>
        <time>2011-02-27T14:21:47Z</time>
      </trkpt>
      <trkpt lat="46.39837" lon="-0.43272">
        <ele>19.7333</ele>
        <time>2011-02-27T14:21:48Z</time>
      </trkpt>
      <trkpt lat="46.39838" lon="-0.43272">
        <ele>19.6896</ele>
        <time>2011-02-27T14:21:49Z</time>
      </trkpt>
      <trkpt lat="46.39839" lon="-0.43272">
        <ele>19.6465</ele>
        <time>2011-02-27T14:21:50Z</time>
      </trkpt>
      <trkpt lat="46.3984" lon="-0.43271">
        <ele>19.6025</ele>
        <time>2011-02-27T14:21:51Z</time>
      </trkpt>
      <trkpt lat="46.39841" lon="-0.4327">
        <ele>19.5604</ele>
        <time>2011-02-27T14:21:52Z</time>
      </trkpt>
      <trkpt lat="46.39842" lon="-0.4327">
        <ele>19.5188</ele>
        <time>2011-02-27T14:21:53Z</time>
      </trkpt>
      <trkpt lat="46.39842" lon="-0.43269">
        <ele>19.4777</ele>
        <time>2011-02-27T14:21:54Z</time>
      </trkpt>
      <trkpt lat="46.39843" lon="-0.43268">
        <ele>19.4377</ele>
        <time>2011-02-27T14:21:55Z</time>
      </trkpt>
      <trkpt lat="46.39844" lon="-0.43267">
        <ele>19.3991</ele>
        <time>2011-02-27T14:21:56Z</time>
      </trkpt>
      <trkpt lat="46.39845" lon="-0.43267">
        <ele>19.3601</ele>
        <time>2011-02-27T14:21:57Z</time>
      </trkpt>
      <trkpt lat="46.39846" lon="-0.43266">
        <ele>19.3235</ele>
        <time>2011-02-27T14:21:58Z</time>
      </trkpt>
      <trkpt lat="46.39847" lon="-0.43265">
        <ele>19.2888</ele>
        <time>2011-02-27T14:21:59Z</time>
      </trkpt>
      <trkpt lat="46.39848" lon="-0.43264">
        <ele>19.2535</ele>
        <time>2011-02-27T14:22:00Z</time>
      </trkpt>
      <trkpt lat="46.39849" lon="-0.43263">
        <ele>19.2192</ele>
        <time>2011-02-27T14:22:01Z</time>
      </trkpt>
      <trkpt lat="46.3985" lon="-0.43263">
        <ele>19.1854</ele>
        <time>2011-02-27T14:22:02Z</time>
      </trkpt>
      <trkpt lat="46.39851" lon="-0.43262">
        <ele>19.1511</ele>
        <time>2011-02-27T14:22:03Z</time>
      </trkpt>
      <trkpt lat="46.39852" lon="-0.43262">
        <ele>19.1159</ele>
        <time>2011-02-27T14:22:04Z</time>
      </trkpt>
      <trkpt lat="46.39853" lon="-0.43261">
        <ele>19.0813</ele>
        <time>2011-02-27T14:22:05Z</time>
      </trkpt>
      <trkpt lat="46.39854" lon="-0.43261">
        <ele>19.0469</ele>
        <time>2011-02-27T14:22:06Z</time>
      </trkpt>
      <trkpt lat="46.39855" lon="-0.4326">
        <ele>19.013</ele>
        <time>2011-02-27T14:22:07Z</time>
      </trkpt>
      <trkpt lat="46.39856" lon="-0.4326">
        <ele>18.9801</ele>
        <time>2011-02-27T14:22:08Z</time>
      </trkpt>
      <trkpt lat="46.39856" lon="-0.43259">
        <ele>18.9491</ele>
        <time>2011-02-27T14:22:09Z</time>
      </trkpt>
      <trkpt lat="46.39857" lon="-0.43258">
        <ele>18.9201</ele>
        <time>2011-02-27T14:22:10Z</time>
      </trkpt>
      <trkpt lat="46.39858" lon="-0.43258">
        <ele>18.8938</ele>
        <time>2011-02-27T14:22:11Z</time>
      </trkpt>
      <trkpt lat="46.39858" lon="-0.43257">
        <ele>18.8679</ele>
        <time>2011-02-27T14:22:12Z</time>
      </trkpt>
      <trkpt lat="46.39859" lon="-0.43257">
        <ele>18.8438</ele>
        <time>2011-02-27T14:22:13Z</time>
      </trkpt>
      <trkpt lat="46.39861" lon="-0.43256">
        <ele>18.821</ele>
        <time>2011-02-27T14:22:14Z</time>
      </trkpt>
      <trkpt lat="46.39862" lon="-0.43255">
        <ele>18.799</ele>
        <time>2011-02-27T14:22:15Z</time>
      </trkpt>
      <trkpt lat="46.39863" lon="-0.43253">
        <ele>18.7767</ele>
        <time>2011-02-27T14:22:16Z</time>
      </trkpt>
      <trkpt lat="46.39864" lon="-0.43253">
        <ele>18.7555</ele>
        <time>2011-02-27T14:22:17Z</time>
      </trkpt>
      <trkpt lat="46.39866" lon="-0.43252">
        <ele>18.7345</ele>
        <time>2011-02-27T14:22:18Z</time>
      </trkpt>
      <trkpt lat="46.39867" lon="-0.43251">
        <ele>18.7106</ele>
        <time>2011-02-27T14:22:19Z</time>
      </trkpt>
      <trkpt lat="46.39867" lon="-0.4325">
        <ele>18.6827</ele>
        <time>2011-02-27T14:22:20Z</time>
      </trkpt>
      <trkpt lat="46.39869" lon="-0.4325">
        <ele>18.6536</ele>
        <time>2011-02-27T14:22:21Z</time>
      </trkpt>
      <trkpt lat="46.3987" lon="-0.43249">
        <ele>18.6243</ele>
        <time>2011-02-27T14:22:22Z</time>
      </trkpt>
      <trkpt lat="46.39871" lon="-0.43248">
        <ele>18.5898</ele>
        <time>2011-02-27T14:22:23Z</time>
      </trkpt>
      <trkpt lat="46.39872" lon="-0.43247">
        <ele>18.5496</ele>
        <time>2011-02-27T14:22:24Z</time>
      </trkpt>
      <trkpt lat="46.39872" lon="-0.43246">
        <ele>18.5046</ele>
        <time>2011-02-27T14:22:25Z</time>
      </trkpt>
      <trkpt lat="46.39874" lon="-0.43245">
        <ele>18.4608</ele>
        <time>2011-02-27T14:22:26Z</time>
      </trkpt>
      <trkpt lat="46.39875" lon="-0.43245">
        <ele>18.4116</ele>
        <time>2011-02-27T14:22:27Z</time>
      </trkpt>
      <trkpt lat="46.39875" lon="-0.43245">
        <ele>18.3595</ele>
        <time>2011-02-27T14:22:28Z</time>
      </trkpt>
      <trkpt lat="46.39876" lon="-0.43246">
        <ele>18.1894</ele>
        <time>2011-02-27T14:22:36Z</time>
      </trkpt>
      <trkpt lat="46.39877" lon="-0.43246">
        <ele>18.1184</ele>
        <time>2011-02-27T14:22:37Z</time>
      </trkpt>
      <trkpt lat="46.39878" lon="-0.43245">
        <ele>18.0512</ele>
        <time>2011-02-27T14:22:38Z</time>
      </trkpt>
      <trkpt lat="46.39879" lon="-0.43244">
        <ele>17.9912</ele>
        <time>2011-02-27T14:22:39Z</time>
      </trkpt>
      <trkpt lat="46.39881" lon="-0.43243">
        <ele>17.9364</ele>
        <time>2011-02-27T14:22:40Z</time>
      </trkpt>
      <trkpt lat="46.39882" lon="-0.43242">
        <ele>17.8872</ele>
        <time>2011-02-27T14:22:41Z</time>
      </trkpt>
      <trkpt lat="46.39883" lon="-0.43242">
        <ele>17.8443</ele>
        <time>2011-02-27T14:22:42Z</time>
      </trkpt>
      <trkpt lat="46.39884" lon="-0.43241">
        <ele>17.8052</ele>
        <time>2011-02-27T14:22:43Z</time>
      </trkpt>
      <trkpt lat="46.39885" lon="-0.4324">
        <ele>17.772</ele>
        <time>2011-02-27T14:22:44Z</time>
      </trkpt>
      <trkpt lat="46.39885" lon="-0.4324">
        <ele>17.7447</ele>
        <time>2011-02-27T14:22:45Z</time>
      </trkpt>
      <trkpt lat="46.39886" lon="-0.43239">
        <ele>17.7227</ele>
        <time>2011-02-27T14:22:46Z</time>
      </trkpt>
      <trkpt lat="46.39886" lon="-0.43239">
        <ele>17.7036</ele>
        <time>2011-02-27T14:22:47Z</time>
      </trkpt>
      <trkpt lat="46.39887" lon="-0.43238">
        <ele>17.6835</ele>
        <time>2011-02-27T14:22:48Z</time>
      </trkpt>
      <trkpt lat="46.39888" lon="-0.43238">
        <ele>17.6639</ele>
        <time>2011-02-27T14:22:49Z</time>
      </trkpt>
      <trkpt lat="46.39888" lon="-0.43237">
        <ele>17.6461</ele>
        <time>2011-02-27T14:22:50Z</time>
      </trkpt>
      <trkpt lat="46.39889" lon="-0.43237">
        <ele>17.6285</ele>
        <time>2011-02-27T14:22:51Z</time>
      </trkpt>
      <trkpt lat="46.3989" lon="-0.43236">
        <ele>17.6124</ele>
        <time>2011-02-27T14:22:52Z</time>
      </trkpt>
      <trkpt lat="46.39891" lon="-0.43235">
        <ele>17.5989</ele>
        <time>2011-02-27T14:22:53Z</time>
      </trkpt>
      <trkpt lat="46.39892" lon="-0.43234">
        <ele>17.5853</ele>
        <time>2011-02-27T14:22:54Z</time>
      </trkpt>
      <trkpt lat="46.39893" lon="-0.43233">
        <ele>17.5712</ele>
        <time>2011-02-27T14:22:55Z</time>
      </trkpt>
      <trkpt lat="46.39894" lon="-0.43232">
        <ele>17.5585</ele>
        <time>2011-02-27T14:22:56Z</time>
      </trkpt>
      <trkpt lat="46.39895" lon="-0.43231">
        <ele>17.5454</ele>
        <time>2011-02-27T14:22:57Z</time>
      </trkpt>
      <trkpt lat="46.39896" lon="-0.4323">
        <ele>17.5328</ele>
        <time>2011-02-27T14:22:58Z</time>
      </trkpt>
      <trkpt lat="46.39898" lon="-0.43229">
        <ele>17.5212</ele>
        <time>2011-02-27T14:22:59Z</time>
      </trkpt>
      <trkpt lat="46.39899" lon="-0.43228">
        <ele>17.5105</ele>
        <time>2011-02-27T14:23:00Z</time>
      </trkpt>
      <trkpt lat="46.399" lon="-0.43228">
        <ele>17.4992</ele>
        <time>2011-02-27T14:23:01Z</time>
      </trkpt>
      <trkpt lat="46.39901" lon="-0.43227">
        <ele>17.4898</ele>
        <time>2011-02-27T14:23:02Z</time>
      </trkpt>
      <trkpt lat="46.39901" lon="-0.43227">
        <ele>17.4795</ele>
        <time>2011-02-27T14:23:03Z</time>
      </trkpt>
      <trkpt lat="46.39903" lon="-0.43226">
        <ele>17.4679</ele>
        <time>2011-02-27T14:23:04Z</time>
      </trkpt>
      <trkpt lat="46.39904" lon="-0.43226">
        <ele>17.455</ele>
        <time>2011-02-27T14:23:05Z</time>
      </trkpt>
      <trkpt lat="46.39904" lon="-0.43225">
        <ele>17.441</ele>
        <time>2011-02-27T14:23:06Z</time>
      </trkpt>
      <trkpt lat="46.39905" lon="-0.43224">
        <ele>17.4264</ele>
        <time>2011-02-27T14:23:07Z</time>
      </trkpt>
      <trkpt lat="46.39906" lon="-0.43224">
        <ele>17.4119</ele>
        <time>2011-02-27T14:23:08Z</time>
      </trkpt>
      <trkpt lat="46.39907" lon="-0.43223">
        <ele>17.3993</ele>
        <time>2011-02-27T14:23:09Z</time>
      </trkpt>
      <trkpt lat="46.39908" lon="-0.43223">
        <ele>17.389</ele>
        <time>2011-02-27T14:23:10Z</time>
      </trkpt>
      <trkpt lat="46.39909" lon="-0.43222">
        <ele>17.3789</ele>
        <time>2011-02-27T14:23:11Z</time>
      </trkpt>
      <trkpt lat="46.3991" lon="-0.43221">
        <ele>17.3705</ele>
        <time>2011-02-27T14:23:12Z</time>
      </trkpt>
      <trkpt lat="46.39911" lon="-0.4322">
        <ele>17.3622</ele>
        <time>2011-02-27T14:23:13Z</time>
      </trkpt>
      <trkpt lat="46.39912" lon="-0.43219">
        <ele>17.3522</ele>
        <time>2011-02-27T14:23:14Z</time>
      </trkpt>
      <trkpt lat="46.39914" lon="-0.43219">
        <ele>17.3424</ele>
        <time>2011-02-27T14:23:15Z</time>
      </trkpt>
      <trkpt lat="46.39915" lon="-0.43218">
        <ele>17.33</ele>
        <time>2011-02-27T14:23:16Z</time>
      </trkpt>
      <trkpt lat="46.39916" lon="-0.43217">
        <ele>17.317</ele>
        <time>2011-02-27T14:23:17Z</time>
      </trkpt>
      <trkpt lat="46.39917" lon="-0.43216">
        <ele>17.3028</ele>
        <time>2011-02-27T14:23:18Z</time>
      </trkpt>
      <trkpt lat="46.39918" lon="-0.43216">
        <ele>17.2896</ele>
        <time>2011-02-27T14:23:19Z</time>
      </trkpt>
      <trkpt lat="46.39919" lon="-0.43215">
        <ele>17.2774</ele>
        <time>2011-02-27T14:23:20Z</time>
      </trkpt>
      <trkpt lat="46.39919" lon="-0.43215">
        <ele>17.2688</ele>
        <time>2011-02-27T14:23:21Z</time>
      </trkpt>
      <trkpt lat="46.3992" lon="-0.43214">
        <ele>17.265</ele>
        <time>2011-02-27T14:23:22Z</time>
      </trkpt>
      <trkpt lat="46.39921" lon="-0.43213">
        <ele>17.2631</ele>
        <time>2011-02-27T14:23:23Z</time>
      </trkpt>
      <trkpt lat="46.39922" lon="-0.43213">
        <ele>17.2643</ele>
        <time>2011-02-27T14:23:24Z</time>
      </trkpt>
      <trkpt lat="46.39923" lon="-0.43213">
        <ele>17.2677</ele>
        <time>2011-02-27T14:23:25Z</time>
      </trkpt>
      <trkpt lat="46.39924" lon="-0.43212">
        <ele>17.2722</ele>
        <time>2011-02-27T14:23:26Z</time>
      </trkpt>
      <trkpt lat="46.39925" lon="-0.43212">
        <ele>17.2755</ele>
        <time>2011-02-27T14:23:27Z</time>
      </trkpt>
      <trkpt lat="46.39926" lon="-0.43211">
        <ele>17.2796</ele>
        <time>2011-02-27T14:23:28Z</time>
      </trkpt>
      <trkpt lat="46.39927" lon="-0.43211">
        <ele>17.2842</ele>
        <time>2011-02-27T14:23:29Z</time>
      </trkpt>
      <trkpt lat="46.39928" lon="-0.43211">
        <ele>17.2895</ele>
        <time>2011-02-27T14:23:30Z</time>
      </trkpt>
      <trkpt lat="46.39928" lon="-0.4321">
        <ele>17.2944</ele>
        <time>2011-02-27T14:23:31Z</time>
      </trkpt>
      <trkpt lat="46.39929" lon="-0.43209">
        <ele>17.2979</ele>
        <time>2011-02-27T14:23:32Z</time>
      </trkpt>
      <trkpt lat="46.3993" lon="-0.43208">
        <ele>17.2992</ele>
        <time>2011-02-27T14:23:33Z</time>
      </trkpt>
      <trkpt lat="46.39932" lon="-0.43207">
        <ele>17.2984</ele>
        <time>2011-02-27T14:23:34Z</time>
      </trkpt>
      <trkpt lat="46.39932" lon="-0.43206">
        <ele>17.2954</ele>
        <time>2011-02-27T14:23:35Z</time>
      </trkpt>
      <trkpt lat="46.39933" lon="-0.43205">
        <ele>17.2899</ele>
        <time>2011-02-27T14:23:36Z</time>
      </trkpt>
      <trkpt lat="46.39935" lon="-0.43204">
        <ele>17.2833</ele>
        <time>2011-02-27T14:23:37Z</time>
      </trkpt>
      <trkpt lat="46.39935" lon="-0.43203">
        <ele>17.277</ele>
        <time>2011-02-27T14:23:38Z</time>
      </trkpt>
      <trkpt lat="46.39936" lon="-0.43203">
        <ele>17.2734</ele>
        <time>2011-02-27T14:23:39Z</time>
      </trkpt>
      <trkpt lat="46.39938" lon="-0.43202">
        <ele>17.2726</ele>
        <time>2011-02-27T14:23:40Z</time>
      </trkpt>
      <trkpt lat="46.39939" lon="-0.43202">
        <ele>17.2712</ele>
        <time>2011-02-27T14:23:41Z</time>
      </trkpt>
      <trkpt lat="46.3994" lon="-0.43201">
        <ele>17.2724</ele>
        <time>2011-02-27T14:23:42Z</time>
      </trkpt>
      <trkpt lat="46.3994" lon="-0.43201">
        <ele>17.2756</ele>
        <time>2011-02-27T14:23:43Z</time>
      </trkpt>
      <trkpt lat="46.39941" lon="-0.432">
        <ele>17.2805</ele>
        <time>2011-02-27T14:23:44Z</time>
      </trkpt>
      <trkpt lat="46.39943" lon="-0.43198">
        <ele>17.2978</ele>
        <time>2011-02-27T14:23:48Z</time>
      </trkpt>
      <trkpt lat="46.39945" lon="-0.43202">
        <ele>17.2662</ele>
        <time>2011-02-27T14:23:56Z</time>
      </trkpt>
      <trkpt lat="46.39945" lon="-0.43201">
        <ele>17.2637</ele>
        <time>2011-02-27T14:23:57Z</time>
      </trkpt>
      <trkpt lat="46.39946" lon="-0.432">
        <ele>17.2623</ele>
        <time>2011-02-27T14:23:58Z</time>
      </trkpt>
      <trkpt lat="46.39947" lon="-0.432">
        <ele>17.2633</ele>
        <time>2011-02-27T14:23:59Z</time>
      </trkpt>
      <trkpt lat="46.39948" lon="-0.43199">
        <ele>17.2708</ele>
        <time>2011-02-27T14:24:00Z</time>
      </trkpt>
      <trkpt lat="46.39949" lon="-0.43197">
        <ele>17.2746</ele>
        <time>2011-02-27T14:24:01Z</time>
      </trkpt>
      <trkpt lat="46.3995" lon="-0.43196">
        <ele>17.2739</ele>
        <time>2011-02-27T14:24:02Z</time>
      </trkpt>
      <trkpt lat="46.39952" lon="-0.43195">
        <ele>17.2739</ele>
        <time>2011-02-27T14:24:03Z</time>
      </trkpt>
      <trkpt lat="46.39951" lon="-0.43195">
        <ele>17.2718</ele>
        <time>2011-02-27T14:24:04Z</time>
      </trkpt>
      <trkpt lat="46.39951" lon="-0.43194">
        <ele>17.2706</ele>
        <time>2011-02-27T14:24:05Z</time>
      </trkpt>
      <trkpt lat="46.39952" lon="-0.43193">
        <ele>17.2667</ele>
        <time>2011-02-27T14:24:06Z</time>
      </trkpt>
      <trkpt lat="46.39953" lon="-0.43192">
        <ele>17.2631</ele>
        <time>2011-02-27T14:24:07Z</time>
      </trkpt>
      <trkpt lat="46.39954" lon="-0.4319">
        <ele>17.2546</ele>
        <time>2011-02-27T14:24:08Z</time>
      </trkpt>
      <trkpt lat="46.39955" lon="-0.43189">
        <ele>17.2451</ele>
        <time>2011-02-27T14:24:09Z</time>
      </trkpt>
      <trkpt lat="46.39956" lon="-0.43188">
        <ele>17.2325</ele>
        <time>2011-02-27T14:24:10Z</time>
      </trkpt>
      <trkpt lat="46.39957" lon="-0.43187">
        <ele>17.2171</ele>
        <time>2011-02-27T14:24:11Z</time>
      </trkpt>
      <trkpt lat="46.39958" lon="-0.43187">
        <ele>17.2076</ele>
        <time>2011-02-27T14:24:12Z</time>
      </trkpt>
      <trkpt lat="46.39959" lon="-0.43186">
        <ele>17.1942</ele>
        <time>2011-02-27T14:24:13Z</time>
      </trkpt>
      <trkpt lat="46.3996" lon="-0.43185">
        <ele>17.1798</ele>
        <time>2011-02-27T14:24:14Z</time>
      </trkpt>
      <trkpt lat="46.39961" lon="-0.43183">
        <ele>17.1665</ele>
        <time>2011-02-27T14:24:15Z</time>
      </trkpt>
      <trkpt lat="46.39962" lon="-0.43183">
        <ele>17.1546</ele>
        <time>2011-02-27T14:24:16Z</time>
      </trkpt>
      <trkpt lat="46.39963" lon="-0.43182">
        <ele>17.1433</ele>
        <time>2011-02-27T14:24:17Z</time>
      </trkpt>
      <trkpt lat="46.39964" lon="-0.43181">
        <ele>17.1388</ele>
        <time>2011-02-27T14:24:18Z</time>
      </trkpt>
      <trkpt lat="46.39965" lon="-0.43181">
        <ele>17.1379</ele>
        <time>2011-02-27T14:24:19Z</time>
      </trkpt>
      <trkpt lat="46.39966" lon="-0.43181">
        <ele>17.1404</ele>
        <time>2011-02-27T14:24:20Z</time>
      </trkpt>
      <trkpt lat="46.39966" lon="-0.43181">
        <ele>17.1401</ele>
        <time>2011-02-27T14:24:21Z</time>
      </trkpt>
      <trkpt lat="46.39966" lon="-0.43181">
        <ele>17.1361</ele>
        <time>2011-02-27T14:24:22Z</time>
      </trkpt>
      <trkpt lat="46.39966" lon="-0.43179">
        <ele>17.0677</ele>
        <time>2011-02-27T14:24:34Z</time>
      </trkpt>
      <trkpt lat="46.39967" lon="-0.43178">
        <ele>17.0507</ele>
        <time>2011-02-27T14:24:35Z</time>
      </trkpt>
      <trkpt lat="46.39968" lon="-0.43177">
        <ele>17.0343</ele>
        <time>2011-02-27T14:24:36Z</time>
      </trkpt>
      <trkpt lat="46.39969" lon="-0.43175">
        <ele>17.0199</ele>
        <time>2011-02-27T14:24:37Z</time>
      </trkpt>
      <trkpt lat="46.3997" lon="-0.43175">
        <ele>17.007</ele>
        <time>2011-02-27T14:24:38Z</time>
      </trkpt>
      <trkpt lat="46.39971" lon="-0.43174">
        <ele>16.9976</ele>
        <time>2011-02-27T14:24:39Z</time>
      </trkpt>
      <trkpt lat="46.39972" lon="-0.43173">
        <ele>16.9886</ele>
        <time>2011-02-27T14:24:40Z</time>
      </trkpt>
      <trkpt lat="46.39973" lon="-0.43172">
        <ele>16.9804</ele>
        <time>2011-02-27T14:24:41Z</time>
      </trkpt>
      <trkpt lat="46.39975" lon="-0.43172">
        <ele>16.9727</ele>
        <time>2011-02-27T14:24:42Z</time>
      </trkpt>
      <trkpt lat="46.39977" lon="-0.43171">
        <ele>16.9653</ele>
        <time>2011-02-27T14:24:43Z</time>
      </trkpt>
      <trkpt lat="46.39978" lon="-0.43171">
        <ele>16.9606</ele>
        <time>2011-02-27T14:24:44Z</time>
      </trkpt>
      <trkpt lat="46.3998" lon="-0.4317">
        <ele>16.9552</ele>
        <time>2011-02-27T14:24:45Z</time>
      </trkpt>
      <trkpt lat="46.39981" lon="-0.4317">
        <ele>16.9485</ele>
        <time>2011-02-27T14:24:46Z</time>
      </trkpt>
      <trkpt lat="46.39982" lon="-0.43168">
        <ele>16.9337</ele>
        <time>2011-02-27T14:24:47Z</time>
      </trkpt>
      <trkpt lat="46.39984" lon="-0.43167">
        <ele>16.9101</ele>
        <time>2011-02-27T14:24:48Z</time>
      </trkpt>
      <trkpt lat="46.39985" lon="-0.43166">
        <ele>16.8801</ele>
        <time>2011-02-27T14:24:49Z</time>
      </trkpt>
      <trkpt lat="46.39986" lon="-0.43165">
        <ele>16.847</ele>
        <time>2011-02-27T14:24:50Z</time>
      </trkpt>
      <trkpt lat="46.39988" lon="-0.43165">
        <ele>16.8132</ele>
        <time>2011-02-27T14:24:51Z</time>
      </trkpt>
      <trkpt lat="46.39989" lon="-0.43164">
        <ele>16.7801</ele>
        <time>2011-02-27T14:24:52Z</time>
      </trkpt>
      <trkpt lat="46.3999" lon="-0.43164">
        <ele>16.7478</ele>
        <time>2011-02-27T14:24:53Z</time>
      </trkpt>
      <trkpt lat="46.39991" lon="-0.43164">
        <ele>16.714</ele>
        <time>2011-02-27T14:24:54Z</time>
      </trkpt>
      <trkpt lat="46.39993" lon="-0.43163">
        <ele>16.6841</ele>
        <time>2011-02-27T14:24:55Z</time>
      </trkpt>
      <trkpt lat="46.39993" lon="-0.43163">
        <ele>16.6582</ele>
        <time>2011-02-27T14:24:56Z</time>
      </trkpt>
      <trkpt lat="46.39994" lon="-0.43163">
        <ele>16.6356</ele>
        <time>2011-02-27T14:24:57Z</time>
      </trkpt>
      <trkpt lat="46.39995" lon="-0.43163">
        <ele>16.6112</ele>
        <time>2011-02-27T14:24:58Z</time>
      </trkpt>
      <trkpt lat="46.39996" lon="-0.43163">
        <ele>16.5828</ele>
        <time>2011-02-27T14:24:59Z</time>
      </trkpt>
      <trkpt lat="46.39997" lon="-0.43162">
        <ele>16.5493</ele>
        <time>2011-02-27T14:25:00Z</time>
      </trkpt>
      <trkpt lat="46.39998" lon="-0.43161">
        <ele>16.5174</ele>
        <time>2011-02-27T14:25:01Z</time>
      </trkpt>
      <trkpt lat="46.39999" lon="-0.43161">
        <ele>16.4809</ele>
        <time>2011-02-27T14:25:02Z</time>
      </trkpt>
      <trkpt lat="46.4" lon="-0.4316">
        <ele>16.4419</ele>
        <time>2011-02-27T14:25:03Z</time>
      </trkpt>
      <trkpt lat="46.40002" lon="-0.43159">
        <ele>16.4056</ele>
        <time>2011-02-27T14:25:04Z</time>
      </trkpt>
      <trkpt lat="46.40003" lon="-0.43159">
        <ele>16.3703</ele>
        <time>2011-02-27T14:25:05Z</time>
      </trkpt>
      <trkpt lat="46.40004" lon="-0.43158">
        <ele>16.338</ele>
        <time>2011-02-27T14:25:06Z</time>
      </trkpt>
      <trkpt lat="46.40006" lon="-0.43158">
        <ele>16.3087</ele>
        <time>2011-02-27T14:25:07Z</time>
      </trkpt>
      <trkpt lat="46.40007" lon="-0.43157">
        <ele>16.2812</ele>
        <time>2011-02-27T14:25:08Z</time>
      </trkpt>
      <trkpt lat="46.40008" lon="-0.43157">
        <ele>16.2561</ele>
        <time>2011-02-27T14:25:09Z</time>
      </trkpt>
      <trkpt lat="46.4001" lon="-0.43156">
        <ele>16.233</ele>
        <time>2011-02-27T14:25:10Z</time>
      </trkpt>
      <trkpt lat="46.4001" lon="-0.43155">
        <ele>16.2118</ele>
        <time>2011-02-27T14:25:11Z</time>
      </trkpt>
      <trkpt lat="46.40011" lon="-0.43155">
        <ele>16.1906</ele>
        <time>2011-02-27T14:25:12Z</time>
      </trkpt>
      <trkpt lat="46.40011" lon="-0.43154">
        <ele>16.1705</ele>
        <time>2011-02-27T14:25:13Z</time>
      </trkpt>
      <trkpt lat="46.40011" lon="-0.43154">
        <ele>16.1522</ele>
        <time>2011-02-27T14:25:14Z</time>
      </trkpt>
      <trkpt lat="46.40012" lon="-0.43154">
        <ele>16.1322</ele>
        <time>2011-02-27T14:25:15Z</time>
      </trkpt>
      <trkpt lat="46.40013" lon="-0.43153">
        <ele>16.1134</ele>
        <time>2011-02-27T14:25:16Z</time>
      </trkpt>
      <trkpt lat="46.40014" lon="-0.43153">
        <ele>16.0946</ele>
        <time>2011-02-27T14:25:17Z</time>
      </trkpt>
      <trkpt lat="46.40015" lon="-0.43152">
        <ele>16.0751</ele>
        <time>2011-02-27T14:25:18Z</time>
      </trkpt>
      <trkpt lat="46.40016" lon="-0.43152">
        <ele>16.0545</ele>
        <time>2011-02-27T14:25:19Z</time>
      </trkpt>
      <trkpt lat="46.40017" lon="-0.43151">
        <ele>16.0356</ele>
        <time>2011-02-27T14:25:20Z</time>
      </trkpt>
      <trkpt lat="46.40018" lon="-0.43151">
        <ele>16.0189</ele>
        <time>2011-02-27T14:25:21Z</time>
      </trkpt>
      <trkpt lat="46.40019" lon="-0.4315">
        <ele>16.0045</ele>
        <time>2011-02-27T14:25:22Z</time>
      </trkpt>
      <trkpt lat="46.4002" lon="-0.4315">
        <ele>15.9879</ele>
        <time>2011-02-27T14:25:23Z</time>
      </trkpt>
      <trkpt lat="46.40021" lon="-0.43149">
        <ele>15.9717</ele>
        <time>2011-02-27T14:25:24Z</time>
      </trkpt>
      <trkpt lat="46.40022" lon="-0.43149">
        <ele>15.955</ele>
        <time>2011-02-27T14:25:25Z</time>
      </trkpt>
      <trkpt lat="46.40023" lon="-0.43148">
        <ele>15.9352</ele>
        <time>2011-02-27T14:25:26Z</time>
      </trkpt>
      <trkpt lat="46.40024" lon="-0.43148">
        <ele>15.916</ele>
        <time>2011-02-27T14:25:27Z</time>
      </trkpt>
      <trkpt lat="46.40025" lon="-0.43148">
        <ele>15.896</ele>
        <time>2011-02-27T14:25:28Z</time>
      </trkpt>
      <trkpt lat="46.40026" lon="-0.43148">
        <ele>15.8803</ele>
        <time>2011-02-27T14:25:29Z</time>
      </trkpt>
      <trkpt lat="46.40027" lon="-0.43147">
        <ele>15.8681</ele>
        <time>2011-02-27T14:25:30Z</time>
      </trkpt>
      <trkpt lat="46.40028" lon="-0.43147">
        <ele>15.8567</ele>
        <time>2011-02-27T14:25:31Z</time>
      </trkpt>
      <trkpt lat="46.40029" lon="-0.43146">
        <ele>15.8459</ele>
        <time>2011-02-27T14:25:32Z</time>
      </trkpt>
      <trkpt lat="46.4003" lon="-0.43145">
        <ele>15.8386</ele>
        <time>2011-02-27T14:25:33Z</time>
      </trkpt>
      <trkpt lat="46.40031" lon="-0.43145">
        <ele>15.8353</ele>
        <time>2011-02-27T14:25:34Z</time>
      </trkpt>
      <trkpt lat="46.40033" lon="-0.43145">
        <ele>15.8335</ele>
        <time>2011-02-27T14:25:35Z</time>
      </trkpt>
      <trkpt lat="46.40033" lon="-0.43144">
        <ele>15.834</ele>
        <time>2011-02-27T14:25:36Z</time>
      </trkpt>
      <trkpt lat="46.40035" lon="-0.43144">
        <ele>15.8353</ele>
        <time>2011-02-27T14:25:37Z</time>
      </trkpt>
      <trkpt lat="46.40036" lon="-0.43144">
        <ele>15.8371</ele>
        <time>2011-02-27T14:25:38Z</time>
      </trkpt>
      <trkpt lat="46.40037" lon="-0.43143">
        <ele>15.8357</ele>
        <time>2011-02-27T14:25:39Z</time>
      </trkpt>
      <trkpt lat="46.40038" lon="-0.43143">
        <ele>15.836</ele>
        <time>2011-02-27T14:25:40Z</time>
      </trkpt>
      <trkpt lat="46.40039" lon="-0.43143">
        <ele>15.8394</ele>
        <time>2011-02-27T14:25:41Z</time>
      </trkpt>
      <trkpt lat="46.4004" lon="-0.43143">
        <ele>15.8454</ele>
        <time>2011-02-27T14:25:42Z</time>
      </trkpt>
      <trkpt lat="46.40041" lon="-0.43142">
        <ele>15.8512</ele>
        <time>2011-02-27T14:25:43Z</time>
      </trkpt>
      <trkpt lat="46.40042" lon="-0.43142">
        <ele>15.8563</ele>
        <time>2011-02-27T14:25:44Z</time>
      </trkpt>
      <trkpt lat="46.40042" lon="-0.43142">
        <ele>15.861</ele>
        <time>2011-02-27T14:25:45Z</time>
      </trkpt>
      <trkpt lat="46.40043" lon="-0.43141">
        <ele>15.8686</ele>
        <time>2011-02-27T14:25:46Z</time>
      </trkpt>
      <trkpt lat="46.40044" lon="-0.4314">
        <ele>15.8736</ele>
        <time>2011-02-27T14:25:47Z</time>
      </trkpt>
      <trkpt lat="46.40044" lon="-0.4314">
        <ele>15.8805</ele>
        <time>2011-02-27T14:25:48Z</time>
      </trkpt>
      <trkpt lat="46.40046" lon="-0.43139">
        <ele>15.8855</ele>
        <time>2011-02-27T14:25:49Z</time>
      </trkpt>
      <trkpt lat="46.40047" lon="-0.43139">
        <ele>15.8868</ele>
        <time>2011-02-27T14:25:50Z</time>
      </trkpt>
      <trkpt lat="46.40048" lon="-0.43138">
        <ele>15.8872</ele>
        <time>2011-02-27T14:25:51Z</time>
      </trkpt>
      <trkpt lat="46.40049" lon="-0.43138">
        <ele>15.8906</ele>
        <time>2011-02-27T14:25:52Z</time>
      </trkpt>
      <trkpt lat="46.4005" lon="-0.43138">
        <ele>15.8964</ele>
        <time>2011-02-27T14:25:53Z</time>
      </trkpt>
      <trkpt lat="46.40051" lon="-0.43138">
        <ele>15.9039</ele>
        <time>2011-02-27T14:25:54Z</time>
      </trkpt>
      <trkpt lat="46.40052" lon="-0.43138">
        <ele>15.9134</ele>
        <time>2011-02-27T14:25:55Z</time>
      </trkpt>
      <trkpt lat="46.40053" lon="-0.43138">
        <ele>15.924</ele>
        <time>2011-02-27T14:25:56Z</time>
      </trkpt>
      <trkpt lat="46.40054" lon="-0.43138">
        <ele>15.9347</ele>
        <time>2011-02-27T14:25:57Z</time>
      </trkpt>
      <trkpt lat="46.40054" lon="-0.43138">
        <ele>15.9469</ele>
        <time>2011-02-27T14:25:58Z</time>
      </trkpt>
      <trkpt lat="46.40056" lon="-0.43137">
        <ele>15.952</ele>
        <time>2011-02-27T14:25:59Z</time>
      </trkpt>
      <trkpt lat="46.40056" lon="-0.43136">
        <ele>15.9555</ele>
        <time>2011-02-27T14:26:00Z</time>
      </trkpt>
      <trkpt lat="46.40057" lon="-0.43135">
        <ele>15.9605</ele>
        <time>2011-02-27T14:26:01Z</time>
      </trkpt>
      <trkpt lat="46.40057" lon="-0.43135">
        <ele>15.9652</ele>
        <time>2011-02-27T14:26:02Z</time>
      </trkpt>
      <trkpt lat="46.40058" lon="-0.43134">
        <ele>15.9654</ele>
        <time>2011-02-27T14:26:03Z</time>
      </trkpt>
      <trkpt lat="46.40059" lon="-0.43134">
        <ele>15.9656</ele>
        <time>2011-02-27T14:26:04Z</time>
      </trkpt>
      <trkpt lat="46.4006" lon="-0.43134">
        <ele>15.9669</ele>
        <time>2011-02-27T14:26:05Z</time>
      </trkpt>
      <trkpt lat="46.40061" lon="-0.43133">
        <ele>15.9692</ele>
        <time>2011-02-27T14:26:06Z</time>
      </trkpt>
      <trkpt lat="46.40062" lon="-0.43132">
        <ele>15.9732</ele>
        <time>2011-02-27T14:26:07Z</time>
      </trkpt>
      <trkpt lat="46.40063" lon="-0.43132">
        <ele>15.9766</ele>
        <time>2011-02-27T14:26:08Z</time>
      </trkpt>
      <trkpt lat="46.40064" lon="-0.43131">
        <ele>15.9804</ele>
        <time>2011-02-27T14:26:09Z</time>
      </trkpt>
      <trkpt lat="46.40064" lon="-0.4313">
        <ele>15.9821</ele>
        <time>2011-02-27T14:26:10Z</time>
      </trkpt>
      <trkpt lat="46.40065" lon="-0.4313">
        <ele>15.9813</ele>
        <time>2011-02-27T14:26:11Z</time>
      </trkpt>
      <trkpt lat="46.40066" lon="-0.43129">
        <ele>15.9798</ele>
        <time>2011-02-27T14:26:12Z</time>
      </trkpt>
      <trkpt lat="46.40067" lon="-0.43129">
        <ele>15.9788</ele>
        <time>2011-02-27T14:26:13Z</time>
      </trkpt>
      <trkpt lat="46.40068" lon="-0.43128">
        <ele>15.9758</ele>
        <time>2011-02-27T14:26:14Z</time>
      </trkpt>
      <trkpt lat="46.40068" lon="-0.43128">
        <ele>15.972</ele>
        <time>2011-02-27T14:26:15Z</time>
      </trkpt>
      <trkpt lat="46.40069" lon="-0.43128">
        <ele>15.9681</ele>
        <time>2011-02-27T14:26:16Z</time>
      </trkpt>
      <trkpt lat="46.4007" lon="-0.43127">
        <ele>15.9645</ele>
        <time>2011-02-27T14:26:17Z</time>
      </trkpt>
      <trkpt lat="46.40072" lon="-0.43127">
        <ele>15.9573</ele>
        <time>2011-02-27T14:26:18Z</time>
      </trkpt>
      <trkpt lat="46.40073" lon="-0.43126">
        <ele>15.9488</ele>
        <time>2011-02-27T14:26:19Z</time>
      </trkpt>
      <trkpt lat="46.40074" lon="-0.43125">
        <ele>15.9429</ele>
        <time>2011-02-27T14:26:20Z</time>
      </trkpt>
      <trkpt lat="46.40075" lon="-0.43125">
        <ele>15.9379</ele>
        <time>2011-02-27T14:26:21Z</time>
      </trkpt>
      <trkpt lat="46.40076" lon="-0.43124">
        <ele>15.9326</ele>
        <time>2011-02-27T14:26:22Z</time>
      </trkpt>
      <trkpt lat="46.40077" lon="-0.43124">
        <ele>15.9276</ele>
        <time>2011-02-27T14:26:23Z</time>
      </trkpt>
      <trkpt lat="46.40079" lon="-0.43124">
        <ele>15.9228</ele>
        <time>2011-02-27T14:26:24Z</time>
      </trkpt>
      <trkpt lat="46.4008" lon="-0.43124">
        <ele>15.917</ele>
        <time>2011-02-27T14:26:25Z</time>
      </trkpt>
      <trkpt lat="46.40081" lon="-0.43123">
        <ele>15.9108</ele>
        <time>2011-02-27T14:26:26Z</time>
      </trkpt>
      <trkpt lat="46.40083" lon="-0.43123">
        <ele>15.9037</ele>
        <time>2011-02-27T14:26:27Z</time>
      </trkpt>
      <trkpt lat="46.40084" lon="-0.43122">
        <ele>15.8939</ele>
        <time>2011-02-27T14:26:28Z</time>
      </trkpt>
      <trkpt lat="46.40085" lon="-0.43122">
        <ele>15.883</ele>
        <time>2011-02-27T14:26:29Z</time>
      </trkpt>
      <trkpt lat="46.40087" lon="-0.43122">
        <ele>15.8727</ele>
        <time>2011-02-27T14:26:30Z</time>
      </trkpt>
      <trkpt lat="46.40088" lon="-0.43121">
        <ele>15.8643</ele>
        <time>2011-02-27T14:26:31Z</time>
      </trkpt>
      <trkpt lat="46.40089" lon="-0.43121">
        <ele>15.8579</ele>
        <time>2011-02-27T14:26:32Z</time>
      </trkpt>
      <trkpt lat="46.4009" lon="-0.43121">
        <ele>15.8512</ele>
        <time>2011-02-27T14:26:33Z</time>
      </trkpt>
      <trkpt lat="46.40091" lon="-0.43121">
        <ele>15.8458</ele>
        <time>2011-02-27T14:26:34Z</time>
      </trkpt>
      <trkpt lat="46.40092" lon="-0.43121">
        <ele>15.842</ele>
        <time>2011-02-27T14:26:35Z</time>
      </trkpt>
      <trkpt lat="46.40093" lon="-0.43121">
        <ele>15.8391</ele>
        <time>2011-02-27T14:26:36Z</time>
      </trkpt>
      <trkpt lat="46.40094" lon="-0.43121">
        <ele>15.8358</ele>
        <time>2011-02-27T14:26:37Z</time>
      </trkpt>
      <trkpt lat="46.40095" lon="-0.4312">
        <ele>15.8286</ele>
        <time>2011-02-27T14:26:38Z</time>
      </trkpt>
      <trkpt lat="46.40096" lon="-0.43119">
        <ele>15.8193</ele>
        <time>2011-02-27T14:26:39Z</time>
      </trkpt>
      <trkpt lat="46.40097" lon="-0.43119">
        <ele>15.8107</ele>
        <time>2011-02-27T14:26:40Z</time>
      </trkpt>
      <trkpt lat="46.40098" lon="-0.43118">
        <ele>15.7963</ele>
        <time>2011-02-27T14:26:41Z</time>
      </trkpt>
      <trkpt lat="46.40099" lon="-0.43117">
        <ele>15.7843</ele>
        <time>2011-02-27T14:26:42Z</time>
      </trkpt>
      <trkpt lat="46.401" lon="-0.43116">
        <ele>15.7738</ele>
        <time>2011-02-27T14:26:43Z</time>
      </trkpt>
      <trkpt lat="46.40101" lon="-0.43116">
        <ele>15.7613</ele>
        <time>2011-02-27T14:26:44Z</time>
      </trkpt>
      <trkpt lat="46.40102" lon="-0.43115">
        <ele>15.7424</ele>
        <time>2011-02-27T14:26:45Z</time>
      </trkpt>
      <trkpt lat="46.40103" lon="-0.43115">
        <ele>15.7234</ele>
        <time>2011-02-27T14:26:46Z</time>
      </trkpt>
      <trkpt lat="46.40104" lon="-0.43115">
        <ele>15.7019</ele>
        <time>2011-02-27T14:26:47Z</time>
      </trkpt>
      <trkpt lat="46.40105" lon="-0.43114">
        <ele>15.682</ele>
        <time>2011-02-27T14:26:48Z</time>
      </trkpt>
      <trkpt lat="46.40106" lon="-0.43114">
        <ele>15.6604</ele>
        <time>2011-02-27T14:26:49Z</time>
      </trkpt>
      <trkpt lat="46.40107" lon="-0.43114">
        <ele>15.634</ele>
        <time>2011-02-27T14:26:50Z</time>
      </trkpt>
      <trkpt lat="46.40107" lon="-0.43113">
        <ele>15.6033</ele>
        <time>2011-02-27T14:26:51Z</time>
      </trkpt>
      <trkpt lat="46.40109" lon="-0.43112">
        <ele>15.5725</ele>
        <time>2011-02-27T14:26:52Z</time>
      </trkpt>
      <trkpt lat="46.40109" lon="-0.43112">
        <ele>15.5412</ele>
        <time>2011-02-27T14:26:53Z</time>
      </trkpt>
      <trkpt lat="46.4011" lon="-0.43111">
        <ele>15.5088</ele>
        <time>2011-02-27T14:26:54Z</time>
      </trkpt>
      <trkpt lat="46.40111" lon="-0.43111">
        <ele>15.4753</ele>
        <time>2011-02-27T14:26:55Z</time>
      </trkpt>
      <trkpt lat="46.40114" lon="-0.4311">
        <ele>15.4263</ele>
        <time>2011-02-27T14:26:59Z</time>
      </trkpt>
      <trkpt lat="46.40115" lon="-0.4311">
        <ele>15.3841</ele>
        <time>2011-02-27T14:27:00Z</time>
      </trkpt>
      <trkpt lat="46.40115" lon="-0.4311">
        <ele>15.3393</ele>
        <time>2011-02-27T14:27:01Z</time>
      </trkpt>
      <trkpt lat="46.40117" lon="-0.43109">
        <ele>15.2766</ele>
        <time>2011-02-27T14:27:04Z</time>
      </trkpt>
      <trkpt lat="46.40118" lon="-0.43109">
        <ele>15.2267</ele>
        <time>2011-02-27T14:27:05Z</time>
      </trkpt>
      <trkpt lat="46.40119" lon="-0.43108">
        <ele>15.1762</ele>
        <time>2011-02-27T14:27:06Z</time>
      </trkpt>
      <trkpt lat="46.4012" lon="-0.43107">
        <ele>15.1277</ele>
        <time>2011-02-27T14:27:07Z</time>
      </trkpt>
      <trkpt lat="46.40121" lon="-0.43107">
        <ele>15.0817</ele>
        <time>2011-02-27T14:27:08Z</time>
      </trkpt>
      <trkpt lat="46.40122" lon="-0.43106">
        <ele>15.0393</ele>
        <time>2011-02-27T14:27:09Z</time>
      </trkpt>
      <trkpt lat="46.40123" lon="-0.43106">
        <ele>14.9953</ele>
        <time>2011-02-27T14:27:10Z</time>
      </trkpt>
      <trkpt lat="46.40124" lon="-0.43105">
        <ele>14.953</ele>
        <time>2011-02-27T14:27:11Z</time>
      </trkpt>
      <trkpt lat="46.40125" lon="-0.43105">
        <ele>14.9122</ele>
        <time>2011-02-27T14:27:12Z</time>
      </trkpt>
      <trkpt lat="46.40126" lon="-0.43104">
        <ele>14.8732</ele>
        <time>2011-02-27T14:27:13Z</time>
      </trkpt>
      <trkpt lat="46.40127" lon="-0.43104">
        <ele>14.8363</ele>
        <time>2011-02-27T14:27:14Z</time>
      </trkpt>
      <trkpt lat="46.40128" lon="-0.43104">
        <ele>14.7988</ele>
        <time>2011-02-27T14:27:15Z</time>
      </trkpt>
      <trkpt lat="46.40129" lon="-0.43104">
        <ele>14.7608</ele>
        <time>2011-02-27T14:27:16Z</time>
      </trkpt>
      <trkpt lat="46.4013" lon="-0.43103">
        <ele>14.7222</ele>
        <time>2011-02-27T14:27:17Z</time>
      </trkpt>
      <trkpt lat="46.40131" lon="-0.43103">
        <ele>14.6839</ele>
        <time>2011-02-27T14:27:18Z</time>
      </trkpt>
      <trkpt lat="46.40131" lon="-0.43103">
        <ele>14.6485</ele>
        <time>2011-02-27T14:27:19Z</time>
      </trkpt>
      <trkpt lat="46.40133" lon="-0.43102">
        <ele>14.6164</ele>
        <time>2011-02-27T14:27:20Z</time>
      </trkpt>
      <trkpt lat="46.40133" lon="-0.43102">
        <ele>14.5893</ele>
        <time>2011-02-27T14:27:21Z</time>
      </trkpt>
      <trkpt lat="46.40134" lon="-0.43102">
        <ele>14.5676</ele>
        <time>2011-02-27T14:27:22Z</time>
      </trkpt>
      <trkpt lat="46.40135" lon="-0.43101">
        <ele>14.552</ele>
        <time>2011-02-27T14:27:23Z</time>
      </trkpt>
      <trkpt lat="46.40136" lon="-0.43101">
        <ele>14.5393</ele>
        <time>2011-02-27T14:27:24Z</time>
      </trkpt>
      <trkpt lat="46.40137" lon="-0.43101">
        <ele>14.5313</ele>
        <time>2011-02-27T14:27:25Z</time>
      </trkpt>
      <trkpt lat="46.40138" lon="-0.431">
        <ele>14.5241</ele>
        <time>2011-02-27T14:27:26Z</time>
      </trkpt>
      <trkpt lat="46.40139" lon="-0.43099">
        <ele>14.5194</ele>
        <time>2011-02-27T14:27:27Z</time>
      </trkpt>
      <trkpt lat="46.4014" lon="-0.43099">
        <ele>14.5188</ele>
        <time>2011-02-27T14:27:28Z</time>
      </trkpt>
      <trkpt lat="46.40141" lon="-0.43099">
        <ele>14.5217</ele>
        <time>2011-02-27T14:27:31Z</time>
      </trkpt>
      <trkpt lat="46.40142" lon="-0.43098">
        <ele>14.5252</ele>
        <time>2011-02-27T14:27:32Z</time>
      </trkpt>
      <trkpt lat="46.40142" lon="-0.43098">
        <ele>14.5346</ele>
        <time>2011-02-27T14:27:33Z</time>
      </trkpt>
      <trkpt lat="46.40144" lon="-0.43098">
        <ele>14.5434</ele>
        <time>2011-02-27T14:27:34Z</time>
      </trkpt>
      <trkpt lat="46.40145" lon="-0.43098">
        <ele>14.5511</ele>
        <time>2011-02-27T14:27:35Z</time>
      </trkpt>
      <trkpt lat="46.40146" lon="-0.43097">
        <ele>14.5576</ele>
        <time>2011-02-27T14:27:36Z</time>
      </trkpt>
      <trkpt lat="46.40146" lon="-0.43097">
        <ele>14.5576</ele>
        <time>2011-02-27T14:27:37Z</time>
      </trkpt>
      <trkpt lat="46.40148" lon="-0.43097">
        <ele>14.5625</ele>
        <time>2011-02-27T14:27:38Z</time>
      </trkpt>
      <trkpt lat="46.40149" lon="-0.43096">
        <ele>14.5695</ele>
        <time>2011-02-27T14:27:39Z</time>
      </trkpt>
      <trkpt lat="46.4015" lon="-0.43095">
        <ele>14.5771</ele>
        <time>2011-02-27T14:27:40Z</time>
      </trkpt>
      <trkpt lat="46.40151" lon="-0.43094">
        <ele>14.5812</ele>
        <time>2011-02-27T14:27:41Z</time>
      </trkpt>
      <trkpt lat="46.40152" lon="-0.43093">
        <ele>14.5847</ele>
        <time>2011-02-27T14:27:42Z</time>
      </trkpt>
      <trkpt lat="46.40152" lon="-0.43091">
        <ele>14.5862</ele>
        <time>2011-02-27T14:27:43Z</time>
      </trkpt>
      <trkpt lat="46.40153" lon="-0.43091">
        <ele>14.5839</ele>
        <time>2011-02-27T14:27:44Z</time>
      </trkpt>
      <trkpt lat="46.40154" lon="-0.4309">
        <ele>14.5778</ele>
        <time>2011-02-27T14:27:45Z</time>
      </trkpt>
      <trkpt lat="46.40155" lon="-0.43089">
        <ele>14.5718</ele>
        <time>2011-02-27T14:27:46Z</time>
      </trkpt>
      <trkpt lat="46.40156" lon="-0.43089">
        <ele>14.5691</ele>
        <time>2011-02-27T14:27:47Z</time>
      </trkpt>
      <trkpt lat="46.40157" lon="-0.43088">
        <ele>14.5699</ele>
        <time>2011-02-27T14:27:48Z</time>
      </trkpt>
      <trkpt lat="46.40158" lon="-0.43088">
        <ele>14.5742</ele>
        <time>2011-02-27T14:27:49Z</time>
      </trkpt>
      <trkpt lat="46.40159" lon="-0.43088">
        <ele>14.5811</ele>
        <time>2011-02-27T14:27:50Z</time>
      </trkpt>
      <trkpt lat="46.40159" lon="-0.43087">
        <ele>14.5903</ele>
        <time>2011-02-27T14:27:51Z</time>
      </trkpt>
      <trkpt lat="46.4016" lon="-0.43087">
        <ele>14.5998</ele>
        <time>2011-02-27T14:27:52Z</time>
      </trkpt>
      <trkpt lat="46.40161" lon="-0.43086">
        <ele>14.61</ele>
        <time>2011-02-27T14:27:53Z</time>
      </trkpt>
      <trkpt lat="46.40162" lon="-0.43085">
        <ele>14.6189</ele>
        <time>2011-02-27T14:27:54Z</time>
      </trkpt>
      <trkpt lat="46.40163" lon="-0.43085">
        <ele>14.6267</ele>
        <time>2011-02-27T14:27:55Z</time>
      </trkpt>
      <trkpt lat="46.40163" lon="-0.43084">
        <ele>14.6346</ele>
        <time>2011-02-27T14:27:56Z</time>
      </trkpt>
      <trkpt lat="46.40164" lon="-0.43084">
        <ele>14.6404</ele>
        <time>2011-02-27T14:27:57Z</time>
      </trkpt>
      <trkpt lat="46.40165" lon="-0.43083">
        <ele>14.6463</ele>
        <time>2011-02-27T14:27:58Z</time>
      </trkpt>
      <trkpt lat="46.40165" lon="-0.43082">
        <ele>14.6488</ele>
        <time>2011-02-27T14:27:59Z</time>
      </trkpt>
      <trkpt lat="46.40167" lon="-0.43082">
        <ele>14.6516</ele>
        <time>2011-02-27T14:28:00Z</time>
      </trkpt>
      <trkpt lat="46.40167" lon="-0.43081">
        <ele>14.6533</ele>
        <time>2011-02-27T14:28:01Z</time>
      </trkpt>
      <trkpt lat="46.40168" lon="-0.43081">
        <ele>14.6565</ele>
        <time>2011-02-27T14:28:02Z</time>
      </trkpt>
      <trkpt lat="46.4017" lon="-0.4308">
        <ele>14.6611</ele>
        <time>2011-02-27T14:28:03Z</time>
      </trkpt>
      <trkpt lat="46.4017" lon="-0.43079">
        <ele>14.6675</ele>
        <time>2011-02-27T14:28:04Z</time>
      </trkpt>
      <trkpt lat="46.40171" lon="-0.43078">
        <ele>14.6729</ele>
        <time>2011-02-27T14:28:05Z</time>
      </trkpt>
      <trkpt lat="46.40172" lon="-0.43077">
        <ele>14.6789</ele>
        <time>2011-02-27T14:28:06Z</time>
      </trkpt>
      <trkpt lat="46.40173" lon="-0.43077">
        <ele>14.6889</ele>
        <time>2011-02-27T14:28:07Z</time>
      </trkpt>
      <trkpt lat="46.40174" lon="-0.43077">
        <ele>14.6957</ele>
        <time>2011-02-27T14:28:08Z</time>
      </trkpt>
      <trkpt lat="46.40175" lon="-0.43076">
        <ele>14.6987</ele>
        <time>2011-02-27T14:28:09Z</time>
      </trkpt>
      <trkpt lat="46.40176" lon="-0.43076">
        <ele>14.7096</ele>
        <time>2011-02-27T14:28:10Z</time>
      </trkpt>
      <trkpt lat="46.40178" lon="-0.43076">
        <ele>14.713</ele>
        <time>2011-02-27T14:28:11Z</time>
      </trkpt>
      <trkpt lat="46.40178" lon="-0.43076">
        <ele>14.7256</ele>
        <time>2011-02-27T14:28:12Z</time>
      </trkpt>
      <trkpt lat="46.40179" lon="-0.43076">
        <ele>14.7298</ele>
        <time>2011-02-27T14:28:13Z</time>
      </trkpt>
      <trkpt lat="46.4018" lon="-0.43076">
        <ele>14.7378</ele>
        <time>2011-02-27T14:28:14Z</time>
      </trkpt>
      <trkpt lat="46.40181" lon="-0.43076">
        <ele>14.7553</ele>
        <time>2011-02-27T14:28:15Z</time>
      </trkpt>
      <trkpt lat="46.40182" lon="-0.43075">
        <ele>14.7852</ele>
        <time>2011-02-27T14:28:16Z</time>
      </trkpt>
      <trkpt lat="46.40183" lon="-0.43074">
        <ele>14.8255</ele>
        <time>2011-02-27T14:28:17Z</time>
      </trkpt>
      <trkpt lat="46.40184" lon="-0.43074">
        <ele>14.8595</ele>
        <time>2011-02-27T14:28:18Z</time>
      </trkpt>
      <trkpt lat="46.40186" lon="-0.43073">
        <ele>14.8912</ele>
        <time>2011-02-27T14:28:19Z</time>
      </trkpt>
      <trkpt lat="46.40187" lon="-0.43072">
        <ele>14.9282</ele>
        <time>2011-02-27T14:28:20Z</time>
      </trkpt>
      <trkpt lat="46.40189" lon="-0.43071">
        <ele>14.9725</ele>
        <time>2011-02-27T14:28:21Z</time>
      </trkpt>
      <trkpt lat="46.4019" lon="-0.43071">
        <ele>15.0232</ele>
        <time>2011-02-27T14:28:22Z</time>
      </trkpt>
      <trkpt lat="46.40191" lon="-0.4307">
        <ele>15.0775</ele>
        <time>2011-02-27T14:28:23Z</time>
      </trkpt>
      <trkpt lat="46.40192" lon="-0.4307">
        <ele>15.1329</ele>
        <time>2011-02-27T14:28:24Z</time>
      </trkpt>
      <trkpt lat="46.40194" lon="-0.43069">
        <ele>15.1905</ele>
        <time>2011-02-27T14:28:25Z</time>
      </trkpt>
      <trkpt lat="46.40195" lon="-0.43069">
        <ele>15.2502</ele>
        <time>2011-02-27T14:28:26Z</time>
      </trkpt>
      <trkpt lat="46.40196" lon="-0.43069">
        <ele>15.3122</ele>
        <time>2011-02-27T14:28:27Z</time>
      </trkpt>
      <trkpt lat="46.40197" lon="-0.43068">
        <ele>15.3758</ele>
        <time>2011-02-27T14:28:28Z</time>
      </trkpt>
      <trkpt lat="46.40198" lon="-0.43067">
        <ele>15.4416</ele>
        <time>2011-02-27T14:28:29Z</time>
      </trkpt>
      <trkpt lat="46.40199" lon="-0.43067">
        <ele>15.512</ele>
        <time>2011-02-27T14:28:30Z</time>
      </trkpt>
      <trkpt lat="46.402" lon="-0.43066">
        <ele>15.5829</ele>
        <time>2011-02-27T14:28:31Z</time>
      </trkpt>
      <trkpt lat="46.40201" lon="-0.43066">
        <ele>15.653</ele>
        <time>2011-02-27T14:28:32Z</time>
      </trkpt>
      <trkpt lat="46.40202" lon="-0.43066">
        <ele>15.7264</ele>
        <time>2011-02-27T14:28:33Z</time>
      </trkpt>
      <trkpt lat="46.40204" lon="-0.43065">
        <ele>15.7977</ele>
        <time>2011-02-27T14:28:34Z</time>
      </trkpt>
      <trkpt lat="46.40204" lon="-0.43065">
        <ele>15.8677</ele>
        <time>2011-02-27T14:28:35Z</time>
      </trkpt>
      <trkpt lat="46.40205" lon="-0.43064">
        <ele>15.935</ele>
        <time>2011-02-27T14:28:36Z</time>
      </trkpt>
      <trkpt lat="46.40207" lon="-0.43065">
        <ele>15.9976</ele>
        <time>2011-02-27T14:28:37Z</time>
      </trkpt>
      <trkpt lat="46.40208" lon="-0.43065">
        <ele>16.059</ele>
        <time>2011-02-27T14:28:38Z</time>
      </trkpt>
      <trkpt lat="46.40209" lon="-0.43064">
        <ele>16.1192</ele>
        <time>2011-02-27T14:28:39Z</time>
      </trkpt>
      <trkpt lat="46.4021" lon="-0.43064">
        <ele>16.1816</ele>
        <time>2011-02-27T14:28:40Z</time>
      </trkpt>
      <trkpt lat="46.40211" lon="-0.43063">
        <ele>16.2428</ele>
        <time>2011-02-27T14:28:41Z</time>
      </trkpt>
      <trkpt lat="46.40212" lon="-0.43062">
        <ele>16.294</ele>
        <time>2011-02-27T14:28:42Z</time>
      </trkpt>
      <trkpt lat="46.40212" lon="-0.43061">
        <ele>16.3543</ele>
        <time>2011-02-27T14:28:43Z</time>
      </trkpt>
      <trkpt lat="46.40212" lon="-0.43059">
        <ele>16.4106</ele>
        <time>2011-02-27T14:28:44Z</time>
      </trkpt>
      <trkpt lat="46.40212" lon="-0.43058">
        <ele>16.4622</ele>
        <time>2011-02-27T14:28:45Z</time>
      </trkpt>
      <trkpt lat="46.40213" lon="-0.43057">
        <ele>16.5057</ele>
        <time>2011-02-27T14:28:46Z</time>
      </trkpt>
      <trkpt lat="46.40213" lon="-0.43056">
        <ele>16.5555</ele>
        <time>2011-02-27T14:28:47Z</time>
      </trkpt>
      <trkpt lat="46.40214" lon="-0.43056">
        <ele>16.5953</ele>
        <time>2011-02-27T14:28:48Z</time>
      </trkpt>
      <trkpt lat="46.40215" lon="-0.43055">
        <ele>16.6406</ele>
        <time>2011-02-27T14:28:49Z</time>
      </trkpt>
      <trkpt lat="46.40216" lon="-0.43054">
        <ele>16.6905</ele>
        <time>2011-02-27T14:28:50Z</time>
      </trkpt>
      <trkpt lat="46.40217" lon="-0.43053">
        <ele>16.744</ele>
        <time>2011-02-27T14:28:51Z</time>
      </trkpt>
      <trkpt lat="46.40218" lon="-0.43053">
        <ele>16.8064</ele>
        <time>2011-02-27T14:28:52Z</time>
      </trkpt>
      <trkpt lat="46.40219" lon="-0.43052">
        <ele>16.8721</ele>
        <time>2011-02-27T14:28:53Z</time>
      </trkpt>
      <trkpt lat="46.4022" lon="-0.43052">
        <ele>16.9373</ele>
        <time>2011-02-27T14:28:54Z</time>
      </trkpt>
      <trkpt lat="46.40221" lon="-0.43052">
        <ele>17.0036</ele>
        <time>2011-02-27T14:28:55Z</time>
      </trkpt>
      <trkpt lat="46.40222" lon="-0.43052">
        <ele>17.0715</ele>
        <time>2011-02-27T14:28:56Z</time>
      </trkpt>
      <trkpt lat="46.40223" lon="-0.43052">
        <ele>17.1377</ele>
        <time>2011-02-27T14:28:57Z</time>
      </trkpt>
      <trkpt lat="46.40224" lon="-0.43051">
        <ele>17.2022</ele>
        <time>2011-02-27T14:28:58Z</time>
      </trkpt>
      <trkpt lat="46.40225" lon="-0.43051">
        <ele>17.2675</ele>
        <time>2011-02-27T14:28:59Z</time>
      </trkpt>
      <trkpt lat="46.40225" lon="-0.4305">
        <ele>17.3336</ele>
        <time>2011-02-27T14:29:00Z</time>
      </trkpt>
      <trkpt lat="46.40226" lon="-0.4305">
        <ele>17.4005</ele>
        <time>2011-02-27T14:29:01Z</time>
      </trkpt>
      <trkpt lat="46.40227" lon="-0.43049">
        <ele>17.4678</ele>
        <time>2011-02-27T14:29:02Z</time>
      </trkpt>
      <trkpt lat="46.40228" lon="-0.43049">
        <ele>17.5337</ele>
        <time>2011-02-27T14:29:03Z</time>
      </trkpt>
      <trkpt lat="46.40229" lon="-0.43049">
        <ele>17.5981</ele>
        <time>2011-02-27T14:29:04Z</time>
      </trkpt>
      <trkpt lat="46.4023" lon="-0.43048">
        <ele>17.6605</ele>
        <time>2011-02-27T14:29:05Z</time>
      </trkpt>
      <trkpt lat="46.4023" lon="-0.43047">
        <ele>17.721</ele>
        <time>2011-02-27T14:29:06Z</time>
      </trkpt>
      <trkpt lat="46.40231" lon="-0.43046">
        <ele>17.7821</ele>
        <time>2011-02-27T14:29:07Z</time>
      </trkpt>
      <trkpt lat="46.40231" lon="-0.43045">
        <ele>17.8329</ele>
        <time>2011-02-27T14:29:08Z</time>
      </trkpt>
      <trkpt lat="46.40232" lon="-0.43044">
        <ele>17.8891</ele>
        <time>2011-02-27T14:29:09Z</time>
      </trkpt>
      <trkpt lat="46.40233" lon="-0.43043">
        <ele>17.9412</ele>
        <time>2011-02-27T14:29:10Z</time>
      </trkpt>
      <trkpt lat="46.40234" lon="-0.43042">
        <ele>17.9921</ele>
        <time>2011-02-27T14:29:11Z</time>
      </trkpt>
      <trkpt lat="46.40234" lon="-0.43041">
        <ele>18.0462</ele>
        <time>2011-02-27T14:29:12Z</time>
      </trkpt>
      <trkpt lat="46.40236" lon="-0.4304">
        <ele>18.0933</ele>
        <time>2011-02-27T14:29:13Z</time>
      </trkpt>
      <trkpt lat="46.40237" lon="-0.4304">
        <ele>18.1485</ele>
        <time>2011-02-27T14:29:14Z</time>
      </trkpt>
      <trkpt lat="46.40239" lon="-0.43039">
        <ele>18.2228</ele>
        <time>2011-02-27T14:29:15Z</time>
      </trkpt>
      <trkpt lat="46.40241" lon="-0.43038">
        <ele>18.2967</ele>
        <time>2011-02-27T14:29:16Z</time>
      </trkpt>
      <trkpt lat="46.40242" lon="-0.43037">
        <ele>18.3619</ele>
        <time>2011-02-27T14:29:17Z</time>
      </trkpt>
      <trkpt lat="46.40243" lon="-0.43036">
        <ele>18.4212</ele>
        <time>2011-02-27T14:29:18Z</time>
      </trkpt>
      <trkpt lat="46.40244" lon="-0.43036">
        <ele>18.4635</ele>
        <time>2011-02-27T14:29:19Z</time>
      </trkpt>
      <trkpt lat="46.40245" lon="-0.43035">
        <ele>18.4985</ele>
        <time>2011-02-27T14:29:20Z</time>
      </trkpt>
      <trkpt lat="46.40247" lon="-0.43035">
        <ele>18.51</ele>
        <time>2011-02-27T14:29:21Z</time>
      </trkpt>
      <trkpt lat="46.40248" lon="-0.43035">
        <ele>18.5146</ele>
        <time>2011-02-27T14:29:22Z</time>
      </trkpt>
      <trkpt lat="46.40249" lon="-0.43035">
        <ele>18.5201</ele>
        <time>2011-02-27T14:29:23Z</time>
      </trkpt>
      <trkpt lat="46.4025" lon="-0.43035">
        <ele>18.5267</ele>
        <time>2011-02-27T14:29:24Z</time>
      </trkpt>
      <trkpt lat="46.40251" lon="-0.43035">
        <ele>18.521</ele>
        <time>2011-02-27T14:29:25Z</time>
      </trkpt>
      <trkpt lat="46.40252" lon="-0.43035">
        <ele>18.5137</ele>
        <time>2011-02-27T14:29:26Z</time>
      </trkpt>
      <trkpt lat="46.40253" lon="-0.43034">
        <ele>18.5034</ele>
        <time>2011-02-27T14:29:27Z</time>
      </trkpt>
      <trkpt lat="46.40253" lon="-0.43034">
        <ele>18.4935</ele>
        <time>2011-02-27T14:29:28Z</time>
      </trkpt>
      <trkpt lat="46.40254" lon="-0.43033">
        <ele>18.4812</ele>
        <time>2011-02-27T14:29:29Z</time>
      </trkpt>
      <trkpt lat="46.40255" lon="-0.43033">
        <ele>18.4916</ele>
        <time>2011-02-27T14:29:32Z</time>
      </trkpt>
      <trkpt lat="46.40256" lon="-0.43033">
        <ele>18.4948</ele>
        <time>2011-02-27T14:29:33Z</time>
      </trkpt>
      <trkpt lat="46.40257" lon="-0.43033">
        <ele>18.499</ele>
        <time>2011-02-27T14:29:34Z</time>
      </trkpt>
      <trkpt lat="46.40257" lon="-0.43033">
        <ele>18.5112</ele>
        <time>2011-02-27T14:29:35Z</time>
      </trkpt>
      <trkpt lat="46.40257" lon="-0.43032">
        <ele>18.5112</ele>
        <time>2011-02-27T14:29:36Z</time>
      </trkpt>
      <trkpt lat="46.40258" lon="-0.43031">
        <ele>18.5197</ele>
        <time>2011-02-27T14:29:37Z</time>
      </trkpt>
      <trkpt lat="46.4026" lon="-0.43031">
        <ele>18.532</ele>
        <time>2011-02-27T14:29:38Z</time>
      </trkpt>
      <trkpt lat="46.40261" lon="-0.43031">
        <ele>18.5387</ele>
        <time>2011-02-27T14:29:39Z</time>
      </trkpt>
      <trkpt lat="46.40262" lon="-0.4303">
        <ele>18.5489</ele>
        <time>2011-02-27T14:29:40Z</time>
      </trkpt>
      <trkpt lat="46.40263" lon="-0.4303">
        <ele>18.564</ele>
        <time>2011-02-27T14:29:41Z</time>
      </trkpt>
      <trkpt lat="46.40263" lon="-0.43029">
        <ele>18.5825</ele>
        <time>2011-02-27T14:29:42Z</time>
      </trkpt>
      <trkpt lat="46.40264" lon="-0.43029">
        <ele>18.6188</ele>
        <time>2011-02-27T14:29:43Z</time>
      </trkpt>
      <trkpt lat="46.40265" lon="-0.43029">
        <ele>18.6595</ele>
        <time>2011-02-27T14:29:44Z</time>
      </trkpt>
      <trkpt lat="46.40266" lon="-0.43028">
        <ele>18.709</ele>
        <time>2011-02-27T14:29:45Z</time>
      </trkpt>
      <trkpt lat="46.40267" lon="-0.43028">
        <ele>18.7605</ele>
        <time>2011-02-27T14:29:46Z</time>
      </trkpt>
      <trkpt lat="46.40268" lon="-0.43027">
        <ele>18.8087</ele>
        <time>2011-02-27T14:29:47Z</time>
      </trkpt>
      <trkpt lat="46.40269" lon="-0.43026">
        <ele>18.8481</ele>
        <time>2011-02-27T14:29:48Z</time>
      </trkpt>
      <trkpt lat="46.4027" lon="-0.43026">
        <ele>18.8891</ele>
        <time>2011-02-27T14:29:49Z</time>
      </trkpt>
      <trkpt lat="46.40271" lon="-0.43025">
        <ele>18.9077</ele>
        <time>2011-02-27T14:29:50Z</time>
      </trkpt>
      <trkpt lat="46.40271" lon="-0.43025">
        <ele>18.915</ele>
        <time>2011-02-27T14:29:51Z</time>
      </trkpt>
      <trkpt lat="46.40273" lon="-0.43024">
        <ele>18.8934</ele>
        <time>2011-02-27T14:29:52Z</time>
      </trkpt>
      <trkpt lat="46.40274" lon="-0.43024">
        <ele>18.8751</ele>
        <time>2011-02-27T14:29:53Z</time>
      </trkpt>
      <trkpt lat="46.40276" lon="-0.43022">
        <ele>18.8751</ele>
        <time>2011-02-27T14:29:54Z</time>
      </trkpt>
      <trkpt lat="46.40276" lon="-0.43024">
        <ele>18.8444</ele>
        <time>2011-02-27T14:29:55Z</time>
      </trkpt>
      <trkpt lat="46.40277" lon="-0.43024">
        <ele>18.8046</ele>
        <time>2011-02-27T14:29:56Z</time>
      </trkpt>
      <trkpt lat="46.40278" lon="-0.43023">
        <ele>18.766</ele>
        <time>2011-02-27T14:29:57Z</time>
      </trkpt>
      <trkpt lat="46.40279" lon="-0.43023">
        <ele>18.7155</ele>
        <time>2011-02-27T14:29:58Z</time>
      </trkpt>
      <trkpt lat="46.40279" lon="-0.43022">
        <ele>18.6584</ele>
        <time>2011-02-27T14:29:59Z</time>
      </trkpt>
      <trkpt lat="46.4028" lon="-0.43022">
        <ele>18.5804</ele>
        <time>2011-02-27T14:30:00Z</time>
      </trkpt>
      <trkpt lat="46.40281" lon="-0.43022">
        <ele>18.4911</ele>
        <time>2011-02-27T14:30:01Z</time>
      </trkpt>
      <trkpt lat="46.40281" lon="-0.43021">
        <ele>18.4054</ele>
        <time>2011-02-27T14:30:02Z</time>
      </trkpt>
      <trkpt lat="46.40282" lon="-0.43021">
        <ele>18.3259</ele>
        <time>2011-02-27T14:30:03Z</time>
      </trkpt>
      <trkpt lat="46.40283" lon="-0.43021">
        <ele>18.2465</ele>
        <time>2011-02-27T14:30:04Z</time>
      </trkpt>
      <trkpt lat="46.40283" lon="-0.4302">
        <ele>18.165</ele>
        <time>2011-02-27T14:30:05Z</time>
      </trkpt>
      <trkpt lat="46.40284" lon="-0.4302">
        <ele>18.0757</ele>
        <time>2011-02-27T14:30:07Z</time>
      </trkpt>
      <trkpt lat="46.40285" lon="-0.43019">
        <ele>17.9985</ele>
        <time>2011-02-27T14:30:08Z</time>
      </trkpt>
      <trkpt lat="46.40286" lon="-0.43019">
        <ele>17.9293</ele>
        <time>2011-02-27T14:30:09Z</time>
      </trkpt>
      <trkpt lat="46.40287" lon="-0.43018">
        <ele>17.8628</ele>
        <time>2011-02-27T14:30:10Z</time>
      </trkpt>
      <trkpt lat="46.40287" lon="-0.43017">
        <ele>17.7934</ele>
        <time>2011-02-27T14:30:11Z</time>
      </trkpt>
      <trkpt lat="46.40288" lon="-0.43016">
        <ele>17.7284</ele>
        <time>2011-02-27T14:30:12Z</time>
      </trkpt>
      <trkpt lat="46.40289" lon="-0.43016">
        <ele>17.667</ele>
        <time>2011-02-27T14:30:13Z</time>
      </trkpt>
      <trkpt lat="46.4029" lon="-0.43015">
        <ele>17.6234</ele>
        <time>2011-02-27T14:30:14Z</time>
      </trkpt>
      <trkpt lat="46.40291" lon="-0.43015">
        <ele>17.5801</ele>
        <time>2011-02-27T14:30:15Z</time>
      </trkpt>
      <trkpt lat="46.40291" lon="-0.43015">
        <ele>17.549</ele>
        <time>2011-02-27T14:30:16Z</time>
      </trkpt>
      <trkpt lat="46.40292" lon="-0.43014">
        <ele>17.5187</ele>
        <time>2011-02-27T14:30:17Z</time>
      </trkpt>
      <trkpt lat="46.40293" lon="-0.43014">
        <ele>17.4949</ele>
        <time>2011-02-27T14:30:18Z</time>
      </trkpt>
      <trkpt lat="46.40294" lon="-0.43013">
        <ele>17.4832</ele>
        <time>2011-02-27T14:30:19Z</time>
      </trkpt>
      <trkpt lat="46.40295" lon="-0.43013">
        <ele>17.4703</ele>
        <time>2011-02-27T14:30:20Z</time>
      </trkpt>
      <trkpt lat="46.40295" lon="-0.43013">
        <ele>17.4586</ele>
        <time>2011-02-27T14:30:21Z</time>
      </trkpt>
      <trkpt lat="46.40296" lon="-0.43012">
        <ele>17.4496</ele>
        <time>2011-02-27T14:30:22Z</time>
      </trkpt>
      <trkpt lat="46.40296" lon="-0.43012">
        <ele>17.4329</ele>
        <time>2011-02-27T14:30:23Z</time>
      </trkpt>
      <trkpt lat="46.40297" lon="-0.43011">
        <ele>17.4051</ele>
        <time>2011-02-27T14:30:24Z</time>
      </trkpt>
      <trkpt lat="46.40298" lon="-0.4301">
        <ele>17.3683</ele>
        <time>2011-02-27T14:30:25Z</time>
      </trkpt>
      <trkpt lat="46.40299" lon="-0.43009">
        <ele>17.3311</ele>
        <time>2011-02-27T14:30:26Z</time>
      </trkpt>
      <trkpt lat="46.40299" lon="-0.43008">
        <ele>17.3003</ele>
        <time>2011-02-27T14:30:27Z</time>
      </trkpt>
      <trkpt lat="46.403" lon="-0.43006">
        <ele>17.2839</ele>
        <time>2011-02-27T14:30:28Z</time>
      </trkpt>
      <trkpt lat="46.40302" lon="-0.43004">
        <ele>17.3042</ele>
        <time>2011-02-27T14:30:29Z</time>
      </trkpt>
      <trkpt lat="46.40304" lon="-0.43001">
        <ele>17.3436</ele>
        <time>2011-02-27T14:30:30Z</time>
      </trkpt>
      <trkpt lat="46.40306" lon="-0.42998">
        <ele>17.3901</ele>
        <time>2011-02-27T14:30:31Z</time>
      </trkpt>
      <trkpt lat="46.40308" lon="-0.42994">
        <ele>17.4393</ele>
        <time>2011-02-27T14:30:32Z</time>
      </trkpt>
      <trkpt lat="46.4031" lon="-0.42991">
        <ele>17.4893</ele>
        <time>2011-02-27T14:30:33Z</time>
      </trkpt>
      <trkpt lat="46.40311" lon="-0.42989">
        <ele>17.5307</ele>
        <time>2011-02-27T14:30:34Z</time>
      </trkpt>
      <trkpt lat="46.40313" lon="-0.42987">
        <ele>17.5758</ele>
        <time>2011-02-27T14:30:35Z</time>
      </trkpt>
      <trkpt lat="46.40314" lon="-0.42985">
        <ele>17.6249</ele>
        <time>2011-02-27T14:30:36Z</time>
      </trkpt>
      <trkpt lat="46.40315" lon="-0.42984">
        <ele>17.6771</ele>
        <time>2011-02-27T14:30:37Z</time>
      </trkpt>
      <trkpt lat="46.40316" lon="-0.42983">
        <ele>17.7351</ele>
        <time>2011-02-27T14:30:38Z</time>
      </trkpt>
      <trkpt lat="46.40318" lon="-0.42983">
        <ele>17.7909</ele>
        <time>2011-02-27T14:30:39Z</time>
      </trkpt>
      <trkpt lat="46.40319" lon="-0.42982">
        <ele>17.8439</ele>
        <time>2011-02-27T14:30:40Z</time>
      </trkpt>
      <trkpt lat="46.40319" lon="-0.42981">
        <ele>17.8902</ele>
        <time>2011-02-27T14:30:41Z</time>
      </trkpt>
      <trkpt lat="46.40319" lon="-0.4298">
        <ele>17.9174</ele>
        <time>2011-02-27T14:30:42Z</time>
      </trkpt>
      <trkpt lat="46.4032" lon="-0.42979">
        <ele>17.9471</ele>
        <time>2011-02-27T14:30:43Z</time>
      </trkpt>
      <trkpt lat="46.40321" lon="-0.42978">
        <ele>17.9953</ele>
        <time>2011-02-27T14:30:44Z</time>
      </trkpt>
      <trkpt lat="46.40321" lon="-0.42978">
        <ele>18.0446</ele>
        <time>2011-02-27T14:30:45Z</time>
      </trkpt>
      <trkpt lat="46.40323" lon="-0.42977">
        <ele>18.0777</ele>
        <time>2011-02-27T14:30:46Z</time>
      </trkpt>
      <trkpt lat="46.40329" lon="-0.42974">
        <ele>18.1556</ele>
        <time>2011-02-27T14:30:52Z</time>
      </trkpt>
      <trkpt lat="46.40334" lon="-0.42974">
        <ele>18.2455</ele>
        <time>2011-02-27T14:30:56Z</time>
      </trkpt>
      <trkpt lat="46.40335" lon="-0.42974">
        <ele>18.2917</ele>
        <time>2011-02-27T14:30:57Z</time>
      </trkpt>
      <trkpt lat="46.40336" lon="-0.42973">
        <ele>18.3501</ele>
        <time>2011-02-27T14:30:58Z</time>
      </trkpt>
      <trkpt lat="46.40336" lon="-0.42973">
        <ele>18.4046</ele>
        <time>2011-02-27T14:30:59Z</time>
      </trkpt>
      <trkpt lat="46.40337" lon="-0.42972">
        <ele>18.4721</ele>
        <time>2011-02-27T14:31:00Z</time>
      </trkpt>
      <trkpt lat="46.40338" lon="-0.42972">
        <ele>18.5406</ele>
        <time>2011-02-27T14:31:01Z</time>
      </trkpt>
      <trkpt lat="46.40339" lon="-0.42971">
        <ele>18.5778</ele>
        <time>2011-02-27T14:31:02Z</time>
      </trkpt>
      <trkpt lat="46.4034" lon="-0.4297">
        <ele>18.5965</ele>
        <time>2011-02-27T14:31:03Z</time>
      </trkpt>
      <trkpt lat="46.4034" lon="-0.42969">
        <ele>18.5977</ele>
        <time>2011-02-27T14:31:04Z</time>
      </trkpt>
      <trkpt lat="46.40341" lon="-0.42969">
        <ele>18.5777</ele>
        <time>2011-02-27T14:31:05Z</time>
      </trkpt>
      <trkpt lat="46.40342" lon="-0.42968">
        <ele>18.5838</ele>
        <time>2011-02-27T14:31:06Z</time>
      </trkpt>
      <trkpt lat="46.40342" lon="-0.42967">
        <ele>18.583</ele>
        <time>2011-02-27T14:31:07Z</time>
      </trkpt>
      <trkpt lat="46.40342" lon="-0.42966">
        <ele>18.5933</ele>
        <time>2011-02-27T14:31:08Z</time>
      </trkpt>
      <trkpt lat="46.40343" lon="-0.42965">
        <ele>18.6083</ele>
        <time>2011-02-27T14:31:09Z</time>
      </trkpt>
      <trkpt lat="46.40344" lon="-0.42964">
        <ele>18.5694</ele>
        <time>2011-02-27T14:31:10Z</time>
      </trkpt>
      <trkpt lat="46.40344" lon="-0.42963">
        <ele>18.528</ele>
        <time>2011-02-27T14:31:11Z</time>
      </trkpt>
      <trkpt lat="46.40345" lon="-0.42963">
        <ele>18.4632</ele>
        <time>2011-02-27T14:31:12Z</time>
      </trkpt>
      <trkpt lat="46.40346" lon="-0.42961">
        <ele>18.3819</ele>
        <time>2011-02-27T14:31:13Z</time>
      </trkpt>
      <trkpt lat="46.40346" lon="-0.4296">
        <ele>18.3511</ele>
        <time>2011-02-27T14:31:14Z</time>
      </trkpt>
      <trkpt lat="46.40348" lon="-0.42958">
        <ele>18.3258</ele>
        <time>2011-02-27T14:31:17Z</time>
      </trkpt>
      <trkpt lat="46.40348" lon="-0.42957">
        <ele>18.2752</ele>
        <time>2011-02-27T14:31:18Z</time>
      </trkpt>
      <trkpt lat="46.4035" lon="-0.42955">
        <ele>18.2411</ele>
        <time>2011-02-27T14:31:19Z</time>
      </trkpt>
      <trkpt lat="46.40351" lon="-0.42954">
        <ele>18.2028</ele>
        <time>2011-02-27T14:31:20Z</time>
      </trkpt>
      <trkpt lat="46.40353" lon="-0.42953">
        <ele>18.1566</ele>
        <time>2011-02-27T14:31:21Z</time>
      </trkpt>
      <trkpt lat="46.40353" lon="-0.42953">
        <ele>18.105</ele>
        <time>2011-02-27T14:31:22Z</time>
      </trkpt>
      <trkpt lat="46.40355" lon="-0.42952">
        <ele>18.0626</ele>
        <time>2011-02-27T14:31:23Z</time>
      </trkpt>
      <trkpt lat="46.40356" lon="-0.42952">
        <ele>18.028</ele>
        <time>2011-02-27T14:31:24Z</time>
      </trkpt>
      <trkpt lat="46.40358" lon="-0.42951">
        <ele>18.0037</ele>
        <time>2011-02-27T14:31:25Z</time>
      </trkpt>
      <trkpt lat="46.40359" lon="-0.42951">
        <ele>17.9758</ele>
        <time>2011-02-27T14:31:26Z</time>
      </trkpt>
      <trkpt lat="46.40361" lon="-0.4295">
        <ele>17.948</ele>
        <time>2011-02-27T14:31:27Z</time>
      </trkpt>
      <trkpt lat="46.40362" lon="-0.4295">
        <ele>17.9255</ele>
        <time>2011-02-27T14:31:28Z</time>
      </trkpt>
      <trkpt lat="46.40363" lon="-0.42949">
        <ele>17.9086</ele>
        <time>2011-02-27T14:31:29Z</time>
      </trkpt>
      <trkpt lat="46.40364" lon="-0.42948">
        <ele>17.8973</ele>
        <time>2011-02-27T14:31:30Z</time>
      </trkpt>
      <trkpt lat="46.40365" lon="-0.42947">
        <ele>17.8852</ele>
        <time>2011-02-27T14:31:31Z</time>
      </trkpt>
      <trkpt lat="46.40366" lon="-0.42946">
        <ele>17.8806</ele>
        <time>2011-02-27T14:31:32Z</time>
      </trkpt>
      <trkpt lat="46.40368" lon="-0.42945">
        <ele>17.882</ele>
        <time>2011-02-27T14:31:33Z</time>
      </trkpt>
      <trkpt lat="46.40369" lon="-0.42944">
        <ele>17.8843</ele>
        <time>2011-02-27T14:31:34Z</time>
      </trkpt>
      <trkpt lat="46.40369" lon="-0.42942">
        <ele>17.8979</ele>
        <time>2011-02-27T14:31:35Z</time>
      </trkpt>
      <trkpt lat="46.4037" lon="-0.4294">
        <ele>17.9203</ele>
        <time>2011-02-27T14:31:36Z</time>
      </trkpt>
      <trkpt lat="46.40371" lon="-0.42939">
        <ele>17.9417</ele>
        <time>2011-02-27T14:31:37Z</time>
      </trkpt>
      <trkpt lat="46.40373" lon="-0.42937">
        <ele>17.9661</ele>
        <time>2011-02-27T14:31:38Z</time>
      </trkpt>
      <trkpt lat="46.40374" lon="-0.42935">
        <ele>17.9974</ele>
        <time>2011-02-27T14:31:39Z</time>
      </trkpt>
      <trkpt lat="46.40374" lon="-0.42934">
        <ele>18.0307</ele>
        <time>2011-02-27T14:31:40Z</time>
      </trkpt>
      <trkpt lat="46.40375" lon="-0.42933">
        <ele>18.0657</ele>
        <time>2011-02-27T14:31:41Z</time>
      </trkpt>
      <trkpt lat="46.40375" lon="-0.42932">
        <ele>18.1006</ele>
        <time>2011-02-27T14:31:42Z</time>
      </trkpt>
      <trkpt lat="46.40376" lon="-0.42931">
        <ele>18.1379</ele>
        <time>2011-02-27T14:31:43Z</time>
      </trkpt>
      <trkpt lat="46.40377" lon="-0.4293">
        <ele>18.1701</ele>
        <time>2011-02-27T14:31:44Z</time>
      </trkpt>
      <trkpt lat="46.40377" lon="-0.42929">
        <ele>18.2005</ele>
        <time>2011-02-27T14:31:45Z</time>
      </trkpt>
      <trkpt lat="46.40378" lon="-0.42929">
        <ele>18.2322</ele>
        <time>2011-02-27T14:31:46Z</time>
      </trkpt>
      <trkpt lat="46.40379" lon="-0.42928">
        <ele>18.2635</ele>
        <time>2011-02-27T14:31:47Z</time>
      </trkpt>
      <trkpt lat="46.40379" lon="-0.42928">
        <ele>18.293</ele>
        <time>2011-02-27T14:31:48Z</time>
      </trkpt>
      <trkpt lat="46.40379" lon="-0.42927">
        <ele>18.3137</ele>
        <time>2011-02-27T14:31:49Z</time>
      </trkpt>
      <trkpt lat="46.4038" lon="-0.42926">
        <ele>18.3316</ele>
        <time>2011-02-27T14:31:50Z</time>
      </trkpt>
      <trkpt lat="46.40381" lon="-0.42925">
        <ele>18.3462</ele>
        <time>2011-02-27T14:31:51Z</time>
      </trkpt>
      <trkpt lat="46.40382" lon="-0.42924">
        <ele>18.3606</ele>
        <time>2011-02-27T14:31:52Z</time>
      </trkpt>
      <trkpt lat="46.40382" lon="-0.42923">
        <ele>18.3737</ele>
        <time>2011-02-27T14:31:53Z</time>
      </trkpt>
      <trkpt lat="46.40383" lon="-0.42922">
        <ele>18.3847</ele>
        <time>2011-02-27T14:31:54Z</time>
      </trkpt>
      <trkpt lat="46.40384" lon="-0.42921">
        <ele>18.3929</ele>
        <time>2011-02-27T14:31:55Z</time>
      </trkpt>
      <trkpt lat="46.40385" lon="-0.4292">
        <ele>18.4047</ele>
        <time>2011-02-27T14:31:56Z</time>
      </trkpt>
      <trkpt lat="46.40386" lon="-0.42919">
        <ele>18.4198</ele>
        <time>2011-02-27T14:31:57Z</time>
      </trkpt>
      <trkpt lat="46.40387" lon="-0.42918">
        <ele>18.4406</ele>
        <time>2011-02-27T14:31:58Z</time>
      </trkpt>
      <trkpt lat="46.40388" lon="-0.42917">
        <ele>18.4694</ele>
        <time>2011-02-27T14:31:59Z</time>
      </trkpt>
      <trkpt lat="46.40389" lon="-0.42916">
        <ele>18.5027</ele>
        <time>2011-02-27T14:32:00Z</time>
      </trkpt>
      <trkpt lat="46.4039" lon="-0.42914">
        <ele>18.5244</ele>
        <time>2011-02-27T14:32:01Z</time>
      </trkpt>
      <trkpt lat="46.40391" lon="-0.42913">
        <ele>18.5472</ele>
        <time>2011-02-27T14:32:02Z</time>
      </trkpt>
      <trkpt lat="46.40392" lon="-0.42912">
        <ele>18.5617</ele>
        <time>2011-02-27T14:32:03Z</time>
      </trkpt>
      <trkpt lat="46.40393" lon="-0.42911">
        <ele>18.5737</ele>
        <time>2011-02-27T14:32:04Z</time>
      </trkpt>
      <trkpt lat="46.40394" lon="-0.4291">
        <ele>18.5869</ele>
        <time>2011-02-27T14:32:05Z</time>
      </trkpt>
      <trkpt lat="46.40395" lon="-0.42909">
        <ele>18.6002</ele>
        <time>2011-02-27T14:32:06Z</time>
      </trkpt>
      <trkpt lat="46.40396" lon="-0.42908">
        <ele>18.6155</ele>
        <time>2011-02-27T14:32:07Z</time>
      </trkpt>
      <trkpt lat="46.40397" lon="-0.42907">
        <ele>18.6268</ele>
        <time>2011-02-27T14:32:08Z</time>
      </trkpt>
      <trkpt lat="46.40398" lon="-0.42906">
        <ele>18.6291</ele>
        <time>2011-02-27T14:32:09Z</time>
      </trkpt>
      <trkpt lat="46.40399" lon="-0.42905">
        <ele>18.6256</ele>
        <time>2011-02-27T14:32:10Z</time>
      </trkpt>
      <trkpt lat="46.404" lon="-0.42904">
        <ele>18.6229</ele>
        <time>2011-02-27T14:32:11Z</time>
      </trkpt>
      <trkpt lat="46.404" lon="-0.42903">
        <ele>18.6142</ele>
        <time>2011-02-27T14:32:12Z</time>
      </trkpt>
      <trkpt lat="46.40401" lon="-0.42903">
        <ele>18.6012</ele>
        <time>2011-02-27T14:32:13Z</time>
      </trkpt>
      <trkpt lat="46.40402" lon="-0.42902">
        <ele>18.5882</ele>
        <time>2011-02-27T14:32:14Z</time>
      </trkpt>
      <trkpt lat="46.40403" lon="-0.42902">
        <ele>18.5777</ele>
        <time>2011-02-27T14:32:15Z</time>
      </trkpt>
      <trkpt lat="46.40404" lon="-0.42901">
        <ele>18.5659</ele>
        <time>2011-02-27T14:32:16Z</time>
      </trkpt>
      <trkpt lat="46.40405" lon="-0.42901">
        <ele>18.5528</ele>
        <time>2011-02-27T14:32:17Z</time>
      </trkpt>
      <trkpt lat="46.40406" lon="-0.429">
        <ele>18.5374</ele>
        <time>2011-02-27T14:32:18Z</time>
      </trkpt>
      <trkpt lat="46.40407" lon="-0.42899">
        <ele>18.5174</ele>
        <time>2011-02-27T14:32:19Z</time>
      </trkpt>
      <trkpt lat="46.40408" lon="-0.42898">
        <ele>18.4923</ele>
        <time>2011-02-27T14:32:20Z</time>
      </trkpt>
      <trkpt lat="46.40409" lon="-0.42897">
        <ele>18.4618</ele>
        <time>2011-02-27T14:32:21Z</time>
      </trkpt>
      <trkpt lat="46.4041" lon="-0.42896">
        <ele>18.4277</ele>
        <time>2011-02-27T14:32:22Z</time>
      </trkpt>
      <trkpt lat="46.4041" lon="-0.42895">
        <ele>18.3924</ele>
        <time>2011-02-27T14:32:23Z</time>
      </trkpt>
      <trkpt lat="46.40411" lon="-0.42893">
        <ele>18.3598</ele>
        <time>2011-02-27T14:32:24Z</time>
      </trkpt>
      <trkpt lat="46.40413" lon="-0.42893">
        <ele>18.3288</ele>
        <time>2011-02-27T14:32:25Z</time>
      </trkpt>
      <trkpt lat="46.40414" lon="-0.42892">
        <ele>18.2986</ele>
        <time>2011-02-27T14:32:26Z</time>
      </trkpt>
      <trkpt lat="46.40415" lon="-0.42891">
        <ele>18.2687</ele>
        <time>2011-02-27T14:32:27Z</time>
      </trkpt>
      <trkpt lat="46.40416" lon="-0.4289">
        <ele>18.2406</ele>
        <time>2011-02-27T14:32:28Z</time>
      </trkpt>
      <trkpt lat="46.40417" lon="-0.42889">
        <ele>18.2142</ele>
        <time>2011-02-27T14:32:29Z</time>
      </trkpt>
      <trkpt lat="46.40418" lon="-0.42888">
        <ele>18.1911</ele>
        <time>2011-02-27T14:32:30Z</time>
      </trkpt>
      <trkpt lat="46.40418" lon="-0.42886">
        <ele>18.1668</ele>
        <time>2011-02-27T14:32:31Z</time>
      </trkpt>
      <trkpt lat="46.40419" lon="-0.42885">
        <ele>18.1446</ele>
        <time>2011-02-27T14:32:32Z</time>
      </trkpt>
      <trkpt lat="46.40419" lon="-0.42883">
        <ele>18.1252</ele>
        <time>2011-02-27T14:32:33Z</time>
      </trkpt>
      <trkpt lat="46.4042" lon="-0.42882">
        <ele>18.1075</ele>
        <time>2011-02-27T14:32:34Z</time>
      </trkpt>
      <trkpt lat="46.40421" lon="-0.4288">
        <ele>18.0933</ele>
        <time>2011-02-27T14:32:35Z</time>
      </trkpt>
      <trkpt lat="46.40422" lon="-0.42878">
        <ele>18.0827</ele>
        <time>2011-02-27T14:32:36Z</time>
      </trkpt>
      <trkpt lat="46.40423" lon="-0.42876">
        <ele>18.0744</ele>
        <time>2011-02-27T14:32:37Z</time>
      </trkpt>
      <trkpt lat="46.40424" lon="-0.42875">
        <ele>18.0637</ele>
        <time>2011-02-27T14:32:38Z</time>
      </trkpt>
      <trkpt lat="46.40424" lon="-0.42873">
        <ele>18.0552</ele>
        <time>2011-02-27T14:32:39Z</time>
      </trkpt>
      <trkpt lat="46.40425" lon="-0.42872">
        <ele>18.0483</ele>
        <time>2011-02-27T14:32:40Z</time>
      </trkpt>
      <trkpt lat="46.40426" lon="-0.42871">
        <ele>18.0398</ele>
        <time>2011-02-27T14:32:41Z</time>
      </trkpt>
      <trkpt lat="46.40426" lon="-0.42869">
        <ele>18.031</ele>
        <time>2011-02-27T14:32:42Z</time>
      </trkpt>
      <trkpt lat="46.40427" lon="-0.42867">
        <ele>18.0201</ele>
        <time>2011-02-27T14:32:43Z</time>
      </trkpt>
      <trkpt lat="46.40427" lon="-0.42866">
        <ele>18.0087</ele>
        <time>2011-02-27T14:32:44Z</time>
      </trkpt>
      <trkpt lat="46.40428" lon="-0.42864">
        <ele>17.9977</ele>
        <time>2011-02-27T14:32:45Z</time>
      </trkpt>
      <trkpt lat="46.40428" lon="-0.42863">
        <ele>17.9856</ele>
        <time>2011-02-27T14:32:46Z</time>
      </trkpt>
      <trkpt lat="46.40429" lon="-0.42861">
        <ele>17.9684</ele>
        <time>2011-02-27T14:32:47Z</time>
      </trkpt>
      <trkpt lat="46.40429" lon="-0.42859">
        <ele>17.9467</ele>
        <time>2011-02-27T14:32:48Z</time>
      </trkpt>
      <trkpt lat="46.4043" lon="-0.42858">
        <ele>17.926</ele>
        <time>2011-02-27T14:32:49Z</time>
      </trkpt>
      <trkpt lat="46.40431" lon="-0.42856">
        <ele>17.8997</ele>
        <time>2011-02-27T14:32:50Z</time>
      </trkpt>
      <trkpt lat="46.40431" lon="-0.42855">
        <ele>17.8741</ele>
        <time>2011-02-27T14:32:51Z</time>
      </trkpt>
      <trkpt lat="46.40431" lon="-0.42854">
        <ele>17.8479</ele>
        <time>2011-02-27T14:32:52Z</time>
      </trkpt>
      <trkpt lat="46.40432" lon="-0.42853">
        <ele>17.8226</ele>
        <time>2011-02-27T14:32:53Z</time>
      </trkpt>
      <trkpt lat="46.40432" lon="-0.42851">
        <ele>17.799</ele>
        <time>2011-02-27T14:32:54Z</time>
      </trkpt>
      <trkpt lat="46.40432" lon="-0.4285">
        <ele>17.7749</ele>
        <time>2011-02-27T14:32:55Z</time>
      </trkpt>
      <trkpt lat="46.40433" lon="-0.42849">
        <ele>17.7516</ele>
        <time>2011-02-27T14:32:56Z</time>
      </trkpt>
      <trkpt lat="46.40433" lon="-0.42848">
        <ele>17.7268</ele>
        <time>2011-02-27T14:32:57Z</time>
      </trkpt>
      <trkpt lat="46.40434" lon="-0.42847">
        <ele>17.7035</ele>
        <time>2011-02-27T14:32:58Z</time>
      </trkpt>
      <trkpt lat="46.40434" lon="-0.42846">
        <ele>17.6817</ele>
        <time>2011-02-27T14:32:59Z</time>
      </trkpt>
      <trkpt lat="46.40435" lon="-0.42846">
        <ele>17.6626</ele>
        <time>2011-02-27T14:33:00Z</time>
      </trkpt>
      <trkpt lat="46.40435" lon="-0.42845">
        <ele>17.6454</ele>
        <time>2011-02-27T14:33:01Z</time>
      </trkpt>
      <trkpt lat="46.40434" lon="-0.42843">
        <ele>17.6225</ele>
        <time>2011-02-27T14:33:06Z</time>
      </trkpt>
      <trkpt lat="46.40434" lon="-0.42843">
        <ele>17.6073</ele>
        <time>2011-02-27T14:33:07Z</time>
      </trkpt>
      <trkpt lat="46.40434" lon="-0.42843">
        <ele>17.5933</ele>
        <time>2011-02-27T14:33:08Z</time>
      </trkpt>
      <trkpt lat="46.40432" lon="-0.42841">
        <ele>17.5375</ele>
        <time>2011-02-27T14:33:13Z</time>
      </trkpt>
      <trkpt lat="46.40432" lon="-0.4284">
        <ele>17.4946</ele>
        <time>2011-02-27T14:33:14Z</time>
      </trkpt>
      <trkpt lat="46.40432" lon="-0.42839">
        <ele>17.4514</ele>
        <time>2011-02-27T14:33:15Z</time>
      </trkpt>
      <trkpt lat="46.40433" lon="-0.42838">
        <ele>17.4077</ele>
        <time>2011-02-27T14:33:16Z</time>
      </trkpt>
      <trkpt lat="46.40433" lon="-0.42837">
        <ele>17.3641</ele>
        <time>2011-02-27T14:33:17Z</time>
      </trkpt>
      <trkpt lat="46.40433" lon="-0.42835">
        <ele>17.3143</ele>
        <time>2011-02-27T14:33:18Z</time>
      </trkpt>
      <trkpt lat="46.40434" lon="-0.42834">
        <ele>17.2633</ele>
        <time>2011-02-27T14:33:19Z</time>
      </trkpt>
      <trkpt lat="46.40434" lon="-0.42833">
        <ele>17.2134</ele>
        <time>2011-02-27T14:33:20Z</time>
      </trkpt>
      <trkpt lat="46.40434" lon="-0.42832">
        <ele>17.1551</ele>
        <time>2011-02-27T14:33:21Z</time>
      </trkpt>
      <trkpt lat="46.40434" lon="-0.4283">
        <ele>17.106</ele>
        <time>2011-02-27T14:33:22Z</time>
      </trkpt>
      <trkpt lat="46.40435" lon="-0.42829">
        <ele>17.0663</ele>
        <time>2011-02-27T14:33:23Z</time>
      </trkpt>
      <trkpt lat="46.40435" lon="-0.42827">
        <ele>17.0337</ele>
        <time>2011-02-27T14:33:24Z</time>
      </trkpt>
      <trkpt lat="46.40436" lon="-0.42826">
        <ele>17.004</ele>
        <time>2011-02-27T14:33:25Z</time>
      </trkpt>
      <trkpt lat="46.40437" lon="-0.42824">
        <ele>16.9775</ele>
        <time>2011-02-27T14:33:26Z</time>
      </trkpt>
      <trkpt lat="46.40437" lon="-0.42823">
        <ele>16.9536</ele>
        <time>2011-02-27T14:33:27Z</time>
      </trkpt>
      <trkpt lat="46.40438" lon="-0.42821">
        <ele>16.9315</ele>
        <time>2011-02-27T14:33:28Z</time>
      </trkpt>
      <trkpt lat="46.40439" lon="-0.4282">
        <ele>16.9062</ele>
        <time>2011-02-27T14:33:29Z</time>
      </trkpt>
      <trkpt lat="46.40439" lon="-0.42819">
        <ele>16.8778</ele>
        <time>2011-02-27T14:33:30Z</time>
      </trkpt>
      <trkpt lat="46.4044" lon="-0.42818">
        <ele>16.8475</ele>
        <time>2011-02-27T14:33:31Z</time>
      </trkpt>
      <trkpt lat="46.40441" lon="-0.42817">
        <ele>16.8255</ele>
        <time>2011-02-27T14:33:32Z</time>
      </trkpt>
      <trkpt lat="46.40442" lon="-0.42815">
        <ele>16.8092</ele>
        <time>2011-02-27T14:33:33Z</time>
      </trkpt>
      <trkpt lat="46.40443" lon="-0.42814">
        <ele>16.8005</ele>
        <time>2011-02-27T14:33:34Z</time>
      </trkpt>
      <trkpt lat="46.40444" lon="-0.42813">
        <ele>16.7995</ele>
        <time>2011-02-27T14:33:35Z</time>
      </trkpt>
      <trkpt lat="46.40445" lon="-0.42811">
        <ele>16.7893</ele>
        <time>2011-02-27T14:33:36Z</time>
      </trkpt>
      <trkpt lat="46.40446" lon="-0.4281">
        <ele>16.7848</ele>
        <time>2011-02-27T14:33:37Z</time>
      </trkpt>
      <trkpt lat="46.40447" lon="-0.42808">
        <ele>16.7849</ele>
        <time>2011-02-27T14:33:38Z</time>
      </trkpt>
      <trkpt lat="46.40447" lon="-0.42806">
        <ele>16.7877</ele>
        <time>2011-02-27T14:33:39Z</time>
      </trkpt>
      <trkpt lat="46.40448" lon="-0.42805">
        <ele>16.7919</ele>
        <time>2011-02-27T14:33:40Z</time>
      </trkpt>
      <trkpt lat="46.40448" lon="-0.42803">
        <ele>16.8015</ele>
        <time>2011-02-27T14:33:41Z</time>
      </trkpt>
      <trkpt lat="46.40449" lon="-0.42801">
        <ele>16.8092</ele>
        <time>2011-02-27T14:33:42Z</time>
      </trkpt>
      <trkpt lat="46.4045" lon="-0.428">
        <ele>16.8164</ele>
        <time>2011-02-27T14:33:43Z</time>
      </trkpt>
      <trkpt lat="46.4045" lon="-0.42798">
        <ele>16.8308</ele>
        <time>2011-02-27T14:33:44Z</time>
      </trkpt>
      <trkpt lat="46.4045" lon="-0.42797">
        <ele>16.8483</ele>
        <time>2011-02-27T14:33:45Z</time>
      </trkpt>
      <trkpt lat="46.40451" lon="-0.42796">
        <ele>16.866</ele>
        <time>2011-02-27T14:33:46Z</time>
      </trkpt>
      <trkpt lat="46.40451" lon="-0.42794">
        <ele>16.869</ele>
        <time>2011-02-27T14:33:47Z</time>
      </trkpt>
      <trkpt lat="46.40451" lon="-0.42793">
        <ele>16.8523</ele>
        <time>2011-02-27T14:33:48Z</time>
      </trkpt>
      <trkpt lat="46.40451" lon="-0.42791">
        <ele>16.829</ele>
        <time>2011-02-27T14:33:49Z</time>
      </trkpt>
      <trkpt lat="46.40452" lon="-0.42788">
        <ele>16.8</ele>
        <time>2011-02-27T14:33:50Z</time>
      </trkpt>
      <trkpt lat="46.40452" lon="-0.42787">
        <ele>16.7721</ele>
        <time>2011-02-27T14:33:51Z</time>
      </trkpt>
      <trkpt lat="46.40452" lon="-0.42785">
        <ele>16.7461</ele>
        <time>2011-02-27T14:33:52Z</time>
      </trkpt>
      <trkpt lat="46.40453" lon="-0.42782">
        <ele>16.7129</ele>
        <time>2011-02-27T14:33:53Z</time>
      </trkpt>
      <trkpt lat="46.40453" lon="-0.4278">
        <ele>16.7011</ele>
        <time>2011-02-27T14:33:54Z</time>
      </trkpt>
      <trkpt lat="46.40453" lon="-0.42778">
        <ele>16.7022</ele>
        <time>2011-02-27T14:33:55Z</time>
      </trkpt>
      <trkpt lat="46.40453" lon="-0.42777">
        <ele>16.7092</ele>
        <time>2011-02-27T14:33:56Z</time>
      </trkpt>
      <trkpt lat="46.40454" lon="-0.42775">
        <ele>16.7194</ele>
        <time>2011-02-27T14:33:57Z</time>
      </trkpt>
      <trkpt lat="46.40454" lon="-0.42774">
        <ele>16.7335</ele>
        <time>2011-02-27T14:33:58Z</time>
      </trkpt>
      <trkpt lat="46.40454" lon="-0.42773">
        <ele>16.7412</ele>
        <time>2011-02-27T14:33:59Z</time>
      </trkpt>
      <trkpt lat="46.40455" lon="-0.42771">
        <ele>16.7488</ele>
        <time>2011-02-27T14:34:00Z</time>
      </trkpt>
      <trkpt lat="46.40455" lon="-0.4277">
        <ele>16.755</ele>
        <time>2011-02-27T14:34:01Z</time>
      </trkpt>
      <trkpt lat="46.40456" lon="-0.4277">
        <ele>16.7622</ele>
        <time>2011-02-27T14:34:02Z</time>
      </trkpt>
      <trkpt lat="46.40456" lon="-0.42768">
        <ele>16.765</ele>
        <time>2011-02-27T14:34:03Z</time>
      </trkpt>
      <trkpt lat="46.40457" lon="-0.42767">
        <ele>16.7653</ele>
        <time>2011-02-27T14:34:04Z</time>
      </trkpt>
      <trkpt lat="46.40458" lon="-0.42766">
        <ele>16.7712</ele>
        <time>2011-02-27T14:34:05Z</time>
      </trkpt>
      <trkpt lat="46.40459" lon="-0.42765">
        <ele>16.7778</ele>
        <time>2011-02-27T14:34:06Z</time>
      </trkpt>
      <trkpt lat="46.4046" lon="-0.42764">
        <ele>16.7861</ele>
        <time>2011-02-27T14:34:07Z</time>
      </trkpt>
      <trkpt lat="46.40461" lon="-0.42762">
        <ele>16.7956</ele>
        <time>2011-02-27T14:34:08Z</time>
      </trkpt>
      <trkpt lat="46.40462" lon="-0.42761">
        <ele>16.8057</ele>
        <time>2011-02-27T14:34:09Z</time>
      </trkpt>
      <trkpt lat="46.40463" lon="-0.42759">
        <ele>16.8148</ele>
        <time>2011-02-27T14:34:10Z</time>
      </trkpt>
      <trkpt lat="46.40463" lon="-0.42758">
        <ele>16.8288</ele>
        <time>2011-02-27T14:34:11Z</time>
      </trkpt>
      <trkpt lat="46.40463" lon="-0.42756">
        <ele>16.839</ele>
        <time>2011-02-27T14:34:12Z</time>
      </trkpt>
      <trkpt lat="46.40464" lon="-0.42754">
        <ele>16.8499</ele>
        <time>2011-02-27T14:34:13Z</time>
      </trkpt>
      <trkpt lat="46.40464" lon="-0.42753">
        <ele>16.8691</ele>
        <time>2011-02-27T14:34:14Z</time>
      </trkpt>
      <trkpt lat="46.40465" lon="-0.42752">
        <ele>16.8817</ele>
        <time>2011-02-27T14:34:15Z</time>
      </trkpt>
      <trkpt lat="46.40466" lon="-0.4275">
        <ele>16.9016</ele>
        <time>2011-02-27T14:34:16Z</time>
      </trkpt>
      <trkpt lat="46.40466" lon="-0.42748">
        <ele>16.9411</ele>
        <time>2011-02-27T14:34:17Z</time>
      </trkpt>
      <trkpt lat="46.40467" lon="-0.42746">
        <ele>16.9888</ele>
        <time>2011-02-27T14:34:18Z</time>
      </trkpt>
      <trkpt lat="46.40468" lon="-0.42745">
        <ele>17.0364</ele>
        <time>2011-02-27T14:34:19Z</time>
      </trkpt>
      <trkpt lat="46.40468" lon="-0.42743">
        <ele>17.087</ele>
        <time>2011-02-27T14:34:20Z</time>
      </trkpt>
      <trkpt lat="46.40469" lon="-0.42741">
        <ele>17.137</ele>
        <time>2011-02-27T14:34:21Z</time>
      </trkpt>
      <trkpt lat="46.40469" lon="-0.4274">
        <ele>17.1947</ele>
        <time>2011-02-27T14:34:22Z</time>
      </trkpt>
      <trkpt lat="46.4047" lon="-0.42739">
        <ele>17.2703</ele>
        <time>2011-02-27T14:34:23Z</time>
      </trkpt>
      <trkpt lat="46.4047" lon="-0.42737">
        <ele>17.3625</ele>
        <time>2011-02-27T14:34:24Z</time>
      </trkpt>
      <trkpt lat="46.4047" lon="-0.42736">
        <ele>17.4632</ele>
        <time>2011-02-27T14:34:25Z</time>
      </trkpt>
      <trkpt lat="46.40471" lon="-0.42734">
        <ele>17.5628</ele>
        <time>2011-02-27T14:34:26Z</time>
      </trkpt>
      <trkpt lat="46.40471" lon="-0.42733">
        <ele>17.666</ele>
        <time>2011-02-27T14:34:27Z</time>
      </trkpt>
      <trkpt lat="46.40474" lon="-0.42738">
        <ele>17.7744</ele>
        <time>2011-02-27T14:34:38Z</time>
      </trkpt>
      <trkpt lat="46.40476" lon="-0.42735">
        <ele>17.8648</ele>
        <time>2011-02-27T14:34:47Z</time>
      </trkpt>
      <trkpt lat="46.40472" lon="-0.4273">
        <ele>18.2935</ele>
        <time>2011-02-27T14:34:51Z</time>
      </trkpt>
      <trkpt lat="46.4047" lon="-0.42729">
        <ele>18.6031</ele>
        <time>2011-02-27T14:34:55Z</time>
      </trkpt>
      <trkpt lat="46.40469" lon="-0.42729">
        <ele>18.7183</ele>
        <time>2011-02-27T14:34:57Z</time>
      </trkpt>
      <trkpt lat="46.40468" lon="-0.42728">
        <ele>18.7713</ele>
        <time>2011-02-27T14:34:58Z</time>
      </trkpt>
      <trkpt lat="46.40467" lon="-0.42727">
        <ele>18.8664</ele>
        <time>2011-02-27T14:35:00Z</time>
      </trkpt>
      <trkpt lat="46.40467" lon="-0.42726">
        <ele>18.911</ele>
        <time>2011-02-27T14:35:01Z</time>
      </trkpt>
      <trkpt lat="46.40467" lon="-0.42726">
        <ele>18.9449</ele>
        <time>2011-02-27T14:35:02Z</time>
      </trkpt>
      <trkpt lat="46.40467" lon="-0.42725">
        <ele>18.967</ele>
        <time>2011-02-27T14:35:03Z</time>
      </trkpt>
      <trkpt lat="46.40468" lon="-0.42732">
        <ele>18.9744</ele>
        <time>2011-02-27T14:35:08Z</time>
      </trkpt>
      <trkpt lat="46.4047" lon="-0.42738">
        <ele>18.9689</ele>
        <time>2011-02-27T14:35:16Z</time>
      </trkpt>
      <trkpt lat="46.40468" lon="-0.42734">
        <ele>18.8116</ele>
        <time>2011-02-27T14:35:26Z</time>
      </trkpt>
      <trkpt lat="46.40468" lon="-0.42732">
        <ele>18.8068</ele>
        <time>2011-02-27T14:35:27Z</time>
      </trkpt>
      <trkpt lat="46.40468" lon="-0.4273">
        <ele>18.8193</ele>
        <time>2011-02-27T14:35:28Z</time>
      </trkpt>
      <trkpt lat="46.40468" lon="-0.42728">
        <ele>18.8448</ele>
        <time>2011-02-27T14:35:29Z</time>
      </trkpt>
      <trkpt lat="46.40469" lon="-0.42724">
        <ele>18.9674</ele>
        <time>2011-02-27T14:35:36Z</time>
      </trkpt>
      <trkpt lat="46.40469" lon="-0.42723">
        <ele>19.0554</ele>
        <time>2011-02-27T14:35:37Z</time>
      </trkpt>
      <trkpt lat="46.4047" lon="-0.42722">
        <ele>19.1469</ele>
        <time>2011-02-27T14:35:38Z</time>
      </trkpt>
      <trkpt lat="46.40471" lon="-0.42721">
        <ele>19.2387</ele>
        <time>2011-02-27T14:35:39Z</time>
      </trkpt>
      <trkpt lat="46.40472" lon="-0.4272">
        <ele>19.3292</ele>
        <time>2011-02-27T14:35:40Z</time>
      </trkpt>
      <trkpt lat="46.40472" lon="-0.4272">
        <ele>19.4167</ele>
        <time>2011-02-27T14:35:41Z</time>
      </trkpt>
      <trkpt lat="46.40474" lon="-0.42719">
        <ele>20.2841</ele>
        <time>2011-02-27T14:35:52Z</time>
      </trkpt>
      <trkpt lat="46.40476" lon="-0.42718">
        <ele>20.6563</ele>
        <time>2011-02-27T14:35:54Z</time>
      </trkpt>
      <trkpt lat="46.40477" lon="-0.42717">
        <ele>20.8379</ele>
        <time>2011-02-27T14:35:55Z</time>
      </trkpt>
      <trkpt lat="46.40477" lon="-0.42716">
        <ele>21.0142</ele>
        <time>2011-02-27T14:35:56Z</time>
      </trkpt>
      <trkpt lat="46.4048" lon="-0.42719">
        <ele>21.3517</ele>
        <time>2011-02-27T14:36:05Z</time>
      </trkpt>
      <trkpt lat="46.4048" lon="-0.42718">
        <ele>21.4604</ele>
        <time>2011-02-27T14:36:06Z</time>
      </trkpt>
      <trkpt lat="46.40481" lon="-0.42718">
        <ele>21.5718</ele>
        <time>2011-02-27T14:36:07Z</time>
      </trkpt>
      <trkpt lat="46.40482" lon="-0.42717">
        <ele>21.6732</ele>
        <time>2011-02-27T14:36:08Z</time>
      </trkpt>
      <trkpt lat="46.40482" lon="-0.42716">
        <ele>21.7693</ele>
        <time>2011-02-27T14:36:09Z</time>
      </trkpt>
      <trkpt lat="46.40482" lon="-0.42715">
        <ele>21.8697</ele>
        <time>2011-02-27T14:36:10Z</time>
      </trkpt>
      <trkpt lat="46.40482" lon="-0.42714">
        <ele>21.9567</ele>
        <time>2011-02-27T14:36:14Z</time>
      </trkpt>
      <trkpt lat="46.40482" lon="-0.42714">
        <ele>22.0103</ele>
        <time>2011-02-27T14:36:15Z</time>
      </trkpt>
      <trkpt lat="46.40481" lon="-0.42713">
        <ele>22.0528</ele>
        <time>2011-02-27T14:36:16Z</time>
      </trkpt>
      <trkpt lat="46.40481" lon="-0.42713">
        <ele>22.0927</ele>
        <time>2011-02-27T14:36:17Z</time>
      </trkpt>
      <trkpt lat="46.40481" lon="-0.42712">
        <ele>22.1338</ele>
        <time>2011-02-27T14:36:18Z</time>
      </trkpt>
      <trkpt lat="46.40482" lon="-0.4271">
        <ele>22.1778</ele>
        <time>2011-02-27T14:36:19Z</time>
      </trkpt>
      <trkpt lat="46.40483" lon="-0.42709">
        <ele>22.2231</ele>
        <time>2011-02-27T14:36:20Z</time>
      </trkpt>
      <trkpt lat="46.40484" lon="-0.42707">
        <ele>22.2685</ele>
        <time>2011-02-27T14:36:21Z</time>
      </trkpt>
      <trkpt lat="46.40484" lon="-0.42705">
        <ele>22.3138</ele>
        <time>2011-02-27T14:36:22Z</time>
      </trkpt>
      <trkpt lat="46.40485" lon="-0.42703">
        <ele>22.3596</ele>
        <time>2011-02-27T14:36:23Z</time>
      </trkpt>
      <trkpt lat="46.40486" lon="-0.42701">
        <ele>22.4054</ele>
        <time>2011-02-27T14:36:24Z</time>
      </trkpt>
      <trkpt lat="46.40486" lon="-0.427">
        <ele>22.4507</ele>
        <time>2011-02-27T14:36:25Z</time>
      </trkpt>
      <trkpt lat="46.40487" lon="-0.42698">
        <ele>22.4969</ele>
        <time>2011-02-27T14:36:26Z</time>
      </trkpt>
      <trkpt lat="46.40488" lon="-0.42696">
        <ele>22.5423</ele>
        <time>2011-02-27T14:36:27Z</time>
      </trkpt>
      <trkpt lat="46.40488" lon="-0.42695">
        <ele>22.5937</ele>
        <time>2011-02-27T14:36:28Z</time>
      </trkpt>
      <trkpt lat="46.40489" lon="-0.42693">
        <ele>22.6471</ele>
        <time>2011-02-27T14:36:29Z</time>
      </trkpt>
      <trkpt lat="46.4049" lon="-0.42692">
        <ele>22.6984</ele>
        <time>2011-02-27T14:36:30Z</time>
      </trkpt>
      <trkpt lat="46.4049" lon="-0.4269">
        <ele>22.7437</ele>
        <time>2011-02-27T14:36:31Z</time>
      </trkpt>
      <trkpt lat="46.40491" lon="-0.42689">
        <ele>22.7756</ele>
        <time>2011-02-27T14:36:32Z</time>
      </trkpt>
      <trkpt lat="46.40492" lon="-0.42688">
        <ele>22.7973</ele>
        <time>2011-02-27T14:36:33Z</time>
      </trkpt>
      <trkpt lat="46.40492" lon="-0.42688">
        <ele>22.8113</ele>
        <time>2011-02-27T14:36:34Z</time>
      </trkpt>
      <trkpt lat="46.40492" lon="-0.42687">
        <ele>22.8187</ele>
        <time>2011-02-27T14:36:35Z</time>
      </trkpt>
      <trkpt lat="46.40493" lon="-0.42687">
        <ele>22.8245</ele>
        <time>2011-02-27T14:36:36Z</time>
      </trkpt>
      <trkpt lat="46.40493" lon="-0.42686">
        <ele>22.8283</ele>
        <time>2011-02-27T14:36:37Z</time>
      </trkpt>
      <trkpt lat="46.40493" lon="-0.42685">
        <ele>22.8321</ele>
        <time>2011-02-27T14:36:38Z</time>
      </trkpt>
      <trkpt lat="46.40494" lon="-0.42684">
        <ele>22.8231</ele>
        <time>2011-02-27T14:36:39Z</time>
      </trkpt>
      <trkpt lat="46.40494" lon="-0.42683">
        <ele>22.8091</ele>
        <time>2011-02-27T14:36:40Z</time>
      </trkpt>
      <trkpt lat="46.40494" lon="-0.42682">
        <ele>22.7944</ele>
        <time>2011-02-27T14:36:41Z</time>
      </trkpt>
      <trkpt lat="46.40495" lon="-0.42681">
        <ele>22.7803</ele>
        <time>2011-02-27T14:36:42Z</time>
      </trkpt>
      <trkpt lat="46.40495" lon="-0.4268">
        <ele>22.7704</ele>
        <time>2011-02-27T14:36:43Z</time>
      </trkpt>
      <trkpt lat="46.40496" lon="-0.42679">
        <ele>22.7602</ele>
        <time>2011-02-27T14:36:44Z</time>
      </trkpt>
      <trkpt lat="46.40496" lon="-0.42678">
        <ele>22.7495</ele>
        <time>2011-02-27T14:36:45Z</time>
      </trkpt>
      <trkpt lat="46.40496" lon="-0.42677">
        <ele>22.738</ele>
        <time>2011-02-27T14:36:46Z</time>
      </trkpt>
      <trkpt lat="46.40497" lon="-0.42676">
        <ele>22.7279</ele>
        <time>2011-02-27T14:36:47Z</time>
      </trkpt>
      <trkpt lat="46.40497" lon="-0.42675">
        <ele>22.7126</ele>
        <time>2011-02-27T14:36:48Z</time>
      </trkpt>
      <trkpt lat="46.40498" lon="-0.42673">
        <ele>22.6896</ele>
        <time>2011-02-27T14:36:49Z</time>
      </trkpt>
      <trkpt lat="46.40498" lon="-0.42671">
        <ele>22.6637</ele>
        <time>2011-02-27T14:36:50Z</time>
      </trkpt>
      <trkpt lat="46.40498" lon="-0.42669">
        <ele>22.634</ele>
        <time>2011-02-27T14:36:51Z</time>
      </trkpt>
      <trkpt lat="46.40499" lon="-0.42667">
        <ele>22.6017</ele>
        <time>2011-02-27T14:36:52Z</time>
      </trkpt>
      <trkpt lat="46.405" lon="-0.42665">
        <ele>22.5664</ele>
        <time>2011-02-27T14:36:53Z</time>
      </trkpt>
      <trkpt lat="46.405" lon="-0.42664">
        <ele>22.5282</ele>
        <time>2011-02-27T14:36:54Z</time>
      </trkpt>
      <trkpt lat="46.405" lon="-0.42662">
        <ele>22.4825</ele>
        <time>2011-02-27T14:36:55Z</time>
      </trkpt>
      <trkpt lat="46.40501" lon="-0.4266">
        <ele>22.432</ele>
        <time>2011-02-27T14:36:56Z</time>
      </trkpt>
      <trkpt lat="46.40501" lon="-0.42659">
        <ele>22.3815</ele>
        <time>2011-02-27T14:36:57Z</time>
      </trkpt>
      <trkpt lat="46.40503" lon="-0.42655">
        <ele>22.2889</ele>
        <time>2011-02-27T14:37:01Z</time>
      </trkpt>
      <trkpt lat="46.40503" lon="-0.42654">
        <ele>22.2171</ele>
        <time>2011-02-27T14:37:02Z</time>
      </trkpt>
      <trkpt lat="46.40504" lon="-0.42652">
        <ele>22.1466</ele>
        <time>2011-02-27T14:37:03Z</time>
      </trkpt>
      <trkpt lat="46.40504" lon="-0.42651">
        <ele>22.0712</ele>
        <time>2011-02-27T14:37:04Z</time>
      </trkpt>
      <trkpt lat="46.40505" lon="-0.42649">
        <ele>21.9949</ele>
        <time>2011-02-27T14:37:05Z</time>
      </trkpt>
      <trkpt lat="46.40505" lon="-0.42648">
        <ele>21.9181</ele>
        <time>2011-02-27T14:37:06Z</time>
      </trkpt>
      <trkpt lat="46.40505" lon="-0.42646">
        <ele>21.8357</ele>
        <time>2011-02-27T14:37:07Z</time>
      </trkpt>
      <trkpt lat="46.40505" lon="-0.42645">
        <ele>21.7609</ele>
        <time>2011-02-27T14:37:08Z</time>
      </trkpt>
      <trkpt lat="46.40505" lon="-0.42643">
        <ele>21.6869</ele>
        <time>2011-02-27T14:37:09Z</time>
      </trkpt>
      <trkpt lat="46.40506" lon="-0.42642">
        <ele>21.6208</ele>
        <time>2011-02-27T14:37:10Z</time>
      </trkpt>
      <trkpt lat="46.40506" lon="-0.4264">
        <ele>21.5647</ele>
        <time>2011-02-27T14:37:11Z</time>
      </trkpt>
      <trkpt lat="46.40507" lon="-0.42638">
        <ele>21.5131</ele>
        <time>2011-02-27T14:37:12Z</time>
      </trkpt>
      <trkpt lat="46.40508" lon="-0.42637">
        <ele>21.463</ele>
        <time>2011-02-27T14:37:13Z</time>
      </trkpt>
      <trkpt lat="46.40508" lon="-0.42635">
        <ele>21.4131</ele>
        <time>2011-02-27T14:37:14Z</time>
      </trkpt>
      <trkpt lat="46.40509" lon="-0.42633">
        <ele>21.3622</ele>
        <time>2011-02-27T14:37:15Z</time>
      </trkpt>
      <trkpt lat="46.40509" lon="-0.42632">
        <ele>21.3141</ele>
        <time>2011-02-27T14:37:16Z</time>
      </trkpt>
      <trkpt lat="46.40509" lon="-0.4263">
        <ele>21.2672</ele>
        <time>2011-02-27T14:37:17Z</time>
      </trkpt>
      <trkpt lat="46.4051" lon="-0.42629">
        <ele>21.2209</ele>
        <time>2011-02-27T14:37:18Z</time>
      </trkpt>
      <trkpt lat="46.4051" lon="-0.42628">
        <ele>21.176</ele>
        <time>2011-02-27T14:37:19Z</time>
      </trkpt>
      <trkpt lat="46.4051" lon="-0.42627">
        <ele>21.1228</ele>
        <time>2011-02-27T14:37:20Z</time>
      </trkpt>
      <trkpt lat="46.40511" lon="-0.42626">
        <ele>21.0686</ele>
        <time>2011-02-27T14:37:21Z</time>
      </trkpt>
      <trkpt lat="46.40511" lon="-0.42625">
        <ele>21.0157</ele>
        <time>2011-02-27T14:37:22Z</time>
      </trkpt>
      <trkpt lat="46.40511" lon="-0.42623">
        <ele>20.964</ele>
        <time>2011-02-27T14:37:23Z</time>
      </trkpt>
      <trkpt lat="46.40512" lon="-0.42622">
        <ele>20.9151</ele>
        <time>2011-02-27T14:37:24Z</time>
      </trkpt>
      <trkpt lat="46.40513" lon="-0.42621">
        <ele>20.8727</ele>
        <time>2011-02-27T14:37:25Z</time>
      </trkpt>
      <trkpt lat="46.40513" lon="-0.4262">
        <ele>20.8406</ele>
        <time>2011-02-27T14:37:26Z</time>
      </trkpt>
      <trkpt lat="46.40514" lon="-0.42618">
        <ele>20.817</ele>
        <time>2011-02-27T14:37:27Z</time>
      </trkpt>
      <trkpt lat="46.40514" lon="-0.42617">
        <ele>20.7862</ele>
        <time>2011-02-27T14:37:28Z</time>
      </trkpt>
      <trkpt lat="46.40515" lon="-0.42615">
        <ele>20.7369</ele>
        <time>2011-02-27T14:37:29Z</time>
      </trkpt>
      <trkpt lat="46.40516" lon="-0.42614">
        <ele>20.6854</ele>
        <time>2011-02-27T14:37:30Z</time>
      </trkpt>
      <trkpt lat="46.40517" lon="-0.42613">
        <ele>20.6353</ele>
        <time>2011-02-27T14:37:31Z</time>
      </trkpt>
      <trkpt lat="46.40518" lon="-0.42612">
        <ele>20.5868</ele>
        <time>2011-02-27T14:37:32Z</time>
      </trkpt>
      <trkpt lat="46.40519" lon="-0.42612">
        <ele>20.549</ele>
        <time>2011-02-27T14:37:33Z</time>
      </trkpt>
      <trkpt lat="46.4052" lon="-0.42612">
        <ele>20.5262</ele>
        <time>2011-02-27T14:37:34Z</time>
      </trkpt>
      <trkpt lat="46.40521" lon="-0.42612">
        <ele>20.5113</ele>
        <time>2011-02-27T14:37:35Z</time>
      </trkpt>
      <trkpt lat="46.40521" lon="-0.42612">
        <ele>20.5126</ele>
        <time>2011-02-27T14:37:36Z</time>
      </trkpt>
      <trkpt lat="46.40522" lon="-0.42613">
        <ele>20.5136</ele>
        <time>2011-02-27T14:37:37Z</time>
      </trkpt>
      <trkpt lat="46.40523" lon="-0.42613">
        <ele>20.5173</ele>
        <time>2011-02-27T14:37:38Z</time>
      </trkpt>
      <trkpt lat="46.40524" lon="-0.42613">
        <ele>20.5223</ele>
        <time>2011-02-27T14:37:39Z</time>
      </trkpt>
      <trkpt lat="46.40525" lon="-0.42613">
        <ele>20.5228</ele>
        <time>2011-02-27T14:37:40Z</time>
      </trkpt>
      <trkpt lat="46.40525" lon="-0.42614">
        <ele>20.5247</ele>
        <time>2011-02-27T14:37:41Z</time>
      </trkpt>
      <trkpt lat="46.40526" lon="-0.42614">
        <ele>20.4817</ele>
        <time>2011-02-27T14:37:45Z</time>
      </trkpt>
      <trkpt lat="46.40527" lon="-0.42614">
        <ele>20.446</ele>
        <time>2011-02-27T14:37:46Z</time>
      </trkpt>
      <trkpt lat="46.40528" lon="-0.42614">
        <ele>20.4107</ele>
        <time>2011-02-27T14:37:47Z</time>
      </trkpt>
      <trkpt lat="46.40529" lon="-0.42614">
        <ele>20.3776</ele>
        <time>2011-02-27T14:37:48Z</time>
      </trkpt>
      <trkpt lat="46.4053" lon="-0.42614">
        <ele>20.3479</ele>
        <time>2011-02-27T14:37:49Z</time>
      </trkpt>
      <trkpt lat="46.4053" lon="-0.42615">
        <ele>20.319</ele>
        <time>2011-02-27T14:37:50Z</time>
      </trkpt>
      <trkpt lat="46.40531" lon="-0.42616">
        <ele>20.2926</ele>
        <time>2011-02-27T14:37:51Z</time>
      </trkpt>
      <trkpt lat="46.40532" lon="-0.42615">
        <ele>20.2682</ele>
        <time>2011-02-27T14:37:52Z</time>
      </trkpt>
      <trkpt lat="46.40533" lon="-0.42616">
        <ele>20.242</ele>
        <time>2011-02-27T14:37:53Z</time>
      </trkpt>
      <trkpt lat="46.40534" lon="-0.42616">
        <ele>20.2225</ele>
        <time>2011-02-27T14:37:54Z</time>
      </trkpt>
      <trkpt lat="46.40535" lon="-0.42616">
        <ele>20.2194</ele>
        <time>2011-02-27T14:37:55Z</time>
      </trkpt>
      <trkpt lat="46.40536" lon="-0.42617">
        <ele>20.2338</ele>
        <time>2011-02-27T14:37:56Z</time>
      </trkpt>
      <trkpt lat="46.40537" lon="-0.42617">
        <ele>20.2473</ele>
        <time>2011-02-27T14:37:57Z</time>
      </trkpt>
      <trkpt lat="46.40538" lon="-0.42617">
        <ele>20.2639</ele>
        <time>2011-02-27T14:37:58Z</time>
      </trkpt>
      <trkpt lat="46.40539" lon="-0.42618">
        <ele>20.2817</ele>
        <time>2011-02-27T14:37:59Z</time>
      </trkpt>
      <trkpt lat="46.4054" lon="-0.42618">
        <ele>20.3006</ele>
        <time>2011-02-27T14:38:00Z</time>
      </trkpt>
      <trkpt lat="46.40542" lon="-0.42618">
        <ele>20.3233</ele>
        <time>2011-02-27T14:38:01Z</time>
      </trkpt>
      <trkpt lat="46.40542" lon="-0.42617">
        <ele>20.3717</ele>
        <time>2011-02-27T14:38:02Z</time>
      </trkpt>
      <trkpt lat="46.40543" lon="-0.42617">
        <ele>20.4195</ele>
        <time>2011-02-27T14:38:03Z</time>
      </trkpt>
      <trkpt lat="46.40545" lon="-0.42618">
        <ele>20.4891</ele>
        <time>2011-02-27T14:38:04Z</time>
      </trkpt>
      <trkpt lat="46.40545" lon="-0.42618">
        <ele>20.5591</ele>
        <time>2011-02-27T14:38:05Z</time>
      </trkpt>
      <trkpt lat="46.40546" lon="-0.42618">
        <ele>20.6266</ele>
        <time>2011-02-27T14:38:06Z</time>
      </trkpt>
      <trkpt lat="46.40548" lon="-0.42618">
        <ele>20.6801</ele>
        <time>2011-02-27T14:38:07Z</time>
      </trkpt>
      <trkpt lat="46.40548" lon="-0.42618">
        <ele>20.7248</ele>
        <time>2011-02-27T14:38:08Z</time>
      </trkpt>
      <trkpt lat="46.4055" lon="-0.42618">
        <ele>20.7666</ele>
        <time>2011-02-27T14:38:09Z</time>
      </trkpt>
      <trkpt lat="46.40551" lon="-0.42618">
        <ele>20.8125</ele>
        <time>2011-02-27T14:38:10Z</time>
      </trkpt>
      <trkpt lat="46.40552" lon="-0.42618">
        <ele>20.8494</ele>
        <time>2011-02-27T14:38:11Z</time>
      </trkpt>
      <trkpt lat="46.40553" lon="-0.42618">
        <ele>20.8902</ele>
        <time>2011-02-27T14:38:12Z</time>
      </trkpt>
      <trkpt lat="46.40554" lon="-0.42618">
        <ele>20.9308</ele>
        <time>2011-02-27T14:38:13Z</time>
      </trkpt>
      <trkpt lat="46.40556" lon="-0.42619">
        <ele>20.9671</ele>
        <time>2011-02-27T14:38:14Z</time>
      </trkpt>
      <trkpt lat="46.40557" lon="-0.4262">
        <ele>20.9912</ele>
        <time>2011-02-27T14:38:15Z</time>
      </trkpt>
      <trkpt lat="46.40558" lon="-0.42621">
        <ele>21.0071</ele>
        <time>2011-02-27T14:38:16Z</time>
      </trkpt>
      <trkpt lat="46.40559" lon="-0.42622">
        <ele>21.0123</ele>
        <time>2011-02-27T14:38:17Z</time>
      </trkpt>
      <trkpt lat="46.40561" lon="-0.42622">
        <ele>21.017</ele>
        <time>2011-02-27T14:38:18Z</time>
      </trkpt>
      <trkpt lat="46.40562" lon="-0.42623">
        <ele>21.0222</ele>
        <time>2011-02-27T14:38:19Z</time>
      </trkpt>
      <trkpt lat="46.40563" lon="-0.42623">
        <ele>21.0292</ele>
        <time>2011-02-27T14:38:20Z</time>
      </trkpt>
      <trkpt lat="46.40564" lon="-0.42624">
        <ele>21.0352</ele>
        <time>2011-02-27T14:38:21Z</time>
      </trkpt>
      <trkpt lat="46.40565" lon="-0.42624">
        <ele>21.0421</ele>
        <time>2011-02-27T14:38:22Z</time>
      </trkpt>
      <trkpt lat="46.40566" lon="-0.42624">
        <ele>21.0499</ele>
        <time>2011-02-27T14:38:23Z</time>
      </trkpt>
      <trkpt lat="46.40566" lon="-0.42624">
        <ele>21.0538</ele>
        <time>2011-02-27T14:38:24Z</time>
      </trkpt>
      <trkpt lat="46.40567" lon="-0.42624">
        <ele>21.0602</ele>
        <time>2011-02-27T14:38:25Z</time>
      </trkpt>
      <trkpt lat="46.40568" lon="-0.42624">
        <ele>21.0759</ele>
        <time>2011-02-27T14:38:26Z</time>
      </trkpt>
      <trkpt lat="46.40569" lon="-0.42624">
        <ele>21.1036</ele>
        <time>2011-02-27T14:38:27Z</time>
      </trkpt>
      <trkpt lat="46.40569" lon="-0.42625">
        <ele>21.1391</ele>
        <time>2011-02-27T14:38:28Z</time>
      </trkpt>
      <trkpt lat="46.4057" lon="-0.42625">
        <ele>21.1865</ele>
        <time>2011-02-27T14:38:29Z</time>
      </trkpt>
      <trkpt lat="46.40571" lon="-0.42625">
        <ele>21.2277</ele>
        <time>2011-02-27T14:38:30Z</time>
      </trkpt>
      <trkpt lat="46.40572" lon="-0.42625">
        <ele>21.2731</ele>
        <time>2011-02-27T14:38:31Z</time>
      </trkpt>
      <trkpt lat="46.40574" lon="-0.42625">
        <ele>21.3156</ele>
        <time>2011-02-27T14:38:32Z</time>
      </trkpt>
      <trkpt lat="46.40575" lon="-0.42625">
        <ele>21.3515</ele>
        <time>2011-02-27T14:38:33Z</time>
      </trkpt>
      <trkpt lat="46.40577" lon="-0.42625">
        <ele>21.3894</ele>
        <time>2011-02-27T14:38:34Z</time>
      </trkpt>
      <trkpt lat="46.40578" lon="-0.42626">
        <ele>21.4268</ele>
        <time>2011-02-27T14:38:35Z</time>
      </trkpt>
      <trkpt lat="46.40579" lon="-0.42627">
        <ele>21.4647</ele>
        <time>2011-02-27T14:38:36Z</time>
      </trkpt>
      <trkpt lat="46.4058" lon="-0.42627">
        <ele>21.5098</ele>
        <time>2011-02-27T14:38:37Z</time>
      </trkpt>
      <trkpt lat="46.40582" lon="-0.42627">
        <ele>21.5578</ele>
        <time>2011-02-27T14:38:38Z</time>
      </trkpt>
      <trkpt lat="46.40583" lon="-0.42627">
        <ele>21.6151</ele>
        <time>2011-02-27T14:38:39Z</time>
      </trkpt>
      <trkpt lat="46.40585" lon="-0.42626">
        <ele>21.6767</ele>
        <time>2011-02-27T14:38:40Z</time>
      </trkpt>
      <trkpt lat="46.40587" lon="-0.42625">
        <ele>21.7419</ele>
        <time>2011-02-27T14:38:41Z</time>
      </trkpt>
      <trkpt lat="46.40588" lon="-0.42625">
        <ele>21.7927</ele>
        <time>2011-02-27T14:38:42Z</time>
      </trkpt>
      <trkpt lat="46.40589" lon="-0.42624">
        <ele>21.8441</ele>
        <time>2011-02-27T14:38:43Z</time>
      </trkpt>
      <trkpt lat="46.40591" lon="-0.42624">
        <ele>21.8948</ele>
        <time>2011-02-27T14:38:44Z</time>
      </trkpt>
      <trkpt lat="46.40592" lon="-0.42624">
        <ele>21.9406</ele>
        <time>2011-02-27T14:38:45Z</time>
      </trkpt>
      <trkpt lat="46.40594" lon="-0.42624">
        <ele>21.9858</ele>
        <time>2011-02-27T14:38:46Z</time>
      </trkpt>
      <trkpt lat="46.40595" lon="-0.42624">
        <ele>22.0294</ele>
        <time>2011-02-27T14:38:47Z</time>
      </trkpt>
      <trkpt lat="46.40596" lon="-0.42625">
        <ele>22.0651</ele>
        <time>2011-02-27T14:38:48Z</time>
      </trkpt>
      <trkpt lat="46.40598" lon="-0.42625">
        <ele>22.0939</ele>
        <time>2011-02-27T14:38:49Z</time>
      </trkpt>
      <trkpt lat="46.40599" lon="-0.42626">
        <ele>22.1248</ele>
        <time>2011-02-27T14:38:50Z</time>
      </trkpt>
      <trkpt lat="46.406" lon="-0.42627">
        <ele>22.156</ele>
        <time>2011-02-27T14:38:51Z</time>
      </trkpt>
      <trkpt lat="46.40601" lon="-0.42627">
        <ele>22.1803</ele>
        <time>2011-02-27T14:38:52Z</time>
      </trkpt>
      <trkpt lat="46.40602" lon="-0.42629">
        <ele>22.2048</ele>
        <time>2011-02-27T14:38:53Z</time>
      </trkpt>
      <trkpt lat="46.40603" lon="-0.4263">
        <ele>22.2362</ele>
        <time>2011-02-27T14:38:54Z</time>
      </trkpt>
      <trkpt lat="46.40604" lon="-0.4263">
        <ele>22.2752</ele>
        <time>2011-02-27T14:38:55Z</time>
      </trkpt>
      <trkpt lat="46.40605" lon="-0.4263">
        <ele>22.3131</ele>
        <time>2011-02-27T14:38:56Z</time>
      </trkpt>
      <trkpt lat="46.40606" lon="-0.42631">
        <ele>22.3545</ele>
        <time>2011-02-27T14:38:57Z</time>
      </trkpt>
      <trkpt lat="46.40608" lon="-0.42631">
        <ele>22.3945</ele>
        <time>2011-02-27T14:38:58Z</time>
      </trkpt>
      <trkpt lat="46.40608" lon="-0.4263">
        <ele>22.4302</ele>
        <time>2011-02-27T14:38:59Z</time>
      </trkpt>
      <trkpt lat="46.40613" lon="-0.42633">
        <ele>22.4556</ele>
        <time>2011-02-27T14:39:16Z</time>
      </trkpt>
      <trkpt lat="46.40614" lon="-0.42636">
        <ele>22.6187</ele>
        <time>2011-02-27T14:39:21Z</time>
      </trkpt>
      <trkpt lat="46.40614" lon="-0.42636">
        <ele>22.6674</ele>
        <time>2011-02-27T14:39:22Z</time>
      </trkpt>
      <trkpt lat="46.40615" lon="-0.42636">
        <ele>22.7146</ele>
        <time>2011-02-27T14:39:23Z</time>
      </trkpt>
      <trkpt lat="46.40615" lon="-0.42635">
        <ele>22.7587</ele>
        <time>2011-02-27T14:39:24Z</time>
      </trkpt>
      <trkpt lat="46.40616" lon="-0.42635">
        <ele>22.7994</ele>
        <time>2011-02-27T14:39:25Z</time>
      </trkpt>
      <trkpt lat="46.40616" lon="-0.42634">
        <ele>22.8434</ele>
        <time>2011-02-27T14:39:26Z</time>
      </trkpt>
      <trkpt lat="46.40617" lon="-0.42634">
        <ele>22.89</ele>
        <time>2011-02-27T14:39:27Z</time>
      </trkpt>
      <trkpt lat="46.40617" lon="-0.42634">
        <ele>22.9331</ele>
        <time>2011-02-27T14:39:28Z</time>
      </trkpt>
      <trkpt lat="46.40618" lon="-0.42633">
        <ele>22.9926</ele>
        <time>2011-02-27T14:39:31Z</time>
      </trkpt>
      <trkpt lat="46.40619" lon="-0.42633">
        <ele>23.0454</ele>
        <time>2011-02-27T14:39:32Z</time>
      </trkpt>
      <trkpt lat="46.4062" lon="-0.42633">
        <ele>23.1016</ele>
        <time>2011-02-27T14:39:33Z</time>
      </trkpt>
      <trkpt lat="46.40621" lon="-0.42633">
        <ele>23.1578</ele>
        <time>2011-02-27T14:39:34Z</time>
      </trkpt>
      <trkpt lat="46.40621" lon="-0.42633">
        <ele>23.2144</ele>
        <time>2011-02-27T14:39:35Z</time>
      </trkpt>
      <trkpt lat="46.40622" lon="-0.42633">
        <ele>23.2692</ele>
        <time>2011-02-27T14:39:36Z</time>
      </trkpt>
      <trkpt lat="46.40622" lon="-0.42634">
        <ele>23.3249</ele>
        <time>2011-02-27T14:39:37Z</time>
      </trkpt>
      <trkpt lat="46.40624" lon="-0.42634">
        <ele>23.3804</ele>
        <time>2011-02-27T14:39:38Z</time>
      </trkpt>
      <trkpt lat="46.40624" lon="-0.42634">
        <ele>23.4374</ele>
        <time>2011-02-27T14:39:39Z</time>
      </trkpt>
      <trkpt lat="46.40629" lon="-0.42635">
        <ele>23.6509</ele>
        <time>2011-02-27T14:39:49Z</time>
      </trkpt>
      <trkpt lat="46.40633" lon="-0.42632">
        <ele>23.7584</ele>
        <time>2011-02-27T14:39:54Z</time>
      </trkpt>
      <trkpt lat="46.40636" lon="-0.42626">
        <ele>23.9512</ele>
        <time>2011-02-27T14:40:02Z</time>
      </trkpt>
      <trkpt lat="46.40631" lon="-0.42626">
        <ele>24.2288</ele>
        <time>2011-02-27T14:40:15Z</time>
      </trkpt>
      <trkpt lat="46.40631" lon="-0.42619">
        <ele>24.5717</ele>
        <time>2011-02-27T14:40:31Z</time>
      </trkpt>
      <trkpt lat="46.40636" lon="-0.42619">
        <ele>24.9772</ele>
        <time>2011-02-27T14:40:39Z</time>
      </trkpt>
      <trkpt lat="46.40642" lon="-0.4262">
        <ele>25.5478</ele>
        <time>2011-02-27T14:40:50Z</time>
      </trkpt>
      <trkpt lat="46.40649" lon="-0.42621">
        <ele>25.7511</ele>
        <time>2011-02-27T14:40:52Z</time>
      </trkpt>
      <trkpt lat="46.40654" lon="-0.42623">
        <ele>25.9337</ele>
        <time>2011-02-27T14:40:54Z</time>
      </trkpt>
      <trkpt lat="46.40657" lon="-0.42631">
        <ele>26.2223</ele>
        <time>2011-02-27T14:40:57Z</time>
      </trkpt>
      <trkpt lat="46.40652" lon="-0.42628">
        <ele>26.6851</ele>
        <time>2011-02-27T14:41:02Z</time>
      </trkpt>
      <trkpt lat="46.40649" lon="-0.42635">
        <ele>31.9018</ele>
        <time>2011-02-27T14:41:16Z</time>
      </trkpt>
      <trkpt lat="46.40645" lon="-0.42636">
        <ele>32.814</ele>
        <time>2011-02-27T14:41:26Z</time>
      </trkpt>
      <trkpt lat="46.40642" lon="-0.42629">
        <ele>32.9067</ele>
        <time>2011-02-27T14:41:29Z</time>
      </trkpt>
      <trkpt lat="46.40646" lon="-0.42633">
        <ele>32.9449</ele>
        <time>2011-02-27T14:41:43Z</time>
      </trkpt>
      <trkpt lat="46.40645" lon="-0.42643">
        <ele>32.7532</ele>
        <time>2011-02-27T14:41:47Z</time>
      </trkpt>
      <trkpt lat="46.40646" lon="-0.42651">
        <ele>32.5828</ele>
        <time>2011-02-27T14:41:49Z</time>
      </trkpt>
      <trkpt lat="46.40649" lon="-0.42658">
        <ele>32.4074</ele>
        <time>2011-02-27T14:41:51Z</time>
      </trkpt>
      <trkpt lat="46.40649" lon="-0.42651">
        <ele>31.535</ele>
        <time>2011-02-27T14:41:57Z</time>
      </trkpt>
      <trkpt lat="46.40649" lon="-0.4265">
        <ele>31.3438</ele>
        <time>2011-02-27T14:41:58Z</time>
      </trkpt>
      <trkpt lat="46.40648" lon="-0.42649">
        <ele>31.1781</ele>
        <time>2011-02-27T14:41:59Z</time>
      </trkpt>
      <trkpt lat="46.40648" lon="-0.42648">
        <ele>31.0613</ele>
        <time>2011-02-27T14:42:00Z</time>
      </trkpt>
      <trkpt lat="46.40647" lon="-0.42646">
        <ele>30.9854</ele>
        <time>2011-02-27T14:42:01Z</time>
      </trkpt>
      <trkpt lat="46.40647" lon="-0.42644">
        <ele>30.9232</ele>
        <time>2011-02-27T14:42:02Z</time>
      </trkpt>
      <trkpt lat="46.40646" lon="-0.42642">
        <ele>30.8649</ele>
        <time>2011-02-27T14:42:03Z</time>
      </trkpt>
      <trkpt lat="46.40647" lon="-0.42641">
        <ele>30.8063</ele>
        <time>2011-02-27T14:42:04Z</time>
      </trkpt>
      <trkpt lat="46.40647" lon="-0.4264">
        <ele>30.7514</ele>
        <time>2011-02-27T14:42:05Z</time>
      </trkpt>
      <trkpt lat="46.40648" lon="-0.42639">
        <ele>30.6908</ele>
        <time>2011-02-27T14:42:06Z</time>
      </trkpt>
      <trkpt lat="46.40648" lon="-0.42639">
        <ele>30.6201</ele>
        <time>2011-02-27T14:42:07Z</time>
      </trkpt>
      <trkpt lat="46.40649" lon="-0.42638">
        <ele>30.5469</ele>
        <time>2011-02-27T14:42:08Z</time>
      </trkpt>
      <trkpt lat="46.40653" lon="-0.4264">
        <ele>30.0485</ele>
        <time>2011-02-27T14:42:15Z</time>
      </trkpt>
      <trkpt lat="46.40656" lon="-0.4264">
        <ele>29.8461</ele>
        <time>2011-02-27T14:42:18Z</time>
      </trkpt>
      <trkpt lat="46.4066" lon="-0.42638">
        <ele>29.538</ele>
        <time>2011-02-27T14:42:24Z</time>
      </trkpt>
      <trkpt lat="46.40662" lon="-0.42636">
        <ele>29.3997</ele>
        <time>2011-02-27T14:42:29Z</time>
      </trkpt>
      <trkpt lat="46.40662" lon="-0.42635">
        <ele>29.3447</ele>
        <time>2011-02-27T14:42:30Z</time>
      </trkpt>
      <trkpt lat="46.40663" lon="-0.42633">
        <ele>29.2911</ele>
        <time>2011-02-27T14:42:31Z</time>
      </trkpt>
      <trkpt lat="46.40663" lon="-0.42632">
        <ele>29.242</ele>
        <time>2011-02-27T14:42:32Z</time>
      </trkpt>
      <trkpt lat="46.40663" lon="-0.42631">
        <ele>29.1962</ele>
        <time>2011-02-27T14:42:33Z</time>
      </trkpt>
      <trkpt lat="46.40664" lon="-0.4263">
        <ele>29.1508</ele>
        <time>2011-02-27T14:42:34Z</time>
      </trkpt>
    </trkseg>
  </trk>
</gpx>